<?xml version="1.0" encoding="UTF-8" standalone="no" ?>
<gpx xmlns="http://www.topografix.com/GPX/1/1" xmlns:xsi="http://www.w3.org/2001/XMLSchema-instance" xsi:schemaLocation="http://www.topografix.com/GPX/1/1 http://www.topografix.com/GPX/1/1/gpx.xsd" version="1.1" creator="VisuGPX - https://www.visugpx.com">
  <metadata>
    <name>Grenoble Trail - Rachais direct par Guy Pape et retour par bec du Cordeau - 2021-05-24</name>
  </metadata>
  <trk>
    <name><![CDATA[Grenoble Trail]]></name>
    <trkseg>
      <trkpt lat="45.19648" lon="5.73942">
        <ele>242.80000305176</ele>
        <time>2021-05-24T03:42:26.000Z</time>
      </trkpt>
      <trkpt lat="45.19648" lon="5.73942">
        <ele>242.80000305176</ele>
        <time>2021-05-24T03:42:27.000Z</time>
      </trkpt>
      <trkpt lat="45.19646" lon="5.73945">
        <ele>243</ele>
        <time>2021-05-24T03:42:33.000Z</time>
      </trkpt>
      <trkpt lat="45.19642" lon="5.73949">
        <ele>243.19999694824</ele>
        <time>2021-05-24T03:42:36.000Z</time>
      </trkpt>
      <trkpt lat="45.19642" lon="5.7395">
        <ele>243.19999694824</ele>
        <time>2021-05-24T03:42:37.000Z</time>
      </trkpt>
      <trkpt lat="45.19636" lon="5.7395">
        <ele>243</ele>
        <time>2021-05-24T03:42:41.000Z</time>
      </trkpt>
      <trkpt lat="45.19636" lon="5.7395">
        <ele>243</ele>
        <time>2021-05-24T03:42:42.000Z</time>
      </trkpt>
      <trkpt lat="45.19635" lon="5.73953">
        <ele>243</ele>
        <time>2021-05-24T03:42:45.000Z</time>
      </trkpt>
      <trkpt lat="45.19634" lon="5.73954">
        <ele>243.19999694824</ele>
        <time>2021-05-24T03:42:46.000Z</time>
      </trkpt>
      <trkpt lat="45.19634" lon="5.73955">
        <ele>243.19999694824</ele>
        <time>2021-05-24T03:42:48.000Z</time>
      </trkpt>
      <trkpt lat="45.19634" lon="5.73958">
        <ele>243.19999694824</ele>
        <time>2021-05-24T03:42:50.000Z</time>
      </trkpt>
      <trkpt lat="45.19634" lon="5.73961">
        <ele>243.19999694824</ele>
        <time>2021-05-24T03:42:51.000Z</time>
      </trkpt>
      <trkpt lat="45.19634" lon="5.73964">
        <ele>242.80000305176</ele>
        <time>2021-05-24T03:42:54.000Z</time>
      </trkpt>
      <trkpt lat="45.19632" lon="5.73965">
        <ele>241.60000610352</ele>
        <time>2021-05-24T03:42:56.000Z</time>
      </trkpt>
      <trkpt lat="45.19632" lon="5.73963">
        <ele>241.19999694824</ele>
        <time>2021-05-24T03:42:57.000Z</time>
      </trkpt>
      <trkpt lat="45.19631" lon="5.73957">
        <ele>240.80000305176</ele>
        <time>2021-05-24T03:42:59.000Z</time>
      </trkpt>
      <trkpt lat="45.19631" lon="5.73959">
        <ele>240.60000610352</ele>
        <time>2021-05-24T03:43:01.000Z</time>
      </trkpt>
      <trkpt lat="45.19631" lon="5.7396">
        <ele>240.39999389648</ele>
        <time>2021-05-24T03:43:02.000Z</time>
      </trkpt>
      <trkpt lat="45.1963" lon="5.73961">
        <ele>239.60000610352</ele>
        <time>2021-05-24T03:43:05.000Z</time>
      </trkpt>
      <trkpt lat="45.1963" lon="5.73962">
        <ele>239.19999694824</ele>
        <time>2021-05-24T03:43:06.000Z</time>
      </trkpt>
      <trkpt lat="45.1963" lon="5.73961">
        <ele>238.60000610352</ele>
        <time>2021-05-24T03:43:07.000Z</time>
      </trkpt>
      <trkpt lat="45.1963" lon="5.73961">
        <ele>238.39999389648</ele>
        <time>2021-05-24T03:43:08.000Z</time>
      </trkpt>
      <trkpt lat="45.1963" lon="5.73962">
        <ele>238.19999694824</ele>
        <time>2021-05-24T03:43:09.000Z</time>
      </trkpt>
      <trkpt lat="45.19631" lon="5.73962">
        <ele>238</ele>
        <time>2021-05-24T03:43:10.000Z</time>
      </trkpt>
      <trkpt lat="45.19633" lon="5.73964">
        <ele>237.80000305176</ele>
        <time>2021-05-24T03:43:12.000Z</time>
      </trkpt>
      <trkpt lat="45.19632" lon="5.73963">
        <ele>237.19999694824</ele>
        <time>2021-05-24T03:43:14.000Z</time>
      </trkpt>
      <trkpt lat="45.19631" lon="5.73963">
        <ele>237</ele>
        <time>2021-05-24T03:43:15.000Z</time>
      </trkpt>
      <trkpt lat="45.1963" lon="5.73963">
        <ele>236.60000610352</ele>
        <time>2021-05-24T03:43:16.000Z</time>
      </trkpt>
      <trkpt lat="45.19629" lon="5.73965">
        <ele>236</ele>
        <time>2021-05-24T03:43:18.000Z</time>
      </trkpt>
      <trkpt lat="45.1963" lon="5.73965">
        <ele>235.60000610352</ele>
        <time>2021-05-24T03:43:19.000Z</time>
      </trkpt>
      <trkpt lat="45.1963" lon="5.73964">
        <ele>235.19999694824</ele>
        <time>2021-05-24T03:43:20.000Z</time>
      </trkpt>
      <trkpt lat="45.19629" lon="5.73961">
        <ele>235.19999694824</ele>
        <time>2021-05-24T03:43:23.000Z</time>
      </trkpt>
      <trkpt lat="45.19629" lon="5.73959">
        <ele>235.19999694824</ele>
        <time>2021-05-24T03:43:24.000Z</time>
      </trkpt>
      <trkpt lat="45.1963" lon="5.73959">
        <ele>235</ele>
        <time>2021-05-24T03:43:25.000Z</time>
      </trkpt>
      <trkpt lat="45.19632" lon="5.73961">
        <ele>235</ele>
        <time>2021-05-24T03:43:27.000Z</time>
      </trkpt>
      <trkpt lat="45.19636" lon="5.73963">
        <ele>235.19999694824</ele>
        <time>2021-05-24T03:43:30.000Z</time>
      </trkpt>
      <trkpt lat="45.19642" lon="5.73966">
        <ele>235.19999694824</ele>
        <time>2021-05-24T03:43:32.000Z</time>
      </trkpt>
      <trkpt lat="45.19646" lon="5.73964">
        <ele>235.39999389648</ele>
        <time>2021-05-24T03:43:34.000Z</time>
      </trkpt>
      <trkpt lat="45.19647" lon="5.73964">
        <ele>235.39999389648</ele>
        <time>2021-05-24T03:43:35.000Z</time>
      </trkpt>
      <trkpt lat="45.19651" lon="5.73962">
        <ele>235.39999389648</ele>
        <time>2021-05-24T03:43:37.000Z</time>
      </trkpt>
      <trkpt lat="45.19658" lon="5.73949">
        <ele>235.19999694824</ele>
        <time>2021-05-24T03:43:42.000Z</time>
      </trkpt>
      <trkpt lat="45.1966" lon="5.73948">
        <ele>235.19999694824</ele>
        <time>2021-05-24T03:43:43.000Z</time>
      </trkpt>
      <trkpt lat="45.19662" lon="5.73946">
        <ele>235.19999694824</ele>
        <time>2021-05-24T03:43:44.000Z</time>
      </trkpt>
      <trkpt lat="45.19663" lon="5.73944">
        <ele>235.19999694824</ele>
        <time>2021-05-24T03:43:47.000Z</time>
      </trkpt>
      <trkpt lat="45.19666" lon="5.73946">
        <ele>235.19999694824</ele>
        <time>2021-05-24T03:43:52.000Z</time>
      </trkpt>
      <trkpt lat="45.1967" lon="5.73948">
        <ele>235.19999694824</ele>
        <time>2021-05-24T03:43:54.000Z</time>
      </trkpt>
      <trkpt lat="45.19676" lon="5.73952">
        <ele>235</ele>
        <time>2021-05-24T03:43:58.000Z</time>
      </trkpt>
      <trkpt lat="45.19677" lon="5.73954">
        <ele>235</ele>
        <time>2021-05-24T03:43:59.000Z</time>
      </trkpt>
      <trkpt lat="45.19678" lon="5.73956">
        <ele>235</ele>
        <time>2021-05-24T03:44:00.000Z</time>
      </trkpt>
      <trkpt lat="45.19682" lon="5.73961">
        <ele>234.80000305176</ele>
        <time>2021-05-24T03:44:06.000Z</time>
      </trkpt>
      <trkpt lat="45.19683" lon="5.73969">
        <ele>234.80000305176</ele>
        <time>2021-05-24T03:44:11.000Z</time>
      </trkpt>
      <trkpt lat="45.19683" lon="5.73976">
        <ele>234.80000305176</ele>
        <time>2021-05-24T03:44:13.000Z</time>
      </trkpt>
      <trkpt lat="45.19688" lon="5.73979">
        <ele>234.80000305176</ele>
        <time>2021-05-24T03:44:16.000Z</time>
      </trkpt>
      <trkpt lat="45.19693" lon="5.73979">
        <ele>234.80000305176</ele>
        <time>2021-05-24T03:44:18.000Z</time>
      </trkpt>
      <trkpt lat="45.19696" lon="5.73981">
        <ele>235</ele>
        <time>2021-05-24T03:44:20.000Z</time>
      </trkpt>
      <trkpt lat="45.19696" lon="5.73985">
        <ele>235.19999694824</ele>
        <time>2021-05-24T03:44:21.000Z</time>
      </trkpt>
      <trkpt lat="45.19698" lon="5.73994">
        <ele>235.19999694824</ele>
        <time>2021-05-24T03:44:24.000Z</time>
      </trkpt>
      <trkpt lat="45.197" lon="5.74002">
        <ele>235.19999694824</ele>
        <time>2021-05-24T03:44:26.000Z</time>
      </trkpt>
      <trkpt lat="45.19703" lon="5.74021">
        <ele>235.39999389648</ele>
        <time>2021-05-24T03:44:31.000Z</time>
      </trkpt>
      <trkpt lat="45.19703" lon="5.74031">
        <ele>235.39999389648</ele>
        <time>2021-05-24T03:44:34.000Z</time>
      </trkpt>
      <trkpt lat="45.19702" lon="5.74038">
        <ele>235.60000610352</ele>
        <time>2021-05-24T03:44:36.000Z</time>
      </trkpt>
      <trkpt lat="45.19704" lon="5.74051">
        <ele>235.39999389648</ele>
        <time>2021-05-24T03:44:39.000Z</time>
      </trkpt>
      <trkpt lat="45.19708" lon="5.74072">
        <ele>235.19999694824</ele>
        <time>2021-05-24T03:44:46.000Z</time>
      </trkpt>
      <trkpt lat="45.1971" lon="5.74084">
        <ele>235.39999389648</ele>
        <time>2021-05-24T03:44:50.000Z</time>
      </trkpt>
      <trkpt lat="45.1971" lon="5.74095">
        <ele>235.39999389648</ele>
        <time>2021-05-24T03:44:53.000Z</time>
      </trkpt>
      <trkpt lat="45.19711" lon="5.74103">
        <ele>235.19999694824</ele>
        <time>2021-05-24T03:44:55.000Z</time>
      </trkpt>
      <trkpt lat="45.19711" lon="5.74107">
        <ele>235</ele>
        <time>2021-05-24T03:44:56.000Z</time>
      </trkpt>
      <trkpt lat="45.19713" lon="5.74121">
        <ele>235</ele>
        <time>2021-05-24T03:45:00.000Z</time>
      </trkpt>
      <trkpt lat="45.19717" lon="5.74137">
        <ele>235</ele>
        <time>2021-05-24T03:45:05.000Z</time>
      </trkpt>
      <trkpt lat="45.19718" lon="5.7414">
        <ele>235</ele>
        <time>2021-05-24T03:45:06.000Z</time>
      </trkpt>
      <trkpt lat="45.19723" lon="5.74166">
        <ele>235</ele>
        <time>2021-05-24T03:45:14.000Z</time>
      </trkpt>
      <trkpt lat="45.19724" lon="5.74179">
        <ele>235.39999389648</ele>
        <time>2021-05-24T03:45:18.000Z</time>
      </trkpt>
      <trkpt lat="45.19725" lon="5.74185">
        <ele>235.39999389648</ele>
        <time>2021-05-24T03:45:20.000Z</time>
      </trkpt>
      <trkpt lat="45.19731" lon="5.74205">
        <ele>235.19999694824</ele>
        <time>2021-05-24T03:45:27.000Z</time>
      </trkpt>
      <trkpt lat="45.19732" lon="5.74209">
        <ele>235.19999694824</ele>
        <time>2021-05-24T03:45:29.000Z</time>
      </trkpt>
      <trkpt lat="45.19734" lon="5.74216">
        <ele>235.39999389648</ele>
        <time>2021-05-24T03:45:32.000Z</time>
      </trkpt>
      <trkpt lat="45.19738" lon="5.74224">
        <ele>235.39999389648</ele>
        <time>2021-05-24T03:45:35.000Z</time>
      </trkpt>
      <trkpt lat="45.1974" lon="5.74233">
        <ele>235.39999389648</ele>
        <time>2021-05-24T03:45:38.000Z</time>
      </trkpt>
      <trkpt lat="45.1974" lon="5.74237">
        <ele>236.19999694824</ele>
        <time>2021-05-24T03:45:42.000Z</time>
      </trkpt>
      <trkpt lat="45.19741" lon="5.74238">
        <ele>236.60000610352</ele>
        <time>2021-05-24T03:45:43.000Z</time>
      </trkpt>
      <trkpt lat="45.19742" lon="5.74238">
        <ele>236.80000305176</ele>
        <time>2021-05-24T03:45:44.000Z</time>
      </trkpt>
      <trkpt lat="45.19745" lon="5.74235">
        <ele>237.19999694824</ele>
        <time>2021-05-24T03:45:47.000Z</time>
      </trkpt>
      <trkpt lat="45.19753" lon="5.74231">
        <ele>237.19999694824</ele>
        <time>2021-05-24T03:45:52.000Z</time>
      </trkpt>
      <trkpt lat="45.19761" lon="5.74228">
        <ele>237.19999694824</ele>
        <time>2021-05-24T03:45:58.000Z</time>
      </trkpt>
      <trkpt lat="45.19773" lon="5.74225">
        <ele>237.19999694824</ele>
        <time>2021-05-24T03:46:05.000Z</time>
      </trkpt>
      <trkpt lat="45.19777" lon="5.74225">
        <ele>237.39999389648</ele>
        <time>2021-05-24T03:46:07.000Z</time>
      </trkpt>
      <trkpt lat="45.1979" lon="5.74231">
        <ele>237.19999694824</ele>
        <time>2021-05-24T03:46:16.000Z</time>
      </trkpt>
      <trkpt lat="45.19809" lon="5.74224">
        <ele>237.19999694824</ele>
        <time>2021-05-24T03:46:24.000Z</time>
      </trkpt>
      <trkpt lat="45.19814" lon="5.74222">
        <ele>237.19999694824</ele>
        <time>2021-05-24T03:46:26.000Z</time>
      </trkpt>
      <trkpt lat="45.19816" lon="5.74221">
        <ele>237.19999694824</ele>
        <time>2021-05-24T03:46:27.000Z</time>
      </trkpt>
      <trkpt lat="45.19827" lon="5.74217">
        <ele>237.19999694824</ele>
        <time>2021-05-24T03:46:33.000Z</time>
      </trkpt>
      <trkpt lat="45.19845" lon="5.74211">
        <ele>237.60000610352</ele>
        <time>2021-05-24T03:46:40.000Z</time>
      </trkpt>
      <trkpt lat="45.19855" lon="5.74204">
        <ele>237.60000610352</ele>
        <time>2021-05-24T03:46:44.000Z</time>
      </trkpt>
      <trkpt lat="45.19864" lon="5.74197">
        <ele>237.60000610352</ele>
        <time>2021-05-24T03:46:47.000Z</time>
      </trkpt>
      <trkpt lat="45.1987" lon="5.74192">
        <ele>237.60000610352</ele>
        <time>2021-05-24T03:46:49.000Z</time>
      </trkpt>
      <trkpt lat="45.19878" lon="5.74186">
        <ele>237.60000610352</ele>
        <time>2021-05-24T03:46:52.000Z</time>
      </trkpt>
      <trkpt lat="45.19892" lon="5.74179">
        <ele>237.60000610352</ele>
        <time>2021-05-24T03:46:57.000Z</time>
      </trkpt>
      <trkpt lat="45.19901" lon="5.74174">
        <ele>237.39999389648</ele>
        <time>2021-05-24T03:47:01.000Z</time>
      </trkpt>
      <trkpt lat="45.19903" lon="5.74173">
        <ele>237.39999389648</ele>
        <time>2021-05-24T03:47:02.000Z</time>
      </trkpt>
      <trkpt lat="45.19912" lon="5.74169">
        <ele>237.39999389648</ele>
        <time>2021-05-24T03:47:06.000Z</time>
      </trkpt>
      <trkpt lat="45.19922" lon="5.74166">
        <ele>237.60000610352</ele>
        <time>2021-05-24T03:47:11.000Z</time>
      </trkpt>
      <trkpt lat="45.1993" lon="5.74162">
        <ele>237.60000610352</ele>
        <time>2021-05-24T03:47:14.000Z</time>
      </trkpt>
      <trkpt lat="45.19934" lon="5.74158">
        <ele>237.60000610352</ele>
        <time>2021-05-24T03:47:16.000Z</time>
      </trkpt>
      <trkpt lat="45.19949" lon="5.74149">
        <ele>237.60000610352</ele>
        <time>2021-05-24T03:47:22.000Z</time>
      </trkpt>
      <trkpt lat="45.19951" lon="5.74147">
        <ele>237.80000305176</ele>
        <time>2021-05-24T03:47:23.000Z</time>
      </trkpt>
      <trkpt lat="45.19967" lon="5.74133">
        <ele>237.60000610352</ele>
        <time>2021-05-24T03:47:30.000Z</time>
      </trkpt>
      <trkpt lat="45.19971" lon="5.74129">
        <ele>237.60000610352</ele>
        <time>2021-05-24T03:47:32.000Z</time>
      </trkpt>
      <trkpt lat="45.19976" lon="5.74122">
        <ele>237.60000610352</ele>
        <time>2021-05-24T03:47:37.000Z</time>
      </trkpt>
      <trkpt lat="45.19985" lon="5.74113">
        <ele>236.80000305176</ele>
        <time>2021-05-24T03:47:42.000Z</time>
      </trkpt>
      <trkpt lat="45.19986" lon="5.74111">
        <ele>236.60000610352</ele>
        <time>2021-05-24T03:47:43.000Z</time>
      </trkpt>
      <trkpt lat="45.19994" lon="5.74099">
        <ele>235.60000610352</ele>
        <time>2021-05-24T03:47:47.000Z</time>
      </trkpt>
      <trkpt lat="45.19995" lon="5.74098">
        <ele>235.60000610352</ele>
        <time>2021-05-24T03:47:48.000Z</time>
      </trkpt>
      <trkpt lat="45.20003" lon="5.74086">
        <ele>235.19999694824</ele>
        <time>2021-05-24T03:47:52.000Z</time>
      </trkpt>
      <trkpt lat="45.20006" lon="5.74083">
        <ele>235.19999694824</ele>
        <time>2021-05-24T03:47:54.000Z</time>
      </trkpt>
      <trkpt lat="45.20008" lon="5.74081">
        <ele>235</ele>
        <time>2021-05-24T03:47:56.000Z</time>
      </trkpt>
      <trkpt lat="45.20028" lon="5.74056">
        <ele>235.19999694824</ele>
        <time>2021-05-24T03:48:09.000Z</time>
      </trkpt>
      <trkpt lat="45.20043" lon="5.74034">
        <ele>236.39999389648</ele>
        <time>2021-05-24T03:48:13.000Z</time>
      </trkpt>
      <trkpt lat="45.20045" lon="5.74031">
        <ele>236.80000305176</ele>
        <time>2021-05-24T03:48:14.000Z</time>
      </trkpt>
      <trkpt lat="45.2005" lon="5.74017">
        <ele>237.39999389648</ele>
        <time>2021-05-24T03:48:20.000Z</time>
      </trkpt>
      <trkpt lat="45.20054" lon="5.74009">
        <ele>237.60000610352</ele>
        <time>2021-05-24T03:48:24.000Z</time>
      </trkpt>
      <trkpt lat="45.20058" lon="5.74005">
        <ele>237.39999389648</ele>
        <time>2021-05-24T03:48:26.000Z</time>
      </trkpt>
      <trkpt lat="45.2006" lon="5.74002">
        <ele>237.19999694824</ele>
        <time>2021-05-24T03:48:27.000Z</time>
      </trkpt>
      <trkpt lat="45.20065" lon="5.73996">
        <ele>237</ele>
        <time>2021-05-24T03:48:30.000Z</time>
      </trkpt>
      <trkpt lat="45.20069" lon="5.73992">
        <ele>236.80000305176</ele>
        <time>2021-05-24T03:48:33.000Z</time>
      </trkpt>
      <trkpt lat="45.2007" lon="5.7399">
        <ele>236.80000305176</ele>
        <time>2021-05-24T03:48:34.000Z</time>
      </trkpt>
      <trkpt lat="45.2007" lon="5.73988">
        <ele>236.80000305176</ele>
        <time>2021-05-24T03:48:35.000Z</time>
      </trkpt>
      <trkpt lat="45.20077" lon="5.73976">
        <ele>236.60000610352</ele>
        <time>2021-05-24T03:48:39.000Z</time>
      </trkpt>
      <trkpt lat="45.20078" lon="5.73974">
        <ele>236.60000610352</ele>
        <time>2021-05-24T03:48:40.000Z</time>
      </trkpt>
      <trkpt lat="45.20093" lon="5.73956">
        <ele>236.19999694824</ele>
        <time>2021-05-24T03:48:47.000Z</time>
      </trkpt>
      <trkpt lat="45.20096" lon="5.73953">
        <ele>236</ele>
        <time>2021-05-24T03:48:48.000Z</time>
      </trkpt>
      <trkpt lat="45.20099" lon="5.73948">
        <ele>236.39999389648</ele>
        <time>2021-05-24T03:48:50.000Z</time>
      </trkpt>
      <trkpt lat="45.20105" lon="5.7394">
        <ele>236.39999389648</ele>
        <time>2021-05-24T03:48:53.000Z</time>
      </trkpt>
      <trkpt lat="45.20108" lon="5.73933">
        <ele>236.39999389648</ele>
        <time>2021-05-24T03:48:55.000Z</time>
      </trkpt>
      <trkpt lat="45.2011" lon="5.73931">
        <ele>236.39999389648</ele>
        <time>2021-05-24T03:48:56.000Z</time>
      </trkpt>
      <trkpt lat="45.20116" lon="5.73922">
        <ele>236.60000610352</ele>
        <time>2021-05-24T03:48:59.000Z</time>
      </trkpt>
      <trkpt lat="45.20126" lon="5.73909">
        <ele>236.80000305176</ele>
        <time>2021-05-24T03:49:04.000Z</time>
      </trkpt>
      <trkpt lat="45.2014" lon="5.73889">
        <ele>236.60000610352</ele>
        <time>2021-05-24T03:49:11.000Z</time>
      </trkpt>
      <trkpt lat="45.20151" lon="5.73869">
        <ele>236.60000610352</ele>
        <time>2021-05-24T03:49:18.000Z</time>
      </trkpt>
      <trkpt lat="45.2016" lon="5.73851">
        <ele>236.60000610352</ele>
        <time>2021-05-24T03:49:24.000Z</time>
      </trkpt>
      <trkpt lat="45.20161" lon="5.73847">
        <ele>236.60000610352</ele>
        <time>2021-05-24T03:49:25.000Z</time>
      </trkpt>
      <trkpt lat="45.2017" lon="5.73825">
        <ele>236.60000610352</ele>
        <time>2021-05-24T03:49:32.000Z</time>
      </trkpt>
      <trkpt lat="45.20171" lon="5.73819">
        <ele>236.39999389648</ele>
        <time>2021-05-24T03:49:34.000Z</time>
      </trkpt>
      <trkpt lat="45.20174" lon="5.73802">
        <ele>236.39999389648</ele>
        <time>2021-05-24T03:49:40.000Z</time>
      </trkpt>
      <trkpt lat="45.20173" lon="5.73779">
        <ele>236.60000610352</ele>
        <time>2021-05-24T03:49:47.000Z</time>
      </trkpt>
      <trkpt lat="45.20173" lon="5.73762">
        <ele>236.60000610352</ele>
        <time>2021-05-24T03:49:52.000Z</time>
      </trkpt>
      <trkpt lat="45.20173" lon="5.73759">
        <ele>236.60000610352</ele>
        <time>2021-05-24T03:49:53.000Z</time>
      </trkpt>
      <trkpt lat="45.20172" lon="5.73744">
        <ele>236.60000610352</ele>
        <time>2021-05-24T03:49:58.000Z</time>
      </trkpt>
      <trkpt lat="45.20172" lon="5.73741">
        <ele>236.60000610352</ele>
        <time>2021-05-24T03:49:59.000Z</time>
      </trkpt>
      <trkpt lat="45.20169" lon="5.73719">
        <ele>236.80000305176</ele>
        <time>2021-05-24T03:50:06.000Z</time>
      </trkpt>
      <trkpt lat="45.20163" lon="5.73693">
        <ele>236.80000305176</ele>
        <time>2021-05-24T03:50:13.000Z</time>
      </trkpt>
      <trkpt lat="45.20157" lon="5.73683">
        <ele>236.80000305176</ele>
        <time>2021-05-24T03:50:16.000Z</time>
      </trkpt>
      <trkpt lat="45.20157" lon="5.73678">
        <ele>236.80000305176</ele>
        <time>2021-05-24T03:50:17.000Z</time>
      </trkpt>
      <trkpt lat="45.20156" lon="5.73669">
        <ele>236.80000305176</ele>
        <time>2021-05-24T03:50:19.000Z</time>
      </trkpt>
      <trkpt lat="45.2015" lon="5.73645">
        <ele>236.80000305176</ele>
        <time>2021-05-24T03:50:26.000Z</time>
      </trkpt>
      <trkpt lat="45.20143" lon="5.7362">
        <ele>236.80000305176</ele>
        <time>2021-05-24T03:50:33.000Z</time>
      </trkpt>
      <trkpt lat="45.20134" lon="5.73604">
        <ele>236.60000610352</ele>
        <time>2021-05-24T03:50:39.000Z</time>
      </trkpt>
      <trkpt lat="45.20125" lon="5.73586">
        <ele>236.80000305176</ele>
        <time>2021-05-24T03:50:45.000Z</time>
      </trkpt>
      <trkpt lat="45.20116" lon="5.73573">
        <ele>236.80000305176</ele>
        <time>2021-05-24T03:50:50.000Z</time>
      </trkpt>
      <trkpt lat="45.20108" lon="5.73557">
        <ele>236.60000610352</ele>
        <time>2021-05-24T03:50:56.000Z</time>
      </trkpt>
      <trkpt lat="45.20098" lon="5.73542">
        <ele>236.80000305176</ele>
        <time>2021-05-24T03:51:02.000Z</time>
      </trkpt>
      <trkpt lat="45.20086" lon="5.73522">
        <ele>236.80000305176</ele>
        <time>2021-05-24T03:51:09.000Z</time>
      </trkpt>
      <trkpt lat="45.20085" lon="5.73519">
        <ele>236.80000305176</ele>
        <time>2021-05-24T03:51:10.000Z</time>
      </trkpt>
      <trkpt lat="45.20071" lon="5.73508">
        <ele>237</ele>
        <time>2021-05-24T03:51:16.000Z</time>
      </trkpt>
      <trkpt lat="45.20051" lon="5.73501">
        <ele>237</ele>
        <time>2021-05-24T03:51:23.000Z</time>
      </trkpt>
      <trkpt lat="45.20034" lon="5.73494">
        <ele>236.60000610352</ele>
        <time>2021-05-24T03:51:30.000Z</time>
      </trkpt>
      <trkpt lat="45.2003" lon="5.73493">
        <ele>236.39999389648</ele>
        <time>2021-05-24T03:51:31.000Z</time>
      </trkpt>
      <trkpt lat="45.20015" lon="5.7348">
        <ele>236</ele>
        <time>2021-05-24T03:51:38.000Z</time>
      </trkpt>
      <trkpt lat="45.20011" lon="5.73479">
        <ele>236</ele>
        <time>2021-05-24T03:51:39.000Z</time>
      </trkpt>
      <trkpt lat="45.20005" lon="5.73474">
        <ele>236</ele>
        <time>2021-05-24T03:51:42.000Z</time>
      </trkpt>
      <trkpt lat="45.19994" lon="5.73463">
        <ele>236.39999389648</ele>
        <time>2021-05-24T03:51:48.000Z</time>
      </trkpt>
      <trkpt lat="45.19992" lon="5.73462">
        <ele>236.39999389648</ele>
        <time>2021-05-24T03:51:49.000Z</time>
      </trkpt>
      <trkpt lat="45.19974" lon="5.73451">
        <ele>236.60000610352</ele>
        <time>2021-05-24T03:51:57.000Z</time>
      </trkpt>
      <trkpt lat="45.19969" lon="5.73448">
        <ele>236.80000305176</ele>
        <time>2021-05-24T03:51:59.000Z</time>
      </trkpt>
      <trkpt lat="45.19966" lon="5.73445">
        <ele>236.80000305176</ele>
        <time>2021-05-24T03:52:01.000Z</time>
      </trkpt>
      <trkpt lat="45.19953" lon="5.7344">
        <ele>236.60000610352</ele>
        <time>2021-05-24T03:52:06.000Z</time>
      </trkpt>
      <trkpt lat="45.19937" lon="5.73432">
        <ele>236.60000610352</ele>
        <time>2021-05-24T03:52:13.000Z</time>
      </trkpt>
      <trkpt lat="45.19925" lon="5.73424">
        <ele>236.60000610352</ele>
        <time>2021-05-24T03:52:18.000Z</time>
      </trkpt>
      <trkpt lat="45.19919" lon="5.73422">
        <ele>236.60000610352</ele>
        <time>2021-05-24T03:52:20.000Z</time>
      </trkpt>
      <trkpt lat="45.19904" lon="5.73418">
        <ele>236.39999389648</ele>
        <time>2021-05-24T03:52:26.000Z</time>
      </trkpt>
      <trkpt lat="45.19885" lon="5.73414">
        <ele>236.80000305176</ele>
        <time>2021-05-24T03:52:34.000Z</time>
      </trkpt>
      <trkpt lat="45.19883" lon="5.73414">
        <ele>236.80000305176</ele>
        <time>2021-05-24T03:52:35.000Z</time>
      </trkpt>
      <trkpt lat="45.19877" lon="5.73412">
        <ele>236.80000305176</ele>
        <time>2021-05-24T03:52:38.000Z</time>
      </trkpt>
      <trkpt lat="45.19869" lon="5.7341">
        <ele>236.60000610352</ele>
        <time>2021-05-24T03:52:41.000Z</time>
      </trkpt>
      <trkpt lat="45.19849" lon="5.73406">
        <ele>236.80000305176</ele>
        <time>2021-05-24T03:52:49.000Z</time>
      </trkpt>
      <trkpt lat="45.19847" lon="5.73406">
        <ele>236.80000305176</ele>
        <time>2021-05-24T03:52:50.000Z</time>
      </trkpt>
      <trkpt lat="45.19836" lon="5.73403">
        <ele>237</ele>
        <time>2021-05-24T03:52:55.000Z</time>
      </trkpt>
      <trkpt lat="45.19829" lon="5.734">
        <ele>237</ele>
        <time>2021-05-24T03:52:57.000Z</time>
      </trkpt>
      <trkpt lat="45.19815" lon="5.73393">
        <ele>236.80000305176</ele>
        <time>2021-05-24T03:53:03.000Z</time>
      </trkpt>
      <trkpt lat="45.19813" lon="5.73393">
        <ele>236.80000305176</ele>
        <time>2021-05-24T03:53:04.000Z</time>
      </trkpt>
      <trkpt lat="45.19803" lon="5.73391">
        <ele>237</ele>
        <time>2021-05-24T03:53:08.000Z</time>
      </trkpt>
      <trkpt lat="45.19796" lon="5.73392">
        <ele>237</ele>
        <time>2021-05-24T03:53:11.000Z</time>
      </trkpt>
      <trkpt lat="45.19776" lon="5.73385">
        <ele>237</ele>
        <time>2021-05-24T03:53:18.000Z</time>
      </trkpt>
      <trkpt lat="45.19773" lon="5.73384">
        <ele>236.80000305176</ele>
        <time>2021-05-24T03:53:19.000Z</time>
      </trkpt>
      <trkpt lat="45.19755" lon="5.73377">
        <ele>237.39999389648</ele>
        <time>2021-05-24T03:53:26.000Z</time>
      </trkpt>
      <trkpt lat="45.19753" lon="5.73377">
        <ele>237.60000610352</ele>
        <time>2021-05-24T03:53:27.000Z</time>
      </trkpt>
      <trkpt lat="45.19746" lon="5.73376">
        <ele>237.80000305176</ele>
        <time>2021-05-24T03:53:30.000Z</time>
      </trkpt>
      <trkpt lat="45.19734" lon="5.73374">
        <ele>238.60000610352</ele>
        <time>2021-05-24T03:53:35.000Z</time>
      </trkpt>
      <trkpt lat="45.19732" lon="5.73373">
        <ele>238.80000305176</ele>
        <time>2021-05-24T03:53:36.000Z</time>
      </trkpt>
      <trkpt lat="45.19719" lon="5.73371">
        <ele>239</ele>
        <time>2021-05-24T03:53:41.000Z</time>
      </trkpt>
      <trkpt lat="45.19712" lon="5.73369">
        <ele>239</ele>
        <time>2021-05-24T03:53:44.000Z</time>
      </trkpt>
      <trkpt lat="45.19703" lon="5.73366">
        <ele>238.80000305176</ele>
        <time>2021-05-24T03:53:48.000Z</time>
      </trkpt>
      <trkpt lat="45.197" lon="5.73366">
        <ele>238.60000610352</ele>
        <time>2021-05-24T03:53:49.000Z</time>
      </trkpt>
      <trkpt lat="45.19691" lon="5.73361">
        <ele>238.19999694824</ele>
        <time>2021-05-24T03:53:53.000Z</time>
      </trkpt>
      <trkpt lat="45.19688" lon="5.73358">
        <ele>238</ele>
        <time>2021-05-24T03:53:55.000Z</time>
      </trkpt>
      <trkpt lat="45.19684" lon="5.73352">
        <ele>237.60000610352</ele>
        <time>2021-05-24T03:53:57.000Z</time>
      </trkpt>
      <trkpt lat="45.19675" lon="5.73342">
        <ele>237.60000610352</ele>
        <time>2021-05-24T03:54:01.000Z</time>
      </trkpt>
      <trkpt lat="45.19657" lon="5.73329">
        <ele>237.80000305176</ele>
        <time>2021-05-24T03:54:09.000Z</time>
      </trkpt>
      <trkpt lat="45.19643" lon="5.73315">
        <ele>237.39999389648</ele>
        <time>2021-05-24T03:54:16.000Z</time>
      </trkpt>
      <trkpt lat="45.19639" lon="5.73311">
        <ele>237.39999389648</ele>
        <time>2021-05-24T03:54:18.000Z</time>
      </trkpt>
      <trkpt lat="45.19631" lon="5.73301">
        <ele>237.39999389648</ele>
        <time>2021-05-24T03:54:22.000Z</time>
      </trkpt>
      <trkpt lat="45.19628" lon="5.73296">
        <ele>237.39999389648</ele>
        <time>2021-05-24T03:54:24.000Z</time>
      </trkpt>
      <trkpt lat="45.19624" lon="5.73291">
        <ele>237.60000610352</ele>
        <time>2021-05-24T03:54:26.000Z</time>
      </trkpt>
      <trkpt lat="45.19615" lon="5.73275">
        <ele>238</ele>
        <time>2021-05-24T03:54:32.000Z</time>
      </trkpt>
      <trkpt lat="45.19602" lon="5.73254">
        <ele>238.19999694824</ele>
        <time>2021-05-24T03:54:39.000Z</time>
      </trkpt>
      <trkpt lat="45.196" lon="5.73252">
        <ele>238.19999694824</ele>
        <time>2021-05-24T03:54:40.000Z</time>
      </trkpt>
      <trkpt lat="45.19586" lon="5.73232">
        <ele>238.39999389648</ele>
        <time>2021-05-24T03:54:48.000Z</time>
      </trkpt>
      <trkpt lat="45.19585" lon="5.7323">
        <ele>238.60000610352</ele>
        <time>2021-05-24T03:54:49.000Z</time>
      </trkpt>
      <trkpt lat="45.19584" lon="5.73228">
        <ele>238.60000610352</ele>
        <time>2021-05-24T03:54:50.000Z</time>
      </trkpt>
      <trkpt lat="45.1957" lon="5.73209">
        <ele>238.60000610352</ele>
        <time>2021-05-24T03:54:58.000Z</time>
      </trkpt>
      <trkpt lat="45.19561" lon="5.73202">
        <ele>238.60000610352</ele>
        <time>2021-05-24T03:55:02.000Z</time>
      </trkpt>
      <trkpt lat="45.19559" lon="5.73196">
        <ele>239</ele>
        <time>2021-05-24T03:55:04.000Z</time>
      </trkpt>
      <trkpt lat="45.19548" lon="5.73178">
        <ele>239</ele>
        <time>2021-05-24T03:55:11.000Z</time>
      </trkpt>
      <trkpt lat="45.19543" lon="5.73167">
        <ele>239.39999389648</ele>
        <time>2021-05-24T03:55:15.000Z</time>
      </trkpt>
      <trkpt lat="45.19542" lon="5.73163">
        <ele>239.39999389648</ele>
        <time>2021-05-24T03:55:16.000Z</time>
      </trkpt>
      <trkpt lat="45.19535" lon="5.73151">
        <ele>239.60000610352</ele>
        <time>2021-05-24T03:55:21.000Z</time>
      </trkpt>
      <trkpt lat="45.19528" lon="5.73149">
        <ele>239.60000610352</ele>
        <time>2021-05-24T03:55:23.000Z</time>
      </trkpt>
      <trkpt lat="45.19522" lon="5.73147">
        <ele>239.60000610352</ele>
        <time>2021-05-24T03:55:25.000Z</time>
      </trkpt>
      <trkpt lat="45.19518" lon="5.73144">
        <ele>239.60000610352</ele>
        <time>2021-05-24T03:55:27.000Z</time>
      </trkpt>
      <trkpt lat="45.19516" lon="5.73138">
        <ele>239.80000305176</ele>
        <time>2021-05-24T03:55:29.000Z</time>
      </trkpt>
      <trkpt lat="45.19512" lon="5.73129">
        <ele>239.80000305176</ele>
        <time>2021-05-24T03:55:32.000Z</time>
      </trkpt>
      <trkpt lat="45.19503" lon="5.73112">
        <ele>240</ele>
        <time>2021-05-24T03:55:38.000Z</time>
      </trkpt>
      <trkpt lat="45.19493" lon="5.73093">
        <ele>240</ele>
        <time>2021-05-24T03:55:44.000Z</time>
      </trkpt>
      <trkpt lat="45.19486" lon="5.73081">
        <ele>240.19999694824</ele>
        <time>2021-05-24T03:55:49.000Z</time>
      </trkpt>
      <trkpt lat="45.19473" lon="5.73075">
        <ele>240.19999694824</ele>
        <time>2021-05-24T03:55:55.000Z</time>
      </trkpt>
      <trkpt lat="45.19463" lon="5.7307">
        <ele>240.19999694824</ele>
        <time>2021-05-24T03:55:59.000Z</time>
      </trkpt>
      <trkpt lat="45.19458" lon="5.73067">
        <ele>240</ele>
        <time>2021-05-24T03:56:01.000Z</time>
      </trkpt>
      <trkpt lat="45.19444" lon="5.73051">
        <ele>240</ele>
        <time>2021-05-24T03:56:08.000Z</time>
      </trkpt>
      <trkpt lat="45.19431" lon="5.73032">
        <ele>239.80000305176</ele>
        <time>2021-05-24T03:56:14.000Z</time>
      </trkpt>
      <trkpt lat="45.19429" lon="5.73029">
        <ele>239.80000305176</ele>
        <time>2021-05-24T03:56:15.000Z</time>
      </trkpt>
      <trkpt lat="45.19419" lon="5.73017">
        <ele>239.80000305176</ele>
        <time>2021-05-24T03:56:20.000Z</time>
      </trkpt>
      <trkpt lat="45.19418" lon="5.73011">
        <ele>239.60000610352</ele>
        <time>2021-05-24T03:56:22.000Z</time>
      </trkpt>
      <trkpt lat="45.1942" lon="5.73009">
        <ele>239.60000610352</ele>
        <time>2021-05-24T03:56:23.000Z</time>
      </trkpt>
      <trkpt lat="45.1943" lon="5.72991">
        <ele>239</ele>
        <time>2021-05-24T03:56:29.000Z</time>
      </trkpt>
      <trkpt lat="45.1943" lon="5.72988">
        <ele>239</ele>
        <time>2021-05-24T03:56:30.000Z</time>
      </trkpt>
      <trkpt lat="45.19428" lon="5.7298">
        <ele>239</ele>
        <time>2021-05-24T03:56:32.000Z</time>
      </trkpt>
      <trkpt lat="45.19426" lon="5.72964">
        <ele>238.60000610352</ele>
        <time>2021-05-24T03:56:37.000Z</time>
      </trkpt>
      <trkpt lat="45.19425" lon="5.72962">
        <ele>238.60000610352</ele>
        <time>2021-05-24T03:56:38.000Z</time>
      </trkpt>
      <trkpt lat="45.19424" lon="5.72961">
        <ele>238.60000610352</ele>
        <time>2021-05-24T03:56:39.000Z</time>
      </trkpt>
      <trkpt lat="45.19423" lon="5.72957">
        <ele>238.39999389648</ele>
        <time>2021-05-24T03:56:42.000Z</time>
      </trkpt>
      <trkpt lat="45.19422" lon="5.72953">
        <ele>238.39999389648</ele>
        <time>2021-05-24T03:56:43.000Z</time>
      </trkpt>
      <trkpt lat="45.19419" lon="5.72942">
        <ele>238.19999694824</ele>
        <time>2021-05-24T03:56:46.000Z</time>
      </trkpt>
      <trkpt lat="45.19415" lon="5.72935">
        <ele>238.19999694824</ele>
        <time>2021-05-24T03:56:48.000Z</time>
      </trkpt>
      <trkpt lat="45.19407" lon="5.7293">
        <ele>238</ele>
        <time>2021-05-24T03:56:51.000Z</time>
      </trkpt>
      <trkpt lat="45.19406" lon="5.72929">
        <ele>238</ele>
        <time>2021-05-24T03:56:52.000Z</time>
      </trkpt>
      <trkpt lat="45.19404" lon="5.72928">
        <ele>238</ele>
        <time>2021-05-24T03:56:53.000Z</time>
      </trkpt>
      <trkpt lat="45.19394" lon="5.7292">
        <ele>237.80000305176</ele>
        <time>2021-05-24T03:56:57.000Z</time>
      </trkpt>
      <trkpt lat="45.19383" lon="5.72918">
        <ele>237.80000305176</ele>
        <time>2021-05-24T03:57:01.000Z</time>
      </trkpt>
      <trkpt lat="45.19375" lon="5.7292">
        <ele>237.80000305176</ele>
        <time>2021-05-24T03:57:03.000Z</time>
      </trkpt>
      <trkpt lat="45.19371" lon="5.72919">
        <ele>237.80000305176</ele>
        <time>2021-05-24T03:57:04.000Z</time>
      </trkpt>
      <trkpt lat="45.19363" lon="5.7292">
        <ele>237.80000305176</ele>
        <time>2021-05-24T03:57:06.000Z</time>
      </trkpt>
      <trkpt lat="45.19349" lon="5.7292">
        <ele>238.19999694824</ele>
        <time>2021-05-24T03:57:11.000Z</time>
      </trkpt>
      <trkpt lat="45.19341" lon="5.72919">
        <ele>238.19999694824</ele>
        <time>2021-05-24T03:57:14.000Z</time>
      </trkpt>
      <trkpt lat="45.19333" lon="5.72918">
        <ele>238.19999694824</ele>
        <time>2021-05-24T03:57:17.000Z</time>
      </trkpt>
      <trkpt lat="45.19328" lon="5.72916">
        <ele>238.80000305176</ele>
        <time>2021-05-24T03:57:20.000Z</time>
      </trkpt>
      <trkpt lat="45.19327" lon="5.72914">
        <ele>238.80000305176</ele>
        <time>2021-05-24T03:57:21.000Z</time>
      </trkpt>
      <trkpt lat="45.19324" lon="5.72907">
        <ele>238.80000305176</ele>
        <time>2021-05-24T03:57:24.000Z</time>
      </trkpt>
      <trkpt lat="45.19318" lon="5.72894">
        <ele>238.60000610352</ele>
        <time>2021-05-24T03:57:27.000Z</time>
      </trkpt>
      <trkpt lat="45.1931" lon="5.72873">
        <ele>238.39999389648</ele>
        <time>2021-05-24T03:57:32.000Z</time>
      </trkpt>
      <trkpt lat="45.19309" lon="5.72866">
        <ele>238.39999389648</ele>
        <time>2021-05-24T03:57:34.000Z</time>
      </trkpt>
      <trkpt lat="45.19302" lon="5.72843">
        <ele>237.80000305176</ele>
        <time>2021-05-24T03:57:40.000Z</time>
      </trkpt>
      <trkpt lat="45.19298" lon="5.72823">
        <ele>237.80000305176</ele>
        <time>2021-05-24T03:57:46.000Z</time>
      </trkpt>
      <trkpt lat="45.19297" lon="5.72812">
        <ele>238</ele>
        <time>2021-05-24T03:57:51.000Z</time>
      </trkpt>
      <trkpt lat="45.19299" lon="5.72788">
        <ele>238</ele>
        <time>2021-05-24T03:57:57.000Z</time>
      </trkpt>
      <trkpt lat="45.193" lon="5.72759">
        <ele>237.80000305176</ele>
        <time>2021-05-24T03:58:03.000Z</time>
      </trkpt>
      <trkpt lat="45.19292" lon="5.7274">
        <ele>237.60000610352</ele>
        <time>2021-05-24T03:58:08.000Z</time>
      </trkpt>
      <trkpt lat="45.19288" lon="5.72734">
        <ele>237.60000610352</ele>
        <time>2021-05-24T03:58:10.000Z</time>
      </trkpt>
      <trkpt lat="45.19282" lon="5.72729">
        <ele>237.39999389648</ele>
        <time>2021-05-24T03:58:13.000Z</time>
      </trkpt>
      <trkpt lat="45.19282" lon="5.72727">
        <ele>237.39999389648</ele>
        <time>2021-05-24T03:58:14.000Z</time>
      </trkpt>
      <trkpt lat="45.19276" lon="5.72714">
        <ele>237.39999389648</ele>
        <time>2021-05-24T03:58:18.000Z</time>
      </trkpt>
      <trkpt lat="45.19272" lon="5.72702">
        <ele>237.39999389648</ele>
        <time>2021-05-24T03:58:22.000Z</time>
      </trkpt>
      <trkpt lat="45.19271" lon="5.72696">
        <ele>237.39999389648</ele>
        <time>2021-05-24T03:58:24.000Z</time>
      </trkpt>
      <trkpt lat="45.1927" lon="5.72693">
        <ele>237.39999389648</ele>
        <time>2021-05-24T03:58:25.000Z</time>
      </trkpt>
      <trkpt lat="45.19269" lon="5.72683">
        <ele>237.19999694824</ele>
        <time>2021-05-24T03:58:28.000Z</time>
      </trkpt>
      <trkpt lat="45.1927" lon="5.72675">
        <ele>237.19999694824</ele>
        <time>2021-05-24T03:58:30.000Z</time>
      </trkpt>
      <trkpt lat="45.1927" lon="5.7267">
        <ele>237.19999694824</ele>
        <time>2021-05-24T03:58:31.000Z</time>
      </trkpt>
      <trkpt lat="45.1927" lon="5.72659">
        <ele>237.39999389648</ele>
        <time>2021-05-24T03:58:34.000Z</time>
      </trkpt>
      <trkpt lat="45.19269" lon="5.72639">
        <ele>237.19999694824</ele>
        <time>2021-05-24T03:58:39.000Z</time>
      </trkpt>
      <trkpt lat="45.1927" lon="5.72629">
        <ele>237.19999694824</ele>
        <time>2021-05-24T03:58:41.000Z</time>
      </trkpt>
      <trkpt lat="45.19278" lon="5.72602">
        <ele>237.39999389648</ele>
        <time>2021-05-24T03:58:46.000Z</time>
      </trkpt>
      <trkpt lat="45.19282" lon="5.72594">
        <ele>237.39999389648</ele>
        <time>2021-05-24T03:58:48.000Z</time>
      </trkpt>
      <trkpt lat="45.1929" lon="5.72575">
        <ele>237.60000610352</ele>
        <time>2021-05-24T03:58:53.000Z</time>
      </trkpt>
      <trkpt lat="45.19291" lon="5.72571">
        <ele>237.60000610352</ele>
        <time>2021-05-24T03:58:54.000Z</time>
      </trkpt>
      <trkpt lat="45.19285" lon="5.72547">
        <ele>237.39999389648</ele>
        <time>2021-05-24T03:58:59.000Z</time>
      </trkpt>
      <trkpt lat="45.19284" lon="5.72543">
        <ele>237.39999389648</ele>
        <time>2021-05-24T03:59:00.000Z</time>
      </trkpt>
      <trkpt lat="45.19285" lon="5.7253">
        <ele>237.60000610352</ele>
        <time>2021-05-24T03:59:04.000Z</time>
      </trkpt>
      <trkpt lat="45.19281" lon="5.72511">
        <ele>237.60000610352</ele>
        <time>2021-05-24T03:59:09.000Z</time>
      </trkpt>
      <trkpt lat="45.19281" lon="5.72508">
        <ele>237.60000610352</ele>
        <time>2021-05-24T03:59:10.000Z</time>
      </trkpt>
      <trkpt lat="45.19281" lon="5.72496">
        <ele>238.19999694824</ele>
        <time>2021-05-24T03:59:14.000Z</time>
      </trkpt>
      <trkpt lat="45.19281" lon="5.72493">
        <ele>238.19999694824</ele>
        <time>2021-05-24T03:59:15.000Z</time>
      </trkpt>
      <trkpt lat="45.19279" lon="5.72476">
        <ele>238.39999389648</ele>
        <time>2021-05-24T03:59:20.000Z</time>
      </trkpt>
      <trkpt lat="45.19279" lon="5.72471">
        <ele>238.60000610352</ele>
        <time>2021-05-24T03:59:22.000Z</time>
      </trkpt>
      <trkpt lat="45.19279" lon="5.72468">
        <ele>238.80000305176</ele>
        <time>2021-05-24T03:59:23.000Z</time>
      </trkpt>
      <trkpt lat="45.19278" lon="5.7245">
        <ele>239.19999694824</ele>
        <time>2021-05-24T03:59:29.000Z</time>
      </trkpt>
      <trkpt lat="45.1928" lon="5.72438">
        <ele>239.60000610352</ele>
        <time>2021-05-24T03:59:33.000Z</time>
      </trkpt>
      <trkpt lat="45.19282" lon="5.72435">
        <ele>239.60000610352</ele>
        <time>2021-05-24T03:59:34.000Z</time>
      </trkpt>
      <trkpt lat="45.19288" lon="5.72429">
        <ele>239.60000610352</ele>
        <time>2021-05-24T03:59:36.000Z</time>
      </trkpt>
      <trkpt lat="45.19296" lon="5.72418">
        <ele>240.19999694824</ele>
        <time>2021-05-24T03:59:41.000Z</time>
      </trkpt>
      <trkpt lat="45.19315" lon="5.7241">
        <ele>240.60000610352</ele>
        <time>2021-05-24T03:59:49.000Z</time>
      </trkpt>
      <trkpt lat="45.19317" lon="5.72407">
        <ele>240.60000610352</ele>
        <time>2021-05-24T03:59:50.000Z</time>
      </trkpt>
      <trkpt lat="45.19322" lon="5.72402">
        <ele>240.60000610352</ele>
        <time>2021-05-24T03:59:52.000Z</time>
      </trkpt>
      <trkpt lat="45.19337" lon="5.7239">
        <ele>240.39999389648</ele>
        <time>2021-05-24T03:59:58.000Z</time>
      </trkpt>
      <trkpt lat="45.19354" lon="5.72378">
        <ele>239.80000305176</ele>
        <time>2021-05-24T04:00:05.000Z</time>
      </trkpt>
      <trkpt lat="45.19356" lon="5.72376">
        <ele>239.80000305176</ele>
        <time>2021-05-24T04:00:06.000Z</time>
      </trkpt>
      <trkpt lat="45.19357" lon="5.7237">
        <ele>240</ele>
        <time>2021-05-24T04:00:09.000Z</time>
      </trkpt>
      <trkpt lat="45.19357" lon="5.72364">
        <ele>240</ele>
        <time>2021-05-24T04:00:11.000Z</time>
      </trkpt>
      <trkpt lat="45.19353" lon="5.72346">
        <ele>240.19999694824</ele>
        <time>2021-05-24T04:00:16.000Z</time>
      </trkpt>
      <trkpt lat="45.19345" lon="5.72327">
        <ele>240.80000305176</ele>
        <time>2021-05-24T04:00:22.000Z</time>
      </trkpt>
      <trkpt lat="45.19336" lon="5.72301">
        <ele>241.19999694824</ele>
        <time>2021-05-24T04:00:31.000Z</time>
      </trkpt>
      <trkpt lat="45.19337" lon="5.72296">
        <ele>241.19999694824</ele>
        <time>2021-05-24T04:00:32.000Z</time>
      </trkpt>
      <trkpt lat="45.19338" lon="5.72284">
        <ele>241.19999694824</ele>
        <time>2021-05-24T04:00:35.000Z</time>
      </trkpt>
      <trkpt lat="45.19335" lon="5.72267">
        <ele>241.19999694824</ele>
        <time>2021-05-24T04:00:40.000Z</time>
      </trkpt>
      <trkpt lat="45.19333" lon="5.72264">
        <ele>241.19999694824</ele>
        <time>2021-05-24T04:00:41.000Z</time>
      </trkpt>
      <trkpt lat="45.19329" lon="5.72248">
        <ele>241.19999694824</ele>
        <time>2021-05-24T04:00:46.000Z</time>
      </trkpt>
      <trkpt lat="45.19325" lon="5.72222">
        <ele>240.80000305176</ele>
        <time>2021-05-24T04:00:53.000Z</time>
      </trkpt>
      <trkpt lat="45.19326" lon="5.72218">
        <ele>240.80000305176</ele>
        <time>2021-05-24T04:00:54.000Z</time>
      </trkpt>
      <trkpt lat="45.19327" lon="5.72211">
        <ele>241</ele>
        <time>2021-05-24T04:00:56.000Z</time>
      </trkpt>
      <trkpt lat="45.19328" lon="5.72191">
        <ele>240.80000305176</ele>
        <time>2021-05-24T04:01:01.000Z</time>
      </trkpt>
      <trkpt lat="45.19325" lon="5.72177">
        <ele>240.60000610352</ele>
        <time>2021-05-24T04:01:05.000Z</time>
      </trkpt>
      <trkpt lat="45.19324" lon="5.72162">
        <ele>240.19999694824</ele>
        <time>2021-05-24T04:01:09.000Z</time>
      </trkpt>
      <trkpt lat="45.19325" lon="5.72154">
        <ele>240</ele>
        <time>2021-05-24T04:01:11.000Z</time>
      </trkpt>
      <trkpt lat="45.19323" lon="5.72126">
        <ele>239.80000305176</ele>
        <time>2021-05-24T04:01:19.000Z</time>
      </trkpt>
      <trkpt lat="45.19325" lon="5.72116">
        <ele>239.80000305176</ele>
        <time>2021-05-24T04:01:21.000Z</time>
      </trkpt>
      <trkpt lat="45.19328" lon="5.72105">
        <ele>239.60000610352</ele>
        <time>2021-05-24T04:01:23.000Z</time>
      </trkpt>
      <trkpt lat="45.19329" lon="5.72079">
        <ele>239.19999694824</ele>
        <time>2021-05-24T04:01:29.000Z</time>
      </trkpt>
      <trkpt lat="45.1933" lon="5.7205">
        <ele>238.80000305176</ele>
        <time>2021-05-24T04:01:36.000Z</time>
      </trkpt>
      <trkpt lat="45.19332" lon="5.72042">
        <ele>238.80000305176</ele>
        <time>2021-05-24T04:01:38.000Z</time>
      </trkpt>
      <trkpt lat="45.19336" lon="5.72023">
        <ele>238.60000610352</ele>
        <time>2021-05-24T04:01:42.000Z</time>
      </trkpt>
      <trkpt lat="45.19339" lon="5.72015">
        <ele>238.60000610352</ele>
        <time>2021-05-24T04:01:44.000Z</time>
      </trkpt>
      <trkpt lat="45.19348" lon="5.71994">
        <ele>238.39999389648</ele>
        <time>2021-05-24T04:01:49.000Z</time>
      </trkpt>
      <trkpt lat="45.19349" lon="5.7199">
        <ele>238.39999389648</ele>
        <time>2021-05-24T04:01:50.000Z</time>
      </trkpt>
      <trkpt lat="45.19361" lon="5.71967">
        <ele>238.39999389648</ele>
        <time>2021-05-24T04:01:56.000Z</time>
      </trkpt>
      <trkpt lat="45.19363" lon="5.71964">
        <ele>238.19999694824</ele>
        <time>2021-05-24T04:01:57.000Z</time>
      </trkpt>
      <trkpt lat="45.19374" lon="5.71941">
        <ele>238</ele>
        <time>2021-05-24T04:02:04.000Z</time>
      </trkpt>
      <trkpt lat="45.19386" lon="5.71923">
        <ele>238</ele>
        <time>2021-05-24T04:02:09.000Z</time>
      </trkpt>
      <trkpt lat="45.19389" lon="5.71921">
        <ele>238</ele>
        <time>2021-05-24T04:02:10.000Z</time>
      </trkpt>
      <trkpt lat="45.19405" lon="5.71913">
        <ele>237.39999389648</ele>
        <time>2021-05-24T04:02:16.000Z</time>
      </trkpt>
      <trkpt lat="45.19416" lon="5.71907">
        <ele>237.19999694824</ele>
        <time>2021-05-24T04:02:20.000Z</time>
      </trkpt>
      <trkpt lat="45.19422" lon="5.71904">
        <ele>237</ele>
        <time>2021-05-24T04:02:22.000Z</time>
      </trkpt>
      <trkpt lat="45.19436" lon="5.71903">
        <ele>237</ele>
        <time>2021-05-24T04:02:27.000Z</time>
      </trkpt>
      <trkpt lat="45.19447" lon="5.71901">
        <ele>237</ele>
        <time>2021-05-24T04:02:32.000Z</time>
      </trkpt>
      <trkpt lat="45.19454" lon="5.71898">
        <ele>237</ele>
        <time>2021-05-24T04:02:35.000Z</time>
      </trkpt>
      <trkpt lat="45.19463" lon="5.71894">
        <ele>237</ele>
        <time>2021-05-24T04:02:38.000Z</time>
      </trkpt>
      <trkpt lat="45.19481" lon="5.71894">
        <ele>236.80000305176</ele>
        <time>2021-05-24T04:02:45.000Z</time>
      </trkpt>
      <trkpt lat="45.19492" lon="5.71894">
        <ele>237</ele>
        <time>2021-05-24T04:02:49.000Z</time>
      </trkpt>
      <trkpt lat="45.19505" lon="5.71894">
        <ele>237</ele>
        <time>2021-05-24T04:02:53.000Z</time>
      </trkpt>
      <trkpt lat="45.1952" lon="5.71894">
        <ele>237</ele>
        <time>2021-05-24T04:03:00.000Z</time>
      </trkpt>
      <trkpt lat="45.19538" lon="5.71892">
        <ele>237</ele>
        <time>2021-05-24T04:03:07.000Z</time>
      </trkpt>
      <trkpt lat="45.19549" lon="5.71894">
        <ele>237.39999389648</ele>
        <time>2021-05-24T04:03:11.000Z</time>
      </trkpt>
      <trkpt lat="45.1955" lon="5.71897">
        <ele>237.39999389648</ele>
        <time>2021-05-24T04:03:12.000Z</time>
      </trkpt>
      <trkpt lat="45.19553" lon="5.71901">
        <ele>237.60000610352</ele>
        <time>2021-05-24T04:03:13.000Z</time>
      </trkpt>
      <trkpt lat="45.19554" lon="5.71902">
        <ele>237.60000610352</ele>
        <time>2021-05-24T04:03:14.000Z</time>
      </trkpt>
      <trkpt lat="45.19557" lon="5.71905">
        <ele>238.39999389648</ele>
        <time>2021-05-24T04:03:16.000Z</time>
      </trkpt>
      <trkpt lat="45.19561" lon="5.71908">
        <ele>239.60000610352</ele>
        <time>2021-05-24T04:03:19.000Z</time>
      </trkpt>
      <trkpt lat="45.19563" lon="5.71908">
        <ele>239.80000305176</ele>
        <time>2021-05-24T04:03:20.000Z</time>
      </trkpt>
      <trkpt lat="45.19563" lon="5.7191">
        <ele>240.19999694824</ele>
        <time>2021-05-24T04:03:21.000Z</time>
      </trkpt>
      <trkpt lat="45.19563" lon="5.71912">
        <ele>240.60000610352</ele>
        <time>2021-05-24T04:03:22.000Z</time>
      </trkpt>
      <trkpt lat="45.19562" lon="5.71915">
        <ele>241.19999694824</ele>
        <time>2021-05-24T04:03:24.000Z</time>
      </trkpt>
      <trkpt lat="45.19561" lon="5.71917">
        <ele>241.60000610352</ele>
        <time>2021-05-24T04:03:25.000Z</time>
      </trkpt>
      <trkpt lat="45.19562" lon="5.7192">
        <ele>242</ele>
        <time>2021-05-24T04:03:26.000Z</time>
      </trkpt>
      <trkpt lat="45.19562" lon="5.7193">
        <ele>242.80000305176</ele>
        <time>2021-05-24T04:03:29.000Z</time>
      </trkpt>
      <trkpt lat="45.19564" lon="5.71933">
        <ele>243.19999694824</ele>
        <time>2021-05-24T04:03:30.000Z</time>
      </trkpt>
      <trkpt lat="45.19565" lon="5.71941">
        <ele>244</ele>
        <time>2021-05-24T04:03:33.000Z</time>
      </trkpt>
      <trkpt lat="45.19568" lon="5.71946">
        <ele>244.80000305176</ele>
        <time>2021-05-24T04:03:35.000Z</time>
      </trkpt>
      <trkpt lat="45.19569" lon="5.71948">
        <ele>245</ele>
        <time>2021-05-24T04:03:36.000Z</time>
      </trkpt>
      <trkpt lat="45.19572" lon="5.71951">
        <ele>245.60000610352</ele>
        <time>2021-05-24T04:03:38.000Z</time>
      </trkpt>
      <trkpt lat="45.19574" lon="5.71954">
        <ele>246.19999694824</ele>
        <time>2021-05-24T04:03:40.000Z</time>
      </trkpt>
      <trkpt lat="45.19578" lon="5.7196">
        <ele>247.19999694824</ele>
        <time>2021-05-24T04:03:43.000Z</time>
      </trkpt>
      <trkpt lat="45.19579" lon="5.71962">
        <ele>247.39999389648</ele>
        <time>2021-05-24T04:03:44.000Z</time>
      </trkpt>
      <trkpt lat="45.19581" lon="5.71964">
        <ele>248.39999389648</ele>
        <time>2021-05-24T04:03:46.000Z</time>
      </trkpt>
      <trkpt lat="45.19583" lon="5.71965">
        <ele>248.80000305176</ele>
        <time>2021-05-24T04:03:47.000Z</time>
      </trkpt>
      <trkpt lat="45.19583" lon="5.71966">
        <ele>249</ele>
        <time>2021-05-24T04:03:48.000Z</time>
      </trkpt>
      <trkpt lat="45.19586" lon="5.71968">
        <ele>249.80000305176</ele>
        <time>2021-05-24T04:03:50.000Z</time>
      </trkpt>
      <trkpt lat="45.19589" lon="5.71971">
        <ele>250.60000610352</ele>
        <time>2021-05-24T04:03:52.000Z</time>
      </trkpt>
      <trkpt lat="45.19591" lon="5.71973">
        <ele>251</ele>
        <time>2021-05-24T04:03:54.000Z</time>
      </trkpt>
      <trkpt lat="45.19593" lon="5.71975">
        <ele>251.60000610352</ele>
        <time>2021-05-24T04:03:56.000Z</time>
      </trkpt>
      <trkpt lat="45.19596" lon="5.71977">
        <ele>252.19999694824</ele>
        <time>2021-05-24T04:03:58.000Z</time>
      </trkpt>
      <trkpt lat="45.19597" lon="5.71977">
        <ele>252.39999389648</ele>
        <time>2021-05-24T04:03:59.000Z</time>
      </trkpt>
      <trkpt lat="45.196" lon="5.71979">
        <ele>253</ele>
        <time>2021-05-24T04:04:01.000Z</time>
      </trkpt>
      <trkpt lat="45.19601" lon="5.7198">
        <ele>253.60000610352</ele>
        <time>2021-05-24T04:04:02.000Z</time>
      </trkpt>
      <trkpt lat="45.19604" lon="5.71982">
        <ele>254.19999694824</ele>
        <time>2021-05-24T04:04:04.000Z</time>
      </trkpt>
      <trkpt lat="45.19604" lon="5.71983">
        <ele>254.60000610352</ele>
        <time>2021-05-24T04:04:05.000Z</time>
      </trkpt>
      <trkpt lat="45.1961" lon="5.71986">
        <ele>255.80000305176</ele>
        <time>2021-05-24T04:04:09.000Z</time>
      </trkpt>
      <trkpt lat="45.19612" lon="5.71987">
        <ele>255.80000305176</ele>
        <time>2021-05-24T04:04:10.000Z</time>
      </trkpt>
      <trkpt lat="45.19615" lon="5.71989">
        <ele>256.79998779297</ele>
        <time>2021-05-24T04:04:12.000Z</time>
      </trkpt>
      <trkpt lat="45.19619" lon="5.7199">
        <ele>257.79998779297</ele>
        <time>2021-05-24T04:04:15.000Z</time>
      </trkpt>
      <trkpt lat="45.1962" lon="5.71991">
        <ele>258.39999389648</ele>
        <time>2021-05-24T04:04:16.000Z</time>
      </trkpt>
      <trkpt lat="45.19623" lon="5.71993">
        <ele>259</ele>
        <time>2021-05-24T04:04:18.000Z</time>
      </trkpt>
      <trkpt lat="45.19625" lon="5.71994">
        <ele>259.79998779297</ele>
        <time>2021-05-24T04:04:20.000Z</time>
      </trkpt>
      <trkpt lat="45.19626" lon="5.71995">
        <ele>260.20001220703</ele>
        <time>2021-05-24T04:04:21.000Z</time>
      </trkpt>
      <trkpt lat="45.19628" lon="5.72">
        <ele>261</ele>
        <time>2021-05-24T04:04:23.000Z</time>
      </trkpt>
      <trkpt lat="45.1963" lon="5.72001">
        <ele>261.20001220703</ele>
        <time>2021-05-24T04:04:24.000Z</time>
      </trkpt>
      <trkpt lat="45.19631" lon="5.72003">
        <ele>261.79998779297</ele>
        <time>2021-05-24T04:04:25.000Z</time>
      </trkpt>
      <trkpt lat="45.19632" lon="5.72004">
        <ele>262</ele>
        <time>2021-05-24T04:04:26.000Z</time>
      </trkpt>
      <trkpt lat="45.19633" lon="5.72005">
        <ele>262.39999389648</ele>
        <time>2021-05-24T04:04:27.000Z</time>
      </trkpt>
      <trkpt lat="45.19636" lon="5.72007">
        <ele>263.39999389648</ele>
        <time>2021-05-24T04:04:30.000Z</time>
      </trkpt>
      <trkpt lat="45.19638" lon="5.72008">
        <ele>264.39999389648</ele>
        <time>2021-05-24T04:04:32.000Z</time>
      </trkpt>
      <trkpt lat="45.19639" lon="5.72008">
        <ele>264.60000610352</ele>
        <time>2021-05-24T04:04:33.000Z</time>
      </trkpt>
      <trkpt lat="45.1964" lon="5.72008">
        <ele>265</ele>
        <time>2021-05-24T04:04:34.000Z</time>
      </trkpt>
      <trkpt lat="45.1964" lon="5.72009">
        <ele>265.60000610352</ele>
        <time>2021-05-24T04:04:35.000Z</time>
      </trkpt>
      <trkpt lat="45.19641" lon="5.7201">
        <ele>266</ele>
        <time>2021-05-24T04:04:36.000Z</time>
      </trkpt>
      <trkpt lat="45.19646" lon="5.72012">
        <ele>267.20001220703</ele>
        <time>2021-05-24T04:04:39.000Z</time>
      </trkpt>
      <trkpt lat="45.19647" lon="5.72014">
        <ele>268</ele>
        <time>2021-05-24T04:04:41.000Z</time>
      </trkpt>
      <trkpt lat="45.19649" lon="5.72016">
        <ele>268.39999389648</ele>
        <time>2021-05-24T04:04:43.000Z</time>
      </trkpt>
      <trkpt lat="45.19649" lon="5.72018">
        <ele>268.79998779297</ele>
        <time>2021-05-24T04:04:44.000Z</time>
      </trkpt>
      <trkpt lat="45.19652" lon="5.72023">
        <ele>269.60000610352</ele>
        <time>2021-05-24T04:04:48.000Z</time>
      </trkpt>
      <trkpt lat="45.19656" lon="5.72027">
        <ele>270.20001220703</ele>
        <time>2021-05-24T04:04:51.000Z</time>
      </trkpt>
      <trkpt lat="45.19656" lon="5.72028">
        <ele>270.60000610352</ele>
        <time>2021-05-24T04:04:52.000Z</time>
      </trkpt>
      <trkpt lat="45.19657" lon="5.7203">
        <ele>270.79998779297</ele>
        <time>2021-05-24T04:04:53.000Z</time>
      </trkpt>
      <trkpt lat="45.19657" lon="5.72031">
        <ele>271.20001220703</ele>
        <time>2021-05-24T04:04:54.000Z</time>
      </trkpt>
      <trkpt lat="45.19658" lon="5.72032">
        <ele>271.39999389648</ele>
        <time>2021-05-24T04:04:55.000Z</time>
      </trkpt>
      <trkpt lat="45.19657" lon="5.72033">
        <ele>271.60000610352</ele>
        <time>2021-05-24T04:04:56.000Z</time>
      </trkpt>
      <trkpt lat="45.19656" lon="5.72034">
        <ele>271.79998779297</ele>
        <time>2021-05-24T04:04:57.000Z</time>
      </trkpt>
      <trkpt lat="45.19654" lon="5.7204">
        <ele>272.39999389648</ele>
        <time>2021-05-24T04:05:00.000Z</time>
      </trkpt>
      <trkpt lat="45.19654" lon="5.72043">
        <ele>272.60000610352</ele>
        <time>2021-05-24T04:05:01.000Z</time>
      </trkpt>
      <trkpt lat="45.19653" lon="5.72047">
        <ele>272.79998779297</ele>
        <time>2021-05-24T04:05:03.000Z</time>
      </trkpt>
      <trkpt lat="45.19652" lon="5.72051">
        <ele>273.39999389648</ele>
        <time>2021-05-24T04:05:05.000Z</time>
      </trkpt>
      <trkpt lat="45.19651" lon="5.72055">
        <ele>274</ele>
        <time>2021-05-24T04:05:07.000Z</time>
      </trkpt>
      <trkpt lat="45.19649" lon="5.72058">
        <ele>274.39999389648</ele>
        <time>2021-05-24T04:05:09.000Z</time>
      </trkpt>
      <trkpt lat="45.19646" lon="5.72063">
        <ele>275</ele>
        <time>2021-05-24T04:05:12.000Z</time>
      </trkpt>
      <trkpt lat="45.19645" lon="5.72065">
        <ele>275.39999389648</ele>
        <time>2021-05-24T04:05:14.000Z</time>
      </trkpt>
      <trkpt lat="45.19644" lon="5.72067">
        <ele>276</ele>
        <time>2021-05-24T04:05:16.000Z</time>
      </trkpt>
      <trkpt lat="45.19644" lon="5.72066">
        <ele>276.39999389648</ele>
        <time>2021-05-24T04:05:17.000Z</time>
      </trkpt>
      <trkpt lat="45.19644" lon="5.72064">
        <ele>277.39999389648</ele>
        <time>2021-05-24T04:05:20.000Z</time>
      </trkpt>
      <trkpt lat="45.19646" lon="5.72064">
        <ele>278.39999389648</ele>
        <time>2021-05-24T04:05:23.000Z</time>
      </trkpt>
      <trkpt lat="45.19647" lon="5.72064">
        <ele>278.60000610352</ele>
        <time>2021-05-24T04:05:24.000Z</time>
      </trkpt>
      <trkpt lat="45.1965" lon="5.72065">
        <ele>279.60000610352</ele>
        <time>2021-05-24T04:05:28.000Z</time>
      </trkpt>
      <trkpt lat="45.19651" lon="5.72065">
        <ele>279.79998779297</ele>
        <time>2021-05-24T04:05:29.000Z</time>
      </trkpt>
      <trkpt lat="45.19655" lon="5.72069">
        <ele>281</ele>
        <time>2021-05-24T04:05:33.000Z</time>
      </trkpt>
      <trkpt lat="45.19655" lon="5.72072">
        <ele>281.39999389648</ele>
        <time>2021-05-24T04:05:35.000Z</time>
      </trkpt>
      <trkpt lat="45.19654" lon="5.72076">
        <ele>282</ele>
        <time>2021-05-24T04:05:37.000Z</time>
      </trkpt>
      <trkpt lat="45.19656" lon="5.72078">
        <ele>283</ele>
        <time>2021-05-24T04:05:40.000Z</time>
      </trkpt>
      <trkpt lat="45.19656" lon="5.72078">
        <ele>283.20001220703</ele>
        <time>2021-05-24T04:05:41.000Z</time>
      </trkpt>
      <trkpt lat="45.1966" lon="5.72075">
        <ele>284.20001220703</ele>
        <time>2021-05-24T04:05:45.000Z</time>
      </trkpt>
      <trkpt lat="45.19661" lon="5.72075">
        <ele>284.60000610352</ele>
        <time>2021-05-24T04:05:46.000Z</time>
      </trkpt>
      <trkpt lat="45.19662" lon="5.72076">
        <ele>284.79998779297</ele>
        <time>2021-05-24T04:05:47.000Z</time>
      </trkpt>
      <trkpt lat="45.19662" lon="5.72077">
        <ele>285.39999389648</ele>
        <time>2021-05-24T04:05:49.000Z</time>
      </trkpt>
      <trkpt lat="45.19662" lon="5.72078">
        <ele>285.79998779297</ele>
        <time>2021-05-24T04:05:50.000Z</time>
      </trkpt>
      <trkpt lat="45.19662" lon="5.7208">
        <ele>286.20001220703</ele>
        <time>2021-05-24T04:05:52.000Z</time>
      </trkpt>
      <trkpt lat="45.19662" lon="5.7208">
        <ele>286.39999389648</ele>
        <time>2021-05-24T04:05:53.000Z</time>
      </trkpt>
      <trkpt lat="45.1966" lon="5.72086">
        <ele>287.60000610352</ele>
        <time>2021-05-24T04:05:57.000Z</time>
      </trkpt>
      <trkpt lat="45.1966" lon="5.72087">
        <ele>287.79998779297</ele>
        <time>2021-05-24T04:05:58.000Z</time>
      </trkpt>
      <trkpt lat="45.19661" lon="5.72088">
        <ele>288.39999389648</ele>
        <time>2021-05-24T04:05:59.000Z</time>
      </trkpt>
      <trkpt lat="45.19661" lon="5.72089">
        <ele>288.79998779297</ele>
        <time>2021-05-24T04:06:00.000Z</time>
      </trkpt>
      <trkpt lat="45.1966" lon="5.72091">
        <ele>290</ele>
        <time>2021-05-24T04:06:04.000Z</time>
      </trkpt>
      <trkpt lat="45.1966" lon="5.72093">
        <ele>290.39999389648</ele>
        <time>2021-05-24T04:06:06.000Z</time>
      </trkpt>
      <trkpt lat="45.19661" lon="5.72094">
        <ele>291</ele>
        <time>2021-05-24T04:06:09.000Z</time>
      </trkpt>
      <trkpt lat="45.19662" lon="5.72094">
        <ele>292</ele>
        <time>2021-05-24T04:06:12.000Z</time>
      </trkpt>
      <trkpt lat="45.19662" lon="5.72095">
        <ele>292.20001220703</ele>
        <time>2021-05-24T04:06:13.000Z</time>
      </trkpt>
      <trkpt lat="45.19662" lon="5.72096">
        <ele>292.79998779297</ele>
        <time>2021-05-24T04:06:15.000Z</time>
      </trkpt>
      <trkpt lat="45.19662" lon="5.72097">
        <ele>293.20001220703</ele>
        <time>2021-05-24T04:06:16.000Z</time>
      </trkpt>
      <trkpt lat="45.19662" lon="5.72098">
        <ele>293.39999389648</ele>
        <time>2021-05-24T04:06:17.000Z</time>
      </trkpt>
      <trkpt lat="45.19661" lon="5.72099">
        <ele>293.60000610352</ele>
        <time>2021-05-24T04:06:18.000Z</time>
      </trkpt>
      <trkpt lat="45.1966" lon="5.72101">
        <ele>294.20001220703</ele>
        <time>2021-05-24T04:06:20.000Z</time>
      </trkpt>
      <trkpt lat="45.19659" lon="5.72103">
        <ele>294.79998779297</ele>
        <time>2021-05-24T04:06:21.000Z</time>
      </trkpt>
      <trkpt lat="45.19657" lon="5.72108">
        <ele>295.39999389648</ele>
        <time>2021-05-24T04:06:23.000Z</time>
      </trkpt>
      <trkpt lat="45.19656" lon="5.72115">
        <ele>296</ele>
        <time>2021-05-24T04:06:26.000Z</time>
      </trkpt>
      <trkpt lat="45.19652" lon="5.72128">
        <ele>296.60000610352</ele>
        <time>2021-05-24T04:06:30.000Z</time>
      </trkpt>
      <trkpt lat="45.19643" lon="5.72136">
        <ele>296.60000610352</ele>
        <time>2021-05-24T04:06:36.000Z</time>
      </trkpt>
      <trkpt lat="45.19637" lon="5.72139">
        <ele>296.39999389648</ele>
        <time>2021-05-24T04:06:39.000Z</time>
      </trkpt>
      <trkpt lat="45.19632" lon="5.72139">
        <ele>296.39999389648</ele>
        <time>2021-05-24T04:06:41.000Z</time>
      </trkpt>
      <trkpt lat="45.19628" lon="5.7214">
        <ele>296.20001220703</ele>
        <time>2021-05-24T04:06:43.000Z</time>
      </trkpt>
      <trkpt lat="45.19614" lon="5.72145">
        <ele>295.20001220703</ele>
        <time>2021-05-24T04:06:50.000Z</time>
      </trkpt>
      <trkpt lat="45.19611" lon="5.72146">
        <ele>295</ele>
        <time>2021-05-24T04:06:51.000Z</time>
      </trkpt>
      <trkpt lat="45.19609" lon="5.72146">
        <ele>294.79998779297</ele>
        <time>2021-05-24T04:06:52.000Z</time>
      </trkpt>
      <trkpt lat="45.19605" lon="5.72149">
        <ele>294.60000610352</ele>
        <time>2021-05-24T04:06:55.000Z</time>
      </trkpt>
      <trkpt lat="45.19601" lon="5.72152">
        <ele>294.39999389648</ele>
        <time>2021-05-24T04:06:57.000Z</time>
      </trkpt>
      <trkpt lat="45.19591" lon="5.7216">
        <ele>294.39999389648</ele>
        <time>2021-05-24T04:07:01.000Z</time>
      </trkpt>
      <trkpt lat="45.19589" lon="5.72163">
        <ele>294.60000610352</ele>
        <time>2021-05-24T04:07:02.000Z</time>
      </trkpt>
      <trkpt lat="45.19576" lon="5.72174">
        <ele>294.79998779297</ele>
        <time>2021-05-24T04:07:08.000Z</time>
      </trkpt>
      <trkpt lat="45.19575" lon="5.72178">
        <ele>295.20001220703</ele>
        <time>2021-05-24T04:07:11.000Z</time>
      </trkpt>
      <trkpt lat="45.19575" lon="5.72179">
        <ele>295.79998779297</ele>
        <time>2021-05-24T04:07:12.000Z</time>
      </trkpt>
      <trkpt lat="45.19575" lon="5.7218">
        <ele>296</ele>
        <time>2021-05-24T04:07:13.000Z</time>
      </trkpt>
      <trkpt lat="45.19574" lon="5.72181">
        <ele>296.60000610352</ele>
        <time>2021-05-24T04:07:14.000Z</time>
      </trkpt>
      <trkpt lat="45.1957" lon="5.72183">
        <ele>297.20001220703</ele>
        <time>2021-05-24T04:07:16.000Z</time>
      </trkpt>
      <trkpt lat="45.19562" lon="5.72185">
        <ele>298.20001220703</ele>
        <time>2021-05-24T04:07:20.000Z</time>
      </trkpt>
      <trkpt lat="45.1956" lon="5.72184">
        <ele>298.39999389648</ele>
        <time>2021-05-24T04:07:21.000Z</time>
      </trkpt>
      <trkpt lat="45.19557" lon="5.72184">
        <ele>299</ele>
        <time>2021-05-24T04:07:23.000Z</time>
      </trkpt>
      <trkpt lat="45.19553" lon="5.72183">
        <ele>299.39999389648</ele>
        <time>2021-05-24T04:07:25.000Z</time>
      </trkpt>
      <trkpt lat="45.19546" lon="5.72181">
        <ele>299.60000610352</ele>
        <time>2021-05-24T04:07:28.000Z</time>
      </trkpt>
      <trkpt lat="45.19544" lon="5.7218">
        <ele>299.60000610352</ele>
        <time>2021-05-24T04:07:29.000Z</time>
      </trkpt>
      <trkpt lat="45.1954" lon="5.72179">
        <ele>299.39999389648</ele>
        <time>2021-05-24T04:07:31.000Z</time>
      </trkpt>
      <trkpt lat="45.19538" lon="5.72179">
        <ele>299.20001220703</ele>
        <time>2021-05-24T04:07:32.000Z</time>
      </trkpt>
      <trkpt lat="45.19537" lon="5.72178">
        <ele>299</ele>
        <time>2021-05-24T04:07:33.000Z</time>
      </trkpt>
      <trkpt lat="45.19535" lon="5.72178">
        <ele>299</ele>
        <time>2021-05-24T04:07:34.000Z</time>
      </trkpt>
      <trkpt lat="45.19521" lon="5.72175">
        <ele>299.79998779297</ele>
        <time>2021-05-24T04:07:41.000Z</time>
      </trkpt>
      <trkpt lat="45.19512" lon="5.72175">
        <ele>300.20001220703</ele>
        <time>2021-05-24T04:07:45.000Z</time>
      </trkpt>
      <trkpt lat="45.19505" lon="5.72173">
        <ele>300.60000610352</ele>
        <time>2021-05-24T04:07:48.000Z</time>
      </trkpt>
      <trkpt lat="45.19504" lon="5.72172">
        <ele>300.79998779297</ele>
        <time>2021-05-24T04:07:49.000Z</time>
      </trkpt>
      <trkpt lat="45.19497" lon="5.72169">
        <ele>301.79998779297</ele>
        <time>2021-05-24T04:07:53.000Z</time>
      </trkpt>
      <trkpt lat="45.19493" lon="5.72168">
        <ele>302</ele>
        <time>2021-05-24T04:07:55.000Z</time>
      </trkpt>
      <trkpt lat="45.19491" lon="5.72167">
        <ele>302.39999389648</ele>
        <time>2021-05-24T04:07:56.000Z</time>
      </trkpt>
      <trkpt lat="45.19487" lon="5.72166">
        <ele>302.79998779297</ele>
        <time>2021-05-24T04:07:58.000Z</time>
      </trkpt>
      <trkpt lat="45.19482" lon="5.72167">
        <ele>304</ele>
        <time>2021-05-24T04:08:01.000Z</time>
      </trkpt>
      <trkpt lat="45.19481" lon="5.72168">
        <ele>304.20001220703</ele>
        <time>2021-05-24T04:08:02.000Z</time>
      </trkpt>
      <trkpt lat="45.1948" lon="5.72169">
        <ele>304.39999389648</ele>
        <time>2021-05-24T04:08:03.000Z</time>
      </trkpt>
      <trkpt lat="45.19476" lon="5.7217">
        <ele>305</ele>
        <time>2021-05-24T04:08:05.000Z</time>
      </trkpt>
      <trkpt lat="45.19474" lon="5.72172">
        <ele>305.60000610352</ele>
        <time>2021-05-24T04:08:07.000Z</time>
      </trkpt>
      <trkpt lat="45.19473" lon="5.72174">
        <ele>306.20001220703</ele>
        <time>2021-05-24T04:08:08.000Z</time>
      </trkpt>
      <trkpt lat="45.19474" lon="5.72176">
        <ele>306.79998779297</ele>
        <time>2021-05-24T04:08:10.000Z</time>
      </trkpt>
      <trkpt lat="45.19475" lon="5.72178">
        <ele>307.20001220703</ele>
        <time>2021-05-24T04:08:11.000Z</time>
      </trkpt>
      <trkpt lat="45.19478" lon="5.72184">
        <ele>308</ele>
        <time>2021-05-24T04:08:14.000Z</time>
      </trkpt>
      <trkpt lat="45.19479" lon="5.72185">
        <ele>308.20001220703</ele>
        <time>2021-05-24T04:08:15.000Z</time>
      </trkpt>
      <trkpt lat="45.19482" lon="5.72187">
        <ele>308.79998779297</ele>
        <time>2021-05-24T04:08:17.000Z</time>
      </trkpt>
      <trkpt lat="45.19483" lon="5.7219">
        <ele>309.39999389648</ele>
        <time>2021-05-24T04:08:19.000Z</time>
      </trkpt>
      <trkpt lat="45.19486" lon="5.72192">
        <ele>310.20001220703</ele>
        <time>2021-05-24T04:08:21.000Z</time>
      </trkpt>
      <trkpt lat="45.19487" lon="5.72192">
        <ele>310.39999389648</ele>
        <time>2021-05-24T04:08:22.000Z</time>
      </trkpt>
      <trkpt lat="45.19488" lon="5.72193">
        <ele>311</ele>
        <time>2021-05-24T04:08:23.000Z</time>
      </trkpt>
      <trkpt lat="45.1949" lon="5.72194">
        <ele>311.60000610352</ele>
        <time>2021-05-24T04:08:25.000Z</time>
      </trkpt>
      <trkpt lat="45.19493" lon="5.72195">
        <ele>312.79998779297</ele>
        <time>2021-05-24T04:08:28.000Z</time>
      </trkpt>
      <trkpt lat="45.19494" lon="5.72195">
        <ele>313.20001220703</ele>
        <time>2021-05-24T04:08:29.000Z</time>
      </trkpt>
      <trkpt lat="45.19495" lon="5.72195">
        <ele>313.60000610352</ele>
        <time>2021-05-24T04:08:30.000Z</time>
      </trkpt>
      <trkpt lat="45.19497" lon="5.72194">
        <ele>314</ele>
        <time>2021-05-24T04:08:31.000Z</time>
      </trkpt>
      <trkpt lat="45.19499" lon="5.72194">
        <ele>314.60000610352</ele>
        <time>2021-05-24T04:08:33.000Z</time>
      </trkpt>
      <trkpt lat="45.195" lon="5.72194">
        <ele>315</ele>
        <time>2021-05-24T04:08:34.000Z</time>
      </trkpt>
      <trkpt lat="45.19504" lon="5.72194">
        <ele>315.60000610352</ele>
        <time>2021-05-24T04:08:37.000Z</time>
      </trkpt>
      <trkpt lat="45.19506" lon="5.72196">
        <ele>316</ele>
        <time>2021-05-24T04:08:39.000Z</time>
      </trkpt>
      <trkpt lat="45.19507" lon="5.72199">
        <ele>316.20001220703</ele>
        <time>2021-05-24T04:08:40.000Z</time>
      </trkpt>
      <trkpt lat="45.19514" lon="5.72204">
        <ele>317.20001220703</ele>
        <time>2021-05-24T04:08:45.000Z</time>
      </trkpt>
      <trkpt lat="45.19523" lon="5.72208">
        <ele>318.60000610352</ele>
        <time>2021-05-24T04:08:50.000Z</time>
      </trkpt>
      <trkpt lat="45.19525" lon="5.7221">
        <ele>318.79998779297</ele>
        <time>2021-05-24T04:08:52.000Z</time>
      </trkpt>
      <trkpt lat="45.19525" lon="5.72212">
        <ele>319</ele>
        <time>2021-05-24T04:08:54.000Z</time>
      </trkpt>
      <trkpt lat="45.19527" lon="5.72215">
        <ele>319.39999389648</ele>
        <time>2021-05-24T04:08:56.000Z</time>
      </trkpt>
      <trkpt lat="45.19528" lon="5.72216">
        <ele>319.60000610352</ele>
        <time>2021-05-24T04:08:57.000Z</time>
      </trkpt>
      <trkpt lat="45.1953" lon="5.72219">
        <ele>320.39999389648</ele>
        <time>2021-05-24T04:09:00.000Z</time>
      </trkpt>
      <trkpt lat="45.19531" lon="5.72219">
        <ele>320.60000610352</ele>
        <time>2021-05-24T04:09:01.000Z</time>
      </trkpt>
      <trkpt lat="45.19533" lon="5.72222">
        <ele>321.60000610352</ele>
        <time>2021-05-24T04:09:04.000Z</time>
      </trkpt>
      <trkpt lat="45.19533" lon="5.72223">
        <ele>322</ele>
        <time>2021-05-24T04:09:05.000Z</time>
      </trkpt>
      <trkpt lat="45.19534" lon="5.72224">
        <ele>322.79998779297</ele>
        <time>2021-05-24T04:09:06.000Z</time>
      </trkpt>
      <trkpt lat="45.19535" lon="5.72225">
        <ele>323.20001220703</ele>
        <time>2021-05-24T04:09:07.000Z</time>
      </trkpt>
      <trkpt lat="45.19535" lon="5.72226">
        <ele>323.79998779297</ele>
        <time>2021-05-24T04:09:08.000Z</time>
      </trkpt>
      <trkpt lat="45.19537" lon="5.72227">
        <ele>324.79998779297</ele>
        <time>2021-05-24T04:09:10.000Z</time>
      </trkpt>
      <trkpt lat="45.19539" lon="5.72227">
        <ele>325.39999389648</ele>
        <time>2021-05-24T04:09:12.000Z</time>
      </trkpt>
      <trkpt lat="45.1954" lon="5.72226">
        <ele>325.60000610352</ele>
        <time>2021-05-24T04:09:13.000Z</time>
      </trkpt>
      <trkpt lat="45.19543" lon="5.72224">
        <ele>326</ele>
        <time>2021-05-24T04:09:15.000Z</time>
      </trkpt>
      <trkpt lat="45.19549" lon="5.72225">
        <ele>327</ele>
        <time>2021-05-24T04:09:19.000Z</time>
      </trkpt>
      <trkpt lat="45.19552" lon="5.72226">
        <ele>327</ele>
        <time>2021-05-24T04:09:20.000Z</time>
      </trkpt>
      <trkpt lat="45.19554" lon="5.72227">
        <ele>327.20001220703</ele>
        <time>2021-05-24T04:09:21.000Z</time>
      </trkpt>
      <trkpt lat="45.19561" lon="5.72232">
        <ele>328</ele>
        <time>2021-05-24T04:09:26.000Z</time>
      </trkpt>
      <trkpt lat="45.19567" lon="5.72239">
        <ele>329.20001220703</ele>
        <time>2021-05-24T04:09:31.000Z</time>
      </trkpt>
      <trkpt lat="45.19569" lon="5.72241">
        <ele>329.60000610352</ele>
        <time>2021-05-24T04:09:34.000Z</time>
      </trkpt>
      <trkpt lat="45.19571" lon="5.72243">
        <ele>330.20001220703</ele>
        <time>2021-05-24T04:09:36.000Z</time>
      </trkpt>
      <trkpt lat="45.19573" lon="5.72244">
        <ele>330.39999389648</ele>
        <time>2021-05-24T04:09:37.000Z</time>
      </trkpt>
      <trkpt lat="45.19578" lon="5.72246">
        <ele>331.60000610352</ele>
        <time>2021-05-24T04:09:42.000Z</time>
      </trkpt>
      <trkpt lat="45.19582" lon="5.7225">
        <ele>332.60000610352</ele>
        <time>2021-05-24T04:09:47.000Z</time>
      </trkpt>
      <trkpt lat="45.19583" lon="5.7225">
        <ele>332.79998779297</ele>
        <time>2021-05-24T04:09:48.000Z</time>
      </trkpt>
      <trkpt lat="45.1959" lon="5.72252">
        <ele>333.60000610352</ele>
        <time>2021-05-24T04:09:53.000Z</time>
      </trkpt>
      <trkpt lat="45.19592" lon="5.72252">
        <ele>333.79998779297</ele>
        <time>2021-05-24T04:09:54.000Z</time>
      </trkpt>
      <trkpt lat="45.19601" lon="5.72253">
        <ele>334.79998779297</ele>
        <time>2021-05-24T04:09:58.000Z</time>
      </trkpt>
      <trkpt lat="45.19606" lon="5.72254">
        <ele>335.20001220703</ele>
        <time>2021-05-24T04:10:01.000Z</time>
      </trkpt>
      <trkpt lat="45.19611" lon="5.72254">
        <ele>335.60000610352</ele>
        <time>2021-05-24T04:10:04.000Z</time>
      </trkpt>
      <trkpt lat="45.19612" lon="5.72253">
        <ele>335.79998779297</ele>
        <time>2021-05-24T04:10:05.000Z</time>
      </trkpt>
      <trkpt lat="45.19614" lon="5.72253">
        <ele>336</ele>
        <time>2021-05-24T04:10:06.000Z</time>
      </trkpt>
      <trkpt lat="45.19617" lon="5.72254">
        <ele>336.39999389648</ele>
        <time>2021-05-24T04:10:08.000Z</time>
      </trkpt>
      <trkpt lat="45.19619" lon="5.72253">
        <ele>336.79998779297</ele>
        <time>2021-05-24T04:10:10.000Z</time>
      </trkpt>
      <trkpt lat="45.1962" lon="5.72253">
        <ele>337</ele>
        <time>2021-05-24T04:10:11.000Z</time>
      </trkpt>
      <trkpt lat="45.19627" lon="5.72253">
        <ele>337.79998779297</ele>
        <time>2021-05-24T04:10:15.000Z</time>
      </trkpt>
      <trkpt lat="45.19631" lon="5.72254">
        <ele>338.39999389648</ele>
        <time>2021-05-24T04:10:18.000Z</time>
      </trkpt>
      <trkpt lat="45.19636" lon="5.72252">
        <ele>338.79998779297</ele>
        <time>2021-05-24T04:10:21.000Z</time>
      </trkpt>
      <trkpt lat="45.19637" lon="5.72252">
        <ele>339</ele>
        <time>2021-05-24T04:10:22.000Z</time>
      </trkpt>
      <trkpt lat="45.19641" lon="5.72253">
        <ele>339.39999389648</ele>
        <time>2021-05-24T04:10:24.000Z</time>
      </trkpt>
      <trkpt lat="45.19643" lon="5.72252">
        <ele>339.60000610352</ele>
        <time>2021-05-24T04:10:25.000Z</time>
      </trkpt>
      <trkpt lat="45.19647" lon="5.72252">
        <ele>340</ele>
        <time>2021-05-24T04:10:27.000Z</time>
      </trkpt>
      <trkpt lat="45.19652" lon="5.72253">
        <ele>340.39999389648</ele>
        <time>2021-05-24T04:10:29.000Z</time>
      </trkpt>
      <trkpt lat="45.19655" lon="5.72253">
        <ele>340.60000610352</ele>
        <time>2021-05-24T04:10:30.000Z</time>
      </trkpt>
      <trkpt lat="45.1966" lon="5.7225">
        <ele>341.20001220703</ele>
        <time>2021-05-24T04:10:33.000Z</time>
      </trkpt>
      <trkpt lat="45.19663" lon="5.72247">
        <ele>341.39999389648</ele>
        <time>2021-05-24T04:10:35.000Z</time>
      </trkpt>
      <trkpt lat="45.19666" lon="5.72241">
        <ele>342.20001220703</ele>
        <time>2021-05-24T04:10:39.000Z</time>
      </trkpt>
      <trkpt lat="45.19667" lon="5.72239">
        <ele>342.20001220703</ele>
        <time>2021-05-24T04:10:40.000Z</time>
      </trkpt>
      <trkpt lat="45.19669" lon="5.72235">
        <ele>343</ele>
        <time>2021-05-24T04:10:42.000Z</time>
      </trkpt>
      <trkpt lat="45.19669" lon="5.72233">
        <ele>343.20001220703</ele>
        <time>2021-05-24T04:10:43.000Z</time>
      </trkpt>
      <trkpt lat="45.19672" lon="5.72226">
        <ele>343.60000610352</ele>
        <time>2021-05-24T04:10:46.000Z</time>
      </trkpt>
      <trkpt lat="45.19674" lon="5.72217">
        <ele>344.20001220703</ele>
        <time>2021-05-24T04:10:50.000Z</time>
      </trkpt>
      <trkpt lat="45.19677" lon="5.72211">
        <ele>345</ele>
        <time>2021-05-24T04:10:53.000Z</time>
      </trkpt>
      <trkpt lat="45.1968" lon="5.72206">
        <ele>345.39999389648</ele>
        <time>2021-05-24T04:10:56.000Z</time>
      </trkpt>
      <trkpt lat="45.19685" lon="5.72196">
        <ele>346.20001220703</ele>
        <time>2021-05-24T04:11:01.000Z</time>
      </trkpt>
      <trkpt lat="45.19691" lon="5.72197">
        <ele>346.60000610352</ele>
        <time>2021-05-24T04:11:03.000Z</time>
      </trkpt>
      <trkpt lat="45.19699" lon="5.72193">
        <ele>347.39999389648</ele>
        <time>2021-05-24T04:11:07.000Z</time>
      </trkpt>
      <trkpt lat="45.19703" lon="5.72193">
        <ele>347.79998779297</ele>
        <time>2021-05-24T04:11:09.000Z</time>
      </trkpt>
      <trkpt lat="45.19712" lon="5.72192">
        <ele>348.79998779297</ele>
        <time>2021-05-24T04:11:14.000Z</time>
      </trkpt>
      <trkpt lat="45.19714" lon="5.72193">
        <ele>349</ele>
        <time>2021-05-24T04:11:15.000Z</time>
      </trkpt>
      <trkpt lat="45.19716" lon="5.72194">
        <ele>349.20001220703</ele>
        <time>2021-05-24T04:11:17.000Z</time>
      </trkpt>
      <trkpt lat="45.19717" lon="5.72195">
        <ele>349.60000610352</ele>
        <time>2021-05-24T04:11:19.000Z</time>
      </trkpt>
      <trkpt lat="45.19716" lon="5.72198">
        <ele>350</ele>
        <time>2021-05-24T04:11:21.000Z</time>
      </trkpt>
      <trkpt lat="45.19713" lon="5.72204">
        <ele>351.20001220703</ele>
        <time>2021-05-24T04:11:25.000Z</time>
      </trkpt>
      <trkpt lat="45.19712" lon="5.72212">
        <ele>352.39999389648</ele>
        <time>2021-05-24T04:11:29.000Z</time>
      </trkpt>
      <trkpt lat="45.19711" lon="5.72215">
        <ele>353</ele>
        <time>2021-05-24T04:11:31.000Z</time>
      </trkpt>
      <trkpt lat="45.19709" lon="5.72217">
        <ele>353.20001220703</ele>
        <time>2021-05-24T04:11:33.000Z</time>
      </trkpt>
      <trkpt lat="45.19706" lon="5.7222">
        <ele>353.60000610352</ele>
        <time>2021-05-24T04:11:35.000Z</time>
      </trkpt>
      <trkpt lat="45.19701" lon="5.72225">
        <ele>354.60000610352</ele>
        <time>2021-05-24T04:11:39.000Z</time>
      </trkpt>
      <trkpt lat="45.197" lon="5.72226">
        <ele>354.79998779297</ele>
        <time>2021-05-24T04:11:40.000Z</time>
      </trkpt>
      <trkpt lat="45.19694" lon="5.72232">
        <ele>355.79998779297</ele>
        <time>2021-05-24T04:11:44.000Z</time>
      </trkpt>
      <trkpt lat="45.19693" lon="5.72236">
        <ele>356.20001220703</ele>
        <time>2021-05-24T04:11:46.000Z</time>
      </trkpt>
      <trkpt lat="45.19692" lon="5.72237">
        <ele>356.39999389648</ele>
        <time>2021-05-24T04:11:47.000Z</time>
      </trkpt>
      <trkpt lat="45.19693" lon="5.72238">
        <ele>356.39999389648</ele>
        <time>2021-05-24T04:11:48.000Z</time>
      </trkpt>
      <trkpt lat="45.19695" lon="5.72238">
        <ele>356.60000610352</ele>
        <time>2021-05-24T04:11:50.000Z</time>
      </trkpt>
      <trkpt lat="45.19696" lon="5.72239">
        <ele>356.79998779297</ele>
        <time>2021-05-24T04:11:51.000Z</time>
      </trkpt>
      <trkpt lat="45.19702" lon="5.72239">
        <ele>357.79998779297</ele>
        <time>2021-05-24T04:11:55.000Z</time>
      </trkpt>
      <trkpt lat="45.19704" lon="5.72239">
        <ele>358</ele>
        <time>2021-05-24T04:11:56.000Z</time>
      </trkpt>
      <trkpt lat="45.19705" lon="5.72239">
        <ele>358.20001220703</ele>
        <time>2021-05-24T04:11:57.000Z</time>
      </trkpt>
      <trkpt lat="45.19711" lon="5.72239">
        <ele>359</ele>
        <time>2021-05-24T04:12:01.000Z</time>
      </trkpt>
      <trkpt lat="45.19711" lon="5.72239">
        <ele>359.20001220703</ele>
        <time>2021-05-24T04:12:02.000Z</time>
      </trkpt>
      <trkpt lat="45.19713" lon="5.72238">
        <ele>359.79998779297</ele>
        <time>2021-05-24T04:12:04.000Z</time>
      </trkpt>
      <trkpt lat="45.19714" lon="5.72238">
        <ele>360.20001220703</ele>
        <time>2021-05-24T04:12:05.000Z</time>
      </trkpt>
      <trkpt lat="45.19715" lon="5.72238">
        <ele>360.39999389648</ele>
        <time>2021-05-24T04:12:06.000Z</time>
      </trkpt>
      <trkpt lat="45.19717" lon="5.72239">
        <ele>361.20001220703</ele>
        <time>2021-05-24T04:12:09.000Z</time>
      </trkpt>
      <trkpt lat="45.19718" lon="5.72238">
        <ele>361.39999389648</ele>
        <time>2021-05-24T04:12:10.000Z</time>
      </trkpt>
      <trkpt lat="45.1972" lon="5.72238">
        <ele>361.79998779297</ele>
        <time>2021-05-24T04:12:12.000Z</time>
      </trkpt>
      <trkpt lat="45.19723" lon="5.72238">
        <ele>362.20001220703</ele>
        <time>2021-05-24T04:12:14.000Z</time>
      </trkpt>
      <trkpt lat="45.19726" lon="5.72237">
        <ele>362.60000610352</ele>
        <time>2021-05-24T04:12:16.000Z</time>
      </trkpt>
      <trkpt lat="45.19729" lon="5.72237">
        <ele>363</ele>
        <time>2021-05-24T04:12:18.000Z</time>
      </trkpt>
      <trkpt lat="45.19735" lon="5.72237">
        <ele>363.60000610352</ele>
        <time>2021-05-24T04:12:21.000Z</time>
      </trkpt>
      <trkpt lat="45.19737" lon="5.72237">
        <ele>363.60000610352</ele>
        <time>2021-05-24T04:12:22.000Z</time>
      </trkpt>
      <trkpt lat="45.19742" lon="5.72233">
        <ele>364</ele>
        <time>2021-05-24T04:12:25.000Z</time>
      </trkpt>
      <trkpt lat="45.19745" lon="5.7223">
        <ele>364.39999389648</ele>
        <time>2021-05-24T04:12:27.000Z</time>
      </trkpt>
      <trkpt lat="45.19746" lon="5.7223">
        <ele>364.60000610352</ele>
        <time>2021-05-24T04:12:28.000Z</time>
      </trkpt>
      <trkpt lat="45.19755" lon="5.72229">
        <ele>365.79998779297</ele>
        <time>2021-05-24T04:12:32.000Z</time>
      </trkpt>
      <trkpt lat="45.19757" lon="5.72229">
        <ele>366</ele>
        <time>2021-05-24T04:12:33.000Z</time>
      </trkpt>
      <trkpt lat="45.19762" lon="5.72228">
        <ele>366.39999389648</ele>
        <time>2021-05-24T04:12:35.000Z</time>
      </trkpt>
      <trkpt lat="45.19763" lon="5.72228">
        <ele>366.39999389648</ele>
        <time>2021-05-24T04:12:36.000Z</time>
      </trkpt>
      <trkpt lat="45.19764" lon="5.72227">
        <ele>366.79998779297</ele>
        <time>2021-05-24T04:12:37.000Z</time>
      </trkpt>
      <trkpt lat="45.19765" lon="5.72227">
        <ele>367</ele>
        <time>2021-05-24T04:12:38.000Z</time>
      </trkpt>
      <trkpt lat="45.19767" lon="5.72228">
        <ele>367.39999389648</ele>
        <time>2021-05-24T04:12:40.000Z</time>
      </trkpt>
      <trkpt lat="45.19768" lon="5.7223">
        <ele>367.79998779297</ele>
        <time>2021-05-24T04:12:42.000Z</time>
      </trkpt>
      <trkpt lat="45.19768" lon="5.72232">
        <ele>367.79998779297</ele>
        <time>2021-05-24T04:12:43.000Z</time>
      </trkpt>
      <trkpt lat="45.19766" lon="5.72237">
        <ele>369.20001220703</ele>
        <time>2021-05-24T04:12:47.000Z</time>
      </trkpt>
      <trkpt lat="45.19766" lon="5.72239">
        <ele>369.39999389648</ele>
        <time>2021-05-24T04:12:48.000Z</time>
      </trkpt>
      <trkpt lat="45.19765" lon="5.7224">
        <ele>369.60000610352</ele>
        <time>2021-05-24T04:12:49.000Z</time>
      </trkpt>
      <trkpt lat="45.19765" lon="5.72242">
        <ele>370</ele>
        <time>2021-05-24T04:12:51.000Z</time>
      </trkpt>
      <trkpt lat="45.19766" lon="5.72242">
        <ele>370</ele>
        <time>2021-05-24T04:12:52.000Z</time>
      </trkpt>
      <trkpt lat="45.19766" lon="5.72241">
        <ele>370.20001220703</ele>
        <time>2021-05-24T04:12:53.000Z</time>
      </trkpt>
      <trkpt lat="45.19767" lon="5.7224">
        <ele>370.60000610352</ele>
        <time>2021-05-24T04:12:54.000Z</time>
      </trkpt>
      <trkpt lat="45.19767" lon="5.72237">
        <ele>371.20001220703</ele>
        <time>2021-05-24T04:12:56.000Z</time>
      </trkpt>
      <trkpt lat="45.19768" lon="5.72236">
        <ele>371.39999389648</ele>
        <time>2021-05-24T04:12:57.000Z</time>
      </trkpt>
      <trkpt lat="45.19768" lon="5.72234">
        <ele>371.39999389648</ele>
        <time>2021-05-24T04:12:58.000Z</time>
      </trkpt>
      <trkpt lat="45.19769" lon="5.72233">
        <ele>371.60000610352</ele>
        <time>2021-05-24T04:13:00.000Z</time>
      </trkpt>
      <trkpt lat="45.19772" lon="5.72226">
        <ele>372.39999389648</ele>
        <time>2021-05-24T04:13:05.000Z</time>
      </trkpt>
      <trkpt lat="45.19772" lon="5.72226">
        <ele>372.39999389648</ele>
        <time>2021-05-24T04:13:06.000Z</time>
      </trkpt>
      <trkpt lat="45.19771" lon="5.72226">
        <ele>372.60000610352</ele>
        <time>2021-05-24T04:13:07.000Z</time>
      </trkpt>
      <trkpt lat="45.19773" lon="5.72229">
        <ele>373.20001220703</ele>
        <time>2021-05-24T04:13:09.000Z</time>
      </trkpt>
      <trkpt lat="45.19774" lon="5.72229">
        <ele>373.39999389648</ele>
        <time>2021-05-24T04:13:10.000Z</time>
      </trkpt>
      <trkpt lat="45.19775" lon="5.72229">
        <ele>373.79998779297</ele>
        <time>2021-05-24T04:13:11.000Z</time>
      </trkpt>
      <trkpt lat="45.19776" lon="5.72229">
        <ele>373.79998779297</ele>
        <time>2021-05-24T04:13:12.000Z</time>
      </trkpt>
      <trkpt lat="45.19777" lon="5.72227">
        <ele>374.20001220703</ele>
        <time>2021-05-24T04:13:14.000Z</time>
      </trkpt>
      <trkpt lat="45.19778" lon="5.72227">
        <ele>374.79998779297</ele>
        <time>2021-05-24T04:13:16.000Z</time>
      </trkpt>
      <trkpt lat="45.19777" lon="5.72228">
        <ele>375.39999389648</ele>
        <time>2021-05-24T04:13:19.000Z</time>
      </trkpt>
      <trkpt lat="45.19776" lon="5.72229">
        <ele>375.79998779297</ele>
        <time>2021-05-24T04:13:21.000Z</time>
      </trkpt>
      <trkpt lat="45.19775" lon="5.7223">
        <ele>376</ele>
        <time>2021-05-24T04:13:22.000Z</time>
      </trkpt>
      <trkpt lat="45.19775" lon="5.72231">
        <ele>376.39999389648</ele>
        <time>2021-05-24T04:13:23.000Z</time>
      </trkpt>
      <trkpt lat="45.19776" lon="5.72231">
        <ele>376.60000610352</ele>
        <time>2021-05-24T04:13:24.000Z</time>
      </trkpt>
      <trkpt lat="45.19777" lon="5.72231">
        <ele>377</ele>
        <time>2021-05-24T04:13:26.000Z</time>
      </trkpt>
      <trkpt lat="45.19778" lon="5.72231">
        <ele>377.20001220703</ele>
        <time>2021-05-24T04:13:27.000Z</time>
      </trkpt>
      <trkpt lat="45.19778" lon="5.7223">
        <ele>377.39999389648</ele>
        <time>2021-05-24T04:13:28.000Z</time>
      </trkpt>
      <trkpt lat="45.19782" lon="5.72231">
        <ele>377.79998779297</ele>
        <time>2021-05-24T04:13:31.000Z</time>
      </trkpt>
      <trkpt lat="45.19782" lon="5.72232">
        <ele>378</ele>
        <time>2021-05-24T04:13:32.000Z</time>
      </trkpt>
      <trkpt lat="45.19781" lon="5.72234">
        <ele>378.39999389648</ele>
        <time>2021-05-24T04:13:34.000Z</time>
      </trkpt>
      <trkpt lat="45.19781" lon="5.72236">
        <ele>379</ele>
        <time>2021-05-24T04:13:35.000Z</time>
      </trkpt>
      <trkpt lat="45.1978" lon="5.72237">
        <ele>379.20001220703</ele>
        <time>2021-05-24T04:13:36.000Z</time>
      </trkpt>
      <trkpt lat="45.1978" lon="5.72239">
        <ele>379.60000610352</ele>
        <time>2021-05-24T04:13:38.000Z</time>
      </trkpt>
      <trkpt lat="45.19781" lon="5.72239">
        <ele>379.79998779297</ele>
        <time>2021-05-24T04:13:39.000Z</time>
      </trkpt>
      <trkpt lat="45.19784" lon="5.7224">
        <ele>380.60000610352</ele>
        <time>2021-05-24T04:13:42.000Z</time>
      </trkpt>
      <trkpt lat="45.19786" lon="5.72238">
        <ele>381</ele>
        <time>2021-05-24T04:13:44.000Z</time>
      </trkpt>
      <trkpt lat="45.19786" lon="5.72237">
        <ele>381.20001220703</ele>
        <time>2021-05-24T04:13:46.000Z</time>
      </trkpt>
      <trkpt lat="45.19787" lon="5.72238">
        <ele>381.60000610352</ele>
        <time>2021-05-24T04:13:47.000Z</time>
      </trkpt>
      <trkpt lat="45.19786" lon="5.72239">
        <ele>382.20001220703</ele>
        <time>2021-05-24T04:13:49.000Z</time>
      </trkpt>
      <trkpt lat="45.19784" lon="5.72242">
        <ele>382.60000610352</ele>
        <time>2021-05-24T04:13:52.000Z</time>
      </trkpt>
      <trkpt lat="45.19784" lon="5.72243">
        <ele>382.79998779297</ele>
        <time>2021-05-24T04:13:53.000Z</time>
      </trkpt>
      <trkpt lat="45.19784" lon="5.72244">
        <ele>383.20001220703</ele>
        <time>2021-05-24T04:13:55.000Z</time>
      </trkpt>
      <trkpt lat="45.19784" lon="5.72244">
        <ele>383.20001220703</ele>
        <time>2021-05-24T04:13:56.000Z</time>
      </trkpt>
      <trkpt lat="45.19786" lon="5.72245">
        <ele>384</ele>
        <time>2021-05-24T04:13:58.000Z</time>
      </trkpt>
      <trkpt lat="45.19781" lon="5.72249">
        <ele>385.20001220703</ele>
        <time>2021-05-24T04:14:03.000Z</time>
      </trkpt>
      <trkpt lat="45.19782" lon="5.7225">
        <ele>386</ele>
        <time>2021-05-24T04:14:07.000Z</time>
      </trkpt>
      <trkpt lat="45.19783" lon="5.72249">
        <ele>386.20001220703</ele>
        <time>2021-05-24T04:14:08.000Z</time>
      </trkpt>
      <trkpt lat="45.19784" lon="5.72247">
        <ele>386.79998779297</ele>
        <time>2021-05-24T04:14:10.000Z</time>
      </trkpt>
      <trkpt lat="45.19785" lon="5.72247">
        <ele>387</ele>
        <time>2021-05-24T04:14:11.000Z</time>
      </trkpt>
      <trkpt lat="45.19785" lon="5.72247">
        <ele>387.20001220703</ele>
        <time>2021-05-24T04:14:12.000Z</time>
      </trkpt>
      <trkpt lat="45.19784" lon="5.72248">
        <ele>387.60000610352</ele>
        <time>2021-05-24T04:14:14.000Z</time>
      </trkpt>
      <trkpt lat="45.19782" lon="5.72249">
        <ele>388.20001220703</ele>
        <time>2021-05-24T04:14:16.000Z</time>
      </trkpt>
      <trkpt lat="45.19784" lon="5.72249">
        <ele>389.39999389648</ele>
        <time>2021-05-24T04:14:20.000Z</time>
      </trkpt>
      <trkpt lat="45.19785" lon="5.72251">
        <ele>391</ele>
        <time>2021-05-24T04:14:25.000Z</time>
      </trkpt>
      <trkpt lat="45.19784" lon="5.72252">
        <ele>391.60000610352</ele>
        <time>2021-05-24T04:14:26.000Z</time>
      </trkpt>
      <trkpt lat="45.19783" lon="5.72251">
        <ele>392</ele>
        <time>2021-05-24T04:14:27.000Z</time>
      </trkpt>
      <trkpt lat="45.1978" lon="5.72248">
        <ele>393</ele>
        <time>2021-05-24T04:14:30.000Z</time>
      </trkpt>
      <trkpt lat="45.19781" lon="5.72248">
        <ele>393.20001220703</ele>
        <time>2021-05-24T04:14:31.000Z</time>
      </trkpt>
      <trkpt lat="45.1978" lon="5.72248">
        <ele>393.39999389648</ele>
        <time>2021-05-24T04:14:33.000Z</time>
      </trkpt>
      <trkpt lat="45.1978" lon="5.72248">
        <ele>393.60000610352</ele>
        <time>2021-05-24T04:14:34.000Z</time>
      </trkpt>
      <trkpt lat="45.19781" lon="5.72247">
        <ele>394.39999389648</ele>
        <time>2021-05-24T04:14:36.000Z</time>
      </trkpt>
      <trkpt lat="45.19782" lon="5.72247">
        <ele>394.79998779297</ele>
        <time>2021-05-24T04:14:37.000Z</time>
      </trkpt>
      <trkpt lat="45.19783" lon="5.72246">
        <ele>395</ele>
        <time>2021-05-24T04:14:38.000Z</time>
      </trkpt>
      <trkpt lat="45.19784" lon="5.72246">
        <ele>395.20001220703</ele>
        <time>2021-05-24T04:14:39.000Z</time>
      </trkpt>
      <trkpt lat="45.19784" lon="5.72248">
        <ele>395.79998779297</ele>
        <time>2021-05-24T04:14:40.000Z</time>
      </trkpt>
      <trkpt lat="45.19785" lon="5.72249">
        <ele>396.39999389648</ele>
        <time>2021-05-24T04:14:41.000Z</time>
      </trkpt>
      <trkpt lat="45.19786" lon="5.72249">
        <ele>396.60000610352</ele>
        <time>2021-05-24T04:14:42.000Z</time>
      </trkpt>
      <trkpt lat="45.19787" lon="5.7225">
        <ele>397.20001220703</ele>
        <time>2021-05-24T04:14:43.000Z</time>
      </trkpt>
      <trkpt lat="45.1979" lon="5.72251">
        <ele>397.60000610352</ele>
        <time>2021-05-24T04:14:45.000Z</time>
      </trkpt>
      <trkpt lat="45.19791" lon="5.72251">
        <ele>397.60000610352</ele>
        <time>2021-05-24T04:14:46.000Z</time>
      </trkpt>
      <trkpt lat="45.19792" lon="5.7225">
        <ele>398.79998779297</ele>
        <time>2021-05-24T04:14:48.000Z</time>
      </trkpt>
      <trkpt lat="45.19796" lon="5.72246">
        <ele>399.79998779297</ele>
        <time>2021-05-24T04:14:51.000Z</time>
      </trkpt>
      <trkpt lat="45.19797" lon="5.72243">
        <ele>400.20001220703</ele>
        <time>2021-05-24T04:14:53.000Z</time>
      </trkpt>
      <trkpt lat="45.19798" lon="5.72238">
        <ele>400.20001220703</ele>
        <time>2021-05-24T04:14:55.000Z</time>
      </trkpt>
      <trkpt lat="45.19799" lon="5.72234">
        <ele>400.60000610352</ele>
        <time>2021-05-24T04:14:57.000Z</time>
      </trkpt>
      <trkpt lat="45.19799" lon="5.72232">
        <ele>401</ele>
        <time>2021-05-24T04:14:58.000Z</time>
      </trkpt>
      <trkpt lat="45.19803" lon="5.72226">
        <ele>401.60000610352</ele>
        <time>2021-05-24T04:15:01.000Z</time>
      </trkpt>
      <trkpt lat="45.19805" lon="5.72226">
        <ele>402</ele>
        <time>2021-05-24T04:15:02.000Z</time>
      </trkpt>
      <trkpt lat="45.19806" lon="5.72226">
        <ele>402.20001220703</ele>
        <time>2021-05-24T04:15:03.000Z</time>
      </trkpt>
      <trkpt lat="45.19807" lon="5.72227">
        <ele>402.39999389648</ele>
        <time>2021-05-24T04:15:04.000Z</time>
      </trkpt>
      <trkpt lat="45.19807" lon="5.72228">
        <ele>402.60000610352</ele>
        <time>2021-05-24T04:15:05.000Z</time>
      </trkpt>
      <trkpt lat="45.19809" lon="5.7223">
        <ele>403.20001220703</ele>
        <time>2021-05-24T04:15:08.000Z</time>
      </trkpt>
      <trkpt lat="45.19808" lon="5.72231">
        <ele>403.79998779297</ele>
        <time>2021-05-24T04:15:09.000Z</time>
      </trkpt>
      <trkpt lat="45.19807" lon="5.72231">
        <ele>404.39999389648</ele>
        <time>2021-05-24T04:15:11.000Z</time>
      </trkpt>
      <trkpt lat="45.19809" lon="5.72231">
        <ele>405</ele>
        <time>2021-05-24T04:15:13.000Z</time>
      </trkpt>
      <trkpt lat="45.19811" lon="5.72231">
        <ele>405.20001220703</ele>
        <time>2021-05-24T04:15:15.000Z</time>
      </trkpt>
      <trkpt lat="45.19814" lon="5.72231">
        <ele>406</ele>
        <time>2021-05-24T04:15:17.000Z</time>
      </trkpt>
      <trkpt lat="45.19815" lon="5.72231">
        <ele>406.39999389648</ele>
        <time>2021-05-24T04:15:18.000Z</time>
      </trkpt>
      <trkpt lat="45.19817" lon="5.72232">
        <ele>406.60000610352</ele>
        <time>2021-05-24T04:15:19.000Z</time>
      </trkpt>
      <trkpt lat="45.19816" lon="5.72232">
        <ele>406.60000610352</ele>
        <time>2021-05-24T04:15:20.000Z</time>
      </trkpt>
      <trkpt lat="45.19816" lon="5.72234">
        <ele>407.39999389648</ele>
        <time>2021-05-24T04:15:22.000Z</time>
      </trkpt>
      <trkpt lat="45.19816" lon="5.72236">
        <ele>408.39999389648</ele>
        <time>2021-05-24T04:15:24.000Z</time>
      </trkpt>
      <trkpt lat="45.19814" lon="5.72243">
        <ele>409.39999389648</ele>
        <time>2021-05-24T04:15:29.000Z</time>
      </trkpt>
      <trkpt lat="45.19814" lon="5.72245">
        <ele>409.60000610352</ele>
        <time>2021-05-24T04:15:31.000Z</time>
      </trkpt>
      <trkpt lat="45.19816" lon="5.72248">
        <ele>410.20001220703</ele>
        <time>2021-05-24T04:15:34.000Z</time>
      </trkpt>
      <trkpt lat="45.19818" lon="5.72249">
        <ele>411</ele>
        <time>2021-05-24T04:15:36.000Z</time>
      </trkpt>
      <trkpt lat="45.19819" lon="5.7225">
        <ele>411.39999389648</ele>
        <time>2021-05-24T04:15:37.000Z</time>
      </trkpt>
      <trkpt lat="45.1983" lon="5.7225">
        <ele>421.39999389648</ele>
        <time>2021-05-24T04:16:09.000Z</time>
      </trkpt>
      <trkpt lat="45.19834" lon="5.72252">
        <ele>422.20001220703</ele>
        <time>2021-05-24T04:16:11.000Z</time>
      </trkpt>
      <trkpt lat="45.19834" lon="5.72249">
        <ele>423</ele>
        <time>2021-05-24T04:16:13.000Z</time>
      </trkpt>
      <trkpt lat="45.19833" lon="5.72249">
        <ele>423.79998779297</ele>
        <time>2021-05-24T04:16:14.000Z</time>
      </trkpt>
      <trkpt lat="45.19834" lon="5.72249">
        <ele>424.79998779297</ele>
        <time>2021-05-24T04:16:16.000Z</time>
      </trkpt>
      <trkpt lat="45.19833" lon="5.72249">
        <ele>425</ele>
        <time>2021-05-24T04:16:17.000Z</time>
      </trkpt>
      <trkpt lat="45.19829" lon="5.72253">
        <ele>425.39999389648</ele>
        <time>2021-05-24T04:16:20.000Z</time>
      </trkpt>
      <trkpt lat="45.19824" lon="5.7227">
        <ele>425.79998779297</ele>
        <time>2021-05-24T04:16:27.000Z</time>
      </trkpt>
      <trkpt lat="45.19824" lon="5.72272">
        <ele>425.79998779297</ele>
        <time>2021-05-24T04:16:28.000Z</time>
      </trkpt>
      <trkpt lat="45.19821" lon="5.72286">
        <ele>426.79998779297</ele>
        <time>2021-05-24T04:16:36.000Z</time>
      </trkpt>
      <trkpt lat="45.19821" lon="5.72287">
        <ele>427</ele>
        <time>2021-05-24T04:16:37.000Z</time>
      </trkpt>
      <trkpt lat="45.1982" lon="5.7229">
        <ele>427.20001220703</ele>
        <time>2021-05-24T04:16:39.000Z</time>
      </trkpt>
      <trkpt lat="45.19817" lon="5.72294">
        <ele>427.39999389648</ele>
        <time>2021-05-24T04:16:41.000Z</time>
      </trkpt>
      <trkpt lat="45.19811" lon="5.72305">
        <ele>428</ele>
        <time>2021-05-24T04:16:46.000Z</time>
      </trkpt>
      <trkpt lat="45.1981" lon="5.72307">
        <ele>428</ele>
        <time>2021-05-24T04:16:47.000Z</time>
      </trkpt>
      <trkpt lat="45.19808" lon="5.72326">
        <ele>428.79998779297</ele>
        <time>2021-05-24T04:16:54.000Z</time>
      </trkpt>
      <trkpt lat="45.19808" lon="5.7233">
        <ele>429</ele>
        <time>2021-05-24T04:16:57.000Z</time>
      </trkpt>
      <trkpt lat="45.1981" lon="5.72317">
        <ele>439.20001220703</ele>
        <time>2021-05-24T04:17:34.000Z</time>
      </trkpt>
      <trkpt lat="45.19815" lon="5.72326">
        <ele>439.60000610352</ele>
        <time>2021-05-24T04:17:37.000Z</time>
      </trkpt>
      <trkpt lat="45.19818" lon="5.72327">
        <ele>440</ele>
        <time>2021-05-24T04:17:39.000Z</time>
      </trkpt>
      <trkpt lat="45.19819" lon="5.72329">
        <ele>440.79998779297</ele>
        <time>2021-05-24T04:17:41.000Z</time>
      </trkpt>
      <trkpt lat="45.19818" lon="5.72331">
        <ele>441.39999389648</ele>
        <time>2021-05-24T04:17:42.000Z</time>
      </trkpt>
      <trkpt lat="45.19819" lon="5.72331">
        <ele>442.20001220703</ele>
        <time>2021-05-24T04:17:44.000Z</time>
      </trkpt>
      <trkpt lat="45.1982" lon="5.72332">
        <ele>442.60000610352</ele>
        <time>2021-05-24T04:17:45.000Z</time>
      </trkpt>
      <trkpt lat="45.19822" lon="5.72335">
        <ele>444</ele>
        <time>2021-05-24T04:17:48.000Z</time>
      </trkpt>
      <trkpt lat="45.19822" lon="5.72337">
        <ele>444.39999389648</ele>
        <time>2021-05-24T04:17:49.000Z</time>
      </trkpt>
      <trkpt lat="45.19822" lon="5.72339">
        <ele>445.20001220703</ele>
        <time>2021-05-24T04:17:51.000Z</time>
      </trkpt>
      <trkpt lat="45.19822" lon="5.72341">
        <ele>446.39999389648</ele>
        <time>2021-05-24T04:17:54.000Z</time>
      </trkpt>
      <trkpt lat="45.19823" lon="5.72343">
        <ele>447.39999389648</ele>
        <time>2021-05-24T04:17:56.000Z</time>
      </trkpt>
      <trkpt lat="45.19824" lon="5.72345">
        <ele>447.60000610352</ele>
        <time>2021-05-24T04:17:57.000Z</time>
      </trkpt>
      <trkpt lat="45.19825" lon="5.72347">
        <ele>448.39999389648</ele>
        <time>2021-05-24T04:17:59.000Z</time>
      </trkpt>
      <trkpt lat="45.19825" lon="5.72349">
        <ele>448.60000610352</ele>
        <time>2021-05-24T04:18:00.000Z</time>
      </trkpt>
      <trkpt lat="45.19827" lon="5.72356">
        <ele>450</ele>
        <time>2021-05-24T04:18:04.000Z</time>
      </trkpt>
      <trkpt lat="45.19826" lon="5.72357">
        <ele>450.20001220703</ele>
        <time>2021-05-24T04:18:05.000Z</time>
      </trkpt>
      <trkpt lat="45.19822" lon="5.72364">
        <ele>450.60000610352</ele>
        <time>2021-05-24T04:18:09.000Z</time>
      </trkpt>
      <trkpt lat="45.19822" lon="5.72368">
        <ele>450.79998779297</ele>
        <time>2021-05-24T04:18:11.000Z</time>
      </trkpt>
      <trkpt lat="45.19821" lon="5.72373">
        <ele>451</ele>
        <time>2021-05-24T04:18:14.000Z</time>
      </trkpt>
      <trkpt lat="45.19821" lon="5.72374">
        <ele>451.60000610352</ele>
        <time>2021-05-24T04:18:16.000Z</time>
      </trkpt>
      <trkpt lat="45.19821" lon="5.72373">
        <ele>452</ele>
        <time>2021-05-24T04:18:18.000Z</time>
      </trkpt>
      <trkpt lat="45.19821" lon="5.72372">
        <ele>452.20001220703</ele>
        <time>2021-05-24T04:18:19.000Z</time>
      </trkpt>
      <trkpt lat="45.1982" lon="5.7237">
        <ele>453.60000610352</ele>
        <time>2021-05-24T04:18:21.000Z</time>
      </trkpt>
      <trkpt lat="45.19821" lon="5.72369">
        <ele>454</ele>
        <time>2021-05-24T04:18:22.000Z</time>
      </trkpt>
      <trkpt lat="45.19823" lon="5.72367">
        <ele>454.79998779297</ele>
        <time>2021-05-24T04:18:24.000Z</time>
      </trkpt>
      <trkpt lat="45.19822" lon="5.72371">
        <ele>456</ele>
        <time>2021-05-24T04:18:27.000Z</time>
      </trkpt>
      <trkpt lat="45.19821" lon="5.72372">
        <ele>456.39999389648</ele>
        <time>2021-05-24T04:18:28.000Z</time>
      </trkpt>
      <trkpt lat="45.19819" lon="5.72377">
        <ele>457</ele>
        <time>2021-05-24T04:18:31.000Z</time>
      </trkpt>
      <trkpt lat="45.19819" lon="5.7238">
        <ele>457.20001220703</ele>
        <time>2021-05-24T04:18:32.000Z</time>
      </trkpt>
      <trkpt lat="45.1982" lon="5.72385">
        <ele>457.60000610352</ele>
        <time>2021-05-24T04:18:34.000Z</time>
      </trkpt>
      <trkpt lat="45.19824" lon="5.72388">
        <ele>458.20001220703</ele>
        <time>2021-05-24T04:18:37.000Z</time>
      </trkpt>
      <trkpt lat="45.19826" lon="5.72389">
        <ele>458.79998779297</ele>
        <time>2021-05-24T04:18:39.000Z</time>
      </trkpt>
      <trkpt lat="45.19828" lon="5.72388">
        <ele>459</ele>
        <time>2021-05-24T04:18:40.000Z</time>
      </trkpt>
      <trkpt lat="45.19829" lon="5.72387">
        <ele>459.20001220703</ele>
        <time>2021-05-24T04:18:41.000Z</time>
      </trkpt>
      <trkpt lat="45.19829" lon="5.72386">
        <ele>459.39999389648</ele>
        <time>2021-05-24T04:18:42.000Z</time>
      </trkpt>
      <trkpt lat="45.19831" lon="5.72385">
        <ele>460</ele>
        <time>2021-05-24T04:18:45.000Z</time>
      </trkpt>
      <trkpt lat="45.19832" lon="5.72384">
        <ele>460.60000610352</ele>
        <time>2021-05-24T04:18:46.000Z</time>
      </trkpt>
      <trkpt lat="45.19833" lon="5.72385">
        <ele>461.60000610352</ele>
        <time>2021-05-24T04:18:48.000Z</time>
      </trkpt>
      <trkpt lat="45.19835" lon="5.72382">
        <ele>462.20001220703</ele>
        <time>2021-05-24T04:18:51.000Z</time>
      </trkpt>
      <trkpt lat="45.19839" lon="5.72381">
        <ele>462.39999389648</ele>
        <time>2021-05-24T04:18:54.000Z</time>
      </trkpt>
      <trkpt lat="45.1984" lon="5.72383">
        <ele>462.60000610352</ele>
        <time>2021-05-24T04:18:55.000Z</time>
      </trkpt>
      <trkpt lat="45.1984" lon="5.72384">
        <ele>463</ele>
        <time>2021-05-24T04:18:56.000Z</time>
      </trkpt>
      <trkpt lat="45.19842" lon="5.72387">
        <ele>464.60000610352</ele>
        <time>2021-05-24T04:19:00.000Z</time>
      </trkpt>
      <trkpt lat="45.19842" lon="5.72388">
        <ele>465</ele>
        <time>2021-05-24T04:19:01.000Z</time>
      </trkpt>
      <trkpt lat="45.19843" lon="5.72388">
        <ele>465.20001220703</ele>
        <time>2021-05-24T04:19:02.000Z</time>
      </trkpt>
      <trkpt lat="45.19842" lon="5.72387">
        <ele>465.60000610352</ele>
        <time>2021-05-24T04:19:05.000Z</time>
      </trkpt>
      <trkpt lat="45.19842" lon="5.72387">
        <ele>465.79998779297</ele>
        <time>2021-05-24T04:19:06.000Z</time>
      </trkpt>
      <trkpt lat="45.19843" lon="5.72386">
        <ele>466.79998779297</ele>
        <time>2021-05-24T04:19:08.000Z</time>
      </trkpt>
      <trkpt lat="45.19843" lon="5.72386">
        <ele>467</ele>
        <time>2021-05-24T04:19:09.000Z</time>
      </trkpt>
      <trkpt lat="45.19843" lon="5.72389">
        <ele>468</ele>
        <time>2021-05-24T04:19:11.000Z</time>
      </trkpt>
      <trkpt lat="45.19843" lon="5.72391">
        <ele>469.20001220703</ele>
        <time>2021-05-24T04:19:13.000Z</time>
      </trkpt>
      <trkpt lat="45.19844" lon="5.72394">
        <ele>470.20001220703</ele>
        <time>2021-05-24T04:19:16.000Z</time>
      </trkpt>
      <trkpt lat="45.19844" lon="5.72397">
        <ele>471.20001220703</ele>
        <time>2021-05-24T04:19:19.000Z</time>
      </trkpt>
      <trkpt lat="45.19844" lon="5.72398">
        <ele>471.79998779297</ele>
        <time>2021-05-24T04:19:20.000Z</time>
      </trkpt>
      <trkpt lat="45.19845" lon="5.72399">
        <ele>473</ele>
        <time>2021-05-24T04:19:22.000Z</time>
      </trkpt>
      <trkpt lat="45.19845" lon="5.724">
        <ele>473.60000610352</ele>
        <time>2021-05-24T04:19:24.000Z</time>
      </trkpt>
      <trkpt lat="45.19844" lon="5.72398">
        <ele>474.20001220703</ele>
        <time>2021-05-24T04:19:26.000Z</time>
      </trkpt>
      <trkpt lat="45.19843" lon="5.72397">
        <ele>475.39999389648</ele>
        <time>2021-05-24T04:19:30.000Z</time>
      </trkpt>
      <trkpt lat="45.19845" lon="5.72398">
        <ele>475.79998779297</ele>
        <time>2021-05-24T04:19:31.000Z</time>
      </trkpt>
      <trkpt lat="45.19845" lon="5.72398">
        <ele>476.20001220703</ele>
        <time>2021-05-24T04:19:32.000Z</time>
      </trkpt>
      <trkpt lat="45.19845" lon="5.72399">
        <ele>476.60000610352</ele>
        <time>2021-05-24T04:19:34.000Z</time>
      </trkpt>
      <trkpt lat="45.19844" lon="5.72401">
        <ele>477.79998779297</ele>
        <time>2021-05-24T04:19:37.000Z</time>
      </trkpt>
      <trkpt lat="45.19845" lon="5.72402">
        <ele>478</ele>
        <time>2021-05-24T04:19:38.000Z</time>
      </trkpt>
      <trkpt lat="45.19846" lon="5.72404">
        <ele>478.79998779297</ele>
        <time>2021-05-24T04:19:40.000Z</time>
      </trkpt>
      <trkpt lat="45.19845" lon="5.72407">
        <ele>479.79998779297</ele>
        <time>2021-05-24T04:19:42.000Z</time>
      </trkpt>
      <trkpt lat="45.19843" lon="5.72414">
        <ele>481</ele>
        <time>2021-05-24T04:19:46.000Z</time>
      </trkpt>
      <trkpt lat="45.19844" lon="5.72416">
        <ele>481.60000610352</ele>
        <time>2021-05-24T04:19:47.000Z</time>
      </trkpt>
      <trkpt lat="45.19845" lon="5.72417">
        <ele>482.39999389648</ele>
        <time>2021-05-24T04:19:48.000Z</time>
      </trkpt>
      <trkpt lat="45.19845" lon="5.72417">
        <ele>482.79998779297</ele>
        <time>2021-05-24T04:19:49.000Z</time>
      </trkpt>
      <trkpt lat="45.19845" lon="5.7242">
        <ele>483.39999389648</ele>
        <time>2021-05-24T04:19:51.000Z</time>
      </trkpt>
      <trkpt lat="45.19845" lon="5.72426">
        <ele>484.39999389648</ele>
        <time>2021-05-24T04:19:56.000Z</time>
      </trkpt>
      <trkpt lat="45.19846" lon="5.72427">
        <ele>484.60000610352</ele>
        <time>2021-05-24T04:19:58.000Z</time>
      </trkpt>
      <trkpt lat="45.19846" lon="5.72429">
        <ele>485.79998779297</ele>
        <time>2021-05-24T04:20:00.000Z</time>
      </trkpt>
      <trkpt lat="45.19847" lon="5.72436">
        <ele>486.79998779297</ele>
        <time>2021-05-24T04:20:04.000Z</time>
      </trkpt>
      <trkpt lat="45.19848" lon="5.72444">
        <ele>487.39999389648</ele>
        <time>2021-05-24T04:20:09.000Z</time>
      </trkpt>
      <trkpt lat="45.19849" lon="5.72444">
        <ele>487.60000610352</ele>
        <time>2021-05-24T04:20:10.000Z</time>
      </trkpt>
      <trkpt lat="45.19851" lon="5.72441">
        <ele>488</ele>
        <time>2021-05-24T04:20:12.000Z</time>
      </trkpt>
      <trkpt lat="45.19851" lon="5.72436">
        <ele>488.60000610352</ele>
        <time>2021-05-24T04:20:15.000Z</time>
      </trkpt>
      <trkpt lat="45.1985" lon="5.72431">
        <ele>489.20001220703</ele>
        <time>2021-05-24T04:20:18.000Z</time>
      </trkpt>
      <trkpt lat="45.19851" lon="5.72429">
        <ele>489.39999389648</ele>
        <time>2021-05-24T04:20:19.000Z</time>
      </trkpt>
      <trkpt lat="45.19853" lon="5.72427">
        <ele>489.60000610352</ele>
        <time>2021-05-24T04:20:21.000Z</time>
      </trkpt>
      <trkpt lat="45.19855" lon="5.72426">
        <ele>489.79998779297</ele>
        <time>2021-05-24T04:20:22.000Z</time>
      </trkpt>
      <trkpt lat="45.19855" lon="5.72428">
        <ele>490.39999389648</ele>
        <time>2021-05-24T04:20:24.000Z</time>
      </trkpt>
      <trkpt lat="45.19854" lon="5.72429">
        <ele>490.60000610352</ele>
        <time>2021-05-24T04:20:25.000Z</time>
      </trkpt>
      <trkpt lat="45.19852" lon="5.72431">
        <ele>490.79998779297</ele>
        <time>2021-05-24T04:20:26.000Z</time>
      </trkpt>
      <trkpt lat="45.1985" lon="5.72435">
        <ele>491.60000610352</ele>
        <time>2021-05-24T04:20:28.000Z</time>
      </trkpt>
      <trkpt lat="45.1985" lon="5.72436">
        <ele>491.79998779297</ele>
        <time>2021-05-24T04:20:29.000Z</time>
      </trkpt>
      <trkpt lat="45.1985" lon="5.72437">
        <ele>492.20001220703</ele>
        <time>2021-05-24T04:20:31.000Z</time>
      </trkpt>
      <trkpt lat="45.1985" lon="5.72437">
        <ele>493</ele>
        <time>2021-05-24T04:20:32.000Z</time>
      </trkpt>
      <trkpt lat="45.1985" lon="5.7244">
        <ele>494</ele>
        <time>2021-05-24T04:20:34.000Z</time>
      </trkpt>
      <trkpt lat="45.1985" lon="5.72441">
        <ele>494.39999389648</ele>
        <time>2021-05-24T04:20:35.000Z</time>
      </trkpt>
      <trkpt lat="45.19851" lon="5.72444">
        <ele>495.39999389648</ele>
        <time>2021-05-24T04:20:37.000Z</time>
      </trkpt>
      <trkpt lat="45.19851" lon="5.72445">
        <ele>495.79998779297</ele>
        <time>2021-05-24T04:20:38.000Z</time>
      </trkpt>
      <trkpt lat="45.19852" lon="5.72447">
        <ele>496.39999389648</ele>
        <time>2021-05-24T04:20:40.000Z</time>
      </trkpt>
      <trkpt lat="45.19854" lon="5.72449">
        <ele>497.20001220703</ele>
        <time>2021-05-24T04:20:42.000Z</time>
      </trkpt>
      <trkpt lat="45.19854" lon="5.7245">
        <ele>497.60000610352</ele>
        <time>2021-05-24T04:20:43.000Z</time>
      </trkpt>
      <trkpt lat="45.19854" lon="5.72451">
        <ele>498</ele>
        <time>2021-05-24T04:20:44.000Z</time>
      </trkpt>
      <trkpt lat="45.19855" lon="5.72453">
        <ele>498.79998779297</ele>
        <time>2021-05-24T04:20:46.000Z</time>
      </trkpt>
      <trkpt lat="45.19856" lon="5.72453">
        <ele>500</ele>
        <time>2021-05-24T04:20:49.000Z</time>
      </trkpt>
      <trkpt lat="45.19857" lon="5.72451">
        <ele>500.39999389648</ele>
        <time>2021-05-24T04:20:51.000Z</time>
      </trkpt>
      <trkpt lat="45.19856" lon="5.72449">
        <ele>501.20001220703</ele>
        <time>2021-05-24T04:20:53.000Z</time>
      </trkpt>
      <trkpt lat="45.19856" lon="5.72447">
        <ele>502</ele>
        <time>2021-05-24T04:20:55.000Z</time>
      </trkpt>
      <trkpt lat="45.19856" lon="5.72446">
        <ele>502.20001220703</ele>
        <time>2021-05-24T04:20:56.000Z</time>
      </trkpt>
      <trkpt lat="45.19857" lon="5.72445">
        <ele>503.60000610352</ele>
        <time>2021-05-24T04:20:58.000Z</time>
      </trkpt>
      <trkpt lat="45.19858" lon="5.72444">
        <ele>504.39999389648</ele>
        <time>2021-05-24T04:21:00.000Z</time>
      </trkpt>
      <trkpt lat="45.19859" lon="5.72445">
        <ele>504.60000610352</ele>
        <time>2021-05-24T04:21:01.000Z</time>
      </trkpt>
      <trkpt lat="45.19861" lon="5.72448">
        <ele>504.60000610352</ele>
        <time>2021-05-24T04:21:03.000Z</time>
      </trkpt>
      <trkpt lat="45.19862" lon="5.72458">
        <ele>504.60000610352</ele>
        <time>2021-05-24T04:21:07.000Z</time>
      </trkpt>
      <trkpt lat="45.19863" lon="5.72461">
        <ele>504.60000610352</ele>
        <time>2021-05-24T04:21:09.000Z</time>
      </trkpt>
      <trkpt lat="45.19865" lon="5.72464">
        <ele>504.60000610352</ele>
        <time>2021-05-24T04:21:10.000Z</time>
      </trkpt>
      <trkpt lat="45.19867" lon="5.72472">
        <ele>505.20001220703</ele>
        <time>2021-05-24T04:21:14.000Z</time>
      </trkpt>
      <trkpt lat="45.19867" lon="5.72473">
        <ele>505.20001220703</ele>
        <time>2021-05-24T04:21:15.000Z</time>
      </trkpt>
      <trkpt lat="45.19869" lon="5.72479">
        <ele>504.60000610352</ele>
        <time>2021-05-24T04:21:21.000Z</time>
      </trkpt>
      <trkpt lat="45.19865" lon="5.72482">
        <ele>503.20001220703</ele>
        <time>2021-05-24T04:21:25.000Z</time>
      </trkpt>
      <trkpt lat="45.1986" lon="5.72482">
        <ele>501.60000610352</ele>
        <time>2021-05-24T04:21:27.000Z</time>
      </trkpt>
      <trkpt lat="45.19855" lon="5.72483">
        <ele>500.39999389648</ele>
        <time>2021-05-24T04:21:29.000Z</time>
      </trkpt>
      <trkpt lat="45.19855" lon="5.72481">
        <ele>500.20001220703</ele>
        <time>2021-05-24T04:21:31.000Z</time>
      </trkpt>
      <trkpt lat="45.19864" lon="5.72474">
        <ele>499.79998779297</ele>
        <time>2021-05-24T04:21:35.000Z</time>
      </trkpt>
      <trkpt lat="45.19874" lon="5.72469">
        <ele>500</ele>
        <time>2021-05-24T04:21:40.000Z</time>
      </trkpt>
      <trkpt lat="45.19878" lon="5.72466">
        <ele>500.20001220703</ele>
        <time>2021-05-24T04:21:43.000Z</time>
      </trkpt>
      <trkpt lat="45.19879" lon="5.72466">
        <ele>500.39999389648</ele>
        <time>2021-05-24T04:21:44.000Z</time>
      </trkpt>
      <trkpt lat="45.19883" lon="5.72464">
        <ele>500.39999389648</ele>
        <time>2021-05-24T04:21:46.000Z</time>
      </trkpt>
      <trkpt lat="45.19885" lon="5.72462">
        <ele>500.39999389648</ele>
        <time>2021-05-24T04:21:47.000Z</time>
      </trkpt>
      <trkpt lat="45.19887" lon="5.7246">
        <ele>500.20001220703</ele>
        <time>2021-05-24T04:21:50.000Z</time>
      </trkpt>
      <trkpt lat="45.19886" lon="5.72457">
        <ele>500.20001220703</ele>
        <time>2021-05-24T04:21:52.000Z</time>
      </trkpt>
      <trkpt lat="45.19889" lon="5.72444">
        <ele>499.39999389648</ele>
        <time>2021-05-24T04:21:56.000Z</time>
      </trkpt>
      <trkpt lat="45.19891" lon="5.72441">
        <ele>499.39999389648</ele>
        <time>2021-05-24T04:21:57.000Z</time>
      </trkpt>
      <trkpt lat="45.199" lon="5.72433">
        <ele>498.20001220703</ele>
        <time>2021-05-24T04:22:01.000Z</time>
      </trkpt>
      <trkpt lat="45.19902" lon="5.72431">
        <ele>498.20001220703</ele>
        <time>2021-05-24T04:22:02.000Z</time>
      </trkpt>
      <trkpt lat="45.19914" lon="5.72426">
        <ele>497.20001220703</ele>
        <time>2021-05-24T04:22:06.000Z</time>
      </trkpt>
      <trkpt lat="45.19922" lon="5.72424">
        <ele>496.60000610352</ele>
        <time>2021-05-24T04:22:09.000Z</time>
      </trkpt>
      <trkpt lat="45.19928" lon="5.72421">
        <ele>496.20001220703</ele>
        <time>2021-05-24T04:22:11.000Z</time>
      </trkpt>
      <trkpt lat="45.19945" lon="5.72417">
        <ele>495.79998779297</ele>
        <time>2021-05-24T04:22:18.000Z</time>
      </trkpt>
      <trkpt lat="45.1996" lon="5.72415">
        <ele>496.79998779297</ele>
        <time>2021-05-24T04:22:24.000Z</time>
      </trkpt>
      <trkpt lat="45.19967" lon="5.72416">
        <ele>497.20001220703</ele>
        <time>2021-05-24T04:22:27.000Z</time>
      </trkpt>
      <trkpt lat="45.19969" lon="5.72416">
        <ele>497.39999389648</ele>
        <time>2021-05-24T04:22:28.000Z</time>
      </trkpt>
      <trkpt lat="45.19975" lon="5.72417">
        <ele>498.39999389648</ele>
        <time>2021-05-24T04:22:31.000Z</time>
      </trkpt>
      <trkpt lat="45.19986" lon="5.72419">
        <ele>499.39999389648</ele>
        <time>2021-05-24T04:22:36.000Z</time>
      </trkpt>
      <trkpt lat="45.1999" lon="5.72419">
        <ele>499.79998779297</ele>
        <time>2021-05-24T04:22:38.000Z</time>
      </trkpt>
      <trkpt lat="45.19998" lon="5.7242">
        <ele>500.60000610352</ele>
        <time>2021-05-24T04:22:42.000Z</time>
      </trkpt>
      <trkpt lat="45.2" lon="5.72421">
        <ele>501</ele>
        <time>2021-05-24T04:22:43.000Z</time>
      </trkpt>
      <trkpt lat="45.20006" lon="5.72421">
        <ele>501.60000610352</ele>
        <time>2021-05-24T04:22:46.000Z</time>
      </trkpt>
      <trkpt lat="45.20012" lon="5.72422">
        <ele>502.20001220703</ele>
        <time>2021-05-24T04:22:49.000Z</time>
      </trkpt>
      <trkpt lat="45.20014" lon="5.72422">
        <ele>502.39999389648</ele>
        <time>2021-05-24T04:22:50.000Z</time>
      </trkpt>
      <trkpt lat="45.20018" lon="5.72422">
        <ele>503</ele>
        <time>2021-05-24T04:22:52.000Z</time>
      </trkpt>
      <trkpt lat="45.20022" lon="5.72423">
        <ele>503.39999389648</ele>
        <time>2021-05-24T04:22:54.000Z</time>
      </trkpt>
      <trkpt lat="45.20029" lon="5.72424">
        <ele>504</ele>
        <time>2021-05-24T04:22:57.000Z</time>
      </trkpt>
      <trkpt lat="45.20034" lon="5.72424">
        <ele>504.20001220703</ele>
        <time>2021-05-24T04:23:00.000Z</time>
      </trkpt>
      <trkpt lat="45.20039" lon="5.72425">
        <ele>505</ele>
        <time>2021-05-24T04:23:02.000Z</time>
      </trkpt>
      <trkpt lat="45.2005" lon="5.72425">
        <ele>506.20001220703</ele>
        <time>2021-05-24T04:23:09.000Z</time>
      </trkpt>
      <trkpt lat="45.20059" lon="5.72425">
        <ele>507.39999389648</ele>
        <time>2021-05-24T04:23:14.000Z</time>
      </trkpt>
      <trkpt lat="45.20061" lon="5.72426">
        <ele>507.60000610352</ele>
        <time>2021-05-24T04:23:15.000Z</time>
      </trkpt>
      <trkpt lat="45.20065" lon="5.72428">
        <ele>508.39999389648</ele>
        <time>2021-05-24T04:23:17.000Z</time>
      </trkpt>
      <trkpt lat="45.2007" lon="5.72435">
        <ele>509.20001220703</ele>
        <time>2021-05-24T04:23:21.000Z</time>
      </trkpt>
      <trkpt lat="45.20072" lon="5.72437">
        <ele>509.39999389648</ele>
        <time>2021-05-24T04:23:22.000Z</time>
      </trkpt>
      <trkpt lat="45.20074" lon="5.72449">
        <ele>510.39999389648</ele>
        <time>2021-05-24T04:23:26.000Z</time>
      </trkpt>
      <trkpt lat="45.20075" lon="5.72452">
        <ele>510.60000610352</ele>
        <time>2021-05-24T04:23:27.000Z</time>
      </trkpt>
      <trkpt lat="45.20077" lon="5.72468">
        <ele>511.60000610352</ele>
        <time>2021-05-24T04:23:33.000Z</time>
      </trkpt>
      <trkpt lat="45.20077" lon="5.72488">
        <ele>512.59997558594</ele>
        <time>2021-05-24T04:23:39.000Z</time>
      </trkpt>
      <trkpt lat="45.20077" lon="5.72491">
        <ele>512.79998779297</ele>
        <time>2021-05-24T04:23:40.000Z</time>
      </trkpt>
      <trkpt lat="45.20077" lon="5.72497">
        <ele>512.79998779297</ele>
        <time>2021-05-24T04:23:42.000Z</time>
      </trkpt>
      <trkpt lat="45.20077" lon="5.72502">
        <ele>513.20001220703</ele>
        <time>2021-05-24T04:23:44.000Z</time>
      </trkpt>
      <trkpt lat="45.20076" lon="5.72508">
        <ele>513.59997558594</ele>
        <time>2021-05-24T04:23:46.000Z</time>
      </trkpt>
      <trkpt lat="45.20077" lon="5.7251">
        <ele>513.59997558594</ele>
        <time>2021-05-24T04:23:47.000Z</time>
      </trkpt>
      <trkpt lat="45.20077" lon="5.72512">
        <ele>513.79998779297</ele>
        <time>2021-05-24T04:23:48.000Z</time>
      </trkpt>
      <trkpt lat="45.20079" lon="5.72511">
        <ele>514.20001220703</ele>
        <time>2021-05-24T04:23:50.000Z</time>
      </trkpt>
      <trkpt lat="45.20081" lon="5.72508">
        <ele>514.20001220703</ele>
        <time>2021-05-24T04:23:52.000Z</time>
      </trkpt>
      <trkpt lat="45.20088" lon="5.725">
        <ele>515</ele>
        <time>2021-05-24T04:23:57.000Z</time>
      </trkpt>
      <trkpt lat="45.20096" lon="5.72494">
        <ele>515.79998779297</ele>
        <time>2021-05-24T04:24:02.000Z</time>
      </trkpt>
      <trkpt lat="45.20097" lon="5.72495">
        <ele>516</ele>
        <time>2021-05-24T04:24:03.000Z</time>
      </trkpt>
      <trkpt lat="45.20101" lon="5.72502">
        <ele>517.20001220703</ele>
        <time>2021-05-24T04:24:08.000Z</time>
      </trkpt>
      <trkpt lat="45.20102" lon="5.7251">
        <ele>518.59997558594</ele>
        <time>2021-05-24T04:24:12.000Z</time>
      </trkpt>
      <trkpt lat="45.20103" lon="5.72517">
        <ele>519.59997558594</ele>
        <time>2021-05-24T04:24:16.000Z</time>
      </trkpt>
      <trkpt lat="45.20103" lon="5.72517">
        <ele>519.79998779297</ele>
        <time>2021-05-24T04:24:17.000Z</time>
      </trkpt>
      <trkpt lat="45.20104" lon="5.72518">
        <ele>520.79998779297</ele>
        <time>2021-05-24T04:24:19.000Z</time>
      </trkpt>
      <trkpt lat="45.20108" lon="5.7252">
        <ele>521.79998779297</ele>
        <time>2021-05-24T04:24:23.000Z</time>
      </trkpt>
      <trkpt lat="45.20109" lon="5.7252">
        <ele>523</ele>
        <time>2021-05-24T04:24:26.000Z</time>
      </trkpt>
      <trkpt lat="45.20111" lon="5.7252">
        <ele>523.59997558594</ele>
        <time>2021-05-24T04:24:28.000Z</time>
      </trkpt>
      <trkpt lat="45.20112" lon="5.72518">
        <ele>524.20001220703</ele>
        <time>2021-05-24T04:24:30.000Z</time>
      </trkpt>
      <trkpt lat="45.20113" lon="5.72515">
        <ele>524.59997558594</ele>
        <time>2021-05-24T04:24:32.000Z</time>
      </trkpt>
      <trkpt lat="45.20113" lon="5.72514">
        <ele>525</ele>
        <time>2021-05-24T04:24:33.000Z</time>
      </trkpt>
      <trkpt lat="45.20114" lon="5.72512">
        <ele>525.59997558594</ele>
        <time>2021-05-24T04:24:35.000Z</time>
      </trkpt>
      <trkpt lat="45.20118" lon="5.72506">
        <ele>526.79998779297</ele>
        <time>2021-05-24T04:24:39.000Z</time>
      </trkpt>
      <trkpt lat="45.2012" lon="5.72502">
        <ele>527.79998779297</ele>
        <time>2021-05-24T04:24:43.000Z</time>
      </trkpt>
      <trkpt lat="45.20126" lon="5.72495">
        <ele>529</ele>
        <time>2021-05-24T04:24:49.000Z</time>
      </trkpt>
      <trkpt lat="45.20127" lon="5.72494">
        <ele>529.40002441406</ele>
        <time>2021-05-24T04:24:50.000Z</time>
      </trkpt>
      <trkpt lat="45.20129" lon="5.7249">
        <ele>530.40002441406</ele>
        <time>2021-05-24T04:24:54.000Z</time>
      </trkpt>
      <trkpt lat="45.20131" lon="5.72485">
        <ele>531.59997558594</ele>
        <time>2021-05-24T04:24:57.000Z</time>
      </trkpt>
      <trkpt lat="45.20132" lon="5.7248">
        <ele>532.59997558594</ele>
        <time>2021-05-24T04:25:01.000Z</time>
      </trkpt>
      <trkpt lat="45.20133" lon="5.72478">
        <ele>533.79998779297</ele>
        <time>2021-05-24T04:25:03.000Z</time>
      </trkpt>
      <trkpt lat="45.20136" lon="5.72468">
        <ele>534.79998779297</ele>
        <time>2021-05-24T04:25:10.000Z</time>
      </trkpt>
      <trkpt lat="45.20137" lon="5.72469">
        <ele>535.40002441406</ele>
        <time>2021-05-24T04:25:12.000Z</time>
      </trkpt>
      <trkpt lat="45.20138" lon="5.7247">
        <ele>536</ele>
        <time>2021-05-24T04:25:13.000Z</time>
      </trkpt>
      <trkpt lat="45.20138" lon="5.72471">
        <ele>536.59997558594</ele>
        <time>2021-05-24T04:25:15.000Z</time>
      </trkpt>
      <trkpt lat="45.2014" lon="5.72473">
        <ele>537.40002441406</ele>
        <time>2021-05-24T04:25:18.000Z</time>
      </trkpt>
      <trkpt lat="45.20141" lon="5.72472">
        <ele>538</ele>
        <time>2021-05-24T04:25:20.000Z</time>
      </trkpt>
      <trkpt lat="45.20142" lon="5.72472">
        <ele>538.40002441406</ele>
        <time>2021-05-24T04:25:22.000Z</time>
      </trkpt>
      <trkpt lat="45.20144" lon="5.72474">
        <ele>539.79998779297</ele>
        <time>2021-05-24T04:25:25.000Z</time>
      </trkpt>
      <trkpt lat="45.20146" lon="5.72477">
        <ele>540.79998779297</ele>
        <time>2021-05-24T04:25:29.000Z</time>
      </trkpt>
      <trkpt lat="45.20148" lon="5.72477">
        <ele>541.40002441406</ele>
        <time>2021-05-24T04:25:31.000Z</time>
      </trkpt>
      <trkpt lat="45.20148" lon="5.72475">
        <ele>542</ele>
        <time>2021-05-24T04:25:34.000Z</time>
      </trkpt>
      <trkpt lat="45.20149" lon="5.72473">
        <ele>542.59997558594</ele>
        <time>2021-05-24T04:25:37.000Z</time>
      </trkpt>
      <trkpt lat="45.2015" lon="5.72473">
        <ele>543</ele>
        <time>2021-05-24T04:25:38.000Z</time>
      </trkpt>
      <trkpt lat="45.20151" lon="5.72473">
        <ele>543.40002441406</ele>
        <time>2021-05-24T04:25:39.000Z</time>
      </trkpt>
      <trkpt lat="45.20153" lon="5.72474">
        <ele>544.20001220703</ele>
        <time>2021-05-24T04:25:41.000Z</time>
      </trkpt>
      <trkpt lat="45.20154" lon="5.72473">
        <ele>544.79998779297</ele>
        <time>2021-05-24T04:25:43.000Z</time>
      </trkpt>
      <trkpt lat="45.20154" lon="5.72473">
        <ele>545</ele>
        <time>2021-05-24T04:25:44.000Z</time>
      </trkpt>
      <trkpt lat="45.20154" lon="5.72472">
        <ele>545</ele>
        <time>2021-05-24T04:25:45.000Z</time>
      </trkpt>
      <trkpt lat="45.20154" lon="5.72471">
        <ele>545.40002441406</ele>
        <time>2021-05-24T04:25:46.000Z</time>
      </trkpt>
      <trkpt lat="45.20156" lon="5.72468">
        <ele>546.79998779297</ele>
        <time>2021-05-24T04:25:50.000Z</time>
      </trkpt>
      <trkpt lat="45.20158" lon="5.72468">
        <ele>547</ele>
        <time>2021-05-24T04:25:51.000Z</time>
      </trkpt>
      <trkpt lat="45.2016" lon="5.72468">
        <ele>547.59997558594</ele>
        <time>2021-05-24T04:25:53.000Z</time>
      </trkpt>
      <trkpt lat="45.20161" lon="5.72469">
        <ele>547.79998779297</ele>
        <time>2021-05-24T04:25:54.000Z</time>
      </trkpt>
      <trkpt lat="45.20163" lon="5.72471">
        <ele>548.79998779297</ele>
        <time>2021-05-24T04:25:56.000Z</time>
      </trkpt>
      <trkpt lat="45.20164" lon="5.72472">
        <ele>549</ele>
        <time>2021-05-24T04:25:57.000Z</time>
      </trkpt>
      <trkpt lat="45.20166" lon="5.72474">
        <ele>549.59997558594</ele>
        <time>2021-05-24T04:26:00.000Z</time>
      </trkpt>
      <trkpt lat="45.20167" lon="5.72474">
        <ele>550.40002441406</ele>
        <time>2021-05-24T04:26:02.000Z</time>
      </trkpt>
      <trkpt lat="45.20167" lon="5.72474">
        <ele>551</ele>
        <time>2021-05-24T04:26:03.000Z</time>
      </trkpt>
      <trkpt lat="45.20168" lon="5.72476">
        <ele>551.40002441406</ele>
        <time>2021-05-24T04:26:04.000Z</time>
      </trkpt>
      <trkpt lat="45.2017" lon="5.72481">
        <ele>552.40002441406</ele>
        <time>2021-05-24T04:26:09.000Z</time>
      </trkpt>
      <trkpt lat="45.20173" lon="5.72483">
        <ele>553.59997558594</ele>
        <time>2021-05-24T04:26:12.000Z</time>
      </trkpt>
      <trkpt lat="45.20178" lon="5.72488">
        <ele>554.59997558594</ele>
        <time>2021-05-24T04:26:17.000Z</time>
      </trkpt>
      <trkpt lat="45.20179" lon="5.72489">
        <ele>554.79998779297</ele>
        <time>2021-05-24T04:26:18.000Z</time>
      </trkpt>
      <trkpt lat="45.20184" lon="5.72491">
        <ele>556</ele>
        <time>2021-05-24T04:26:23.000Z</time>
      </trkpt>
      <trkpt lat="45.20184" lon="5.72492">
        <ele>556.20001220703</ele>
        <time>2021-05-24T04:26:24.000Z</time>
      </trkpt>
      <trkpt lat="45.20188" lon="5.72496">
        <ele>557.20001220703</ele>
        <time>2021-05-24T04:26:28.000Z</time>
      </trkpt>
      <trkpt lat="45.20191" lon="5.72498">
        <ele>557.59997558594</ele>
        <time>2021-05-24T04:26:31.000Z</time>
      </trkpt>
      <trkpt lat="45.20191" lon="5.72499">
        <ele>557.79998779297</ele>
        <time>2021-05-24T04:26:32.000Z</time>
      </trkpt>
      <trkpt lat="45.20192" lon="5.72501">
        <ele>558.40002441406</ele>
        <time>2021-05-24T04:26:34.000Z</time>
      </trkpt>
      <trkpt lat="45.20194" lon="5.72504">
        <ele>559</ele>
        <time>2021-05-24T04:26:37.000Z</time>
      </trkpt>
      <trkpt lat="45.20197" lon="5.72505">
        <ele>559.59997558594</ele>
        <time>2021-05-24T04:26:40.000Z</time>
      </trkpt>
      <trkpt lat="45.202" lon="5.72508">
        <ele>560.40002441406</ele>
        <time>2021-05-24T04:26:43.000Z</time>
      </trkpt>
      <trkpt lat="45.20201" lon="5.7251">
        <ele>560.59997558594</ele>
        <time>2021-05-24T04:26:45.000Z</time>
      </trkpt>
      <trkpt lat="45.20202" lon="5.72511">
        <ele>561</ele>
        <time>2021-05-24T04:26:46.000Z</time>
      </trkpt>
      <trkpt lat="45.20204" lon="5.72515">
        <ele>562</ele>
        <time>2021-05-24T04:26:50.000Z</time>
      </trkpt>
      <trkpt lat="45.20205" lon="5.72516">
        <ele>562.40002441406</ele>
        <time>2021-05-24T04:26:52.000Z</time>
      </trkpt>
      <trkpt lat="45.20208" lon="5.72517">
        <ele>563.20001220703</ele>
        <time>2021-05-24T04:26:55.000Z</time>
      </trkpt>
      <trkpt lat="45.2021" lon="5.72517">
        <ele>563.79998779297</ele>
        <time>2021-05-24T04:26:57.000Z</time>
      </trkpt>
      <trkpt lat="45.20211" lon="5.72517">
        <ele>564.20001220703</ele>
        <time>2021-05-24T04:26:58.000Z</time>
      </trkpt>
      <trkpt lat="45.20211" lon="5.72518">
        <ele>564.59997558594</ele>
        <time>2021-05-24T04:26:59.000Z</time>
      </trkpt>
      <trkpt lat="45.20212" lon="5.72519">
        <ele>565.20001220703</ele>
        <time>2021-05-24T04:27:01.000Z</time>
      </trkpt>
      <trkpt lat="45.20213" lon="5.72519">
        <ele>565.59997558594</ele>
        <time>2021-05-24T04:27:03.000Z</time>
      </trkpt>
      <trkpt lat="45.20213" lon="5.72519">
        <ele>566</ele>
        <time>2021-05-24T04:27:04.000Z</time>
      </trkpt>
      <trkpt lat="45.20214" lon="5.72519">
        <ele>566.20001220703</ele>
        <time>2021-05-24T04:27:05.000Z</time>
      </trkpt>
      <trkpt lat="45.20216" lon="5.72518">
        <ele>566.79998779297</ele>
        <time>2021-05-24T04:27:07.000Z</time>
      </trkpt>
      <trkpt lat="45.20219" lon="5.72518">
        <ele>567.40002441406</ele>
        <time>2021-05-24T04:27:09.000Z</time>
      </trkpt>
      <trkpt lat="45.20222" lon="5.72518">
        <ele>568.40002441406</ele>
        <time>2021-05-24T04:27:12.000Z</time>
      </trkpt>
      <trkpt lat="45.20223" lon="5.72519">
        <ele>568.59997558594</ele>
        <time>2021-05-24T04:27:13.000Z</time>
      </trkpt>
      <trkpt lat="45.20223" lon="5.72519">
        <ele>569</ele>
        <time>2021-05-24T04:27:14.000Z</time>
      </trkpt>
      <trkpt lat="45.20225" lon="5.72519">
        <ele>569.59997558594</ele>
        <time>2021-05-24T04:27:17.000Z</time>
      </trkpt>
      <trkpt lat="45.20229" lon="5.72518">
        <ele>570.79998779297</ele>
        <time>2021-05-24T04:27:21.000Z</time>
      </trkpt>
      <trkpt lat="45.20231" lon="5.72519">
        <ele>571.40002441406</ele>
        <time>2021-05-24T04:27:23.000Z</time>
      </trkpt>
      <trkpt lat="45.20233" lon="5.72519">
        <ele>572</ele>
        <time>2021-05-24T04:27:25.000Z</time>
      </trkpt>
      <trkpt lat="45.20237" lon="5.72518">
        <ele>573</ele>
        <time>2021-05-24T04:27:28.000Z</time>
      </trkpt>
      <trkpt lat="45.20239" lon="5.72517">
        <ele>573.20001220703</ele>
        <time>2021-05-24T04:27:29.000Z</time>
      </trkpt>
      <trkpt lat="45.20244" lon="5.72515">
        <ele>574</ele>
        <time>2021-05-24T04:27:32.000Z</time>
      </trkpt>
      <trkpt lat="45.20247" lon="5.72514">
        <ele>574.79998779297</ele>
        <time>2021-05-24T04:27:34.000Z</time>
      </trkpt>
      <trkpt lat="45.20248" lon="5.72514">
        <ele>575</ele>
        <time>2021-05-24T04:27:35.000Z</time>
      </trkpt>
      <trkpt lat="45.20249" lon="5.72513">
        <ele>575.20001220703</ele>
        <time>2021-05-24T04:27:36.000Z</time>
      </trkpt>
      <trkpt lat="45.20251" lon="5.72514">
        <ele>576</ele>
        <time>2021-05-24T04:27:38.000Z</time>
      </trkpt>
      <trkpt lat="45.20251" lon="5.72515">
        <ele>576.79998779297</ele>
        <time>2021-05-24T04:27:40.000Z</time>
      </trkpt>
      <trkpt lat="45.20252" lon="5.72515">
        <ele>577</ele>
        <time>2021-05-24T04:27:41.000Z</time>
      </trkpt>
      <trkpt lat="45.20252" lon="5.72516">
        <ele>577.20001220703</ele>
        <time>2021-05-24T04:27:42.000Z</time>
      </trkpt>
      <trkpt lat="45.20255" lon="5.72517">
        <ele>578.20001220703</ele>
        <time>2021-05-24T04:27:45.000Z</time>
      </trkpt>
      <trkpt lat="45.20256" lon="5.72518">
        <ele>578.59997558594</ele>
        <time>2021-05-24T04:27:46.000Z</time>
      </trkpt>
      <trkpt lat="45.20258" lon="5.72517">
        <ele>579.40002441406</ele>
        <time>2021-05-24T04:27:49.000Z</time>
      </trkpt>
      <trkpt lat="45.20259" lon="5.72516">
        <ele>579.79998779297</ele>
        <time>2021-05-24T04:27:50.000Z</time>
      </trkpt>
      <trkpt lat="45.20262" lon="5.72515">
        <ele>580.40002441406</ele>
        <time>2021-05-24T04:27:53.000Z</time>
      </trkpt>
      <trkpt lat="45.20264" lon="5.72515">
        <ele>581</ele>
        <time>2021-05-24T04:27:55.000Z</time>
      </trkpt>
      <trkpt lat="45.20266" lon="5.72516">
        <ele>581.40002441406</ele>
        <time>2021-05-24T04:27:57.000Z</time>
      </trkpt>
      <trkpt lat="45.20266" lon="5.72516">
        <ele>581.79998779297</ele>
        <time>2021-05-24T04:27:58.000Z</time>
      </trkpt>
      <trkpt lat="45.20269" lon="5.72518">
        <ele>582.79998779297</ele>
        <time>2021-05-24T04:28:02.000Z</time>
      </trkpt>
      <trkpt lat="45.2027" lon="5.72519">
        <ele>583</ele>
        <time>2021-05-24T04:28:03.000Z</time>
      </trkpt>
      <trkpt lat="45.20275" lon="5.72519">
        <ele>584</ele>
        <time>2021-05-24T04:28:08.000Z</time>
      </trkpt>
      <trkpt lat="45.20276" lon="5.72519">
        <ele>584.20001220703</ele>
        <time>2021-05-24T04:28:09.000Z</time>
      </trkpt>
      <trkpt lat="45.2028" lon="5.72519">
        <ele>585.20001220703</ele>
        <time>2021-05-24T04:28:14.000Z</time>
      </trkpt>
      <trkpt lat="45.20286" lon="5.72518">
        <ele>586.40002441406</ele>
        <time>2021-05-24T04:28:19.000Z</time>
      </trkpt>
      <trkpt lat="45.2029" lon="5.72517">
        <ele>587</ele>
        <time>2021-05-24T04:28:21.000Z</time>
      </trkpt>
      <trkpt lat="45.20293" lon="5.72517">
        <ele>587.59997558594</ele>
        <time>2021-05-24T04:28:23.000Z</time>
      </trkpt>
      <trkpt lat="45.20296" lon="5.7252">
        <ele>588.40002441406</ele>
        <time>2021-05-24T04:28:26.000Z</time>
      </trkpt>
      <trkpt lat="45.20297" lon="5.72521">
        <ele>588.79998779297</ele>
        <time>2021-05-24T04:28:27.000Z</time>
      </trkpt>
      <trkpt lat="45.20303" lon="5.72522">
        <ele>590</ele>
        <time>2021-05-24T04:28:32.000Z</time>
      </trkpt>
      <trkpt lat="45.20305" lon="5.72523">
        <ele>590.79998779297</ele>
        <time>2021-05-24T04:28:34.000Z</time>
      </trkpt>
      <trkpt lat="45.20305" lon="5.72524">
        <ele>591.20001220703</ele>
        <time>2021-05-24T04:28:35.000Z</time>
      </trkpt>
      <trkpt lat="45.20308" lon="5.72524">
        <ele>592.20001220703</ele>
        <time>2021-05-24T04:28:39.000Z</time>
      </trkpt>
      <trkpt lat="45.2031" lon="5.72526">
        <ele>593.40002441406</ele>
        <time>2021-05-24T04:28:42.000Z</time>
      </trkpt>
      <trkpt lat="45.20311" lon="5.72527">
        <ele>594.20001220703</ele>
        <time>2021-05-24T04:28:46.000Z</time>
      </trkpt>
      <trkpt lat="45.20311" lon="5.72526">
        <ele>594.40002441406</ele>
        <time>2021-05-24T04:28:47.000Z</time>
      </trkpt>
      <trkpt lat="45.20312" lon="5.72525">
        <ele>595</ele>
        <time>2021-05-24T04:28:48.000Z</time>
      </trkpt>
      <trkpt lat="45.20315" lon="5.72525">
        <ele>596</ele>
        <time>2021-05-24T04:28:51.000Z</time>
      </trkpt>
      <trkpt lat="45.20322" lon="5.72523">
        <ele>597.20001220703</ele>
        <time>2021-05-24T04:28:56.000Z</time>
      </trkpt>
      <trkpt lat="45.20328" lon="5.72521">
        <ele>597.59997558594</ele>
        <time>2021-05-24T04:28:58.000Z</time>
      </trkpt>
      <trkpt lat="45.20328" lon="5.72522">
        <ele>598</ele>
        <time>2021-05-24T04:29:00.000Z</time>
      </trkpt>
      <trkpt lat="45.20328" lon="5.72522">
        <ele>598.40002441406</ele>
        <time>2021-05-24T04:29:01.000Z</time>
      </trkpt>
      <trkpt lat="45.20328" lon="5.72522">
        <ele>599.20001220703</ele>
        <time>2021-05-24T04:29:02.000Z</time>
      </trkpt>
      <trkpt lat="45.20329" lon="5.72522">
        <ele>599.59997558594</ele>
        <time>2021-05-24T04:29:03.000Z</time>
      </trkpt>
      <trkpt lat="45.20335" lon="5.72519">
        <ele>600.59997558594</ele>
        <time>2021-05-24T04:29:07.000Z</time>
      </trkpt>
      <trkpt lat="45.20336" lon="5.72519">
        <ele>601</ele>
        <time>2021-05-24T04:29:08.000Z</time>
      </trkpt>
      <trkpt lat="45.20337" lon="5.72523">
        <ele>601.79998779297</ele>
        <time>2021-05-24T04:29:11.000Z</time>
      </trkpt>
      <trkpt lat="45.20337" lon="5.72523">
        <ele>602</ele>
        <time>2021-05-24T04:29:12.000Z</time>
      </trkpt>
      <trkpt lat="45.20338" lon="5.72524">
        <ele>602.40002441406</ele>
        <time>2021-05-24T04:29:13.000Z</time>
      </trkpt>
      <trkpt lat="45.20339" lon="5.72523">
        <ele>603</ele>
        <time>2021-05-24T04:29:15.000Z</time>
      </trkpt>
      <trkpt lat="45.20341" lon="5.72523">
        <ele>603.59997558594</ele>
        <time>2021-05-24T04:29:17.000Z</time>
      </trkpt>
      <trkpt lat="45.20342" lon="5.72523">
        <ele>604.20001220703</ele>
        <time>2021-05-24T04:29:18.000Z</time>
      </trkpt>
      <trkpt lat="45.20343" lon="5.72523">
        <ele>604.79998779297</ele>
        <time>2021-05-24T04:29:20.000Z</time>
      </trkpt>
      <trkpt lat="45.20344" lon="5.72522">
        <ele>605.40002441406</ele>
        <time>2021-05-24T04:29:23.000Z</time>
      </trkpt>
      <trkpt lat="45.20345" lon="5.72521">
        <ele>605.79998779297</ele>
        <time>2021-05-24T04:29:25.000Z</time>
      </trkpt>
      <trkpt lat="45.20346" lon="5.72521">
        <ele>606.20001220703</ele>
        <time>2021-05-24T04:29:26.000Z</time>
      </trkpt>
      <trkpt lat="45.20348" lon="5.7252">
        <ele>607</ele>
        <time>2021-05-24T04:29:28.000Z</time>
      </trkpt>
      <trkpt lat="45.20352" lon="5.72521">
        <ele>608</ele>
        <time>2021-05-24T04:29:32.000Z</time>
      </trkpt>
      <trkpt lat="45.20357" lon="5.72521">
        <ele>609</ele>
        <time>2021-05-24T04:29:36.000Z</time>
      </trkpt>
      <trkpt lat="45.20358" lon="5.72522">
        <ele>609.20001220703</ele>
        <time>2021-05-24T04:29:37.000Z</time>
      </trkpt>
      <trkpt lat="45.20359" lon="5.72521">
        <ele>609.20001220703</ele>
        <time>2021-05-24T04:29:38.000Z</time>
      </trkpt>
      <trkpt lat="45.2036" lon="5.72522">
        <ele>609.59997558594</ele>
        <time>2021-05-24T04:29:40.000Z</time>
      </trkpt>
      <trkpt lat="45.20362" lon="5.72521">
        <ele>610.40002441406</ele>
        <time>2021-05-24T04:29:42.000Z</time>
      </trkpt>
      <trkpt lat="45.20362" lon="5.72521">
        <ele>610.59997558594</ele>
        <time>2021-05-24T04:29:43.000Z</time>
      </trkpt>
      <trkpt lat="45.20364" lon="5.72521">
        <ele>611</ele>
        <time>2021-05-24T04:29:45.000Z</time>
      </trkpt>
      <trkpt lat="45.20366" lon="5.72523">
        <ele>611.59997558594</ele>
        <time>2021-05-24T04:29:47.000Z</time>
      </trkpt>
      <trkpt lat="45.20367" lon="5.72523">
        <ele>611.79998779297</ele>
        <time>2021-05-24T04:29:48.000Z</time>
      </trkpt>
      <trkpt lat="45.20368" lon="5.72524">
        <ele>612.40002441406</ele>
        <time>2021-05-24T04:29:50.000Z</time>
      </trkpt>
      <trkpt lat="45.20369" lon="5.72524">
        <ele>612.59997558594</ele>
        <time>2021-05-24T04:29:51.000Z</time>
      </trkpt>
      <trkpt lat="45.20369" lon="5.72525">
        <ele>613</ele>
        <time>2021-05-24T04:29:52.000Z</time>
      </trkpt>
      <trkpt lat="45.20371" lon="5.72527">
        <ele>614</ele>
        <time>2021-05-24T04:29:55.000Z</time>
      </trkpt>
      <trkpt lat="45.20373" lon="5.72527">
        <ele>614.40002441406</ele>
        <time>2021-05-24T04:29:56.000Z</time>
      </trkpt>
      <trkpt lat="45.20374" lon="5.72528">
        <ele>614.79998779297</ele>
        <time>2021-05-24T04:29:57.000Z</time>
      </trkpt>
      <trkpt lat="45.20374" lon="5.72529">
        <ele>615.20001220703</ele>
        <time>2021-05-24T04:29:58.000Z</time>
      </trkpt>
      <trkpt lat="45.20376" lon="5.72534">
        <ele>616</ele>
        <time>2021-05-24T04:30:01.000Z</time>
      </trkpt>
      <trkpt lat="45.20378" lon="5.72535">
        <ele>616.40002441406</ele>
        <time>2021-05-24T04:30:02.000Z</time>
      </trkpt>
      <trkpt lat="45.20381" lon="5.72536">
        <ele>616.79998779297</ele>
        <time>2021-05-24T04:30:04.000Z</time>
      </trkpt>
      <trkpt lat="45.20382" lon="5.72536">
        <ele>617.20001220703</ele>
        <time>2021-05-24T04:30:06.000Z</time>
      </trkpt>
      <trkpt lat="45.20384" lon="5.72536">
        <ele>617.40002441406</ele>
        <time>2021-05-24T04:30:07.000Z</time>
      </trkpt>
      <trkpt lat="45.20386" lon="5.72536">
        <ele>618</ele>
        <time>2021-05-24T04:30:09.000Z</time>
      </trkpt>
      <trkpt lat="45.20387" lon="5.72536">
        <ele>618.59997558594</ele>
        <time>2021-05-24T04:30:11.000Z</time>
      </trkpt>
      <trkpt lat="45.20388" lon="5.72535">
        <ele>618.79998779297</ele>
        <time>2021-05-24T04:30:12.000Z</time>
      </trkpt>
      <trkpt lat="45.20388" lon="5.72536">
        <ele>619.79998779297</ele>
        <time>2021-05-24T04:30:14.000Z</time>
      </trkpt>
      <trkpt lat="45.20388" lon="5.72536">
        <ele>620.59997558594</ele>
        <time>2021-05-24T04:30:16.000Z</time>
      </trkpt>
      <trkpt lat="45.20389" lon="5.72535">
        <ele>621</ele>
        <time>2021-05-24T04:30:17.000Z</time>
      </trkpt>
      <trkpt lat="45.2039" lon="5.72535">
        <ele>621</ele>
        <time>2021-05-24T04:30:18.000Z</time>
      </trkpt>
      <trkpt lat="45.20397" lon="5.72537">
        <ele>622</ele>
        <time>2021-05-24T04:30:22.000Z</time>
      </trkpt>
      <trkpt lat="45.20397" lon="5.72537">
        <ele>622</ele>
        <time>2021-05-24T04:30:23.000Z</time>
      </trkpt>
      <trkpt lat="45.20397" lon="5.72538">
        <ele>622.79998779297</ele>
        <time>2021-05-24T04:30:25.000Z</time>
      </trkpt>
      <trkpt lat="45.20398" lon="5.72537">
        <ele>623.20001220703</ele>
        <time>2021-05-24T04:30:26.000Z</time>
      </trkpt>
      <trkpt lat="45.20399" lon="5.72536">
        <ele>624</ele>
        <time>2021-05-24T04:30:30.000Z</time>
      </trkpt>
      <trkpt lat="45.204" lon="5.72535">
        <ele>624.20001220703</ele>
        <time>2021-05-24T04:30:31.000Z</time>
      </trkpt>
      <trkpt lat="45.204" lon="5.72535">
        <ele>624.20001220703</ele>
        <time>2021-05-24T04:30:32.000Z</time>
      </trkpt>
      <trkpt lat="45.20401" lon="5.72535">
        <ele>624.79998779297</ele>
        <time>2021-05-24T04:30:34.000Z</time>
      </trkpt>
      <trkpt lat="45.20401" lon="5.72535">
        <ele>625.40002441406</ele>
        <time>2021-05-24T04:30:36.000Z</time>
      </trkpt>
      <trkpt lat="45.20403" lon="5.72531">
        <ele>626</ele>
        <time>2021-05-24T04:30:38.000Z</time>
      </trkpt>
      <trkpt lat="45.20405" lon="5.7253">
        <ele>626.59997558594</ele>
        <time>2021-05-24T04:30:39.000Z</time>
      </trkpt>
      <trkpt lat="45.20409" lon="5.72529">
        <ele>627</ele>
        <time>2021-05-24T04:30:41.000Z</time>
      </trkpt>
      <trkpt lat="45.20411" lon="5.72527">
        <ele>627.59997558594</ele>
        <time>2021-05-24T04:30:43.000Z</time>
      </trkpt>
      <trkpt lat="45.20412" lon="5.72527">
        <ele>627.79998779297</ele>
        <time>2021-05-24T04:30:44.000Z</time>
      </trkpt>
      <trkpt lat="45.20412" lon="5.72527">
        <ele>628.79998779297</ele>
        <time>2021-05-24T04:30:47.000Z</time>
      </trkpt>
      <trkpt lat="45.20413" lon="5.72524">
        <ele>629.79998779297</ele>
        <time>2021-05-24T04:30:50.000Z</time>
      </trkpt>
      <trkpt lat="45.20413" lon="5.72523">
        <ele>630</ele>
        <time>2021-05-24T04:30:51.000Z</time>
      </trkpt>
      <trkpt lat="45.20415" lon="5.7252">
        <ele>630.59997558594</ele>
        <time>2021-05-24T04:30:54.000Z</time>
      </trkpt>
      <trkpt lat="45.20416" lon="5.72519">
        <ele>631.20001220703</ele>
        <time>2021-05-24T04:30:55.000Z</time>
      </trkpt>
      <trkpt lat="45.20417" lon="5.72519">
        <ele>631.59997558594</ele>
        <time>2021-05-24T04:30:56.000Z</time>
      </trkpt>
      <trkpt lat="45.20421" lon="5.72516">
        <ele>632.59997558594</ele>
        <time>2021-05-24T04:30:59.000Z</time>
      </trkpt>
      <trkpt lat="45.20421" lon="5.72517">
        <ele>633</ele>
        <time>2021-05-24T04:31:00.000Z</time>
      </trkpt>
      <trkpt lat="45.20421" lon="5.72518">
        <ele>633.40002441406</ele>
        <time>2021-05-24T04:31:01.000Z</time>
      </trkpt>
      <trkpt lat="45.20421" lon="5.72519">
        <ele>633.79998779297</ele>
        <time>2021-05-24T04:31:02.000Z</time>
      </trkpt>
      <trkpt lat="45.20422" lon="5.7252">
        <ele>634</ele>
        <time>2021-05-24T04:31:03.000Z</time>
      </trkpt>
      <trkpt lat="45.20423" lon="5.72519">
        <ele>634.40002441406</ele>
        <time>2021-05-24T04:31:05.000Z</time>
      </trkpt>
      <trkpt lat="45.20424" lon="5.72518">
        <ele>634.59997558594</ele>
        <time>2021-05-24T04:31:06.000Z</time>
      </trkpt>
      <trkpt lat="45.20425" lon="5.72518">
        <ele>634.79998779297</ele>
        <time>2021-05-24T04:31:07.000Z</time>
      </trkpt>
      <trkpt lat="45.20427" lon="5.72518">
        <ele>635.59997558594</ele>
        <time>2021-05-24T04:31:09.000Z</time>
      </trkpt>
      <trkpt lat="45.20427" lon="5.72517">
        <ele>636.40002441406</ele>
        <time>2021-05-24T04:31:10.000Z</time>
      </trkpt>
      <trkpt lat="45.20427" lon="5.72517">
        <ele>636.59997558594</ele>
        <time>2021-05-24T04:31:11.000Z</time>
      </trkpt>
      <trkpt lat="45.20429" lon="5.72517">
        <ele>637.40002441406</ele>
        <time>2021-05-24T04:31:14.000Z</time>
      </trkpt>
      <trkpt lat="45.20431" lon="5.72517">
        <ele>638.20001220703</ele>
        <time>2021-05-24T04:31:16.000Z</time>
      </trkpt>
      <trkpt lat="45.20432" lon="5.72515">
        <ele>638.40002441406</ele>
        <time>2021-05-24T04:31:17.000Z</time>
      </trkpt>
      <trkpt lat="45.20437" lon="5.72515">
        <ele>639</ele>
        <time>2021-05-24T04:31:21.000Z</time>
      </trkpt>
      <trkpt lat="45.20441" lon="5.72514">
        <ele>639.59997558594</ele>
        <time>2021-05-24T04:31:23.000Z</time>
      </trkpt>
      <trkpt lat="45.20452" lon="5.72523">
        <ele>640.59997558594</ele>
        <time>2021-05-24T04:31:28.000Z</time>
      </trkpt>
      <trkpt lat="45.20455" lon="5.72526">
        <ele>641</ele>
        <time>2021-05-24T04:31:30.000Z</time>
      </trkpt>
      <trkpt lat="45.20457" lon="5.72529">
        <ele>641.59997558594</ele>
        <time>2021-05-24T04:31:32.000Z</time>
      </trkpt>
      <trkpt lat="45.20464" lon="5.72536">
        <ele>642.40002441406</ele>
        <time>2021-05-24T04:31:37.000Z</time>
      </trkpt>
      <trkpt lat="45.20465" lon="5.72538">
        <ele>642.59997558594</ele>
        <time>2021-05-24T04:31:38.000Z</time>
      </trkpt>
      <trkpt lat="45.20466" lon="5.7254">
        <ele>643</ele>
        <time>2021-05-24T04:31:39.000Z</time>
      </trkpt>
      <trkpt lat="45.20468" lon="5.72542">
        <ele>643.20001220703</ele>
        <time>2021-05-24T04:31:41.000Z</time>
      </trkpt>
      <trkpt lat="45.20471" lon="5.72543">
        <ele>643.59997558594</ele>
        <time>2021-05-24T04:31:43.000Z</time>
      </trkpt>
      <trkpt lat="45.20472" lon="5.72544">
        <ele>643.59997558594</ele>
        <time>2021-05-24T04:31:44.000Z</time>
      </trkpt>
      <trkpt lat="45.20474" lon="5.72545">
        <ele>643.79998779297</ele>
        <time>2021-05-24T04:31:45.000Z</time>
      </trkpt>
      <trkpt lat="45.20481" lon="5.7255">
        <ele>644.40002441406</ele>
        <time>2021-05-24T04:31:49.000Z</time>
      </trkpt>
      <trkpt lat="45.20484" lon="5.72552">
        <ele>644.79998779297</ele>
        <time>2021-05-24T04:31:51.000Z</time>
      </trkpt>
      <trkpt lat="45.20493" lon="5.72558">
        <ele>645.59997558594</ele>
        <time>2021-05-24T04:31:56.000Z</time>
      </trkpt>
      <trkpt lat="45.20494" lon="5.7256">
        <ele>645.79998779297</ele>
        <time>2021-05-24T04:31:57.000Z</time>
      </trkpt>
      <trkpt lat="45.20505" lon="5.72568">
        <ele>646.59997558594</ele>
        <time>2021-05-24T04:32:04.000Z</time>
      </trkpt>
      <trkpt lat="45.20506" lon="5.72569">
        <ele>646.59997558594</ele>
        <time>2021-05-24T04:32:05.000Z</time>
      </trkpt>
      <trkpt lat="45.20511" lon="5.72571">
        <ele>647.20001220703</ele>
        <time>2021-05-24T04:32:09.000Z</time>
      </trkpt>
      <trkpt lat="45.20514" lon="5.72571">
        <ele>647.79998779297</ele>
        <time>2021-05-24T04:32:12.000Z</time>
      </trkpt>
      <trkpt lat="45.20519" lon="5.72569">
        <ele>648.40002441406</ele>
        <time>2021-05-24T04:32:15.000Z</time>
      </trkpt>
      <trkpt lat="45.20528" lon="5.72561">
        <ele>649</ele>
        <time>2021-05-24T04:32:19.000Z</time>
      </trkpt>
      <trkpt lat="45.20531" lon="5.72558">
        <ele>649.40002441406</ele>
        <time>2021-05-24T04:32:21.000Z</time>
      </trkpt>
      <trkpt lat="45.20541" lon="5.72554">
        <ele>650.40002441406</ele>
        <time>2021-05-24T04:32:27.000Z</time>
      </trkpt>
      <trkpt lat="45.20542" lon="5.72554">
        <ele>650.59997558594</ele>
        <time>2021-05-24T04:32:28.000Z</time>
      </trkpt>
      <trkpt lat="45.20546" lon="5.72554">
        <ele>651</ele>
        <time>2021-05-24T04:32:32.000Z</time>
      </trkpt>
      <trkpt lat="45.20551" lon="5.72555">
        <ele>651.40002441406</ele>
        <time>2021-05-24T04:32:35.000Z</time>
      </trkpt>
      <trkpt lat="45.20564" lon="5.72557">
        <ele>652</ele>
        <time>2021-05-24T04:32:42.000Z</time>
      </trkpt>
      <trkpt lat="45.20568" lon="5.72558">
        <ele>652.79998779297</ele>
        <time>2021-05-24T04:32:44.000Z</time>
      </trkpt>
      <trkpt lat="45.20576" lon="5.72563">
        <ele>653.59997558594</ele>
        <time>2021-05-24T04:32:48.000Z</time>
      </trkpt>
      <trkpt lat="45.20578" lon="5.72564">
        <ele>653.59997558594</ele>
        <time>2021-05-24T04:32:49.000Z</time>
      </trkpt>
      <trkpt lat="45.2058" lon="5.72565">
        <ele>653.79998779297</ele>
        <time>2021-05-24T04:32:50.000Z</time>
      </trkpt>
      <trkpt lat="45.20591" lon="5.72572">
        <ele>654.79998779297</ele>
        <time>2021-05-24T04:32:55.000Z</time>
      </trkpt>
      <trkpt lat="45.20593" lon="5.72574">
        <ele>655</ele>
        <time>2021-05-24T04:32:57.000Z</time>
      </trkpt>
      <trkpt lat="45.20597" lon="5.72576">
        <ele>655.40002441406</ele>
        <time>2021-05-24T04:33:00.000Z</time>
      </trkpt>
      <trkpt lat="45.20601" lon="5.7258">
        <ele>655.59997558594</ele>
        <time>2021-05-24T04:33:03.000Z</time>
      </trkpt>
      <trkpt lat="45.20604" lon="5.72582">
        <ele>656</ele>
        <time>2021-05-24T04:33:05.000Z</time>
      </trkpt>
      <trkpt lat="45.20611" lon="5.72586">
        <ele>657</ele>
        <time>2021-05-24T04:33:10.000Z</time>
      </trkpt>
      <trkpt lat="45.20613" lon="5.72587">
        <ele>657.20001220703</ele>
        <time>2021-05-24T04:33:11.000Z</time>
      </trkpt>
      <trkpt lat="45.20624" lon="5.72594">
        <ele>658.20001220703</ele>
        <time>2021-05-24T04:33:16.000Z</time>
      </trkpt>
      <trkpt lat="45.20629" lon="5.72597">
        <ele>659</ele>
        <time>2021-05-24T04:33:20.000Z</time>
      </trkpt>
      <trkpt lat="45.20635" lon="5.72595">
        <ele>659.20001220703</ele>
        <time>2021-05-24T04:33:23.000Z</time>
      </trkpt>
      <trkpt lat="45.20637" lon="5.72594">
        <ele>659.40002441406</ele>
        <time>2021-05-24T04:33:24.000Z</time>
      </trkpt>
      <trkpt lat="45.20641" lon="5.72594">
        <ele>659.79998779297</ele>
        <time>2021-05-24T04:33:26.000Z</time>
      </trkpt>
      <trkpt lat="45.2065" lon="5.72592">
        <ele>660.59997558594</ele>
        <time>2021-05-24T04:33:33.000Z</time>
      </trkpt>
      <trkpt lat="45.2066" lon="5.72583">
        <ele>661.79998779297</ele>
        <time>2021-05-24T04:33:40.000Z</time>
      </trkpt>
      <trkpt lat="45.20666" lon="5.72578">
        <ele>663</ele>
        <time>2021-05-24T04:33:44.000Z</time>
      </trkpt>
      <trkpt lat="45.2067" lon="5.72574">
        <ele>663.59997558594</ele>
        <time>2021-05-24T04:33:47.000Z</time>
      </trkpt>
      <trkpt lat="45.20676" lon="5.72574">
        <ele>664</ele>
        <time>2021-05-24T04:33:50.000Z</time>
      </trkpt>
      <trkpt lat="45.20683" lon="5.72571">
        <ele>665.40002441406</ele>
        <time>2021-05-24T04:33:55.000Z</time>
      </trkpt>
      <trkpt lat="45.20686" lon="5.72569">
        <ele>666</ele>
        <time>2021-05-24T04:33:58.000Z</time>
      </trkpt>
      <trkpt lat="45.20689" lon="5.72568">
        <ele>666.79998779297</ele>
        <time>2021-05-24T04:34:01.000Z</time>
      </trkpt>
      <trkpt lat="45.20691" lon="5.72568">
        <ele>667.20001220703</ele>
        <time>2021-05-24T04:34:02.000Z</time>
      </trkpt>
      <trkpt lat="45.20696" lon="5.72568">
        <ele>668</ele>
        <time>2021-05-24T04:34:05.000Z</time>
      </trkpt>
      <trkpt lat="45.20698" lon="5.72569">
        <ele>668.59997558594</ele>
        <time>2021-05-24T04:34:07.000Z</time>
      </trkpt>
      <trkpt lat="45.20699" lon="5.7257">
        <ele>668.79998779297</ele>
        <time>2021-05-24T04:34:09.000Z</time>
      </trkpt>
      <trkpt lat="45.207" lon="5.72571">
        <ele>669.20001220703</ele>
        <time>2021-05-24T04:34:10.000Z</time>
      </trkpt>
      <trkpt lat="45.20702" lon="5.72572">
        <ele>670.20001220703</ele>
        <time>2021-05-24T04:34:13.000Z</time>
      </trkpt>
      <trkpt lat="45.20703" lon="5.72572">
        <ele>670.20001220703</ele>
        <time>2021-05-24T04:34:14.000Z</time>
      </trkpt>
      <trkpt lat="45.20704" lon="5.72573">
        <ele>670.59997558594</ele>
        <time>2021-05-24T04:34:15.000Z</time>
      </trkpt>
      <trkpt lat="45.20706" lon="5.72573">
        <ele>671.20001220703</ele>
        <time>2021-05-24T04:34:17.000Z</time>
      </trkpt>
      <trkpt lat="45.2071" lon="5.72574">
        <ele>672.40002441406</ele>
        <time>2021-05-24T04:34:21.000Z</time>
      </trkpt>
      <trkpt lat="45.20711" lon="5.72574">
        <ele>672.59997558594</ele>
        <time>2021-05-24T04:34:22.000Z</time>
      </trkpt>
      <trkpt lat="45.20712" lon="5.72574">
        <ele>672.79998779297</ele>
        <time>2021-05-24T04:34:23.000Z</time>
      </trkpt>
      <trkpt lat="45.20714" lon="5.72575">
        <ele>673.40002441406</ele>
        <time>2021-05-24T04:34:25.000Z</time>
      </trkpt>
      <trkpt lat="45.20719" lon="5.72574">
        <ele>674.20001220703</ele>
        <time>2021-05-24T04:34:28.000Z</time>
      </trkpt>
      <trkpt lat="45.20722" lon="5.72575">
        <ele>674.79998779297</ele>
        <time>2021-05-24T04:34:30.000Z</time>
      </trkpt>
      <trkpt lat="45.20723" lon="5.72576">
        <ele>675.20001220703</ele>
        <time>2021-05-24T04:34:31.000Z</time>
      </trkpt>
      <trkpt lat="45.20725" lon="5.72579">
        <ele>676</ele>
        <time>2021-05-24T04:34:34.000Z</time>
      </trkpt>
      <trkpt lat="45.20726" lon="5.72579">
        <ele>676.20001220703</ele>
        <time>2021-05-24T04:34:35.000Z</time>
      </trkpt>
      <trkpt lat="45.20729" lon="5.72579">
        <ele>677.20001220703</ele>
        <time>2021-05-24T04:34:38.000Z</time>
      </trkpt>
      <trkpt lat="45.2073" lon="5.72579">
        <ele>677.59997558594</ele>
        <time>2021-05-24T04:34:39.000Z</time>
      </trkpt>
      <trkpt lat="45.20734" lon="5.72581">
        <ele>678.59997558594</ele>
        <time>2021-05-24T04:34:43.000Z</time>
      </trkpt>
      <trkpt lat="45.20735" lon="5.72585">
        <ele>679</ele>
        <time>2021-05-24T04:34:45.000Z</time>
      </trkpt>
      <trkpt lat="45.20736" lon="5.72586">
        <ele>679.40002441406</ele>
        <time>2021-05-24T04:34:46.000Z</time>
      </trkpt>
      <trkpt lat="45.20736" lon="5.72588">
        <ele>679.59997558594</ele>
        <time>2021-05-24T04:34:48.000Z</time>
      </trkpt>
      <trkpt lat="45.20738" lon="5.72595">
        <ele>680.40002441406</ele>
        <time>2021-05-24T04:34:51.000Z</time>
      </trkpt>
      <trkpt lat="45.20738" lon="5.72596">
        <ele>680.79998779297</ele>
        <time>2021-05-24T04:34:52.000Z</time>
      </trkpt>
      <trkpt lat="45.20741" lon="5.72599">
        <ele>681</ele>
        <time>2021-05-24T04:34:54.000Z</time>
      </trkpt>
      <trkpt lat="45.20741" lon="5.72601">
        <ele>681.40002441406</ele>
        <time>2021-05-24T04:34:55.000Z</time>
      </trkpt>
      <trkpt lat="45.20743" lon="5.72603">
        <ele>681.79998779297</ele>
        <time>2021-05-24T04:34:57.000Z</time>
      </trkpt>
      <trkpt lat="45.20743" lon="5.72605">
        <ele>682.40002441406</ele>
        <time>2021-05-24T04:34:59.000Z</time>
      </trkpt>
      <trkpt lat="45.20744" lon="5.72607">
        <ele>683</ele>
        <time>2021-05-24T04:35:01.000Z</time>
      </trkpt>
      <trkpt lat="45.20746" lon="5.72608">
        <ele>683.40002441406</ele>
        <time>2021-05-24T04:35:03.000Z</time>
      </trkpt>
      <trkpt lat="45.20747" lon="5.72608">
        <ele>683.79998779297</ele>
        <time>2021-05-24T04:35:05.000Z</time>
      </trkpt>
      <trkpt lat="45.20748" lon="5.72608">
        <ele>684.20001220703</ele>
        <time>2021-05-24T04:35:06.000Z</time>
      </trkpt>
      <trkpt lat="45.20751" lon="5.72609">
        <ele>685.20001220703</ele>
        <time>2021-05-24T04:35:10.000Z</time>
      </trkpt>
      <trkpt lat="45.20753" lon="5.72609">
        <ele>685.79998779297</ele>
        <time>2021-05-24T04:35:12.000Z</time>
      </trkpt>
      <trkpt lat="45.20753" lon="5.72609">
        <ele>685.79998779297</ele>
        <time>2021-05-24T04:35:13.000Z</time>
      </trkpt>
      <trkpt lat="45.20755" lon="5.72608">
        <ele>686.40002441406</ele>
        <time>2021-05-24T04:35:16.000Z</time>
      </trkpt>
      <trkpt lat="45.20756" lon="5.72607">
        <ele>687.40002441406</ele>
        <time>2021-05-24T04:35:19.000Z</time>
      </trkpt>
      <trkpt lat="45.20758" lon="5.72607">
        <ele>687.79998779297</ele>
        <time>2021-05-24T04:35:21.000Z</time>
      </trkpt>
      <trkpt lat="45.20762" lon="5.72606">
        <ele>688.40002441406</ele>
        <time>2021-05-24T04:35:25.000Z</time>
      </trkpt>
      <trkpt lat="45.20764" lon="5.72606">
        <ele>689</ele>
        <time>2021-05-24T04:35:27.000Z</time>
      </trkpt>
      <trkpt lat="45.20765" lon="5.72605">
        <ele>689.59997558594</ele>
        <time>2021-05-24T04:35:28.000Z</time>
      </trkpt>
      <trkpt lat="45.20766" lon="5.72605">
        <ele>690.20001220703</ele>
        <time>2021-05-24T04:35:30.000Z</time>
      </trkpt>
      <trkpt lat="45.20768" lon="5.72607">
        <ele>690.79998779297</ele>
        <time>2021-05-24T04:35:32.000Z</time>
      </trkpt>
      <trkpt lat="45.20769" lon="5.72608">
        <ele>691</ele>
        <time>2021-05-24T04:35:33.000Z</time>
      </trkpt>
      <trkpt lat="45.2077" lon="5.7261">
        <ele>691.59997558594</ele>
        <time>2021-05-24T04:35:35.000Z</time>
      </trkpt>
      <trkpt lat="45.20771" lon="5.72612">
        <ele>691.79998779297</ele>
        <time>2021-05-24T04:35:36.000Z</time>
      </trkpt>
      <trkpt lat="45.20773" lon="5.72618">
        <ele>692.20001220703</ele>
        <time>2021-05-24T04:35:39.000Z</time>
      </trkpt>
      <trkpt lat="45.20774" lon="5.7262">
        <ele>692.40002441406</ele>
        <time>2021-05-24T04:35:40.000Z</time>
      </trkpt>
      <trkpt lat="45.20773" lon="5.72625">
        <ele>693</ele>
        <time>2021-05-24T04:35:43.000Z</time>
      </trkpt>
      <trkpt lat="45.20773" lon="5.72629">
        <ele>693.40002441406</ele>
        <time>2021-05-24T04:35:45.000Z</time>
      </trkpt>
      <trkpt lat="45.20775" lon="5.72632">
        <ele>694.59997558594</ele>
        <time>2021-05-24T04:35:48.000Z</time>
      </trkpt>
      <trkpt lat="45.20775" lon="5.72633">
        <ele>694.79998779297</ele>
        <time>2021-05-24T04:35:49.000Z</time>
      </trkpt>
      <trkpt lat="45.20774" lon="5.72634">
        <ele>695</ele>
        <time>2021-05-24T04:35:50.000Z</time>
      </trkpt>
      <trkpt lat="45.20774" lon="5.72635">
        <ele>695.40002441406</ele>
        <time>2021-05-24T04:35:51.000Z</time>
      </trkpt>
      <trkpt lat="45.20774" lon="5.72636">
        <ele>696</ele>
        <time>2021-05-24T04:35:52.000Z</time>
      </trkpt>
      <trkpt lat="45.20774" lon="5.72639">
        <ele>696.79998779297</ele>
        <time>2021-05-24T04:35:55.000Z</time>
      </trkpt>
      <trkpt lat="45.20774" lon="5.72639">
        <ele>697</ele>
        <time>2021-05-24T04:35:56.000Z</time>
      </trkpt>
      <trkpt lat="45.20776" lon="5.72639">
        <ele>697.59997558594</ele>
        <time>2021-05-24T04:35:58.000Z</time>
      </trkpt>
      <trkpt lat="45.20777" lon="5.72639">
        <ele>698.40002441406</ele>
        <time>2021-05-24T04:36:00.000Z</time>
      </trkpt>
      <trkpt lat="45.20778" lon="5.72639">
        <ele>698.79998779297</ele>
        <time>2021-05-24T04:36:01.000Z</time>
      </trkpt>
      <trkpt lat="45.2078" lon="5.72638">
        <ele>699.40002441406</ele>
        <time>2021-05-24T04:36:04.000Z</time>
      </trkpt>
      <trkpt lat="45.20781" lon="5.72637">
        <ele>699.59997558594</ele>
        <time>2021-05-24T04:36:05.000Z</time>
      </trkpt>
      <trkpt lat="45.20782" lon="5.72636">
        <ele>699.59997558594</ele>
        <time>2021-05-24T04:36:06.000Z</time>
      </trkpt>
      <trkpt lat="45.20785" lon="5.72634">
        <ele>700.40002441406</ele>
        <time>2021-05-24T04:36:10.000Z</time>
      </trkpt>
      <trkpt lat="45.20786" lon="5.72634">
        <ele>700.59997558594</ele>
        <time>2021-05-24T04:36:11.000Z</time>
      </trkpt>
      <trkpt lat="45.20788" lon="5.72632">
        <ele>701.79998779297</ele>
        <time>2021-05-24T04:36:14.000Z</time>
      </trkpt>
      <trkpt lat="45.20789" lon="5.7263">
        <ele>702.20001220703</ele>
        <time>2021-05-24T04:36:16.000Z</time>
      </trkpt>
      <trkpt lat="45.2079" lon="5.72628">
        <ele>702.40002441406</ele>
        <time>2021-05-24T04:36:17.000Z</time>
      </trkpt>
      <trkpt lat="45.20792" lon="5.72624">
        <ele>703</ele>
        <time>2021-05-24T04:36:21.000Z</time>
      </trkpt>
      <trkpt lat="45.20792" lon="5.72622">
        <ele>703.40002441406</ele>
        <time>2021-05-24T04:36:22.000Z</time>
      </trkpt>
      <trkpt lat="45.20793" lon="5.72619">
        <ele>703.79998779297</ele>
        <time>2021-05-24T04:36:24.000Z</time>
      </trkpt>
      <trkpt lat="45.20794" lon="5.72618">
        <ele>704.40002441406</ele>
        <time>2021-05-24T04:36:26.000Z</time>
      </trkpt>
      <trkpt lat="45.20796" lon="5.72618">
        <ele>705</ele>
        <time>2021-05-24T04:36:28.000Z</time>
      </trkpt>
      <trkpt lat="45.20796" lon="5.72619">
        <ele>705.20001220703</ele>
        <time>2021-05-24T04:36:29.000Z</time>
      </trkpt>
      <trkpt lat="45.20797" lon="5.72622">
        <ele>705.59997558594</ele>
        <time>2021-05-24T04:36:31.000Z</time>
      </trkpt>
      <trkpt lat="45.20798" lon="5.72625">
        <ele>706.20001220703</ele>
        <time>2021-05-24T04:36:33.000Z</time>
      </trkpt>
      <trkpt lat="45.20799" lon="5.72626">
        <ele>706.59997558594</ele>
        <time>2021-05-24T04:36:34.000Z</time>
      </trkpt>
      <trkpt lat="45.208" lon="5.72627">
        <ele>706.59997558594</ele>
        <time>2021-05-24T04:36:35.000Z</time>
      </trkpt>
      <trkpt lat="45.208" lon="5.72628">
        <ele>707</ele>
        <time>2021-05-24T04:36:36.000Z</time>
      </trkpt>
      <trkpt lat="45.20802" lon="5.72632">
        <ele>707.79998779297</ele>
        <time>2021-05-24T04:36:40.000Z</time>
      </trkpt>
      <trkpt lat="45.20803" lon="5.72635">
        <ele>709</ele>
        <time>2021-05-24T04:36:43.000Z</time>
      </trkpt>
      <trkpt lat="45.20803" lon="5.72638">
        <ele>709.40002441406</ele>
        <time>2021-05-24T04:36:45.000Z</time>
      </trkpt>
      <trkpt lat="45.20803" lon="5.7264">
        <ele>709.79998779297</ele>
        <time>2021-05-24T04:36:46.000Z</time>
      </trkpt>
      <trkpt lat="45.20803" lon="5.72641">
        <ele>709.79998779297</ele>
        <time>2021-05-24T04:36:47.000Z</time>
      </trkpt>
      <trkpt lat="45.20804" lon="5.72643">
        <ele>710.40002441406</ele>
        <time>2021-05-24T04:36:48.000Z</time>
      </trkpt>
      <trkpt lat="45.20805" lon="5.72645">
        <ele>710.59997558594</ele>
        <time>2021-05-24T04:36:49.000Z</time>
      </trkpt>
      <trkpt lat="45.20807" lon="5.7265">
        <ele>711.20001220703</ele>
        <time>2021-05-24T04:36:53.000Z</time>
      </trkpt>
      <trkpt lat="45.20807" lon="5.72652">
        <ele>711.59997558594</ele>
        <time>2021-05-24T04:36:54.000Z</time>
      </trkpt>
      <trkpt lat="45.20807" lon="5.72653">
        <ele>712</ele>
        <time>2021-05-24T04:36:55.000Z</time>
      </trkpt>
      <trkpt lat="45.20807" lon="5.72655">
        <ele>712.59997558594</ele>
        <time>2021-05-24T04:36:57.000Z</time>
      </trkpt>
      <trkpt lat="45.20807" lon="5.72656">
        <ele>713</ele>
        <time>2021-05-24T04:36:58.000Z</time>
      </trkpt>
      <trkpt lat="45.20808" lon="5.7266">
        <ele>713.79998779297</ele>
        <time>2021-05-24T04:37:02.000Z</time>
      </trkpt>
      <trkpt lat="45.2081" lon="5.72661">
        <ele>714.59997558594</ele>
        <time>2021-05-24T04:37:04.000Z</time>
      </trkpt>
      <trkpt lat="45.2081" lon="5.72661">
        <ele>715</ele>
        <time>2021-05-24T04:37:05.000Z</time>
      </trkpt>
      <trkpt lat="45.20815" lon="5.72661">
        <ele>716.20001220703</ele>
        <time>2021-05-24T04:37:10.000Z</time>
      </trkpt>
      <trkpt lat="45.20818" lon="5.72661">
        <ele>716.59997558594</ele>
        <time>2021-05-24T04:37:12.000Z</time>
      </trkpt>
      <trkpt lat="45.20818" lon="5.72659">
        <ele>717.20001220703</ele>
        <time>2021-05-24T04:37:14.000Z</time>
      </trkpt>
      <trkpt lat="45.20819" lon="5.72657">
        <ele>717.40002441406</ele>
        <time>2021-05-24T04:37:15.000Z</time>
      </trkpt>
      <trkpt lat="45.20822" lon="5.72653">
        <ele>718.40002441406</ele>
        <time>2021-05-24T04:37:20.000Z</time>
      </trkpt>
      <trkpt lat="45.20822" lon="5.72652">
        <ele>718.79998779297</ele>
        <time>2021-05-24T04:37:21.000Z</time>
      </trkpt>
      <trkpt lat="45.20825" lon="5.72651">
        <ele>719.40002441406</ele>
        <time>2021-05-24T04:37:23.000Z</time>
      </trkpt>
      <trkpt lat="45.20826" lon="5.72651">
        <ele>719.59997558594</ele>
        <time>2021-05-24T04:37:24.000Z</time>
      </trkpt>
      <trkpt lat="45.20826" lon="5.72651">
        <ele>719.79998779297</ele>
        <time>2021-05-24T04:37:25.000Z</time>
      </trkpt>
      <trkpt lat="45.20827" lon="5.72653">
        <ele>720.20001220703</ele>
        <time>2021-05-24T04:37:28.000Z</time>
      </trkpt>
      <trkpt lat="45.20828" lon="5.72655">
        <ele>720.59997558594</ele>
        <time>2021-05-24T04:37:29.000Z</time>
      </trkpt>
      <trkpt lat="45.20828" lon="5.72655">
        <ele>720.79998779297</ele>
        <time>2021-05-24T04:37:30.000Z</time>
      </trkpt>
      <trkpt lat="45.20829" lon="5.72658">
        <ele>721.79998779297</ele>
        <time>2021-05-24T04:37:32.000Z</time>
      </trkpt>
      <trkpt lat="45.2083" lon="5.7266">
        <ele>722.40002441406</ele>
        <time>2021-05-24T04:37:35.000Z</time>
      </trkpt>
      <trkpt lat="45.20831" lon="5.72661">
        <ele>722.79998779297</ele>
        <time>2021-05-24T04:37:36.000Z</time>
      </trkpt>
      <trkpt lat="45.20832" lon="5.72664">
        <ele>723.40002441406</ele>
        <time>2021-05-24T04:37:38.000Z</time>
      </trkpt>
      <trkpt lat="45.20833" lon="5.72667">
        <ele>724</ele>
        <time>2021-05-24T04:37:40.000Z</time>
      </trkpt>
      <trkpt lat="45.20833" lon="5.72668">
        <ele>724</ele>
        <time>2021-05-24T04:37:41.000Z</time>
      </trkpt>
      <trkpt lat="45.20833" lon="5.72671">
        <ele>724.59997558594</ele>
        <time>2021-05-24T04:37:44.000Z</time>
      </trkpt>
      <trkpt lat="45.20833" lon="5.72672">
        <ele>725</ele>
        <time>2021-05-24T04:37:45.000Z</time>
      </trkpt>
      <trkpt lat="45.20835" lon="5.72679">
        <ele>726</ele>
        <time>2021-05-24T04:37:50.000Z</time>
      </trkpt>
      <trkpt lat="45.20835" lon="5.72684">
        <ele>726.79998779297</ele>
        <time>2021-05-24T04:37:52.000Z</time>
      </trkpt>
      <trkpt lat="45.20834" lon="5.72686">
        <ele>727.20001220703</ele>
        <time>2021-05-24T04:37:53.000Z</time>
      </trkpt>
      <trkpt lat="45.20836" lon="5.72689">
        <ele>727.59997558594</ele>
        <time>2021-05-24T04:37:56.000Z</time>
      </trkpt>
      <trkpt lat="45.20837" lon="5.7269">
        <ele>728</ele>
        <time>2021-05-24T04:37:58.000Z</time>
      </trkpt>
      <trkpt lat="45.20838" lon="5.7269">
        <ele>728.20001220703</ele>
        <time>2021-05-24T04:37:59.000Z</time>
      </trkpt>
      <trkpt lat="45.2084" lon="5.72689">
        <ele>729.40002441406</ele>
        <time>2021-05-24T04:38:02.000Z</time>
      </trkpt>
      <trkpt lat="45.20841" lon="5.72689">
        <ele>729.79998779297</ele>
        <time>2021-05-24T04:38:03.000Z</time>
      </trkpt>
      <trkpt lat="45.20843" lon="5.72688">
        <ele>730.40002441406</ele>
        <time>2021-05-24T04:38:05.000Z</time>
      </trkpt>
      <trkpt lat="45.20845" lon="5.72688">
        <ele>730.40002441406</ele>
        <time>2021-05-24T04:38:06.000Z</time>
      </trkpt>
      <trkpt lat="45.20848" lon="5.72687">
        <ele>731.59997558594</ele>
        <time>2021-05-24T04:38:10.000Z</time>
      </trkpt>
      <trkpt lat="45.20853" lon="5.72688">
        <ele>732.59997558594</ele>
        <time>2021-05-24T04:38:15.000Z</time>
      </trkpt>
      <trkpt lat="45.20857" lon="5.72687">
        <ele>733.59997558594</ele>
        <time>2021-05-24T04:38:19.000Z</time>
      </trkpt>
      <trkpt lat="45.20858" lon="5.72687">
        <ele>733.79998779297</ele>
        <time>2021-05-24T04:38:20.000Z</time>
      </trkpt>
      <trkpt lat="45.2086" lon="5.72687">
        <ele>734.20001220703</ele>
        <time>2021-05-24T04:38:22.000Z</time>
      </trkpt>
      <trkpt lat="45.20864" lon="5.72686">
        <ele>735</ele>
        <time>2021-05-24T04:38:27.000Z</time>
      </trkpt>
      <trkpt lat="45.20866" lon="5.72685">
        <ele>735.20001220703</ele>
        <time>2021-05-24T04:38:28.000Z</time>
      </trkpt>
      <trkpt lat="45.20866" lon="5.72686">
        <ele>735.40002441406</ele>
        <time>2021-05-24T04:38:29.000Z</time>
      </trkpt>
      <trkpt lat="45.20871" lon="5.72681">
        <ele>736</ele>
        <time>2021-05-24T04:38:32.000Z</time>
      </trkpt>
      <trkpt lat="45.20872" lon="5.72679">
        <ele>736.59997558594</ele>
        <time>2021-05-24T04:38:34.000Z</time>
      </trkpt>
      <trkpt lat="45.20875" lon="5.72679">
        <ele>737.20001220703</ele>
        <time>2021-05-24T04:38:36.000Z</time>
      </trkpt>
      <trkpt lat="45.20881" lon="5.72679">
        <ele>738.20001220703</ele>
        <time>2021-05-24T04:38:40.000Z</time>
      </trkpt>
      <trkpt lat="45.20882" lon="5.72679">
        <ele>738.40002441406</ele>
        <time>2021-05-24T04:38:41.000Z</time>
      </trkpt>
      <trkpt lat="45.20888" lon="5.72675">
        <ele>739.40002441406</ele>
        <time>2021-05-24T04:38:46.000Z</time>
      </trkpt>
      <trkpt lat="45.20889" lon="5.72674">
        <ele>740.40002441406</ele>
        <time>2021-05-24T04:38:48.000Z</time>
      </trkpt>
      <trkpt lat="45.2089" lon="5.72674">
        <ele>740.40002441406</ele>
        <time>2021-05-24T04:38:49.000Z</time>
      </trkpt>
      <trkpt lat="45.20892" lon="5.72673">
        <ele>741</ele>
        <time>2021-05-24T04:38:52.000Z</time>
      </trkpt>
      <trkpt lat="45.20893" lon="5.72672">
        <ele>741.79998779297</ele>
        <time>2021-05-24T04:38:54.000Z</time>
      </trkpt>
      <trkpt lat="45.20894" lon="5.72672">
        <ele>742.20001220703</ele>
        <time>2021-05-24T04:38:55.000Z</time>
      </trkpt>
      <trkpt lat="45.20896" lon="5.72672">
        <ele>742.59997558594</ele>
        <time>2021-05-24T04:38:57.000Z</time>
      </trkpt>
      <trkpt lat="45.20898" lon="5.72671">
        <ele>743</ele>
        <time>2021-05-24T04:38:58.000Z</time>
      </trkpt>
      <trkpt lat="45.20902" lon="5.72671">
        <ele>743.79998779297</ele>
        <time>2021-05-24T04:39:01.000Z</time>
      </trkpt>
      <trkpt lat="45.20904" lon="5.72669">
        <ele>744</ele>
        <time>2021-05-24T04:39:02.000Z</time>
      </trkpt>
      <trkpt lat="45.20905" lon="5.72669">
        <ele>744.40002441406</ele>
        <time>2021-05-24T04:39:03.000Z</time>
      </trkpt>
      <trkpt lat="45.20907" lon="5.72668">
        <ele>745</ele>
        <time>2021-05-24T04:39:05.000Z</time>
      </trkpt>
      <trkpt lat="45.20911" lon="5.72668">
        <ele>745.79998779297</ele>
        <time>2021-05-24T04:39:08.000Z</time>
      </trkpt>
      <trkpt lat="45.20914" lon="5.72668">
        <ele>746</ele>
        <time>2021-05-24T04:39:10.000Z</time>
      </trkpt>
      <trkpt lat="45.20915" lon="5.72668">
        <ele>746.20001220703</ele>
        <time>2021-05-24T04:39:11.000Z</time>
      </trkpt>
      <trkpt lat="45.20919" lon="5.72672">
        <ele>747.59997558594</ele>
        <time>2021-05-24T04:39:14.000Z</time>
      </trkpt>
      <trkpt lat="45.2092" lon="5.72673">
        <ele>747.79998779297</ele>
        <time>2021-05-24T04:39:15.000Z</time>
      </trkpt>
      <trkpt lat="45.20924" lon="5.72676">
        <ele>748.59997558594</ele>
        <time>2021-05-24T04:39:19.000Z</time>
      </trkpt>
      <trkpt lat="45.20926" lon="5.72678">
        <ele>749.20001220703</ele>
        <time>2021-05-24T04:39:22.000Z</time>
      </trkpt>
      <trkpt lat="45.20928" lon="5.72679">
        <ele>749.59997558594</ele>
        <time>2021-05-24T04:39:24.000Z</time>
      </trkpt>
      <trkpt lat="45.20934" lon="5.72681">
        <ele>750.79998779297</ele>
        <time>2021-05-24T04:39:29.000Z</time>
      </trkpt>
      <trkpt lat="45.2094" lon="5.72687">
        <ele>751.79998779297</ele>
        <time>2021-05-24T04:39:35.000Z</time>
      </trkpt>
      <trkpt lat="45.20941" lon="5.72688">
        <ele>752.20001220703</ele>
        <time>2021-05-24T04:39:36.000Z</time>
      </trkpt>
      <trkpt lat="45.20941" lon="5.72689">
        <ele>752.59997558594</ele>
        <time>2021-05-24T04:39:37.000Z</time>
      </trkpt>
      <trkpt lat="45.20944" lon="5.72691">
        <ele>753</ele>
        <time>2021-05-24T04:39:39.000Z</time>
      </trkpt>
      <trkpt lat="45.20947" lon="5.72696">
        <ele>753.79998779297</ele>
        <time>2021-05-24T04:39:42.000Z</time>
      </trkpt>
      <trkpt lat="45.20948" lon="5.72697">
        <ele>754</ele>
        <time>2021-05-24T04:39:43.000Z</time>
      </trkpt>
      <trkpt lat="45.20948" lon="5.72698">
        <ele>754.20001220703</ele>
        <time>2021-05-24T04:39:44.000Z</time>
      </trkpt>
      <trkpt lat="45.20949" lon="5.72698">
        <ele>755.40002441406</ele>
        <time>2021-05-24T04:39:47.000Z</time>
      </trkpt>
      <trkpt lat="45.20949" lon="5.72699">
        <ele>755.40002441406</ele>
        <time>2021-05-24T04:39:48.000Z</time>
      </trkpt>
      <trkpt lat="45.20949" lon="5.727">
        <ele>755.79998779297</ele>
        <time>2021-05-24T04:39:50.000Z</time>
      </trkpt>
      <trkpt lat="45.2095" lon="5.72701">
        <ele>756.20001220703</ele>
        <time>2021-05-24T04:39:52.000Z</time>
      </trkpt>
      <trkpt lat="45.20951" lon="5.72702">
        <ele>756.40002441406</ele>
        <time>2021-05-24T04:39:53.000Z</time>
      </trkpt>
      <trkpt lat="45.20953" lon="5.72704">
        <ele>757.40002441406</ele>
        <time>2021-05-24T04:39:56.000Z</time>
      </trkpt>
      <trkpt lat="45.20954" lon="5.72706">
        <ele>758</ele>
        <time>2021-05-24T04:39:57.000Z</time>
      </trkpt>
      <trkpt lat="45.20957" lon="5.72708">
        <ele>758.59997558594</ele>
        <time>2021-05-24T04:40:00.000Z</time>
      </trkpt>
      <trkpt lat="45.20959" lon="5.72711">
        <ele>759</ele>
        <time>2021-05-24T04:40:02.000Z</time>
      </trkpt>
      <trkpt lat="45.2096" lon="5.72712">
        <ele>759.59997558594</ele>
        <time>2021-05-24T04:40:03.000Z</time>
      </trkpt>
      <trkpt lat="45.20961" lon="5.72715">
        <ele>760.20001220703</ele>
        <time>2021-05-24T04:40:06.000Z</time>
      </trkpt>
      <trkpt lat="45.20964" lon="5.72716">
        <ele>760.79998779297</ele>
        <time>2021-05-24T04:40:09.000Z</time>
      </trkpt>
      <trkpt lat="45.20963" lon="5.72717">
        <ele>761.20001220703</ele>
        <time>2021-05-24T04:40:10.000Z</time>
      </trkpt>
      <trkpt lat="45.20965" lon="5.7272">
        <ele>762.20001220703</ele>
        <time>2021-05-24T04:40:13.000Z</time>
      </trkpt>
      <trkpt lat="45.20966" lon="5.72721">
        <ele>762.59997558594</ele>
        <time>2021-05-24T04:40:14.000Z</time>
      </trkpt>
      <trkpt lat="45.20967" lon="5.72724">
        <ele>763.40002441406</ele>
        <time>2021-05-24T04:40:16.000Z</time>
      </trkpt>
      <trkpt lat="45.20969" lon="5.72725">
        <ele>763.59997558594</ele>
        <time>2021-05-24T04:40:17.000Z</time>
      </trkpt>
      <trkpt lat="45.20969" lon="5.72727">
        <ele>763.79998779297</ele>
        <time>2021-05-24T04:40:19.000Z</time>
      </trkpt>
      <trkpt lat="45.2097" lon="5.72727">
        <ele>764.79998779297</ele>
        <time>2021-05-24T04:40:22.000Z</time>
      </trkpt>
      <trkpt lat="45.20972" lon="5.72728">
        <ele>765.40002441406</ele>
        <time>2021-05-24T04:40:24.000Z</time>
      </trkpt>
      <trkpt lat="45.20973" lon="5.72728">
        <ele>766</ele>
        <time>2021-05-24T04:40:25.000Z</time>
      </trkpt>
      <trkpt lat="45.20975" lon="5.72732">
        <ele>766.59997558594</ele>
        <time>2021-05-24T04:40:28.000Z</time>
      </trkpt>
      <trkpt lat="45.20976" lon="5.72733">
        <ele>767</ele>
        <time>2021-05-24T04:40:29.000Z</time>
      </trkpt>
      <trkpt lat="45.20977" lon="5.72735">
        <ele>767.59997558594</ele>
        <time>2021-05-24T04:40:31.000Z</time>
      </trkpt>
      <trkpt lat="45.2098" lon="5.7274">
        <ele>768.59997558594</ele>
        <time>2021-05-24T04:40:35.000Z</time>
      </trkpt>
      <trkpt lat="45.20981" lon="5.72741">
        <ele>769.59997558594</ele>
        <time>2021-05-24T04:40:37.000Z</time>
      </trkpt>
      <trkpt lat="45.20981" lon="5.72741">
        <ele>769.79998779297</ele>
        <time>2021-05-24T04:40:38.000Z</time>
      </trkpt>
      <trkpt lat="45.20982" lon="5.72744">
        <ele>770.59997558594</ele>
        <time>2021-05-24T04:40:41.000Z</time>
      </trkpt>
      <trkpt lat="45.20983" lon="5.72745">
        <ele>770.79998779297</ele>
        <time>2021-05-24T04:40:42.000Z</time>
      </trkpt>
      <trkpt lat="45.20984" lon="5.72746">
        <ele>771</ele>
        <time>2021-05-24T04:40:43.000Z</time>
      </trkpt>
      <trkpt lat="45.20985" lon="5.72747">
        <ele>771.40002441406</ele>
        <time>2021-05-24T04:40:44.000Z</time>
      </trkpt>
      <trkpt lat="45.20986" lon="5.7275">
        <ele>772</ele>
        <time>2021-05-24T04:40:47.000Z</time>
      </trkpt>
      <trkpt lat="45.20987" lon="5.72751">
        <ele>772.59997558594</ele>
        <time>2021-05-24T04:40:48.000Z</time>
      </trkpt>
      <trkpt lat="45.20988" lon="5.72751">
        <ele>772.79998779297</ele>
        <time>2021-05-24T04:40:49.000Z</time>
      </trkpt>
      <trkpt lat="45.20989" lon="5.72752">
        <ele>773.59997558594</ele>
        <time>2021-05-24T04:40:52.000Z</time>
      </trkpt>
      <trkpt lat="45.20988" lon="5.72752">
        <ele>774.59997558594</ele>
        <time>2021-05-24T04:40:54.000Z</time>
      </trkpt>
      <trkpt lat="45.20988" lon="5.72751">
        <ele>774.79998779297</ele>
        <time>2021-05-24T04:40:55.000Z</time>
      </trkpt>
      <trkpt lat="45.20989" lon="5.72749">
        <ele>775</ele>
        <time>2021-05-24T04:40:56.000Z</time>
      </trkpt>
      <trkpt lat="45.2099" lon="5.72748">
        <ele>776</ele>
        <time>2021-05-24T04:40:59.000Z</time>
      </trkpt>
      <trkpt lat="45.20991" lon="5.72748">
        <ele>776.20001220703</ele>
        <time>2021-05-24T04:41:00.000Z</time>
      </trkpt>
      <trkpt lat="45.20992" lon="5.72749">
        <ele>776.20001220703</ele>
        <time>2021-05-24T04:41:01.000Z</time>
      </trkpt>
      <trkpt lat="45.20994" lon="5.7275">
        <ele>776.79998779297</ele>
        <time>2021-05-24T04:41:03.000Z</time>
      </trkpt>
      <trkpt lat="45.20994" lon="5.7275">
        <ele>777.20001220703</ele>
        <time>2021-05-24T04:41:04.000Z</time>
      </trkpt>
      <trkpt lat="45.20995" lon="5.72749">
        <ele>777.59997558594</ele>
        <time>2021-05-24T04:41:05.000Z</time>
      </trkpt>
      <trkpt lat="45.20996" lon="5.72746">
        <ele>778.20001220703</ele>
        <time>2021-05-24T04:41:08.000Z</time>
      </trkpt>
      <trkpt lat="45.20996" lon="5.72745">
        <ele>779</ele>
        <time>2021-05-24T04:41:10.000Z</time>
      </trkpt>
      <trkpt lat="45.20995" lon="5.72746">
        <ele>779.20001220703</ele>
        <time>2021-05-24T04:41:11.000Z</time>
      </trkpt>
      <trkpt lat="45.20995" lon="5.72746">
        <ele>780</ele>
        <time>2021-05-24T04:41:13.000Z</time>
      </trkpt>
      <trkpt lat="45.20996" lon="5.72745">
        <ele>780.40002441406</ele>
        <time>2021-05-24T04:41:14.000Z</time>
      </trkpt>
      <trkpt lat="45.20999" lon="5.72743">
        <ele>781</ele>
        <time>2021-05-24T04:41:16.000Z</time>
      </trkpt>
      <trkpt lat="45.21001" lon="5.72742">
        <ele>781.40002441406</ele>
        <time>2021-05-24T04:41:18.000Z</time>
      </trkpt>
      <trkpt lat="45.21002" lon="5.72742">
        <ele>781.40002441406</ele>
        <time>2021-05-24T04:41:19.000Z</time>
      </trkpt>
      <trkpt lat="45.21002" lon="5.72741">
        <ele>782</ele>
        <time>2021-05-24T04:41:20.000Z</time>
      </trkpt>
      <trkpt lat="45.21003" lon="5.7274">
        <ele>782.59997558594</ele>
        <time>2021-05-24T04:41:21.000Z</time>
      </trkpt>
      <trkpt lat="45.21006" lon="5.72739">
        <ele>783.79998779297</ele>
        <time>2021-05-24T04:41:23.000Z</time>
      </trkpt>
      <trkpt lat="45.21007" lon="5.72739">
        <ele>784.40002441406</ele>
        <time>2021-05-24T04:41:26.000Z</time>
      </trkpt>
      <trkpt lat="45.21008" lon="5.72739">
        <ele>785</ele>
        <time>2021-05-24T04:41:28.000Z</time>
      </trkpt>
      <trkpt lat="45.2101" lon="5.72739">
        <ele>785.59997558594</ele>
        <time>2021-05-24T04:41:30.000Z</time>
      </trkpt>
      <trkpt lat="45.21012" lon="5.72739">
        <ele>786</ele>
        <time>2021-05-24T04:41:32.000Z</time>
      </trkpt>
      <trkpt lat="45.21016" lon="5.72737">
        <ele>787.20001220703</ele>
        <time>2021-05-24T04:41:36.000Z</time>
      </trkpt>
      <trkpt lat="45.21017" lon="5.72736">
        <ele>787.59997558594</ele>
        <time>2021-05-24T04:41:37.000Z</time>
      </trkpt>
      <trkpt lat="45.21019" lon="5.72736">
        <ele>788</ele>
        <time>2021-05-24T04:41:39.000Z</time>
      </trkpt>
      <trkpt lat="45.21021" lon="5.72735">
        <ele>788.40002441406</ele>
        <time>2021-05-24T04:41:41.000Z</time>
      </trkpt>
      <trkpt lat="45.21022" lon="5.72735">
        <ele>788.79998779297</ele>
        <time>2021-05-24T04:41:43.000Z</time>
      </trkpt>
      <trkpt lat="45.21024" lon="5.72735">
        <ele>789.59997558594</ele>
        <time>2021-05-24T04:41:45.000Z</time>
      </trkpt>
      <trkpt lat="45.2103" lon="5.72736">
        <ele>790.59997558594</ele>
        <time>2021-05-24T04:41:49.000Z</time>
      </trkpt>
      <trkpt lat="45.21035" lon="5.72736">
        <ele>791.79998779297</ele>
        <time>2021-05-24T04:41:54.000Z</time>
      </trkpt>
      <trkpt lat="45.21036" lon="5.72735">
        <ele>791.79998779297</ele>
        <time>2021-05-24T04:41:55.000Z</time>
      </trkpt>
      <trkpt lat="45.21036" lon="5.72735">
        <ele>792</ele>
        <time>2021-05-24T04:41:56.000Z</time>
      </trkpt>
      <trkpt lat="45.21038" lon="5.72736">
        <ele>792.59997558594</ele>
        <time>2021-05-24T04:41:58.000Z</time>
      </trkpt>
      <trkpt lat="45.21038" lon="5.72736">
        <ele>793</ele>
        <time>2021-05-24T04:41:59.000Z</time>
      </trkpt>
      <trkpt lat="45.21038" lon="5.72736">
        <ele>793.40002441406</ele>
        <time>2021-05-24T04:42:00.000Z</time>
      </trkpt>
      <trkpt lat="45.21039" lon="5.72736">
        <ele>794</ele>
        <time>2021-05-24T04:42:02.000Z</time>
      </trkpt>
      <trkpt lat="45.2104" lon="5.72736">
        <ele>794.20001220703</ele>
        <time>2021-05-24T04:42:03.000Z</time>
      </trkpt>
      <trkpt lat="45.21042" lon="5.72736">
        <ele>794.79998779297</ele>
        <time>2021-05-24T04:42:05.000Z</time>
      </trkpt>
      <trkpt lat="45.21044" lon="5.72738">
        <ele>795</ele>
        <time>2021-05-24T04:42:07.000Z</time>
      </trkpt>
      <trkpt lat="45.21045" lon="5.72742">
        <ele>795.40002441406</ele>
        <time>2021-05-24T04:42:10.000Z</time>
      </trkpt>
      <trkpt lat="45.21046" lon="5.72744">
        <ele>795.59997558594</ele>
        <time>2021-05-24T04:42:11.000Z</time>
      </trkpt>
      <trkpt lat="45.21052" lon="5.72756">
        <ele>796.40002441406</ele>
        <time>2021-05-24T04:42:17.000Z</time>
      </trkpt>
      <trkpt lat="45.21053" lon="5.72759">
        <ele>796.59997558594</ele>
        <time>2021-05-24T04:42:19.000Z</time>
      </trkpt>
      <trkpt lat="45.21056" lon="5.72764">
        <ele>796.79998779297</ele>
        <time>2021-05-24T04:42:22.000Z</time>
      </trkpt>
      <trkpt lat="45.21056" lon="5.72766">
        <ele>796.79998779297</ele>
        <time>2021-05-24T04:42:23.000Z</time>
      </trkpt>
      <trkpt lat="45.21057" lon="5.72767">
        <ele>796.79998779297</ele>
        <time>2021-05-24T04:42:24.000Z</time>
      </trkpt>
      <trkpt lat="45.21061" lon="5.72776">
        <ele>797</ele>
        <time>2021-05-24T04:42:28.000Z</time>
      </trkpt>
      <trkpt lat="45.21062" lon="5.72779">
        <ele>797</ele>
        <time>2021-05-24T04:42:29.000Z</time>
      </trkpt>
      <trkpt lat="45.21062" lon="5.72787">
        <ele>797</ele>
        <time>2021-05-24T04:42:33.000Z</time>
      </trkpt>
      <trkpt lat="45.21062" lon="5.72787">
        <ele>797</ele>
        <time>2021-05-24T04:42:34.000Z</time>
      </trkpt>
      <trkpt lat="45.21062" lon="5.72789">
        <ele>797.20001220703</ele>
        <time>2021-05-24T04:42:36.000Z</time>
      </trkpt>
      <trkpt lat="45.21064" lon="5.72794">
        <ele>797.40002441406</ele>
        <time>2021-05-24T04:42:39.000Z</time>
      </trkpt>
      <trkpt lat="45.21065" lon="5.72797">
        <ele>797.59997558594</ele>
        <time>2021-05-24T04:42:41.000Z</time>
      </trkpt>
      <trkpt lat="45.21068" lon="5.72803">
        <ele>797.59997558594</ele>
        <time>2021-05-24T04:42:44.000Z</time>
      </trkpt>
      <trkpt lat="45.21071" lon="5.72805">
        <ele>798</ele>
        <time>2021-05-24T04:42:46.000Z</time>
      </trkpt>
      <trkpt lat="45.21071" lon="5.72807">
        <ele>798</ele>
        <time>2021-05-24T04:42:47.000Z</time>
      </trkpt>
      <trkpt lat="45.21074" lon="5.72812">
        <ele>798.40002441406</ele>
        <time>2021-05-24T04:42:50.000Z</time>
      </trkpt>
      <trkpt lat="45.21076" lon="5.72818">
        <ele>799.20001220703</ele>
        <time>2021-05-24T04:42:53.000Z</time>
      </trkpt>
      <trkpt lat="45.21077" lon="5.7282">
        <ele>799.20001220703</ele>
        <time>2021-05-24T04:42:54.000Z</time>
      </trkpt>
      <trkpt lat="45.21078" lon="5.72824">
        <ele>799.79998779297</ele>
        <time>2021-05-24T04:42:57.000Z</time>
      </trkpt>
      <trkpt lat="45.21079" lon="5.72825">
        <ele>799.79998779297</ele>
        <time>2021-05-24T04:42:58.000Z</time>
      </trkpt>
      <trkpt lat="45.2108" lon="5.72828">
        <ele>800.20001220703</ele>
        <time>2021-05-24T04:43:00.000Z</time>
      </trkpt>
      <trkpt lat="45.21084" lon="5.72833">
        <ele>800.79998779297</ele>
        <time>2021-05-24T04:43:04.000Z</time>
      </trkpt>
      <trkpt lat="45.21085" lon="5.72834">
        <ele>801</ele>
        <time>2021-05-24T04:43:05.000Z</time>
      </trkpt>
      <trkpt lat="45.21087" lon="5.72835">
        <ele>801.20001220703</ele>
        <time>2021-05-24T04:43:06.000Z</time>
      </trkpt>
      <trkpt lat="45.21093" lon="5.72838">
        <ele>801.79998779297</ele>
        <time>2021-05-24T04:43:10.000Z</time>
      </trkpt>
      <trkpt lat="45.21093" lon="5.72839">
        <ele>802</ele>
        <time>2021-05-24T04:43:11.000Z</time>
      </trkpt>
      <trkpt lat="45.21099" lon="5.72845">
        <ele>803</ele>
        <time>2021-05-24T04:43:14.000Z</time>
      </trkpt>
      <trkpt lat="45.21104" lon="5.7285">
        <ele>803.59997558594</ele>
        <time>2021-05-24T04:43:17.000Z</time>
      </trkpt>
      <trkpt lat="45.21106" lon="5.72852">
        <ele>804</ele>
        <time>2021-05-24T04:43:18.000Z</time>
      </trkpt>
      <trkpt lat="45.21107" lon="5.72853">
        <ele>804.20001220703</ele>
        <time>2021-05-24T04:43:19.000Z</time>
      </trkpt>
      <trkpt lat="45.2111" lon="5.72859">
        <ele>804.79998779297</ele>
        <time>2021-05-24T04:43:23.000Z</time>
      </trkpt>
      <trkpt lat="45.21111" lon="5.7286">
        <ele>805</ele>
        <time>2021-05-24T04:43:24.000Z</time>
      </trkpt>
      <trkpt lat="45.21113" lon="5.72863">
        <ele>805.40002441406</ele>
        <time>2021-05-24T04:43:26.000Z</time>
      </trkpt>
      <trkpt lat="45.21114" lon="5.72864">
        <ele>805.79998779297</ele>
        <time>2021-05-24T04:43:27.000Z</time>
      </trkpt>
      <trkpt lat="45.21117" lon="5.72866">
        <ele>806.20001220703</ele>
        <time>2021-05-24T04:43:29.000Z</time>
      </trkpt>
      <trkpt lat="45.21119" lon="5.72868">
        <ele>806.40002441406</ele>
        <time>2021-05-24T04:43:31.000Z</time>
      </trkpt>
      <trkpt lat="45.2112" lon="5.72869">
        <ele>806.79998779297</ele>
        <time>2021-05-24T04:43:32.000Z</time>
      </trkpt>
      <trkpt lat="45.2112" lon="5.7287">
        <ele>807.20001220703</ele>
        <time>2021-05-24T04:43:33.000Z</time>
      </trkpt>
      <trkpt lat="45.21121" lon="5.7287">
        <ele>807.40002441406</ele>
        <time>2021-05-24T04:43:34.000Z</time>
      </trkpt>
      <trkpt lat="45.21122" lon="5.72871">
        <ele>807.59997558594</ele>
        <time>2021-05-24T04:43:35.000Z</time>
      </trkpt>
      <trkpt lat="45.21123" lon="5.72874">
        <ele>808.20001220703</ele>
        <time>2021-05-24T04:43:37.000Z</time>
      </trkpt>
      <trkpt lat="45.21124" lon="5.72876">
        <ele>808.79998779297</ele>
        <time>2021-05-24T04:43:39.000Z</time>
      </trkpt>
      <trkpt lat="45.21127" lon="5.72878">
        <ele>809.20001220703</ele>
        <time>2021-05-24T04:43:41.000Z</time>
      </trkpt>
      <trkpt lat="45.21129" lon="5.72878">
        <ele>809.59997558594</ele>
        <time>2021-05-24T04:43:42.000Z</time>
      </trkpt>
      <trkpt lat="45.21133" lon="5.72879">
        <ele>810</ele>
        <time>2021-05-24T04:43:44.000Z</time>
      </trkpt>
      <trkpt lat="45.21135" lon="5.72879">
        <ele>810.59997558594</ele>
        <time>2021-05-24T04:43:45.000Z</time>
      </trkpt>
      <trkpt lat="45.21136" lon="5.7288">
        <ele>810.79998779297</ele>
        <time>2021-05-24T04:43:46.000Z</time>
      </trkpt>
      <trkpt lat="45.21137" lon="5.72881">
        <ele>811.20001220703</ele>
        <time>2021-05-24T04:43:47.000Z</time>
      </trkpt>
      <trkpt lat="45.21139" lon="5.72884">
        <ele>812</ele>
        <time>2021-05-24T04:43:50.000Z</time>
      </trkpt>
      <trkpt lat="45.2114" lon="5.72885">
        <ele>812.40002441406</ele>
        <time>2021-05-24T04:43:51.000Z</time>
      </trkpt>
      <trkpt lat="45.21142" lon="5.72885">
        <ele>813.20001220703</ele>
        <time>2021-05-24T04:43:54.000Z</time>
      </trkpt>
      <trkpt lat="45.21143" lon="5.72886">
        <ele>813.59997558594</ele>
        <time>2021-05-24T04:43:55.000Z</time>
      </trkpt>
      <trkpt lat="45.21146" lon="5.72887">
        <ele>814</ele>
        <time>2021-05-24T04:43:57.000Z</time>
      </trkpt>
      <trkpt lat="45.21148" lon="5.72889">
        <ele>814.40002441406</ele>
        <time>2021-05-24T04:43:59.000Z</time>
      </trkpt>
      <trkpt lat="45.2115" lon="5.7289">
        <ele>814.79998779297</ele>
        <time>2021-05-24T04:44:01.000Z</time>
      </trkpt>
      <trkpt lat="45.21152" lon="5.72891">
        <ele>814.79998779297</ele>
        <time>2021-05-24T04:44:02.000Z</time>
      </trkpt>
      <trkpt lat="45.21156" lon="5.72891">
        <ele>815</ele>
        <time>2021-05-24T04:44:04.000Z</time>
      </trkpt>
      <trkpt lat="45.21158" lon="5.72893">
        <ele>815.40002441406</ele>
        <time>2021-05-24T04:44:06.000Z</time>
      </trkpt>
      <trkpt lat="45.21161" lon="5.72893">
        <ele>816.20001220703</ele>
        <time>2021-05-24T04:44:08.000Z</time>
      </trkpt>
      <trkpt lat="45.21161" lon="5.72894">
        <ele>816.40002441406</ele>
        <time>2021-05-24T04:44:09.000Z</time>
      </trkpt>
      <trkpt lat="45.21162" lon="5.72894">
        <ele>816.40002441406</ele>
        <time>2021-05-24T04:44:10.000Z</time>
      </trkpt>
      <trkpt lat="45.21164" lon="5.72894">
        <ele>816.79998779297</ele>
        <time>2021-05-24T04:44:11.000Z</time>
      </trkpt>
      <trkpt lat="45.21166" lon="5.72895">
        <ele>817.59997558594</ele>
        <time>2021-05-24T04:44:13.000Z</time>
      </trkpt>
      <trkpt lat="45.21168" lon="5.72896">
        <ele>817.79998779297</ele>
        <time>2021-05-24T04:44:14.000Z</time>
      </trkpt>
      <trkpt lat="45.21169" lon="5.72897">
        <ele>818</ele>
        <time>2021-05-24T04:44:15.000Z</time>
      </trkpt>
      <trkpt lat="45.21172" lon="5.72899">
        <ele>818.79998779297</ele>
        <time>2021-05-24T04:44:18.000Z</time>
      </trkpt>
      <trkpt lat="45.21174" lon="5.72901">
        <ele>819.20001220703</ele>
        <time>2021-05-24T04:44:19.000Z</time>
      </trkpt>
      <trkpt lat="45.21177" lon="5.72905">
        <ele>819.79998779297</ele>
        <time>2021-05-24T04:44:22.000Z</time>
      </trkpt>
      <trkpt lat="45.21179" lon="5.72906">
        <ele>820</ele>
        <time>2021-05-24T04:44:23.000Z</time>
      </trkpt>
      <trkpt lat="45.21185" lon="5.7291">
        <ele>821</ele>
        <time>2021-05-24T04:44:27.000Z</time>
      </trkpt>
      <trkpt lat="45.21187" lon="5.72911">
        <ele>821.20001220703</ele>
        <time>2021-05-24T04:44:28.000Z</time>
      </trkpt>
      <trkpt lat="45.2119" lon="5.72913">
        <ele>821.59997558594</ele>
        <time>2021-05-24T04:44:30.000Z</time>
      </trkpt>
      <trkpt lat="45.21191" lon="5.72914">
        <ele>822</ele>
        <time>2021-05-24T04:44:31.000Z</time>
      </trkpt>
      <trkpt lat="45.21195" lon="5.7292">
        <ele>822.59997558594</ele>
        <time>2021-05-24T04:44:35.000Z</time>
      </trkpt>
      <trkpt lat="45.21196" lon="5.72921">
        <ele>823</ele>
        <time>2021-05-24T04:44:36.000Z</time>
      </trkpt>
      <trkpt lat="45.21197" lon="5.72922">
        <ele>823.20001220703</ele>
        <time>2021-05-24T04:44:37.000Z</time>
      </trkpt>
      <trkpt lat="45.21201" lon="5.72928">
        <ele>824</ele>
        <time>2021-05-24T04:44:41.000Z</time>
      </trkpt>
      <trkpt lat="45.21202" lon="5.72929">
        <ele>824.20001220703</ele>
        <time>2021-05-24T04:44:42.000Z</time>
      </trkpt>
      <trkpt lat="45.21207" lon="5.72934">
        <ele>825.20001220703</ele>
        <time>2021-05-24T04:44:46.000Z</time>
      </trkpt>
      <trkpt lat="45.2121" lon="5.72937">
        <ele>825.59997558594</ele>
        <time>2021-05-24T04:44:49.000Z</time>
      </trkpt>
      <trkpt lat="45.21209" lon="5.72937">
        <ele>826.20001220703</ele>
        <time>2021-05-24T04:44:51.000Z</time>
      </trkpt>
      <trkpt lat="45.21208" lon="5.72935">
        <ele>827.59997558594</ele>
        <time>2021-05-24T04:44:55.000Z</time>
      </trkpt>
      <trkpt lat="45.21208" lon="5.72934">
        <ele>827.79998779297</ele>
        <time>2021-05-24T04:44:56.000Z</time>
      </trkpt>
      <trkpt lat="45.21208" lon="5.72933">
        <ele>828</ele>
        <time>2021-05-24T04:44:57.000Z</time>
      </trkpt>
      <trkpt lat="45.21207" lon="5.72931">
        <ele>828.79998779297</ele>
        <time>2021-05-24T04:45:00.000Z</time>
      </trkpt>
      <trkpt lat="45.21207" lon="5.72926">
        <ele>829.59997558594</ele>
        <time>2021-05-24T04:45:03.000Z</time>
      </trkpt>
      <trkpt lat="45.21207" lon="5.72922">
        <ele>829.79998779297</ele>
        <time>2021-05-24T04:45:05.000Z</time>
      </trkpt>
      <trkpt lat="45.21209" lon="5.72917">
        <ele>831</ele>
        <time>2021-05-24T04:45:09.000Z</time>
      </trkpt>
      <trkpt lat="45.2121" lon="5.72916">
        <ele>831.20001220703</ele>
        <time>2021-05-24T04:45:10.000Z</time>
      </trkpt>
      <trkpt lat="45.21214" lon="5.72916">
        <ele>832.40002441406</ele>
        <time>2021-05-24T04:45:14.000Z</time>
      </trkpt>
      <trkpt lat="45.2122" lon="5.72917">
        <ele>833.40002441406</ele>
        <time>2021-05-24T04:45:18.000Z</time>
      </trkpt>
      <trkpt lat="45.21224" lon="5.72917">
        <ele>834.40002441406</ele>
        <time>2021-05-24T04:45:21.000Z</time>
      </trkpt>
      <trkpt lat="45.21225" lon="5.72918">
        <ele>834.79998779297</ele>
        <time>2021-05-24T04:45:22.000Z</time>
      </trkpt>
      <trkpt lat="45.21227" lon="5.72922">
        <ele>835.20001220703</ele>
        <time>2021-05-24T04:45:24.000Z</time>
      </trkpt>
      <trkpt lat="45.21229" lon="5.72925">
        <ele>835.59997558594</ele>
        <time>2021-05-24T04:45:26.000Z</time>
      </trkpt>
      <trkpt lat="45.21231" lon="5.72927">
        <ele>836</ele>
        <time>2021-05-24T04:45:28.000Z</time>
      </trkpt>
      <trkpt lat="45.21233" lon="5.72927">
        <ele>836.59997558594</ele>
        <time>2021-05-24T04:45:31.000Z</time>
      </trkpt>
      <trkpt lat="45.21235" lon="5.72928">
        <ele>836.79998779297</ele>
        <time>2021-05-24T04:45:32.000Z</time>
      </trkpt>
      <trkpt lat="45.21236" lon="5.72928">
        <ele>837</ele>
        <time>2021-05-24T04:45:33.000Z</time>
      </trkpt>
      <trkpt lat="45.2124" lon="5.72928">
        <ele>837.59997558594</ele>
        <time>2021-05-24T04:45:36.000Z</time>
      </trkpt>
      <trkpt lat="45.21245" lon="5.7293">
        <ele>839</ele>
        <time>2021-05-24T04:45:41.000Z</time>
      </trkpt>
      <trkpt lat="45.2125" lon="5.7293">
        <ele>840.20001220703</ele>
        <time>2021-05-24T04:45:46.000Z</time>
      </trkpt>
      <trkpt lat="45.21252" lon="5.72931">
        <ele>840.40002441406</ele>
        <time>2021-05-24T04:45:47.000Z</time>
      </trkpt>
      <trkpt lat="45.21254" lon="5.72932">
        <ele>841.40002441406</ele>
        <time>2021-05-24T04:45:50.000Z</time>
      </trkpt>
      <trkpt lat="45.21256" lon="5.72934">
        <ele>842</ele>
        <time>2021-05-24T04:45:52.000Z</time>
      </trkpt>
      <trkpt lat="45.21257" lon="5.72935">
        <ele>842.20001220703</ele>
        <time>2021-05-24T04:45:53.000Z</time>
      </trkpt>
      <trkpt lat="45.21259" lon="5.72936">
        <ele>842.59997558594</ele>
        <time>2021-05-24T04:45:55.000Z</time>
      </trkpt>
      <trkpt lat="45.21261" lon="5.72937">
        <ele>843.79998779297</ele>
        <time>2021-05-24T04:45:58.000Z</time>
      </trkpt>
      <trkpt lat="45.21264" lon="5.72938">
        <ele>844.40002441406</ele>
        <time>2021-05-24T04:46:00.000Z</time>
      </trkpt>
      <trkpt lat="45.21266" lon="5.72939">
        <ele>844.79998779297</ele>
        <time>2021-05-24T04:46:02.000Z</time>
      </trkpt>
      <trkpt lat="45.21268" lon="5.72941">
        <ele>846</ele>
        <time>2021-05-24T04:46:05.000Z</time>
      </trkpt>
      <trkpt lat="45.21269" lon="5.72941">
        <ele>846.20001220703</ele>
        <time>2021-05-24T04:46:06.000Z</time>
      </trkpt>
      <trkpt lat="45.21272" lon="5.72943">
        <ele>847.20001220703</ele>
        <time>2021-05-24T04:46:09.000Z</time>
      </trkpt>
      <trkpt lat="45.21275" lon="5.72946">
        <ele>848</ele>
        <time>2021-05-24T04:46:12.000Z</time>
      </trkpt>
      <trkpt lat="45.21276" lon="5.72947">
        <ele>848.20001220703</ele>
        <time>2021-05-24T04:46:13.000Z</time>
      </trkpt>
      <trkpt lat="45.21277" lon="5.72948">
        <ele>848.40002441406</ele>
        <time>2021-05-24T04:46:14.000Z</time>
      </trkpt>
      <trkpt lat="45.21278" lon="5.72949">
        <ele>848.59997558594</ele>
        <time>2021-05-24T04:46:15.000Z</time>
      </trkpt>
      <trkpt lat="45.21281" lon="5.72951">
        <ele>849.20001220703</ele>
        <time>2021-05-24T04:46:18.000Z</time>
      </trkpt>
      <trkpt lat="45.21282" lon="5.72953">
        <ele>850</ele>
        <time>2021-05-24T04:46:20.000Z</time>
      </trkpt>
      <trkpt lat="45.21284" lon="5.72955">
        <ele>850.40002441406</ele>
        <time>2021-05-24T04:46:22.000Z</time>
      </trkpt>
      <trkpt lat="45.21285" lon="5.72955">
        <ele>850.59997558594</ele>
        <time>2021-05-24T04:46:23.000Z</time>
      </trkpt>
      <trkpt lat="45.21286" lon="5.72956">
        <ele>850.79998779297</ele>
        <time>2021-05-24T04:46:24.000Z</time>
      </trkpt>
      <trkpt lat="45.21289" lon="5.72959">
        <ele>851.59997558594</ele>
        <time>2021-05-24T04:46:27.000Z</time>
      </trkpt>
      <trkpt lat="45.2129" lon="5.7296">
        <ele>852</ele>
        <time>2021-05-24T04:46:28.000Z</time>
      </trkpt>
      <trkpt lat="45.21293" lon="5.72963">
        <ele>852.40002441406</ele>
        <time>2021-05-24T04:46:30.000Z</time>
      </trkpt>
      <trkpt lat="45.21293" lon="5.72965">
        <ele>853</ele>
        <time>2021-05-24T04:46:32.000Z</time>
      </trkpt>
      <trkpt lat="45.21294" lon="5.72966">
        <ele>853.40002441406</ele>
        <time>2021-05-24T04:46:33.000Z</time>
      </trkpt>
      <trkpt lat="45.21295" lon="5.72967">
        <ele>853.59997558594</ele>
        <time>2021-05-24T04:46:35.000Z</time>
      </trkpt>
      <trkpt lat="45.21296" lon="5.72968">
        <ele>854</ele>
        <time>2021-05-24T04:46:36.000Z</time>
      </trkpt>
      <trkpt lat="45.21297" lon="5.72968">
        <ele>854.20001220703</ele>
        <time>2021-05-24T04:46:37.000Z</time>
      </trkpt>
      <trkpt lat="45.21301" lon="5.72969">
        <ele>854.79998779297</ele>
        <time>2021-05-24T04:46:40.000Z</time>
      </trkpt>
      <trkpt lat="45.21302" lon="5.72971">
        <ele>855.40002441406</ele>
        <time>2021-05-24T04:46:41.000Z</time>
      </trkpt>
      <trkpt lat="45.21307" lon="5.72976">
        <ele>856.40002441406</ele>
        <time>2021-05-24T04:46:46.000Z</time>
      </trkpt>
      <trkpt lat="45.21309" lon="5.72979">
        <ele>857</ele>
        <time>2021-05-24T04:46:48.000Z</time>
      </trkpt>
      <trkpt lat="45.21313" lon="5.72984">
        <ele>857.40002441406</ele>
        <time>2021-05-24T04:46:51.000Z</time>
      </trkpt>
      <trkpt lat="45.21313" lon="5.72985">
        <ele>857.40002441406</ele>
        <time>2021-05-24T04:46:52.000Z</time>
      </trkpt>
      <trkpt lat="45.21315" lon="5.72988">
        <ele>858.20001220703</ele>
        <time>2021-05-24T04:46:54.000Z</time>
      </trkpt>
      <trkpt lat="45.21318" lon="5.7299">
        <ele>858.59997558594</ele>
        <time>2021-05-24T04:46:56.000Z</time>
      </trkpt>
      <trkpt lat="45.2132" lon="5.72992">
        <ele>859.20001220703</ele>
        <time>2021-05-24T04:46:58.000Z</time>
      </trkpt>
      <trkpt lat="45.2132" lon="5.72996">
        <ele>860</ele>
        <time>2021-05-24T04:47:00.000Z</time>
      </trkpt>
      <trkpt lat="45.21321" lon="5.73001">
        <ele>860.79998779297</ele>
        <time>2021-05-24T04:47:02.000Z</time>
      </trkpt>
      <trkpt lat="45.21322" lon="5.73002">
        <ele>861</ele>
        <time>2021-05-24T04:47:04.000Z</time>
      </trkpt>
      <trkpt lat="45.21325" lon="5.73005">
        <ele>861.79998779297</ele>
        <time>2021-05-24T04:47:07.000Z</time>
      </trkpt>
      <trkpt lat="45.21325" lon="5.73006">
        <ele>862</ele>
        <time>2021-05-24T04:47:08.000Z</time>
      </trkpt>
      <trkpt lat="45.21326" lon="5.73007">
        <ele>862.20001220703</ele>
        <time>2021-05-24T04:47:09.000Z</time>
      </trkpt>
      <trkpt lat="45.21328" lon="5.73009">
        <ele>863.20001220703</ele>
        <time>2021-05-24T04:47:12.000Z</time>
      </trkpt>
      <trkpt lat="45.2133" lon="5.73011">
        <ele>863.79998779297</ele>
        <time>2021-05-24T04:47:14.000Z</time>
      </trkpt>
      <trkpt lat="45.21334" lon="5.73014">
        <ele>864</ele>
        <time>2021-05-24T04:47:17.000Z</time>
      </trkpt>
      <trkpt lat="45.21334" lon="5.73016">
        <ele>864.59997558594</ele>
        <time>2021-05-24T04:47:18.000Z</time>
      </trkpt>
      <trkpt lat="45.21335" lon="5.73018">
        <ele>865.20001220703</ele>
        <time>2021-05-24T04:47:20.000Z</time>
      </trkpt>
      <trkpt lat="45.21337" lon="5.7302">
        <ele>865.59997558594</ele>
        <time>2021-05-24T04:47:22.000Z</time>
      </trkpt>
      <trkpt lat="45.21339" lon="5.73023">
        <ele>866.79998779297</ele>
        <time>2021-05-24T04:47:25.000Z</time>
      </trkpt>
      <trkpt lat="45.2134" lon="5.73024">
        <ele>867</ele>
        <time>2021-05-24T04:47:26.000Z</time>
      </trkpt>
      <trkpt lat="45.21342" lon="5.73028">
        <ele>868</ele>
        <time>2021-05-24T04:47:29.000Z</time>
      </trkpt>
      <trkpt lat="45.21344" lon="5.73034">
        <ele>869</ele>
        <time>2021-05-24T04:47:32.000Z</time>
      </trkpt>
      <trkpt lat="45.21347" lon="5.73039">
        <ele>869.79998779297</ele>
        <time>2021-05-24T04:47:35.000Z</time>
      </trkpt>
      <trkpt lat="45.21349" lon="5.73042">
        <ele>870.20001220703</ele>
        <time>2021-05-24T04:47:37.000Z</time>
      </trkpt>
      <trkpt lat="45.21353" lon="5.73047">
        <ele>871.20001220703</ele>
        <time>2021-05-24T04:47:41.000Z</time>
      </trkpt>
      <trkpt lat="45.21355" lon="5.73047">
        <ele>871.59997558594</ele>
        <time>2021-05-24T04:47:42.000Z</time>
      </trkpt>
      <trkpt lat="45.21356" lon="5.73047">
        <ele>872</ele>
        <time>2021-05-24T04:47:43.000Z</time>
      </trkpt>
      <trkpt lat="45.21356" lon="5.7305">
        <ele>872.40002441406</ele>
        <time>2021-05-24T04:47:45.000Z</time>
      </trkpt>
      <trkpt lat="45.21359" lon="5.73054">
        <ele>873</ele>
        <time>2021-05-24T04:47:48.000Z</time>
      </trkpt>
      <trkpt lat="45.21363" lon="5.73057">
        <ele>873.59997558594</ele>
        <time>2021-05-24T04:47:51.000Z</time>
      </trkpt>
      <trkpt lat="45.21367" lon="5.73059">
        <ele>874.59997558594</ele>
        <time>2021-05-24T04:47:54.000Z</time>
      </trkpt>
      <trkpt lat="45.21369" lon="5.7306">
        <ele>874.79998779297</ele>
        <time>2021-05-24T04:47:55.000Z</time>
      </trkpt>
      <trkpt lat="45.21374" lon="5.73065">
        <ele>875</ele>
        <time>2021-05-24T04:47:58.000Z</time>
      </trkpt>
      <trkpt lat="45.21376" lon="5.73068">
        <ele>875</ele>
        <time>2021-05-24T04:47:59.000Z</time>
      </trkpt>
      <trkpt lat="45.21379" lon="5.73071">
        <ele>875.20001220703</ele>
        <time>2021-05-24T04:48:01.000Z</time>
      </trkpt>
      <trkpt lat="45.21382" lon="5.73071">
        <ele>875.20001220703</ele>
        <time>2021-05-24T04:48:02.000Z</time>
      </trkpt>
      <trkpt lat="45.21391" lon="5.73078">
        <ele>875.59997558594</ele>
        <time>2021-05-24T04:48:06.000Z</time>
      </trkpt>
      <trkpt lat="45.21392" lon="5.73081">
        <ele>875.79998779297</ele>
        <time>2021-05-24T04:48:07.000Z</time>
      </trkpt>
      <trkpt lat="45.21393" lon="5.73084">
        <ele>875.79998779297</ele>
        <time>2021-05-24T04:48:08.000Z</time>
      </trkpt>
      <trkpt lat="45.21399" lon="5.73096">
        <ele>876.40002441406</ele>
        <time>2021-05-24T04:48:13.000Z</time>
      </trkpt>
      <trkpt lat="45.214" lon="5.73097">
        <ele>876.79998779297</ele>
        <time>2021-05-24T04:48:14.000Z</time>
      </trkpt>
      <trkpt lat="45.21401" lon="5.73099">
        <ele>877</ele>
        <time>2021-05-24T04:48:15.000Z</time>
      </trkpt>
      <trkpt lat="45.21404" lon="5.73105">
        <ele>877.59997558594</ele>
        <time>2021-05-24T04:48:18.000Z</time>
      </trkpt>
      <trkpt lat="45.21407" lon="5.7311">
        <ele>877.79998779297</ele>
        <time>2021-05-24T04:48:21.000Z</time>
      </trkpt>
      <trkpt lat="45.21409" lon="5.73112">
        <ele>878.20001220703</ele>
        <time>2021-05-24T04:48:22.000Z</time>
      </trkpt>
      <trkpt lat="45.21412" lon="5.73114">
        <ele>878.40002441406</ele>
        <time>2021-05-24T04:48:24.000Z</time>
      </trkpt>
      <trkpt lat="45.21417" lon="5.73123">
        <ele>879.59997558594</ele>
        <time>2021-05-24T04:48:29.000Z</time>
      </trkpt>
      <trkpt lat="45.21419" lon="5.73127">
        <ele>880</ele>
        <time>2021-05-24T04:48:31.000Z</time>
      </trkpt>
      <trkpt lat="45.2142" lon="5.73128">
        <ele>880.20001220703</ele>
        <time>2021-05-24T04:48:32.000Z</time>
      </trkpt>
      <trkpt lat="45.21421" lon="5.73131">
        <ele>880.40002441406</ele>
        <time>2021-05-24T04:48:34.000Z</time>
      </trkpt>
      <trkpt lat="45.21422" lon="5.73132">
        <ele>880.79998779297</ele>
        <time>2021-05-24T04:48:35.000Z</time>
      </trkpt>
      <trkpt lat="45.21423" lon="5.73135">
        <ele>881.40002441406</ele>
        <time>2021-05-24T04:48:37.000Z</time>
      </trkpt>
      <trkpt lat="45.21423" lon="5.73137">
        <ele>881.59997558594</ele>
        <time>2021-05-24T04:48:38.000Z</time>
      </trkpt>
      <trkpt lat="45.21425" lon="5.7314">
        <ele>882</ele>
        <time>2021-05-24T04:48:40.000Z</time>
      </trkpt>
      <trkpt lat="45.21426" lon="5.73141">
        <ele>882.20001220703</ele>
        <time>2021-05-24T04:48:41.000Z</time>
      </trkpt>
      <trkpt lat="45.21428" lon="5.73143">
        <ele>882.79998779297</ele>
        <time>2021-05-24T04:48:43.000Z</time>
      </trkpt>
      <trkpt lat="45.21431" lon="5.73147">
        <ele>883.20001220703</ele>
        <time>2021-05-24T04:48:46.000Z</time>
      </trkpt>
      <trkpt lat="45.21431" lon="5.73147">
        <ele>883.59997558594</ele>
        <time>2021-05-24T04:48:47.000Z</time>
      </trkpt>
      <trkpt lat="45.21435" lon="5.7315">
        <ele>884.20001220703</ele>
        <time>2021-05-24T04:48:50.000Z</time>
      </trkpt>
      <trkpt lat="45.21436" lon="5.7315">
        <ele>884.79998779297</ele>
        <time>2021-05-24T04:48:52.000Z</time>
      </trkpt>
      <trkpt lat="45.21437" lon="5.73152">
        <ele>885.40002441406</ele>
        <time>2021-05-24T04:48:53.000Z</time>
      </trkpt>
      <trkpt lat="45.2144" lon="5.73155">
        <ele>886</ele>
        <time>2021-05-24T04:48:56.000Z</time>
      </trkpt>
      <trkpt lat="45.2144" lon="5.73156">
        <ele>886.40002441406</ele>
        <time>2021-05-24T04:48:57.000Z</time>
      </trkpt>
      <trkpt lat="45.21445" lon="5.73157">
        <ele>887.20001220703</ele>
        <time>2021-05-24T04:49:00.000Z</time>
      </trkpt>
      <trkpt lat="45.21445" lon="5.73159">
        <ele>887.40002441406</ele>
        <time>2021-05-24T04:49:01.000Z</time>
      </trkpt>
      <trkpt lat="45.21451" lon="5.73164">
        <ele>888.40002441406</ele>
        <time>2021-05-24T04:49:06.000Z</time>
      </trkpt>
      <trkpt lat="45.21452" lon="5.73165">
        <ele>888.79998779297</ele>
        <time>2021-05-24T04:49:07.000Z</time>
      </trkpt>
      <trkpt lat="45.21454" lon="5.73167">
        <ele>889.79998779297</ele>
        <time>2021-05-24T04:49:09.000Z</time>
      </trkpt>
      <trkpt lat="45.21458" lon="5.73169">
        <ele>890.59997558594</ele>
        <time>2021-05-24T04:49:12.000Z</time>
      </trkpt>
      <trkpt lat="45.21459" lon="5.7317">
        <ele>891</ele>
        <time>2021-05-24T04:49:13.000Z</time>
      </trkpt>
      <trkpt lat="45.21461" lon="5.73174">
        <ele>892</ele>
        <time>2021-05-24T04:49:16.000Z</time>
      </trkpt>
      <trkpt lat="45.21463" lon="5.73174">
        <ele>892.20001220703</ele>
        <time>2021-05-24T04:49:17.000Z</time>
      </trkpt>
      <trkpt lat="45.21466" lon="5.73175">
        <ele>893</ele>
        <time>2021-05-24T04:49:20.000Z</time>
      </trkpt>
      <trkpt lat="45.21469" lon="5.73176">
        <ele>894</ele>
        <time>2021-05-24T04:49:22.000Z</time>
      </trkpt>
      <trkpt lat="45.2147" lon="5.73177">
        <ele>894.59997558594</ele>
        <time>2021-05-24T04:49:23.000Z</time>
      </trkpt>
      <trkpt lat="45.2147" lon="5.7318">
        <ele>894.79998779297</ele>
        <time>2021-05-24T04:49:24.000Z</time>
      </trkpt>
      <trkpt lat="45.21469" lon="5.73186">
        <ele>895.20001220703</ele>
        <time>2021-05-24T04:49:26.000Z</time>
      </trkpt>
      <trkpt lat="45.2147" lon="5.73192">
        <ele>895.40002441406</ele>
        <time>2021-05-24T04:49:28.000Z</time>
      </trkpt>
      <trkpt lat="45.21471" lon="5.73193">
        <ele>895.40002441406</ele>
        <time>2021-05-24T04:49:29.000Z</time>
      </trkpt>
      <trkpt lat="45.21473" lon="5.73195">
        <ele>895.40002441406</ele>
        <time>2021-05-24T04:49:31.000Z</time>
      </trkpt>
      <trkpt lat="45.21477" lon="5.73197">
        <ele>895.79998779297</ele>
        <time>2021-05-24T04:49:33.000Z</time>
      </trkpt>
      <trkpt lat="45.21477" lon="5.73198">
        <ele>896</ele>
        <time>2021-05-24T04:49:34.000Z</time>
      </trkpt>
      <trkpt lat="45.21478" lon="5.73204">
        <ele>896.20001220703</ele>
        <time>2021-05-24T04:49:36.000Z</time>
      </trkpt>
      <trkpt lat="45.2148" lon="5.73209">
        <ele>896.40002441406</ele>
        <time>2021-05-24T04:49:38.000Z</time>
      </trkpt>
      <trkpt lat="45.21481" lon="5.73215">
        <ele>896.79998779297</ele>
        <time>2021-05-24T04:49:40.000Z</time>
      </trkpt>
      <trkpt lat="45.21483" lon="5.73219">
        <ele>897.20001220703</ele>
        <time>2021-05-24T04:49:42.000Z</time>
      </trkpt>
      <trkpt lat="45.21485" lon="5.73221">
        <ele>897.59997558594</ele>
        <time>2021-05-24T04:49:43.000Z</time>
      </trkpt>
      <trkpt lat="45.21488" lon="5.73223">
        <ele>898.20001220703</ele>
        <time>2021-05-24T04:49:45.000Z</time>
      </trkpt>
      <trkpt lat="45.21491" lon="5.73225">
        <ele>898.79998779297</ele>
        <time>2021-05-24T04:49:47.000Z</time>
      </trkpt>
      <trkpt lat="45.21493" lon="5.73227">
        <ele>899.59997558594</ele>
        <time>2021-05-24T04:49:49.000Z</time>
      </trkpt>
      <trkpt lat="45.21495" lon="5.73228">
        <ele>900</ele>
        <time>2021-05-24T04:49:50.000Z</time>
      </trkpt>
      <trkpt lat="45.21498" lon="5.7323">
        <ele>900.20001220703</ele>
        <time>2021-05-24T04:49:52.000Z</time>
      </trkpt>
      <trkpt lat="45.21499" lon="5.73231">
        <ele>900.59997558594</ele>
        <time>2021-05-24T04:49:53.000Z</time>
      </trkpt>
      <trkpt lat="45.215" lon="5.73233">
        <ele>901</ele>
        <time>2021-05-24T04:49:54.000Z</time>
      </trkpt>
      <trkpt lat="45.21501" lon="5.73234">
        <ele>901.20001220703</ele>
        <time>2021-05-24T04:49:55.000Z</time>
      </trkpt>
      <trkpt lat="45.21503" lon="5.73235">
        <ele>901.40002441406</ele>
        <time>2021-05-24T04:49:56.000Z</time>
      </trkpt>
      <trkpt lat="45.21504" lon="5.73236">
        <ele>901.59997558594</ele>
        <time>2021-05-24T04:49:57.000Z</time>
      </trkpt>
      <trkpt lat="45.21506" lon="5.7324">
        <ele>902.20001220703</ele>
        <time>2021-05-24T04:49:59.000Z</time>
      </trkpt>
      <trkpt lat="45.21507" lon="5.73242">
        <ele>902.20001220703</ele>
        <time>2021-05-24T04:50:00.000Z</time>
      </trkpt>
      <trkpt lat="45.21507" lon="5.73247">
        <ele>902.59997558594</ele>
        <time>2021-05-24T04:50:02.000Z</time>
      </trkpt>
      <trkpt lat="45.21508" lon="5.73249">
        <ele>903</ele>
        <time>2021-05-24T04:50:03.000Z</time>
      </trkpt>
      <trkpt lat="45.21507" lon="5.73255">
        <ele>903.20001220703</ele>
        <time>2021-05-24T04:50:05.000Z</time>
      </trkpt>
      <trkpt lat="45.21505" lon="5.73262">
        <ele>903.20001220703</ele>
        <time>2021-05-24T04:50:07.000Z</time>
      </trkpt>
      <trkpt lat="45.21505" lon="5.73265">
        <ele>903.20001220703</ele>
        <time>2021-05-24T04:50:08.000Z</time>
      </trkpt>
      <trkpt lat="45.21504" lon="5.73272">
        <ele>903.20001220703</ele>
        <time>2021-05-24T04:50:10.000Z</time>
      </trkpt>
      <trkpt lat="45.21506" lon="5.73276">
        <ele>903</ele>
        <time>2021-05-24T04:50:12.000Z</time>
      </trkpt>
      <trkpt lat="45.21507" lon="5.73278">
        <ele>903</ele>
        <time>2021-05-24T04:50:13.000Z</time>
      </trkpt>
      <trkpt lat="45.21511" lon="5.73288">
        <ele>903.20001220703</ele>
        <time>2021-05-24T04:50:17.000Z</time>
      </trkpt>
      <trkpt lat="45.21513" lon="5.73291">
        <ele>904</ele>
        <time>2021-05-24T04:50:19.000Z</time>
      </trkpt>
      <trkpt lat="45.21514" lon="5.73293">
        <ele>904.20001220703</ele>
        <time>2021-05-24T04:50:20.000Z</time>
      </trkpt>
      <trkpt lat="45.21515" lon="5.73295">
        <ele>904.40002441406</ele>
        <time>2021-05-24T04:50:22.000Z</time>
      </trkpt>
      <trkpt lat="45.21516" lon="5.73296">
        <ele>904.59997558594</ele>
        <time>2021-05-24T04:50:23.000Z</time>
      </trkpt>
      <trkpt lat="45.21518" lon="5.73302">
        <ele>905.40002441406</ele>
        <time>2021-05-24T04:50:27.000Z</time>
      </trkpt>
      <trkpt lat="45.21518" lon="5.73304">
        <ele>905.59997558594</ele>
        <time>2021-05-24T04:50:28.000Z</time>
      </trkpt>
      <trkpt lat="45.21522" lon="5.73311">
        <ele>906.40002441406</ele>
        <time>2021-05-24T04:50:32.000Z</time>
      </trkpt>
      <trkpt lat="45.21522" lon="5.73312">
        <ele>906.59997558594</ele>
        <time>2021-05-24T04:50:33.000Z</time>
      </trkpt>
      <trkpt lat="45.21524" lon="5.73314">
        <ele>907.20001220703</ele>
        <time>2021-05-24T04:50:35.000Z</time>
      </trkpt>
      <trkpt lat="45.21527" lon="5.73315">
        <ele>907.59997558594</ele>
        <time>2021-05-24T04:50:37.000Z</time>
      </trkpt>
      <trkpt lat="45.21533" lon="5.73316">
        <ele>908.20001220703</ele>
        <time>2021-05-24T04:50:41.000Z</time>
      </trkpt>
      <trkpt lat="45.21536" lon="5.73316">
        <ele>908.59997558594</ele>
        <time>2021-05-24T04:50:42.000Z</time>
      </trkpt>
      <trkpt lat="45.21538" lon="5.73316">
        <ele>909</ele>
        <time>2021-05-24T04:50:44.000Z</time>
      </trkpt>
      <trkpt lat="45.2154" lon="5.73317">
        <ele>909.79998779297</ele>
        <time>2021-05-24T04:50:47.000Z</time>
      </trkpt>
      <trkpt lat="45.21542" lon="5.73319">
        <ele>910.40002441406</ele>
        <time>2021-05-24T04:50:50.000Z</time>
      </trkpt>
      <trkpt lat="45.21544" lon="5.7332">
        <ele>911</ele>
        <time>2021-05-24T04:50:52.000Z</time>
      </trkpt>
      <trkpt lat="45.21544" lon="5.7332">
        <ele>911.40002441406</ele>
        <time>2021-05-24T04:50:53.000Z</time>
      </trkpt>
      <trkpt lat="45.21545" lon="5.73321">
        <ele>911.59997558594</ele>
        <time>2021-05-24T04:50:54.000Z</time>
      </trkpt>
      <trkpt lat="45.21548" lon="5.73321">
        <ele>912</ele>
        <time>2021-05-24T04:50:56.000Z</time>
      </trkpt>
      <trkpt lat="45.2155" lon="5.73321">
        <ele>912.20001220703</ele>
        <time>2021-05-24T04:50:57.000Z</time>
      </trkpt>
      <trkpt lat="45.21551" lon="5.73321">
        <ele>912.20001220703</ele>
        <time>2021-05-24T04:50:58.000Z</time>
      </trkpt>
      <trkpt lat="45.21556" lon="5.73325">
        <ele>912.79998779297</ele>
        <time>2021-05-24T04:51:00.000Z</time>
      </trkpt>
      <trkpt lat="45.21559" lon="5.73328">
        <ele>913.20001220703</ele>
        <time>2021-05-24T04:51:02.000Z</time>
      </trkpt>
      <trkpt lat="45.2156" lon="5.7333">
        <ele>913.40002441406</ele>
        <time>2021-05-24T04:51:03.000Z</time>
      </trkpt>
      <trkpt lat="45.21561" lon="5.73331">
        <ele>913.59997558594</ele>
        <time>2021-05-24T04:51:04.000Z</time>
      </trkpt>
      <trkpt lat="45.21565" lon="5.73333">
        <ele>914</ele>
        <time>2021-05-24T04:51:06.000Z</time>
      </trkpt>
      <trkpt lat="45.21569" lon="5.73334">
        <ele>914.20001220703</ele>
        <time>2021-05-24T04:51:08.000Z</time>
      </trkpt>
      <trkpt lat="45.21572" lon="5.73336">
        <ele>914.40002441406</ele>
        <time>2021-05-24T04:51:10.000Z</time>
      </trkpt>
      <trkpt lat="45.21577" lon="5.73337">
        <ele>915.20001220703</ele>
        <time>2021-05-24T04:51:12.000Z</time>
      </trkpt>
      <trkpt lat="45.2158" lon="5.73336">
        <ele>915.40002441406</ele>
        <time>2021-05-24T04:51:13.000Z</time>
      </trkpt>
      <trkpt lat="45.21583" lon="5.73339">
        <ele>916</ele>
        <time>2021-05-24T04:51:15.000Z</time>
      </trkpt>
      <trkpt lat="45.21586" lon="5.73339">
        <ele>916</ele>
        <time>2021-05-24T04:51:16.000Z</time>
      </trkpt>
      <trkpt lat="45.21589" lon="5.73341">
        <ele>916.59997558594</ele>
        <time>2021-05-24T04:51:18.000Z</time>
      </trkpt>
      <trkpt lat="45.21592" lon="5.73342">
        <ele>917</ele>
        <time>2021-05-24T04:51:20.000Z</time>
      </trkpt>
      <trkpt lat="45.21595" lon="5.73346">
        <ele>917.79998779297</ele>
        <time>2021-05-24T04:51:22.000Z</time>
      </trkpt>
      <trkpt lat="45.21596" lon="5.73347">
        <ele>918.20001220703</ele>
        <time>2021-05-24T04:51:23.000Z</time>
      </trkpt>
      <trkpt lat="45.216" lon="5.73349">
        <ele>918.59997558594</ele>
        <time>2021-05-24T04:51:25.000Z</time>
      </trkpt>
      <trkpt lat="45.216" lon="5.73351">
        <ele>918.79998779297</ele>
        <time>2021-05-24T04:51:26.000Z</time>
      </trkpt>
      <trkpt lat="45.216" lon="5.73353">
        <ele>918.79998779297</ele>
        <time>2021-05-24T04:51:27.000Z</time>
      </trkpt>
      <trkpt lat="45.216" lon="5.73355">
        <ele>918.79998779297</ele>
        <time>2021-05-24T04:51:28.000Z</time>
      </trkpt>
      <trkpt lat="45.21605" lon="5.73357">
        <ele>919.79998779297</ele>
        <time>2021-05-24T04:51:31.000Z</time>
      </trkpt>
      <trkpt lat="45.21608" lon="5.73357">
        <ele>920</ele>
        <time>2021-05-24T04:51:32.000Z</time>
      </trkpt>
      <trkpt lat="45.21615" lon="5.7336">
        <ele>921.20001220703</ele>
        <time>2021-05-24T04:51:36.000Z</time>
      </trkpt>
      <trkpt lat="45.21619" lon="5.73364">
        <ele>922.20001220703</ele>
        <time>2021-05-24T04:51:39.000Z</time>
      </trkpt>
      <trkpt lat="45.21621" lon="5.73364">
        <ele>922.40002441406</ele>
        <time>2021-05-24T04:51:40.000Z</time>
      </trkpt>
      <trkpt lat="45.21625" lon="5.73371">
        <ele>923.20001220703</ele>
        <time>2021-05-24T04:51:44.000Z</time>
      </trkpt>
      <trkpt lat="45.21628" lon="5.73372">
        <ele>923.59997558594</ele>
        <time>2021-05-24T04:51:46.000Z</time>
      </trkpt>
      <trkpt lat="45.21633" lon="5.73378">
        <ele>924.59997558594</ele>
        <time>2021-05-24T04:51:50.000Z</time>
      </trkpt>
      <trkpt lat="45.21635" lon="5.7338">
        <ele>924.59997558594</ele>
        <time>2021-05-24T04:51:51.000Z</time>
      </trkpt>
      <trkpt lat="45.21638" lon="5.7338">
        <ele>924.79998779297</ele>
        <time>2021-05-24T04:51:52.000Z</time>
      </trkpt>
      <trkpt lat="45.21643" lon="5.73383">
        <ele>925.79998779297</ele>
        <time>2021-05-24T04:51:55.000Z</time>
      </trkpt>
      <trkpt lat="45.21654" lon="5.7339">
        <ele>926.59997558594</ele>
        <time>2021-05-24T04:52:00.000Z</time>
      </trkpt>
      <trkpt lat="45.21656" lon="5.73391">
        <ele>926.79998779297</ele>
        <time>2021-05-24T04:52:01.000Z</time>
      </trkpt>
      <trkpt lat="45.21658" lon="5.73393">
        <ele>927</ele>
        <time>2021-05-24T04:52:02.000Z</time>
      </trkpt>
      <trkpt lat="45.21659" lon="5.73396">
        <ele>927.20001220703</ele>
        <time>2021-05-24T04:52:03.000Z</time>
      </trkpt>
      <trkpt lat="45.21667" lon="5.73408">
        <ele>927.40002441406</ele>
        <time>2021-05-24T04:52:08.000Z</time>
      </trkpt>
      <trkpt lat="45.21669" lon="5.73409">
        <ele>927.40002441406</ele>
        <time>2021-05-24T04:52:09.000Z</time>
      </trkpt>
      <trkpt lat="45.21672" lon="5.73412">
        <ele>927.79998779297</ele>
        <time>2021-05-24T04:52:11.000Z</time>
      </trkpt>
      <trkpt lat="45.21675" lon="5.73414">
        <ele>928.40002441406</ele>
        <time>2021-05-24T04:52:13.000Z</time>
      </trkpt>
      <trkpt lat="45.21677" lon="5.73416">
        <ele>928.59997558594</ele>
        <time>2021-05-24T04:52:14.000Z</time>
      </trkpt>
      <trkpt lat="45.21679" lon="5.7342">
        <ele>928.79998779297</ele>
        <time>2021-05-24T04:52:16.000Z</time>
      </trkpt>
      <trkpt lat="45.2168" lon="5.73422">
        <ele>929</ele>
        <time>2021-05-24T04:52:17.000Z</time>
      </trkpt>
      <trkpt lat="45.2168" lon="5.73427">
        <ele>929.40002441406</ele>
        <time>2021-05-24T04:52:19.000Z</time>
      </trkpt>
      <trkpt lat="45.21682" lon="5.73431">
        <ele>929.59997558594</ele>
        <time>2021-05-24T04:52:21.000Z</time>
      </trkpt>
      <trkpt lat="45.21685" lon="5.73436">
        <ele>930.20001220703</ele>
        <time>2021-05-24T04:52:24.000Z</time>
      </trkpt>
      <trkpt lat="45.21685" lon="5.73443">
        <ele>930.40002441406</ele>
        <time>2021-05-24T04:52:26.000Z</time>
      </trkpt>
      <trkpt lat="45.21685" lon="5.73448">
        <ele>930.79998779297</ele>
        <time>2021-05-24T04:52:27.000Z</time>
      </trkpt>
      <trkpt lat="45.21685" lon="5.73456">
        <ele>931</ele>
        <time>2021-05-24T04:52:29.000Z</time>
      </trkpt>
      <trkpt lat="45.21686" lon="5.73463">
        <ele>932</ele>
        <time>2021-05-24T04:52:31.000Z</time>
      </trkpt>
      <trkpt lat="45.21686" lon="5.73468">
        <ele>932.20001220703</ele>
        <time>2021-05-24T04:52:33.000Z</time>
      </trkpt>
      <trkpt lat="45.21684" lon="5.73467">
        <ele>932.79998779297</ele>
        <time>2021-05-24T04:52:35.000Z</time>
      </trkpt>
      <trkpt lat="45.21683" lon="5.73467">
        <ele>933.20001220703</ele>
        <time>2021-05-24T04:52:36.000Z</time>
      </trkpt>
      <trkpt lat="45.21681" lon="5.73463">
        <ele>934.20001220703</ele>
        <time>2021-05-24T04:52:39.000Z</time>
      </trkpt>
      <trkpt lat="45.2168" lon="5.73459">
        <ele>934.59997558594</ele>
        <time>2021-05-24T04:52:41.000Z</time>
      </trkpt>
      <trkpt lat="45.21676" lon="5.73451">
        <ele>935.20001220703</ele>
        <time>2021-05-24T04:52:46.000Z</time>
      </trkpt>
      <trkpt lat="45.21677" lon="5.73443">
        <ele>936.59997558594</ele>
        <time>2021-05-24T04:52:50.000Z</time>
      </trkpt>
      <trkpt lat="45.21678" lon="5.7344">
        <ele>936.79998779297</ele>
        <time>2021-05-24T04:52:51.000Z</time>
      </trkpt>
      <trkpt lat="45.21677" lon="5.73437">
        <ele>937.40002441406</ele>
        <time>2021-05-24T04:52:53.000Z</time>
      </trkpt>
      <trkpt lat="45.21677" lon="5.73435">
        <ele>937.59997558594</ele>
        <time>2021-05-24T04:52:54.000Z</time>
      </trkpt>
      <trkpt lat="45.21678" lon="5.73434">
        <ele>937.79998779297</ele>
        <time>2021-05-24T04:52:55.000Z</time>
      </trkpt>
      <trkpt lat="45.21678" lon="5.7343">
        <ele>938.79998779297</ele>
        <time>2021-05-24T04:52:58.000Z</time>
      </trkpt>
      <trkpt lat="45.21677" lon="5.73428">
        <ele>939</ele>
        <time>2021-05-24T04:52:59.000Z</time>
      </trkpt>
      <trkpt lat="45.21678" lon="5.73419">
        <ele>940.40002441406</ele>
        <time>2021-05-24T04:53:04.000Z</time>
      </trkpt>
      <trkpt lat="45.21678" lon="5.73417">
        <ele>940.59997558594</ele>
        <time>2021-05-24T04:53:05.000Z</time>
      </trkpt>
      <trkpt lat="45.21678" lon="5.73415">
        <ele>940.79998779297</ele>
        <time>2021-05-24T04:53:06.000Z</time>
      </trkpt>
      <trkpt lat="45.21679" lon="5.73413">
        <ele>941.40002441406</ele>
        <time>2021-05-24T04:53:08.000Z</time>
      </trkpt>
      <trkpt lat="45.21679" lon="5.7341">
        <ele>942</ele>
        <time>2021-05-24T04:53:10.000Z</time>
      </trkpt>
      <trkpt lat="45.21677" lon="5.73408">
        <ele>942.40002441406</ele>
        <time>2021-05-24T04:53:12.000Z</time>
      </trkpt>
      <trkpt lat="45.21676" lon="5.73406">
        <ele>942.59997558594</ele>
        <time>2021-05-24T04:53:13.000Z</time>
      </trkpt>
      <trkpt lat="45.21676" lon="5.73404">
        <ele>943</ele>
        <time>2021-05-24T04:53:14.000Z</time>
      </trkpt>
      <trkpt lat="45.21676" lon="5.734">
        <ele>943.79998779297</ele>
        <time>2021-05-24T04:53:17.000Z</time>
      </trkpt>
      <trkpt lat="45.21676" lon="5.73398">
        <ele>944.40002441406</ele>
        <time>2021-05-24T04:53:19.000Z</time>
      </trkpt>
      <trkpt lat="45.21674" lon="5.73396">
        <ele>945</ele>
        <time>2021-05-24T04:53:21.000Z</time>
      </trkpt>
      <trkpt lat="45.21673" lon="5.73395">
        <ele>945.20001220703</ele>
        <time>2021-05-24T04:53:22.000Z</time>
      </trkpt>
      <trkpt lat="45.2167" lon="5.73391">
        <ele>945.79998779297</ele>
        <time>2021-05-24T04:53:25.000Z</time>
      </trkpt>
      <trkpt lat="45.21669" lon="5.73389">
        <ele>946.40002441406</ele>
        <time>2021-05-24T04:53:26.000Z</time>
      </trkpt>
      <trkpt lat="45.21668" lon="5.73388">
        <ele>946.79998779297</ele>
        <time>2021-05-24T04:53:27.000Z</time>
      </trkpt>
      <trkpt lat="45.21666" lon="5.73385">
        <ele>947.20001220703</ele>
        <time>2021-05-24T04:53:29.000Z</time>
      </trkpt>
      <trkpt lat="45.21664" lon="5.73383">
        <ele>947.79998779297</ele>
        <time>2021-05-24T04:53:31.000Z</time>
      </trkpt>
      <trkpt lat="45.21664" lon="5.73381">
        <ele>948.20001220703</ele>
        <time>2021-05-24T04:53:32.000Z</time>
      </trkpt>
      <trkpt lat="45.21662" lon="5.73377">
        <ele>948.79998779297</ele>
        <time>2021-05-24T04:53:35.000Z</time>
      </trkpt>
      <trkpt lat="45.2166" lon="5.73376">
        <ele>949</ele>
        <time>2021-05-24T04:53:36.000Z</time>
      </trkpt>
      <trkpt lat="45.21659" lon="5.7337">
        <ele>950.20001220703</ele>
        <time>2021-05-24T04:53:39.000Z</time>
      </trkpt>
      <trkpt lat="45.21658" lon="5.73369">
        <ele>950.59997558594</ele>
        <time>2021-05-24T04:53:40.000Z</time>
      </trkpt>
      <trkpt lat="45.21657" lon="5.73367">
        <ele>951</ele>
        <time>2021-05-24T04:53:41.000Z</time>
      </trkpt>
      <trkpt lat="45.21655" lon="5.73366">
        <ele>951.40002441406</ele>
        <time>2021-05-24T04:53:42.000Z</time>
      </trkpt>
      <trkpt lat="45.21654" lon="5.73358">
        <ele>952.59997558594</ele>
        <time>2021-05-24T04:53:47.000Z</time>
      </trkpt>
      <trkpt lat="45.21653" lon="5.73353">
        <ele>953.79998779297</ele>
        <time>2021-05-24T04:53:50.000Z</time>
      </trkpt>
      <trkpt lat="45.21653" lon="5.73352">
        <ele>954.20001220703</ele>
        <time>2021-05-24T04:53:51.000Z</time>
      </trkpt>
      <trkpt lat="45.21651" lon="5.73348">
        <ele>955</ele>
        <time>2021-05-24T04:53:54.000Z</time>
      </trkpt>
      <trkpt lat="45.2165" lon="5.73344">
        <ele>955.59997558594</ele>
        <time>2021-05-24T04:53:56.000Z</time>
      </trkpt>
      <trkpt lat="45.2165" lon="5.73343">
        <ele>956</ele>
        <time>2021-05-24T04:53:57.000Z</time>
      </trkpt>
      <trkpt lat="45.21648" lon="5.73335">
        <ele>957.59997558594</ele>
        <time>2021-05-24T04:54:02.000Z</time>
      </trkpt>
      <trkpt lat="45.21649" lon="5.73332">
        <ele>958.20001220703</ele>
        <time>2021-05-24T04:54:04.000Z</time>
      </trkpt>
      <trkpt lat="45.21649" lon="5.7333">
        <ele>958.20001220703</ele>
        <time>2021-05-24T04:54:05.000Z</time>
      </trkpt>
      <trkpt lat="45.21648" lon="5.73329">
        <ele>958.59997558594</ele>
        <time>2021-05-24T04:54:06.000Z</time>
      </trkpt>
      <trkpt lat="45.21646" lon="5.73325">
        <ele>959.59997558594</ele>
        <time>2021-05-24T04:54:10.000Z</time>
      </trkpt>
      <trkpt lat="45.21645" lon="5.73321">
        <ele>960.20001220703</ele>
        <time>2021-05-24T04:54:12.000Z</time>
      </trkpt>
      <trkpt lat="45.21644" lon="5.7332">
        <ele>960.59997558594</ele>
        <time>2021-05-24T04:54:13.000Z</time>
      </trkpt>
      <trkpt lat="45.21645" lon="5.73318">
        <ele>960.79998779297</ele>
        <time>2021-05-24T04:54:14.000Z</time>
      </trkpt>
      <trkpt lat="45.21646" lon="5.73315">
        <ele>961</ele>
        <time>2021-05-24T04:54:16.000Z</time>
      </trkpt>
      <trkpt lat="45.21645" lon="5.73311">
        <ele>961.79998779297</ele>
        <time>2021-05-24T04:54:18.000Z</time>
      </trkpt>
      <trkpt lat="45.21645" lon="5.73307">
        <ele>962.40002441406</ele>
        <time>2021-05-24T04:54:20.000Z</time>
      </trkpt>
      <trkpt lat="45.21644" lon="5.73303">
        <ele>962.59997558594</ele>
        <time>2021-05-24T04:54:22.000Z</time>
      </trkpt>
      <trkpt lat="45.21643" lon="5.733">
        <ele>963</ele>
        <time>2021-05-24T04:54:24.000Z</time>
      </trkpt>
      <trkpt lat="45.21641" lon="5.73293">
        <ele>964</ele>
        <time>2021-05-24T04:54:28.000Z</time>
      </trkpt>
      <trkpt lat="45.2164" lon="5.7329">
        <ele>964.20001220703</ele>
        <time>2021-05-24T04:54:30.000Z</time>
      </trkpt>
      <trkpt lat="45.21639" lon="5.73286">
        <ele>965</ele>
        <time>2021-05-24T04:54:33.000Z</time>
      </trkpt>
      <trkpt lat="45.21635" lon="5.73281">
        <ele>965.59997558594</ele>
        <time>2021-05-24T04:54:37.000Z</time>
      </trkpt>
      <trkpt lat="45.21634" lon="5.73279">
        <ele>966</ele>
        <time>2021-05-24T04:54:38.000Z</time>
      </trkpt>
      <trkpt lat="45.21633" lon="5.73277">
        <ele>966.20001220703</ele>
        <time>2021-05-24T04:54:39.000Z</time>
      </trkpt>
      <trkpt lat="45.21631" lon="5.73272">
        <ele>966.59997558594</ele>
        <time>2021-05-24T04:54:42.000Z</time>
      </trkpt>
      <trkpt lat="45.21627" lon="5.73265">
        <ele>967.40002441406</ele>
        <time>2021-05-24T04:54:46.000Z</time>
      </trkpt>
      <trkpt lat="45.21623" lon="5.73258">
        <ele>968.59997558594</ele>
        <time>2021-05-24T04:54:51.000Z</time>
      </trkpt>
      <trkpt lat="45.21621" lon="5.73254">
        <ele>969.20001220703</ele>
        <time>2021-05-24T04:54:54.000Z</time>
      </trkpt>
      <trkpt lat="45.21619" lon="5.7325">
        <ele>970</ele>
        <time>2021-05-24T04:54:57.000Z</time>
      </trkpt>
      <trkpt lat="45.21616" lon="5.73245">
        <ele>971</ele>
        <time>2021-05-24T04:55:01.000Z</time>
      </trkpt>
      <trkpt lat="45.21614" lon="5.7324">
        <ele>972.40002441406</ele>
        <time>2021-05-24T04:55:05.000Z</time>
      </trkpt>
      <trkpt lat="45.21611" lon="5.73238">
        <ele>973.40002441406</ele>
        <time>2021-05-24T04:55:08.000Z</time>
      </trkpt>
      <trkpt lat="45.21609" lon="5.73233">
        <ele>974.59997558594</ele>
        <time>2021-05-24T04:55:12.000Z</time>
      </trkpt>
      <trkpt lat="45.21607" lon="5.73229">
        <ele>975.79998779297</ele>
        <time>2021-05-24T04:55:16.000Z</time>
      </trkpt>
      <trkpt lat="45.21606" lon="5.73226">
        <ele>976.59997558594</ele>
        <time>2021-05-24T04:55:19.000Z</time>
      </trkpt>
      <trkpt lat="45.21605" lon="5.73225">
        <ele>977.20001220703</ele>
        <time>2021-05-24T04:55:20.000Z</time>
      </trkpt>
      <trkpt lat="45.216" lon="5.73218">
        <ele>978.20001220703</ele>
        <time>2021-05-24T04:55:25.000Z</time>
      </trkpt>
      <trkpt lat="45.21599" lon="5.73217">
        <ele>978.59997558594</ele>
        <time>2021-05-24T04:55:26.000Z</time>
      </trkpt>
      <trkpt lat="45.21594" lon="5.73211">
        <ele>979.40002441406</ele>
        <time>2021-05-24T04:55:30.000Z</time>
      </trkpt>
      <trkpt lat="45.21589" lon="5.73203">
        <ele>980.40002441406</ele>
        <time>2021-05-24T04:55:35.000Z</time>
      </trkpt>
      <trkpt lat="45.21587" lon="5.732">
        <ele>980.79998779297</ele>
        <time>2021-05-24T04:55:37.000Z</time>
      </trkpt>
      <trkpt lat="45.21581" lon="5.73194">
        <ele>981.79998779297</ele>
        <time>2021-05-24T04:55:41.000Z</time>
      </trkpt>
      <trkpt lat="45.21575" lon="5.73188">
        <ele>983</ele>
        <time>2021-05-24T04:55:46.000Z</time>
      </trkpt>
      <trkpt lat="45.21573" lon="5.73186">
        <ele>983.40002441406</ele>
        <time>2021-05-24T04:55:48.000Z</time>
      </trkpt>
      <trkpt lat="45.21572" lon="5.73183">
        <ele>984</ele>
        <time>2021-05-24T04:55:50.000Z</time>
      </trkpt>
      <trkpt lat="45.21571" lon="5.73182">
        <ele>984.20001220703</ele>
        <time>2021-05-24T04:55:51.000Z</time>
      </trkpt>
      <trkpt lat="45.2157" lon="5.7318">
        <ele>984.79998779297</ele>
        <time>2021-05-24T04:55:53.000Z</time>
      </trkpt>
      <trkpt lat="45.2157" lon="5.73178">
        <ele>985.20001220703</ele>
        <time>2021-05-24T04:55:54.000Z</time>
      </trkpt>
      <trkpt lat="45.2157" lon="5.73177">
        <ele>985.59997558594</ele>
        <time>2021-05-24T04:55:55.000Z</time>
      </trkpt>
      <trkpt lat="45.2157" lon="5.73174">
        <ele>986.59997558594</ele>
        <time>2021-05-24T04:55:58.000Z</time>
      </trkpt>
      <trkpt lat="45.21569" lon="5.73173">
        <ele>987.40002441406</ele>
        <time>2021-05-24T04:56:00.000Z</time>
      </trkpt>
      <trkpt lat="45.21568" lon="5.73171">
        <ele>987.79998779297</ele>
        <time>2021-05-24T04:56:01.000Z</time>
      </trkpt>
      <trkpt lat="45.21568" lon="5.73169">
        <ele>988</ele>
        <time>2021-05-24T04:56:02.000Z</time>
      </trkpt>
      <trkpt lat="45.21568" lon="5.73165">
        <ele>988.79998779297</ele>
        <time>2021-05-24T04:56:04.000Z</time>
      </trkpt>
      <trkpt lat="45.21569" lon="5.73162">
        <ele>989.40002441406</ele>
        <time>2021-05-24T04:56:06.000Z</time>
      </trkpt>
      <trkpt lat="45.21568" lon="5.7316">
        <ele>990</ele>
        <time>2021-05-24T04:56:08.000Z</time>
      </trkpt>
      <trkpt lat="45.21568" lon="5.73159">
        <ele>990.20001220703</ele>
        <time>2021-05-24T04:56:09.000Z</time>
      </trkpt>
      <trkpt lat="45.21569" lon="5.73158">
        <ele>990.59997558594</ele>
        <time>2021-05-24T04:56:11.000Z</time>
      </trkpt>
      <trkpt lat="45.2157" lon="5.73157">
        <ele>990.79998779297</ele>
        <time>2021-05-24T04:56:12.000Z</time>
      </trkpt>
      <trkpt lat="45.2157" lon="5.73157">
        <ele>991.59997558594</ele>
        <time>2021-05-24T04:56:13.000Z</time>
      </trkpt>
      <trkpt lat="45.21571" lon="5.73156">
        <ele>992.59997558594</ele>
        <time>2021-05-24T04:56:15.000Z</time>
      </trkpt>
      <trkpt lat="45.21571" lon="5.73155">
        <ele>992.79998779297</ele>
        <time>2021-05-24T04:56:16.000Z</time>
      </trkpt>
      <trkpt lat="45.2157" lon="5.73153">
        <ele>993.20001220703</ele>
        <time>2021-05-24T04:56:18.000Z</time>
      </trkpt>
      <trkpt lat="45.2157" lon="5.73151">
        <ele>993.79998779297</ele>
        <time>2021-05-24T04:56:20.000Z</time>
      </trkpt>
      <trkpt lat="45.2157" lon="5.7315">
        <ele>994.40002441406</ele>
        <time>2021-05-24T04:56:21.000Z</time>
      </trkpt>
      <trkpt lat="45.21571" lon="5.73148">
        <ele>995</ele>
        <time>2021-05-24T04:56:23.000Z</time>
      </trkpt>
      <trkpt lat="45.21573" lon="5.73143">
        <ele>996.20001220703</ele>
        <time>2021-05-24T04:56:27.000Z</time>
      </trkpt>
      <trkpt lat="45.21574" lon="5.73142">
        <ele>997</ele>
        <time>2021-05-24T04:56:29.000Z</time>
      </trkpt>
      <trkpt lat="45.21574" lon="5.73141">
        <ele>997.20001220703</ele>
        <time>2021-05-24T04:56:30.000Z</time>
      </trkpt>
      <trkpt lat="45.21575" lon="5.73141">
        <ele>997.20001220703</ele>
        <time>2021-05-24T04:56:31.000Z</time>
      </trkpt>
      <trkpt lat="45.21577" lon="5.73139">
        <ele>998.59997558594</ele>
        <time>2021-05-24T04:56:34.000Z</time>
      </trkpt>
      <trkpt lat="45.21577" lon="5.73138">
        <ele>999.20001220703</ele>
        <time>2021-05-24T04:56:36.000Z</time>
      </trkpt>
      <trkpt lat="45.21578" lon="5.73138">
        <ele>999.40002441406</ele>
        <time>2021-05-24T04:56:37.000Z</time>
      </trkpt>
      <trkpt lat="45.21578" lon="5.73137">
        <ele>999.59997558594</ele>
        <time>2021-05-24T04:56:38.000Z</time>
      </trkpt>
      <trkpt lat="45.21578" lon="5.73135">
        <ele>1000.200012207</ele>
        <time>2021-05-24T04:56:40.000Z</time>
      </trkpt>
      <trkpt lat="45.21578" lon="5.73132">
        <ele>1001</ele>
        <time>2021-05-24T04:56:42.000Z</time>
      </trkpt>
      <trkpt lat="45.21578" lon="5.73129">
        <ele>1001.5999755859</ele>
        <time>2021-05-24T04:56:44.000Z</time>
      </trkpt>
      <trkpt lat="45.21578" lon="5.73127">
        <ele>1002.4000244141</ele>
        <time>2021-05-24T04:56:46.000Z</time>
      </trkpt>
      <trkpt lat="45.21578" lon="5.73126">
        <ele>1002.799987793</ele>
        <time>2021-05-24T04:56:48.000Z</time>
      </trkpt>
      <trkpt lat="45.21579" lon="5.73123">
        <ele>1003.799987793</ele>
        <time>2021-05-24T04:56:51.000Z</time>
      </trkpt>
      <trkpt lat="45.2158" lon="5.73122">
        <ele>1004.200012207</ele>
        <time>2021-05-24T04:56:52.000Z</time>
      </trkpt>
      <trkpt lat="45.21582" lon="5.73119">
        <ele>1004.799987793</ele>
        <time>2021-05-24T04:56:54.000Z</time>
      </trkpt>
      <trkpt lat="45.21585" lon="5.73116">
        <ele>1005.5999755859</ele>
        <time>2021-05-24T04:56:57.000Z</time>
      </trkpt>
      <trkpt lat="45.21588" lon="5.73115">
        <ele>1006.200012207</ele>
        <time>2021-05-24T04:56:59.000Z</time>
      </trkpt>
      <trkpt lat="45.21594" lon="5.73115">
        <ele>1007</ele>
        <time>2021-05-24T04:57:02.000Z</time>
      </trkpt>
      <trkpt lat="45.21596" lon="5.73116">
        <ele>1007.4000244141</ele>
        <time>2021-05-24T04:57:04.000Z</time>
      </trkpt>
      <trkpt lat="45.21597" lon="5.73117">
        <ele>1007.5999755859</ele>
        <time>2021-05-24T04:57:05.000Z</time>
      </trkpt>
      <trkpt lat="45.21603" lon="5.73119">
        <ele>1008.4000244141</ele>
        <time>2021-05-24T04:57:10.000Z</time>
      </trkpt>
      <trkpt lat="45.21609" lon="5.7312">
        <ele>1009.5999755859</ele>
        <time>2021-05-24T04:57:14.000Z</time>
      </trkpt>
      <trkpt lat="45.2161" lon="5.73121">
        <ele>1009.799987793</ele>
        <time>2021-05-24T04:57:15.000Z</time>
      </trkpt>
      <trkpt lat="45.21613" lon="5.73123">
        <ele>1010.200012207</ele>
        <time>2021-05-24T04:57:17.000Z</time>
      </trkpt>
      <trkpt lat="45.21616" lon="5.73125">
        <ele>1010.799987793</ele>
        <time>2021-05-24T04:57:20.000Z</time>
      </trkpt>
      <trkpt lat="45.21617" lon="5.73125">
        <ele>1011.4000244141</ele>
        <time>2021-05-24T04:57:21.000Z</time>
      </trkpt>
      <trkpt lat="45.21618" lon="5.73126">
        <ele>1012</ele>
        <time>2021-05-24T04:57:22.000Z</time>
      </trkpt>
      <trkpt lat="45.21624" lon="5.73128">
        <ele>1013</ele>
        <time>2021-05-24T04:57:26.000Z</time>
      </trkpt>
      <trkpt lat="45.21628" lon="5.73129">
        <ele>1014.200012207</ele>
        <time>2021-05-24T04:57:30.000Z</time>
      </trkpt>
      <trkpt lat="45.21628" lon="5.7313">
        <ele>1014.5999755859</ele>
        <time>2021-05-24T04:57:31.000Z</time>
      </trkpt>
      <trkpt lat="45.21632" lon="5.73131">
        <ele>1015.4000244141</ele>
        <time>2021-05-24T04:57:35.000Z</time>
      </trkpt>
      <trkpt lat="45.21633" lon="5.7313">
        <ele>1015.5999755859</ele>
        <time>2021-05-24T04:57:36.000Z</time>
      </trkpt>
      <trkpt lat="45.21634" lon="5.7313">
        <ele>1016</ele>
        <time>2021-05-24T04:57:37.000Z</time>
      </trkpt>
      <trkpt lat="45.21635" lon="5.73129">
        <ele>1016.4000244141</ele>
        <time>2021-05-24T04:57:38.000Z</time>
      </trkpt>
      <trkpt lat="45.21639" lon="5.73128">
        <ele>1017.4000244141</ele>
        <time>2021-05-24T04:57:42.000Z</time>
      </trkpt>
      <trkpt lat="45.21639" lon="5.73127">
        <ele>1017.5999755859</ele>
        <time>2021-05-24T04:57:43.000Z</time>
      </trkpt>
      <trkpt lat="45.2164" lon="5.73127">
        <ele>1018</ele>
        <time>2021-05-24T04:57:44.000Z</time>
      </trkpt>
      <trkpt lat="45.2164" lon="5.73128">
        <ele>1018.5999755859</ele>
        <time>2021-05-24T04:57:45.000Z</time>
      </trkpt>
      <trkpt lat="45.21646" lon="5.7313">
        <ele>1019.5999755859</ele>
        <time>2021-05-24T04:57:49.000Z</time>
      </trkpt>
      <trkpt lat="45.21649" lon="5.73131">
        <ele>1020.5999755859</ele>
        <time>2021-05-24T04:57:52.000Z</time>
      </trkpt>
      <trkpt lat="45.21651" lon="5.73132">
        <ele>1021.200012207</ele>
        <time>2021-05-24T04:57:54.000Z</time>
      </trkpt>
      <trkpt lat="45.21652" lon="5.73132">
        <ele>1021.200012207</ele>
        <time>2021-05-24T04:57:55.000Z</time>
      </trkpt>
      <trkpt lat="45.21653" lon="5.73131">
        <ele>1021.5999755859</ele>
        <time>2021-05-24T04:57:57.000Z</time>
      </trkpt>
      <trkpt lat="45.21654" lon="5.73131">
        <ele>1022.200012207</ele>
        <time>2021-05-24T04:57:58.000Z</time>
      </trkpt>
      <trkpt lat="45.21656" lon="5.73131">
        <ele>1023.4000244141</ele>
        <time>2021-05-24T04:58:00.000Z</time>
      </trkpt>
      <trkpt lat="45.21657" lon="5.73131">
        <ele>1023.5999755859</ele>
        <time>2021-05-24T04:58:01.000Z</time>
      </trkpt>
      <trkpt lat="45.21658" lon="5.73132">
        <ele>1023.799987793</ele>
        <time>2021-05-24T04:58:02.000Z</time>
      </trkpt>
      <trkpt lat="45.2166" lon="5.73133">
        <ele>1024.4000244141</ele>
        <time>2021-05-24T04:58:05.000Z</time>
      </trkpt>
      <trkpt lat="45.21661" lon="5.73134">
        <ele>1024.5999755859</ele>
        <time>2021-05-24T04:58:06.000Z</time>
      </trkpt>
      <trkpt lat="45.21662" lon="5.73134">
        <ele>1025.4000244141</ele>
        <time>2021-05-24T04:58:08.000Z</time>
      </trkpt>
      <trkpt lat="45.21663" lon="5.73134">
        <ele>1025.5999755859</ele>
        <time>2021-05-24T04:58:09.000Z</time>
      </trkpt>
      <trkpt lat="45.21664" lon="5.73134">
        <ele>1026</ele>
        <time>2021-05-24T04:58:10.000Z</time>
      </trkpt>
      <trkpt lat="45.21667" lon="5.73136">
        <ele>1026.8000488281</ele>
        <time>2021-05-24T04:58:14.000Z</time>
      </trkpt>
      <trkpt lat="45.21668" lon="5.73137">
        <ele>1027</ele>
        <time>2021-05-24T04:58:15.000Z</time>
      </trkpt>
      <trkpt lat="45.21668" lon="5.73138">
        <ele>1028</ele>
        <time>2021-05-24T04:58:17.000Z</time>
      </trkpt>
      <trkpt lat="45.21669" lon="5.73141">
        <ele>1029.4000244141</ele>
        <time>2021-05-24T04:58:21.000Z</time>
      </trkpt>
      <trkpt lat="45.21671" lon="5.73145">
        <ele>1030.1999511719</ele>
        <time>2021-05-24T04:58:25.000Z</time>
      </trkpt>
      <trkpt lat="45.21673" lon="5.73147">
        <ele>1030.5999755859</ele>
        <time>2021-05-24T04:58:27.000Z</time>
      </trkpt>
      <trkpt lat="45.21674" lon="5.73148">
        <ele>1031.4000244141</ele>
        <time>2021-05-24T04:58:29.000Z</time>
      </trkpt>
      <trkpt lat="45.21674" lon="5.7315">
        <ele>1031.8000488281</ele>
        <time>2021-05-24T04:58:30.000Z</time>
      </trkpt>
      <trkpt lat="45.21677" lon="5.73153">
        <ele>1033.1999511719</ele>
        <time>2021-05-24T04:58:33.000Z</time>
      </trkpt>
      <trkpt lat="45.21679" lon="5.73155">
        <ele>1033.8000488281</ele>
        <time>2021-05-24T04:58:35.000Z</time>
      </trkpt>
      <trkpt lat="45.21682" lon="5.7316">
        <ele>1034.4000244141</ele>
        <time>2021-05-24T04:58:39.000Z</time>
      </trkpt>
      <trkpt lat="45.21683" lon="5.73162">
        <ele>1035.5999755859</ele>
        <time>2021-05-24T04:58:41.000Z</time>
      </trkpt>
      <trkpt lat="45.21686" lon="5.73165">
        <ele>1036.1999511719</ele>
        <time>2021-05-24T04:58:44.000Z</time>
      </trkpt>
      <trkpt lat="45.21689" lon="5.73168">
        <ele>1036.8000488281</ele>
        <time>2021-05-24T04:58:47.000Z</time>
      </trkpt>
      <trkpt lat="45.21694" lon="5.73172">
        <ele>1037.8000488281</ele>
        <time>2021-05-24T04:58:51.000Z</time>
      </trkpt>
      <trkpt lat="45.21695" lon="5.73174">
        <ele>1038.1999511719</ele>
        <time>2021-05-24T04:58:52.000Z</time>
      </trkpt>
      <trkpt lat="45.21696" lon="5.73176">
        <ele>1038.4000244141</ele>
        <time>2021-05-24T04:58:53.000Z</time>
      </trkpt>
      <trkpt lat="45.21701" lon="5.73181">
        <ele>1038.8000488281</ele>
        <time>2021-05-24T04:58:57.000Z</time>
      </trkpt>
      <trkpt lat="45.21703" lon="5.73184">
        <ele>1039</ele>
        <time>2021-05-24T04:58:59.000Z</time>
      </trkpt>
      <trkpt lat="45.21704" lon="5.73185">
        <ele>1039.1999511719</ele>
        <time>2021-05-24T04:59:00.000Z</time>
      </trkpt>
      <trkpt lat="45.21707" lon="5.73189">
        <ele>1039.4000244141</ele>
        <time>2021-05-24T04:59:02.000Z</time>
      </trkpt>
      <trkpt lat="45.21712" lon="5.73195">
        <ele>1039.4000244141</ele>
        <time>2021-05-24T04:59:06.000Z</time>
      </trkpt>
      <trkpt lat="45.21715" lon="5.73199">
        <ele>1040.1999511719</ele>
        <time>2021-05-24T04:59:09.000Z</time>
      </trkpt>
      <trkpt lat="45.21721" lon="5.73204">
        <ele>1040.8000488281</ele>
        <time>2021-05-24T04:59:13.000Z</time>
      </trkpt>
      <trkpt lat="45.21722" lon="5.73204">
        <ele>1041</ele>
        <time>2021-05-24T04:59:14.000Z</time>
      </trkpt>
      <trkpt lat="45.21723" lon="5.73204">
        <ele>1041.5999755859</ele>
        <time>2021-05-24T04:59:16.000Z</time>
      </trkpt>
      <trkpt lat="45.21725" lon="5.73205">
        <ele>1042.5999755859</ele>
        <time>2021-05-24T04:59:19.000Z</time>
      </trkpt>
      <trkpt lat="45.21726" lon="5.73204">
        <ele>1043</ele>
        <time>2021-05-24T04:59:20.000Z</time>
      </trkpt>
      <trkpt lat="45.21727" lon="5.73203">
        <ele>1044</ele>
        <time>2021-05-24T04:59:22.000Z</time>
      </trkpt>
      <trkpt lat="45.2173" lon="5.732">
        <ele>1044.8000488281</ele>
        <time>2021-05-24T04:59:26.000Z</time>
      </trkpt>
      <trkpt lat="45.21731" lon="5.73199">
        <ele>1045.1999511719</ele>
        <time>2021-05-24T04:59:27.000Z</time>
      </trkpt>
      <trkpt lat="45.21732" lon="5.73196">
        <ele>1045.5999755859</ele>
        <time>2021-05-24T04:59:29.000Z</time>
      </trkpt>
      <trkpt lat="45.21737" lon="5.73194">
        <ele>1045.8000488281</ele>
        <time>2021-05-24T04:59:32.000Z</time>
      </trkpt>
      <trkpt lat="45.21749" lon="5.73195">
        <ele>1044.5999755859</ele>
        <time>2021-05-24T04:59:39.000Z</time>
      </trkpt>
      <trkpt lat="45.21757" lon="5.73202">
        <ele>1045.1999511719</ele>
        <time>2021-05-24T04:59:45.000Z</time>
      </trkpt>
      <trkpt lat="45.21759" lon="5.73205">
        <ele>1046.5999755859</ele>
        <time>2021-05-24T04:59:48.000Z</time>
      </trkpt>
      <trkpt lat="45.2176" lon="5.73207">
        <ele>1047.1999511719</ele>
        <time>2021-05-24T04:59:50.000Z</time>
      </trkpt>
      <trkpt lat="45.21761" lon="5.73209">
        <ele>1048</ele>
        <time>2021-05-24T04:59:52.000Z</time>
      </trkpt>
      <trkpt lat="45.21764" lon="5.73211">
        <ele>1048.4000244141</ele>
        <time>2021-05-24T04:59:55.000Z</time>
      </trkpt>
      <trkpt lat="45.21766" lon="5.73214">
        <ele>1048.5999755859</ele>
        <time>2021-05-24T04:59:57.000Z</time>
      </trkpt>
      <trkpt lat="45.21769" lon="5.7322">
        <ele>1048.5999755859</ele>
        <time>2021-05-24T05:00:02.000Z</time>
      </trkpt>
      <trkpt lat="45.2177" lon="5.73221">
        <ele>1048.5999755859</ele>
        <time>2021-05-24T05:00:03.000Z</time>
      </trkpt>
      <trkpt lat="45.21777" lon="5.73229">
        <ele>1049</ele>
        <time>2021-05-24T05:00:09.000Z</time>
      </trkpt>
      <trkpt lat="45.21778" lon="5.73233">
        <ele>1049.8000488281</ele>
        <time>2021-05-24T05:00:11.000Z</time>
      </trkpt>
      <trkpt lat="45.21781" lon="5.73237">
        <ele>1050.1999511719</ele>
        <time>2021-05-24T05:00:13.000Z</time>
      </trkpt>
      <trkpt lat="45.21784" lon="5.73242">
        <ele>1051.1999511719</ele>
        <time>2021-05-24T05:00:16.000Z</time>
      </trkpt>
      <trkpt lat="45.21785" lon="5.73244">
        <ele>1051.4000244141</ele>
        <time>2021-05-24T05:00:17.000Z</time>
      </trkpt>
      <trkpt lat="45.21786" lon="5.73247">
        <ele>1051.5999755859</ele>
        <time>2021-05-24T05:00:18.000Z</time>
      </trkpt>
      <trkpt lat="45.21786" lon="5.73252">
        <ele>1052.5999755859</ele>
        <time>2021-05-24T05:00:20.000Z</time>
      </trkpt>
      <trkpt lat="45.21786" lon="5.73255">
        <ele>1052.8000488281</ele>
        <time>2021-05-24T05:00:21.000Z</time>
      </trkpt>
      <trkpt lat="45.21785" lon="5.73257">
        <ele>1053</ele>
        <time>2021-05-24T05:00:22.000Z</time>
      </trkpt>
      <trkpt lat="45.21784" lon="5.7326">
        <ele>1053.4000244141</ele>
        <time>2021-05-24T05:00:23.000Z</time>
      </trkpt>
      <trkpt lat="45.21784" lon="5.73261">
        <ele>1053.5999755859</ele>
        <time>2021-05-24T05:00:24.000Z</time>
      </trkpt>
      <trkpt lat="45.21785" lon="5.73265">
        <ele>1053.8000488281</ele>
        <time>2021-05-24T05:00:26.000Z</time>
      </trkpt>
      <trkpt lat="45.21786" lon="5.73268">
        <ele>1054</ele>
        <time>2021-05-24T05:00:27.000Z</time>
      </trkpt>
      <trkpt lat="45.21785" lon="5.73271">
        <ele>1054.8000488281</ele>
        <time>2021-05-24T05:00:30.000Z</time>
      </trkpt>
      <trkpt lat="45.21787" lon="5.73272">
        <ele>1055.4000244141</ele>
        <time>2021-05-24T05:00:32.000Z</time>
      </trkpt>
      <trkpt lat="45.2179" lon="5.73274">
        <ele>1056</ele>
        <time>2021-05-24T05:00:34.000Z</time>
      </trkpt>
      <trkpt lat="45.21796" lon="5.73277">
        <ele>1057</ele>
        <time>2021-05-24T05:00:38.000Z</time>
      </trkpt>
      <trkpt lat="45.21797" lon="5.73278">
        <ele>1057.1999511719</ele>
        <time>2021-05-24T05:00:39.000Z</time>
      </trkpt>
      <trkpt lat="45.21802" lon="5.73284">
        <ele>1058.1999511719</ele>
        <time>2021-05-24T05:00:43.000Z</time>
      </trkpt>
      <trkpt lat="45.21803" lon="5.73285">
        <ele>1058.4000244141</ele>
        <time>2021-05-24T05:00:44.000Z</time>
      </trkpt>
      <trkpt lat="45.21811" lon="5.73291">
        <ele>1059.4000244141</ele>
        <time>2021-05-24T05:00:49.000Z</time>
      </trkpt>
      <trkpt lat="45.21813" lon="5.73295">
        <ele>1060</ele>
        <time>2021-05-24T05:00:51.000Z</time>
      </trkpt>
      <trkpt lat="45.21815" lon="5.73298">
        <ele>1060.1999511719</ele>
        <time>2021-05-24T05:00:53.000Z</time>
      </trkpt>
      <trkpt lat="45.21817" lon="5.73299">
        <ele>1060.4000244141</ele>
        <time>2021-05-24T05:00:54.000Z</time>
      </trkpt>
      <trkpt lat="45.21821" lon="5.73302">
        <ele>1061.1999511719</ele>
        <time>2021-05-24T05:00:57.000Z</time>
      </trkpt>
      <trkpt lat="45.21823" lon="5.73303">
        <ele>1061.5999755859</ele>
        <time>2021-05-24T05:00:58.000Z</time>
      </trkpt>
      <trkpt lat="45.21827" lon="5.73308">
        <ele>1062.8000488281</ele>
        <time>2021-05-24T05:01:02.000Z</time>
      </trkpt>
      <trkpt lat="45.21831" lon="5.73311">
        <ele>1063.8000488281</ele>
        <time>2021-05-24T05:01:05.000Z</time>
      </trkpt>
      <trkpt lat="45.21833" lon="5.73313">
        <ele>1064.5999755859</ele>
        <time>2021-05-24T05:01:07.000Z</time>
      </trkpt>
      <trkpt lat="45.21834" lon="5.73316">
        <ele>1065</ele>
        <time>2021-05-24T05:01:09.000Z</time>
      </trkpt>
      <trkpt lat="45.21835" lon="5.73317">
        <ele>1065.1999511719</ele>
        <time>2021-05-24T05:01:10.000Z</time>
      </trkpt>
      <trkpt lat="45.21838" lon="5.7332">
        <ele>1065.5999755859</ele>
        <time>2021-05-24T05:01:12.000Z</time>
      </trkpt>
      <trkpt lat="45.21841" lon="5.73323">
        <ele>1065.5999755859</ele>
        <time>2021-05-24T05:01:14.000Z</time>
      </trkpt>
      <trkpt lat="45.21846" lon="5.73328">
        <ele>1065.8000488281</ele>
        <time>2021-05-24T05:01:17.000Z</time>
      </trkpt>
      <trkpt lat="45.21847" lon="5.7333">
        <ele>1065.8000488281</ele>
        <time>2021-05-24T05:01:19.000Z</time>
      </trkpt>
      <trkpt lat="45.21848" lon="5.73332">
        <ele>1066</ele>
        <time>2021-05-24T05:01:21.000Z</time>
      </trkpt>
      <trkpt lat="45.21849" lon="5.73333">
        <ele>1066</ele>
        <time>2021-05-24T05:01:23.000Z</time>
      </trkpt>
      <trkpt lat="45.21848" lon="5.73334">
        <ele>1066</ele>
        <time>2021-05-24T05:01:24.000Z</time>
      </trkpt>
      <trkpt lat="45.21847" lon="5.73336">
        <ele>1066</ele>
        <time>2021-05-24T05:01:30.000Z</time>
      </trkpt>
      <trkpt lat="45.21848" lon="5.73336">
        <ele>1066</ele>
        <time>2021-05-24T05:01:33.000Z</time>
      </trkpt>
      <trkpt lat="45.21848" lon="5.73337">
        <ele>1066</ele>
        <time>2021-05-24T05:01:37.000Z</time>
      </trkpt>
      <trkpt lat="45.21848" lon="5.73337">
        <ele>1066</ele>
        <time>2021-05-24T05:01:40.000Z</time>
      </trkpt>
      <trkpt lat="45.21848" lon="5.73337">
        <ele>1066</ele>
        <time>2021-05-24T05:01:42.000Z</time>
      </trkpt>
      <trkpt lat="45.21848" lon="5.73337">
        <ele>1066</ele>
        <time>2021-05-24T05:01:44.000Z</time>
      </trkpt>
      <trkpt lat="45.21848" lon="5.73337">
        <ele>1066.1999511719</ele>
        <time>2021-05-24T05:01:46.000Z</time>
      </trkpt>
      <trkpt lat="45.21848" lon="5.73337">
        <ele>1066</ele>
        <time>2021-05-24T05:01:49.000Z</time>
      </trkpt>
      <trkpt lat="45.21846" lon="5.73346">
        <ele>1065.8000488281</ele>
        <time>2021-05-24T05:01:52.000Z</time>
      </trkpt>
      <trkpt lat="45.21847" lon="5.7335">
        <ele>1065.8000488281</ele>
        <time>2021-05-24T05:01:55.000Z</time>
      </trkpt>
      <trkpt lat="45.21847" lon="5.73352">
        <ele>1065.8000488281</ele>
        <time>2021-05-24T05:01:56.000Z</time>
      </trkpt>
      <trkpt lat="45.21847" lon="5.73353">
        <ele>1065.8000488281</ele>
        <time>2021-05-24T05:01:57.000Z</time>
      </trkpt>
      <trkpt lat="45.21847" lon="5.73355">
        <ele>1066</ele>
        <time>2021-05-24T05:02:02.000Z</time>
      </trkpt>
      <trkpt lat="45.21847" lon="5.73356">
        <ele>1065.8000488281</ele>
        <time>2021-05-24T05:02:05.000Z</time>
      </trkpt>
      <trkpt lat="45.21847" lon="5.73356">
        <ele>1065.8000488281</ele>
        <time>2021-05-24T05:02:10.000Z</time>
      </trkpt>
      <trkpt lat="45.21847" lon="5.73356">
        <ele>1065.8000488281</ele>
        <time>2021-05-24T05:02:13.000Z</time>
      </trkpt>
      <trkpt lat="45.21847" lon="5.73356">
        <ele>1065.8000488281</ele>
        <time>2021-05-24T05:02:15.000Z</time>
      </trkpt>
      <trkpt lat="45.21847" lon="5.73356">
        <ele>1065.8000488281</ele>
        <time>2021-05-24T05:02:17.000Z</time>
      </trkpt>
      <trkpt lat="45.21847" lon="5.73356">
        <ele>1065.5999755859</ele>
        <time>2021-05-24T05:02:19.000Z</time>
      </trkpt>
      <trkpt lat="45.21847" lon="5.73356">
        <ele>1065.5999755859</ele>
        <time>2021-05-24T05:02:21.000Z</time>
      </trkpt>
      <trkpt lat="45.21847" lon="5.73356">
        <ele>1065.8000488281</ele>
        <time>2021-05-24T05:02:25.000Z</time>
      </trkpt>
      <trkpt lat="45.21847" lon="5.73357">
        <ele>1065.8000488281</ele>
        <time>2021-05-24T05:02:33.000Z</time>
      </trkpt>
      <trkpt lat="45.21846" lon="5.73357">
        <ele>1065.8000488281</ele>
        <time>2021-05-24T05:02:38.000Z</time>
      </trkpt>
      <trkpt lat="45.21846" lon="5.73357">
        <ele>1065.8000488281</ele>
        <time>2021-05-24T05:02:41.000Z</time>
      </trkpt>
      <trkpt lat="45.21847" lon="5.73357">
        <ele>1065.8000488281</ele>
        <time>2021-05-24T05:02:51.000Z</time>
      </trkpt>
      <trkpt lat="45.21847" lon="5.73357">
        <ele>1065.8000488281</ele>
        <time>2021-05-24T05:02:58.000Z</time>
      </trkpt>
      <trkpt lat="45.21847" lon="5.73357">
        <ele>1065.8000488281</ele>
        <time>2021-05-24T05:03:01.000Z</time>
      </trkpt>
      <trkpt lat="45.21847" lon="5.73358">
        <ele>1065.8000488281</ele>
        <time>2021-05-24T05:03:17.000Z</time>
      </trkpt>
      <trkpt lat="45.21847" lon="5.73359">
        <ele>1065.8000488281</ele>
        <time>2021-05-24T05:03:24.000Z</time>
      </trkpt>
      <trkpt lat="45.21847" lon="5.73359">
        <ele>1065.8000488281</ele>
        <time>2021-05-24T05:03:28.000Z</time>
      </trkpt>
      <trkpt lat="45.21847" lon="5.73359">
        <ele>1065.8000488281</ele>
        <time>2021-05-24T05:03:31.000Z</time>
      </trkpt>
      <trkpt lat="45.21847" lon="5.73359">
        <ele>1065.8000488281</ele>
        <time>2021-05-24T05:03:32.000Z</time>
      </trkpt>
      <trkpt lat="45.21848" lon="5.73359">
        <ele>1065.8000488281</ele>
        <time>2021-05-24T05:03:38.000Z</time>
      </trkpt>
      <trkpt lat="45.21848" lon="5.73358">
        <ele>1065.8000488281</ele>
        <time>2021-05-24T05:03:52.000Z</time>
      </trkpt>
      <trkpt lat="45.21848" lon="5.73358">
        <ele>1065.8000488281</ele>
        <time>2021-05-24T05:04:12.000Z</time>
      </trkpt>
      <trkpt lat="45.21847" lon="5.73351">
        <ele>1065.8000488281</ele>
        <time>2021-05-24T05:04:35.000Z</time>
      </trkpt>
      <trkpt lat="45.21846" lon="5.73344">
        <ele>1065.8000488281</ele>
        <time>2021-05-24T05:04:39.000Z</time>
      </trkpt>
      <trkpt lat="45.21845" lon="5.73341">
        <ele>1065.8000488281</ele>
        <time>2021-05-24T05:04:41.000Z</time>
      </trkpt>
      <trkpt lat="45.21841" lon="5.73338">
        <ele>1065.8000488281</ele>
        <time>2021-05-24T05:04:45.000Z</time>
      </trkpt>
      <trkpt lat="45.21837" lon="5.73334">
        <ele>1065.5999755859</ele>
        <time>2021-05-24T05:04:49.000Z</time>
      </trkpt>
      <trkpt lat="45.21836" lon="5.73333">
        <ele>1065.5999755859</ele>
        <time>2021-05-24T05:04:50.000Z</time>
      </trkpt>
      <trkpt lat="45.21832" lon="5.73328">
        <ele>1065</ele>
        <time>2021-05-24T05:04:54.000Z</time>
      </trkpt>
      <trkpt lat="45.2183" lon="5.73326">
        <ele>1064.8000488281</ele>
        <time>2021-05-24T05:04:56.000Z</time>
      </trkpt>
      <trkpt lat="45.21826" lon="5.73321">
        <ele>1063.5999755859</ele>
        <time>2021-05-24T05:05:00.000Z</time>
      </trkpt>
      <trkpt lat="45.21824" lon="5.73319">
        <ele>1062.8000488281</ele>
        <time>2021-05-24T05:05:03.000Z</time>
      </trkpt>
      <trkpt lat="45.21823" lon="5.73318">
        <ele>1062.4000244141</ele>
        <time>2021-05-24T05:05:04.000Z</time>
      </trkpt>
      <trkpt lat="45.21815" lon="5.73314">
        <ele>1061.4000244141</ele>
        <time>2021-05-24T05:05:09.000Z</time>
      </trkpt>
      <trkpt lat="45.2181" lon="5.73306">
        <ele>1060.4000244141</ele>
        <time>2021-05-24T05:05:13.000Z</time>
      </trkpt>
      <trkpt lat="45.21806" lon="5.73303">
        <ele>1059.8000488281</ele>
        <time>2021-05-24T05:05:15.000Z</time>
      </trkpt>
      <trkpt lat="45.21805" lon="5.73302">
        <ele>1059.5999755859</ele>
        <time>2021-05-24T05:05:16.000Z</time>
      </trkpt>
      <trkpt lat="45.21802" lon="5.73301">
        <ele>1059.4000244141</ele>
        <time>2021-05-24T05:05:17.000Z</time>
      </trkpt>
      <trkpt lat="45.21797" lon="5.73296">
        <ele>1058.4000244141</ele>
        <time>2021-05-24T05:05:20.000Z</time>
      </trkpt>
      <trkpt lat="45.21796" lon="5.73295">
        <ele>1058.1999511719</ele>
        <time>2021-05-24T05:05:21.000Z</time>
      </trkpt>
      <trkpt lat="45.21794" lon="5.73292">
        <ele>1058</ele>
        <time>2021-05-24T05:05:23.000Z</time>
      </trkpt>
      <trkpt lat="45.2179" lon="5.7329">
        <ele>1057.1999511719</ele>
        <time>2021-05-24T05:05:26.000Z</time>
      </trkpt>
      <trkpt lat="45.21787" lon="5.73288">
        <ele>1056.8000488281</ele>
        <time>2021-05-24T05:05:28.000Z</time>
      </trkpt>
      <trkpt lat="45.21783" lon="5.73283">
        <ele>1055.8000488281</ele>
        <time>2021-05-24T05:05:32.000Z</time>
      </trkpt>
      <trkpt lat="45.21781" lon="5.7328">
        <ele>1055.1999511719</ele>
        <time>2021-05-24T05:05:34.000Z</time>
      </trkpt>
      <trkpt lat="45.2178" lon="5.73273">
        <ele>1054.5999755859</ele>
        <time>2021-05-24T05:05:37.000Z</time>
      </trkpt>
      <trkpt lat="45.21782" lon="5.73268">
        <ele>1054</ele>
        <time>2021-05-24T05:05:39.000Z</time>
      </trkpt>
      <trkpt lat="45.21783" lon="5.73265">
        <ele>1053.4000244141</ele>
        <time>2021-05-24T05:05:41.000Z</time>
      </trkpt>
      <trkpt lat="45.21781" lon="5.73261">
        <ele>1052.5999755859</ele>
        <time>2021-05-24T05:05:44.000Z</time>
      </trkpt>
      <trkpt lat="45.2178" lon="5.73259">
        <ele>1052.1999511719</ele>
        <time>2021-05-24T05:05:45.000Z</time>
      </trkpt>
      <trkpt lat="45.21779" lon="5.73254">
        <ele>1051.1999511719</ele>
        <time>2021-05-24T05:05:48.000Z</time>
      </trkpt>
      <trkpt lat="45.21778" lon="5.73251">
        <ele>1050.4000244141</ele>
        <time>2021-05-24T05:05:50.000Z</time>
      </trkpt>
      <trkpt lat="45.21777" lon="5.73248">
        <ele>1049.8000488281</ele>
        <time>2021-05-24T05:05:52.000Z</time>
      </trkpt>
      <trkpt lat="45.21772" lon="5.73241">
        <ele>1049</ele>
        <time>2021-05-24T05:05:57.000Z</time>
      </trkpt>
      <trkpt lat="45.21767" lon="5.73239">
        <ele>1049</ele>
        <time>2021-05-24T05:06:01.000Z</time>
      </trkpt>
      <trkpt lat="45.21766" lon="5.73235">
        <ele>1048.8000488281</ele>
        <time>2021-05-24T05:06:03.000Z</time>
      </trkpt>
      <trkpt lat="45.21765" lon="5.73233">
        <ele>1048.8000488281</ele>
        <time>2021-05-24T05:06:04.000Z</time>
      </trkpt>
      <trkpt lat="45.21761" lon="5.7323">
        <ele>1048.5999755859</ele>
        <time>2021-05-24T05:06:08.000Z</time>
      </trkpt>
      <trkpt lat="45.2176" lon="5.73229">
        <ele>1048.5999755859</ele>
        <time>2021-05-24T05:06:09.000Z</time>
      </trkpt>
      <trkpt lat="45.2176" lon="5.73227">
        <ele>1048.4000244141</ele>
        <time>2021-05-24T05:06:10.000Z</time>
      </trkpt>
      <trkpt lat="45.21759" lon="5.73224">
        <ele>1047.8000488281</ele>
        <time>2021-05-24T05:06:12.000Z</time>
      </trkpt>
      <trkpt lat="45.21758" lon="5.7322">
        <ele>1047</ele>
        <time>2021-05-24T05:06:15.000Z</time>
      </trkpt>
      <trkpt lat="45.21758" lon="5.73219">
        <ele>1046.5999755859</ele>
        <time>2021-05-24T05:06:16.000Z</time>
      </trkpt>
      <trkpt lat="45.21756" lon="5.73215">
        <ele>1045.5999755859</ele>
        <time>2021-05-24T05:06:19.000Z</time>
      </trkpt>
      <trkpt lat="45.21755" lon="5.73213">
        <ele>1045.5999755859</ele>
        <time>2021-05-24T05:06:20.000Z</time>
      </trkpt>
      <trkpt lat="45.21753" lon="5.73211">
        <ele>1045.4000244141</ele>
        <time>2021-05-24T05:06:21.000Z</time>
      </trkpt>
      <trkpt lat="45.21752" lon="5.7321">
        <ele>1045.1999511719</ele>
        <time>2021-05-24T05:06:22.000Z</time>
      </trkpt>
      <trkpt lat="45.21745" lon="5.73207">
        <ele>1045.4000244141</ele>
        <time>2021-05-24T05:06:26.000Z</time>
      </trkpt>
      <trkpt lat="45.21744" lon="5.73209">
        <ele>1045.5999755859</ele>
        <time>2021-05-24T05:06:28.000Z</time>
      </trkpt>
      <trkpt lat="45.21743" lon="5.73209">
        <ele>1045.8000488281</ele>
        <time>2021-05-24T05:06:29.000Z</time>
      </trkpt>
      <trkpt lat="45.2174" lon="5.7321">
        <ele>1046</ele>
        <time>2021-05-24T05:06:31.000Z</time>
      </trkpt>
      <trkpt lat="45.21739" lon="5.7321">
        <ele>1046</ele>
        <time>2021-05-24T05:06:32.000Z</time>
      </trkpt>
      <trkpt lat="45.21737" lon="5.73214">
        <ele>1046</ele>
        <time>2021-05-24T05:06:35.000Z</time>
      </trkpt>
      <trkpt lat="45.21736" lon="5.73216">
        <ele>1045.5999755859</ele>
        <time>2021-05-24T05:06:38.000Z</time>
      </trkpt>
      <trkpt lat="45.21735" lon="5.73217">
        <ele>1045.1999511719</ele>
        <time>2021-05-24T05:06:39.000Z</time>
      </trkpt>
      <trkpt lat="45.21734" lon="5.7322">
        <ele>1044.1999511719</ele>
        <time>2021-05-24T05:06:42.000Z</time>
      </trkpt>
      <trkpt lat="45.21731" lon="5.73221">
        <ele>1042.8000488281</ele>
        <time>2021-05-24T05:06:45.000Z</time>
      </trkpt>
      <trkpt lat="45.2173" lon="5.73222">
        <ele>1042.5999755859</ele>
        <time>2021-05-24T05:06:46.000Z</time>
      </trkpt>
      <trkpt lat="45.21728" lon="5.73221">
        <ele>1042.4000244141</ele>
        <time>2021-05-24T05:06:47.000Z</time>
      </trkpt>
      <trkpt lat="45.21723" lon="5.73217">
        <ele>1041.8000488281</ele>
        <time>2021-05-24T05:06:49.000Z</time>
      </trkpt>
      <trkpt lat="45.21721" lon="5.73215">
        <ele>1041.1999511719</ele>
        <time>2021-05-24T05:06:50.000Z</time>
      </trkpt>
      <trkpt lat="45.21716" lon="5.73211">
        <ele>1040.5999755859</ele>
        <time>2021-05-24T05:06:52.000Z</time>
      </trkpt>
      <trkpt lat="45.21713" lon="5.73206">
        <ele>1040.1999511719</ele>
        <time>2021-05-24T05:06:54.000Z</time>
      </trkpt>
      <trkpt lat="45.21709" lon="5.73203">
        <ele>1039.8000488281</ele>
        <time>2021-05-24T05:06:56.000Z</time>
      </trkpt>
      <trkpt lat="45.21706" lon="5.73199">
        <ele>1039.8000488281</ele>
        <time>2021-05-24T05:06:58.000Z</time>
      </trkpt>
      <trkpt lat="45.21701" lon="5.73194">
        <ele>1039.4000244141</ele>
        <time>2021-05-24T05:07:01.000Z</time>
      </trkpt>
      <trkpt lat="45.21697" lon="5.73189">
        <ele>1039</ele>
        <time>2021-05-24T05:07:04.000Z</time>
      </trkpt>
      <trkpt lat="45.21695" lon="5.73186">
        <ele>1038.1999511719</ele>
        <time>2021-05-24T05:07:06.000Z</time>
      </trkpt>
      <trkpt lat="45.21694" lon="5.73185">
        <ele>1037.8000488281</ele>
        <time>2021-05-24T05:07:07.000Z</time>
      </trkpt>
      <trkpt lat="45.21691" lon="5.7318">
        <ele>1037</ele>
        <time>2021-05-24T05:07:10.000Z</time>
      </trkpt>
      <trkpt lat="45.21687" lon="5.73173">
        <ele>1035.8000488281</ele>
        <time>2021-05-24T05:07:14.000Z</time>
      </trkpt>
      <trkpt lat="45.21686" lon="5.73171">
        <ele>1035.1999511719</ele>
        <time>2021-05-24T05:07:16.000Z</time>
      </trkpt>
      <trkpt lat="45.21685" lon="5.7317">
        <ele>1034.5999755859</ele>
        <time>2021-05-24T05:07:17.000Z</time>
      </trkpt>
      <trkpt lat="45.21684" lon="5.73169">
        <ele>1034.1999511719</ele>
        <time>2021-05-24T05:07:18.000Z</time>
      </trkpt>
      <trkpt lat="45.21683" lon="5.73167">
        <ele>1033.8000488281</ele>
        <time>2021-05-24T05:07:20.000Z</time>
      </trkpt>
      <trkpt lat="45.21682" lon="5.73166">
        <ele>1033.5999755859</ele>
        <time>2021-05-24T05:07:21.000Z</time>
      </trkpt>
      <trkpt lat="45.21678" lon="5.73162">
        <ele>1032.1999511719</ele>
        <time>2021-05-24T05:07:25.000Z</time>
      </trkpt>
      <trkpt lat="45.21677" lon="5.7316">
        <ele>1031.1999511719</ele>
        <time>2021-05-24T05:07:27.000Z</time>
      </trkpt>
      <trkpt lat="45.21677" lon="5.73158">
        <ele>1031</ele>
        <time>2021-05-24T05:07:28.000Z</time>
      </trkpt>
      <trkpt lat="45.21675" lon="5.73152">
        <ele>1029.8000488281</ele>
        <time>2021-05-24T05:07:32.000Z</time>
      </trkpt>
      <trkpt lat="45.21673" lon="5.7315">
        <ele>1029.1999511719</ele>
        <time>2021-05-24T05:07:34.000Z</time>
      </trkpt>
      <trkpt lat="45.21672" lon="5.7315">
        <ele>1028.8000488281</ele>
        <time>2021-05-24T05:07:35.000Z</time>
      </trkpt>
      <trkpt lat="45.2167" lon="5.73148">
        <ele>1027.8000488281</ele>
        <time>2021-05-24T05:07:38.000Z</time>
      </trkpt>
      <trkpt lat="45.2167" lon="5.73148">
        <ele>1027.5999755859</ele>
        <time>2021-05-24T05:07:39.000Z</time>
      </trkpt>
      <trkpt lat="45.21668" lon="5.73148">
        <ele>1027.1999511719</ele>
        <time>2021-05-24T05:07:41.000Z</time>
      </trkpt>
      <trkpt lat="45.21667" lon="5.73148">
        <ele>1026.4000244141</ele>
        <time>2021-05-24T05:07:43.000Z</time>
      </trkpt>
      <trkpt lat="45.21664" lon="5.73146">
        <ele>1025</ele>
        <time>2021-05-24T05:07:46.000Z</time>
      </trkpt>
      <trkpt lat="45.21662" lon="5.73145">
        <ele>1023.799987793</ele>
        <time>2021-05-24T05:07:49.000Z</time>
      </trkpt>
      <trkpt lat="45.21662" lon="5.73144">
        <ele>1023.200012207</ele>
        <time>2021-05-24T05:07:51.000Z</time>
      </trkpt>
      <trkpt lat="45.21661" lon="5.73145">
        <ele>1022.5999755859</ele>
        <time>2021-05-24T05:07:52.000Z</time>
      </trkpt>
      <trkpt lat="45.21659" lon="5.73145">
        <ele>1022.4000244141</ele>
        <time>2021-05-24T05:07:53.000Z</time>
      </trkpt>
      <trkpt lat="45.21658" lon="5.73145">
        <ele>1022</ele>
        <time>2021-05-24T05:07:54.000Z</time>
      </trkpt>
      <trkpt lat="45.21655" lon="5.73145">
        <ele>1021.4000244141</ele>
        <time>2021-05-24T05:07:56.000Z</time>
      </trkpt>
      <trkpt lat="45.2165" lon="5.73145">
        <ele>1020.200012207</ele>
        <time>2021-05-24T05:07:59.000Z</time>
      </trkpt>
      <trkpt lat="45.21646" lon="5.73144">
        <ele>1019</ele>
        <time>2021-05-24T05:08:02.000Z</time>
      </trkpt>
      <trkpt lat="45.21644" lon="5.73144">
        <ele>1018</ele>
        <time>2021-05-24T05:08:04.000Z</time>
      </trkpt>
      <trkpt lat="45.21643" lon="5.73144">
        <ele>1017.799987793</ele>
        <time>2021-05-24T05:08:05.000Z</time>
      </trkpt>
      <trkpt lat="45.21641" lon="5.73144">
        <ele>1017.5999755859</ele>
        <time>2021-05-24T05:08:07.000Z</time>
      </trkpt>
      <trkpt lat="45.21639" lon="5.73145">
        <ele>1016.799987793</ele>
        <time>2021-05-24T05:08:08.000Z</time>
      </trkpt>
      <trkpt lat="45.21638" lon="5.73146">
        <ele>1016.200012207</ele>
        <time>2021-05-24T05:08:09.000Z</time>
      </trkpt>
      <trkpt lat="45.21636" lon="5.73145">
        <ele>1015.799987793</ele>
        <time>2021-05-24T05:08:10.000Z</time>
      </trkpt>
      <trkpt lat="45.21634" lon="5.73145">
        <ele>1015.5999755859</ele>
        <time>2021-05-24T05:08:11.000Z</time>
      </trkpt>
      <trkpt lat="45.2163" lon="5.73144">
        <ele>1014.4000244141</ele>
        <time>2021-05-24T05:08:14.000Z</time>
      </trkpt>
      <trkpt lat="45.21625" lon="5.73142">
        <ele>1013.4000244141</ele>
        <time>2021-05-24T05:08:17.000Z</time>
      </trkpt>
      <trkpt lat="45.21624" lon="5.73141">
        <ele>1013</ele>
        <time>2021-05-24T05:08:18.000Z</time>
      </trkpt>
      <trkpt lat="45.21617" lon="5.73139">
        <ele>1011.5999755859</ele>
        <time>2021-05-24T05:08:21.000Z</time>
      </trkpt>
      <trkpt lat="45.21612" lon="5.73138">
        <ele>1011</ele>
        <time>2021-05-24T05:08:23.000Z</time>
      </trkpt>
      <trkpt lat="45.21609" lon="5.73137">
        <ele>1010.200012207</ele>
        <time>2021-05-24T05:08:25.000Z</time>
      </trkpt>
      <trkpt lat="45.21602" lon="5.73133">
        <ele>1009.200012207</ele>
        <time>2021-05-24T05:08:28.000Z</time>
      </trkpt>
      <trkpt lat="45.21599" lon="5.73132">
        <ele>1008.5999755859</ele>
        <time>2021-05-24T05:08:29.000Z</time>
      </trkpt>
      <trkpt lat="45.21594" lon="5.73129">
        <ele>1008</ele>
        <time>2021-05-24T05:08:31.000Z</time>
      </trkpt>
      <trkpt lat="45.2159" lon="5.7313">
        <ele>1006.5999755859</ele>
        <time>2021-05-24T05:08:34.000Z</time>
      </trkpt>
      <trkpt lat="45.21587" lon="5.73133">
        <ele>1005.5999755859</ele>
        <time>2021-05-24T05:08:37.000Z</time>
      </trkpt>
      <trkpt lat="45.21585" lon="5.73135">
        <ele>1004.200012207</ele>
        <time>2021-05-24T05:08:40.000Z</time>
      </trkpt>
      <trkpt lat="45.21585" lon="5.73136">
        <ele>1003.799987793</ele>
        <time>2021-05-24T05:08:41.000Z</time>
      </trkpt>
      <trkpt lat="45.21585" lon="5.73138">
        <ele>1003</ele>
        <time>2021-05-24T05:08:43.000Z</time>
      </trkpt>
      <trkpt lat="45.21585" lon="5.73139">
        <ele>1002.200012207</ele>
        <time>2021-05-24T05:08:45.000Z</time>
      </trkpt>
      <trkpt lat="45.21585" lon="5.73141">
        <ele>1001.799987793</ele>
        <time>2021-05-24T05:08:46.000Z</time>
      </trkpt>
      <trkpt lat="45.21585" lon="5.73145">
        <ele>1001.200012207</ele>
        <time>2021-05-24T05:08:49.000Z</time>
      </trkpt>
      <trkpt lat="45.21583" lon="5.73146">
        <ele>1000.4000244141</ele>
        <time>2021-05-24T05:08:51.000Z</time>
      </trkpt>
      <trkpt lat="45.21582" lon="5.73147">
        <ele>999.59997558594</ele>
        <time>2021-05-24T05:08:52.000Z</time>
      </trkpt>
      <trkpt lat="45.21582" lon="5.73148">
        <ele>999</ele>
        <time>2021-05-24T05:08:53.000Z</time>
      </trkpt>
      <trkpt lat="45.2158" lon="5.7315">
        <ele>998.59997558594</ele>
        <time>2021-05-24T05:08:55.000Z</time>
      </trkpt>
      <trkpt lat="45.21579" lon="5.73151">
        <ele>997.59997558594</ele>
        <time>2021-05-24T05:08:57.000Z</time>
      </trkpt>
      <trkpt lat="45.21577" lon="5.73153">
        <ele>996.40002441406</ele>
        <time>2021-05-24T05:09:01.000Z</time>
      </trkpt>
      <trkpt lat="45.21577" lon="5.73154">
        <ele>995.20001220703</ele>
        <time>2021-05-24T05:09:03.000Z</time>
      </trkpt>
      <trkpt lat="45.21577" lon="5.73156">
        <ele>994.40002441406</ele>
        <time>2021-05-24T05:09:05.000Z</time>
      </trkpt>
      <trkpt lat="45.21577" lon="5.73157">
        <ele>994.20001220703</ele>
        <time>2021-05-24T05:09:06.000Z</time>
      </trkpt>
      <trkpt lat="45.21576" lon="5.7316">
        <ele>993.59997558594</ele>
        <time>2021-05-24T05:09:09.000Z</time>
      </trkpt>
      <trkpt lat="45.21575" lon="5.7316">
        <ele>993</ele>
        <time>2021-05-24T05:09:10.000Z</time>
      </trkpt>
      <trkpt lat="45.21573" lon="5.7316">
        <ele>992</ele>
        <time>2021-05-24T05:09:12.000Z</time>
      </trkpt>
      <trkpt lat="45.21573" lon="5.7316">
        <ele>991.59997558594</ele>
        <time>2021-05-24T05:09:13.000Z</time>
      </trkpt>
      <trkpt lat="45.21573" lon="5.73165">
        <ele>990.59997558594</ele>
        <time>2021-05-24T05:09:16.000Z</time>
      </trkpt>
      <trkpt lat="45.21573" lon="5.73167">
        <ele>989.40002441406</ele>
        <time>2021-05-24T05:09:18.000Z</time>
      </trkpt>
      <trkpt lat="45.21573" lon="5.73169">
        <ele>988.40002441406</ele>
        <time>2021-05-24T05:09:20.000Z</time>
      </trkpt>
      <trkpt lat="45.21573" lon="5.7317">
        <ele>988.20001220703</ele>
        <time>2021-05-24T05:09:21.000Z</time>
      </trkpt>
      <trkpt lat="45.21573" lon="5.73172">
        <ele>987.40002441406</ele>
        <time>2021-05-24T05:09:23.000Z</time>
      </trkpt>
      <trkpt lat="45.21573" lon="5.73174">
        <ele>987</ele>
        <time>2021-05-24T05:09:24.000Z</time>
      </trkpt>
      <trkpt lat="45.21575" lon="5.73177">
        <ele>986.20001220703</ele>
        <time>2021-05-24T05:09:27.000Z</time>
      </trkpt>
      <trkpt lat="45.21576" lon="5.73181">
        <ele>985</ele>
        <time>2021-05-24T05:09:29.000Z</time>
      </trkpt>
      <trkpt lat="45.21578" lon="5.73184">
        <ele>984.79998779297</ele>
        <time>2021-05-24T05:09:30.000Z</time>
      </trkpt>
      <trkpt lat="45.21581" lon="5.73187">
        <ele>983.79998779297</ele>
        <time>2021-05-24T05:09:32.000Z</time>
      </trkpt>
      <trkpt lat="45.21586" lon="5.73192">
        <ele>982.59997558594</ele>
        <time>2021-05-24T05:09:35.000Z</time>
      </trkpt>
      <trkpt lat="45.2159" lon="5.73195">
        <ele>982</ele>
        <time>2021-05-24T05:09:37.000Z</time>
      </trkpt>
      <trkpt lat="45.21591" lon="5.73197">
        <ele>981.59997558594</ele>
        <time>2021-05-24T05:09:38.000Z</time>
      </trkpt>
      <trkpt lat="45.21593" lon="5.732">
        <ele>981.40002441406</ele>
        <time>2021-05-24T05:09:39.000Z</time>
      </trkpt>
      <trkpt lat="45.21597" lon="5.73204">
        <ele>980.79998779297</ele>
        <time>2021-05-24T05:09:41.000Z</time>
      </trkpt>
      <trkpt lat="45.21599" lon="5.73207">
        <ele>980.59997558594</ele>
        <time>2021-05-24T05:09:42.000Z</time>
      </trkpt>
      <trkpt lat="45.216" lon="5.73209">
        <ele>980.20001220703</ele>
        <time>2021-05-24T05:09:43.000Z</time>
      </trkpt>
      <trkpt lat="45.21603" lon="5.73213">
        <ele>979.40002441406</ele>
        <time>2021-05-24T05:09:45.000Z</time>
      </trkpt>
      <trkpt lat="45.21604" lon="5.73216">
        <ele>979</ele>
        <time>2021-05-24T05:09:46.000Z</time>
      </trkpt>
      <trkpt lat="45.21607" lon="5.73219">
        <ele>978</ele>
        <time>2021-05-24T05:09:49.000Z</time>
      </trkpt>
      <trkpt lat="45.21609" lon="5.73223">
        <ele>976.79998779297</ele>
        <time>2021-05-24T05:09:52.000Z</time>
      </trkpt>
      <trkpt lat="45.21611" lon="5.73228">
        <ele>976.20001220703</ele>
        <time>2021-05-24T05:09:55.000Z</time>
      </trkpt>
      <trkpt lat="45.21612" lon="5.73229">
        <ele>975.79998779297</ele>
        <time>2021-05-24T05:09:56.000Z</time>
      </trkpt>
      <trkpt lat="45.21612" lon="5.73231">
        <ele>975.20001220703</ele>
        <time>2021-05-24T05:09:57.000Z</time>
      </trkpt>
      <trkpt lat="45.21613" lon="5.73234">
        <ele>974.59997558594</ele>
        <time>2021-05-24T05:09:59.000Z</time>
      </trkpt>
      <trkpt lat="45.21615" lon="5.73236">
        <ele>973.59997558594</ele>
        <time>2021-05-24T05:10:01.000Z</time>
      </trkpt>
      <trkpt lat="45.21616" lon="5.73237">
        <ele>973.20001220703</ele>
        <time>2021-05-24T05:10:02.000Z</time>
      </trkpt>
      <trkpt lat="45.21618" lon="5.73241">
        <ele>972.79998779297</ele>
        <time>2021-05-24T05:10:04.000Z</time>
      </trkpt>
      <trkpt lat="45.2162" lon="5.73245">
        <ele>971.59997558594</ele>
        <time>2021-05-24T05:10:06.000Z</time>
      </trkpt>
      <trkpt lat="45.21624" lon="5.73252">
        <ele>970.40002441406</ele>
        <time>2021-05-24T05:10:09.000Z</time>
      </trkpt>
      <trkpt lat="45.21627" lon="5.73259">
        <ele>969.40002441406</ele>
        <time>2021-05-24T05:10:13.000Z</time>
      </trkpt>
      <trkpt lat="45.21629" lon="5.73262">
        <ele>968.79998779297</ele>
        <time>2021-05-24T05:10:15.000Z</time>
      </trkpt>
      <trkpt lat="45.2163" lon="5.73265">
        <ele>968.59997558594</ele>
        <time>2021-05-24T05:10:16.000Z</time>
      </trkpt>
      <trkpt lat="45.21632" lon="5.73267">
        <ele>968.40002441406</ele>
        <time>2021-05-24T05:10:17.000Z</time>
      </trkpt>
      <trkpt lat="45.21634" lon="5.7327">
        <ele>967.79998779297</ele>
        <time>2021-05-24T05:10:18.000Z</time>
      </trkpt>
      <trkpt lat="45.2164" lon="5.7328">
        <ele>967.40002441406</ele>
        <time>2021-05-24T05:10:21.000Z</time>
      </trkpt>
      <trkpt lat="45.21643" lon="5.73283">
        <ele>966.79998779297</ele>
        <time>2021-05-24T05:10:23.000Z</time>
      </trkpt>
      <trkpt lat="45.21646" lon="5.73293">
        <ele>965.59997558594</ele>
        <time>2021-05-24T05:10:27.000Z</time>
      </trkpt>
      <trkpt lat="45.21648" lon="5.73298">
        <ele>964.59997558594</ele>
        <time>2021-05-24T05:10:30.000Z</time>
      </trkpt>
      <trkpt lat="45.21648" lon="5.73303">
        <ele>963.59997558594</ele>
        <time>2021-05-24T05:10:32.000Z</time>
      </trkpt>
      <trkpt lat="45.21649" lon="5.73305">
        <ele>963.20001220703</ele>
        <time>2021-05-24T05:10:33.000Z</time>
      </trkpt>
      <trkpt lat="45.21649" lon="5.73307">
        <ele>962.79998779297</ele>
        <time>2021-05-24T05:10:34.000Z</time>
      </trkpt>
      <trkpt lat="45.21651" lon="5.73313">
        <ele>961.79998779297</ele>
        <time>2021-05-24T05:10:37.000Z</time>
      </trkpt>
      <trkpt lat="45.21651" lon="5.73316">
        <ele>961.59997558594</ele>
        <time>2021-05-24T05:10:38.000Z</time>
      </trkpt>
      <trkpt lat="45.21652" lon="5.73322">
        <ele>960.59997558594</ele>
        <time>2021-05-24T05:10:40.000Z</time>
      </trkpt>
      <trkpt lat="45.21653" lon="5.73324">
        <ele>959.59997558594</ele>
        <time>2021-05-24T05:10:42.000Z</time>
      </trkpt>
      <trkpt lat="45.21654" lon="5.73327">
        <ele>959</ele>
        <time>2021-05-24T05:10:44.000Z</time>
      </trkpt>
      <trkpt lat="45.21655" lon="5.73329">
        <ele>958.40002441406</ele>
        <time>2021-05-24T05:10:45.000Z</time>
      </trkpt>
      <trkpt lat="45.21657" lon="5.73335">
        <ele>957.20001220703</ele>
        <time>2021-05-24T05:10:48.000Z</time>
      </trkpt>
      <trkpt lat="45.21656" lon="5.73336">
        <ele>957</ele>
        <time>2021-05-24T05:10:49.000Z</time>
      </trkpt>
      <trkpt lat="45.21654" lon="5.73336">
        <ele>956.59997558594</ele>
        <time>2021-05-24T05:10:50.000Z</time>
      </trkpt>
      <trkpt lat="45.21651" lon="5.73332">
        <ele>956</ele>
        <time>2021-05-24T05:10:52.000Z</time>
      </trkpt>
      <trkpt lat="45.21646" lon="5.73326">
        <ele>955.40002441406</ele>
        <time>2021-05-24T05:10:55.000Z</time>
      </trkpt>
      <trkpt lat="45.21642" lon="5.73323">
        <ele>954.79998779297</ele>
        <time>2021-05-24T05:10:57.000Z</time>
      </trkpt>
      <trkpt lat="45.21637" lon="5.73316">
        <ele>953.79998779297</ele>
        <time>2021-05-24T05:11:00.000Z</time>
      </trkpt>
      <trkpt lat="45.21634" lon="5.73312">
        <ele>952.79998779297</ele>
        <time>2021-05-24T05:11:02.000Z</time>
      </trkpt>
      <trkpt lat="45.21632" lon="5.7331">
        <ele>952.40002441406</ele>
        <time>2021-05-24T05:11:03.000Z</time>
      </trkpt>
      <trkpt lat="45.21623" lon="5.73301">
        <ele>951</ele>
        <time>2021-05-24T05:11:08.000Z</time>
      </trkpt>
      <trkpt lat="45.21616" lon="5.73296">
        <ele>950.20001220703</ele>
        <time>2021-05-24T05:11:12.000Z</time>
      </trkpt>
      <trkpt lat="45.21615" lon="5.73296">
        <ele>949.79998779297</ele>
        <time>2021-05-24T05:11:13.000Z</time>
      </trkpt>
      <trkpt lat="45.21608" lon="5.73292">
        <ele>948.79998779297</ele>
        <time>2021-05-24T05:11:17.000Z</time>
      </trkpt>
      <trkpt lat="45.21603" lon="5.7329">
        <ele>947.79998779297</ele>
        <time>2021-05-24T05:11:20.000Z</time>
      </trkpt>
      <trkpt lat="45.21601" lon="5.73289">
        <ele>947.20001220703</ele>
        <time>2021-05-24T05:11:21.000Z</time>
      </trkpt>
      <trkpt lat="45.21596" lon="5.73286">
        <ele>946.20001220703</ele>
        <time>2021-05-24T05:11:24.000Z</time>
      </trkpt>
      <trkpt lat="45.21588" lon="5.73283">
        <ele>945.20001220703</ele>
        <time>2021-05-24T05:11:28.000Z</time>
      </trkpt>
      <trkpt lat="45.21585" lon="5.73281">
        <ele>944.79998779297</ele>
        <time>2021-05-24T05:11:30.000Z</time>
      </trkpt>
      <trkpt lat="45.21582" lon="5.73279">
        <ele>943.59997558594</ele>
        <time>2021-05-24T05:11:32.000Z</time>
      </trkpt>
      <trkpt lat="45.21576" lon="5.73277">
        <ele>942.59997558594</ele>
        <time>2021-05-24T05:11:36.000Z</time>
      </trkpt>
      <trkpt lat="45.21575" lon="5.73276">
        <ele>942.20001220703</ele>
        <time>2021-05-24T05:11:37.000Z</time>
      </trkpt>
      <trkpt lat="45.21574" lon="5.73276">
        <ele>941.59997558594</ele>
        <time>2021-05-24T05:11:38.000Z</time>
      </trkpt>
      <trkpt lat="45.2157" lon="5.73277">
        <ele>940.20001220703</ele>
        <time>2021-05-24T05:11:41.000Z</time>
      </trkpt>
      <trkpt lat="45.21566" lon="5.73278">
        <ele>939.20001220703</ele>
        <time>2021-05-24T05:11:44.000Z</time>
      </trkpt>
      <trkpt lat="45.21559" lon="5.73278">
        <ele>937.59997558594</ele>
        <time>2021-05-24T05:11:48.000Z</time>
      </trkpt>
      <trkpt lat="45.21555" lon="5.73279">
        <ele>937.20001220703</ele>
        <time>2021-05-24T05:11:49.000Z</time>
      </trkpt>
      <trkpt lat="45.2155" lon="5.73278">
        <ele>936.40002441406</ele>
        <time>2021-05-24T05:11:51.000Z</time>
      </trkpt>
      <trkpt lat="45.21543" lon="5.73278">
        <ele>935.20001220703</ele>
        <time>2021-05-24T05:11:54.000Z</time>
      </trkpt>
      <trkpt lat="45.21539" lon="5.73277">
        <ele>934</ele>
        <time>2021-05-24T05:11:56.000Z</time>
      </trkpt>
      <trkpt lat="45.21538" lon="5.73277">
        <ele>932.79998779297</ele>
        <time>2021-05-24T05:11:58.000Z</time>
      </trkpt>
      <trkpt lat="45.21539" lon="5.73277">
        <ele>932.40002441406</ele>
        <time>2021-05-24T05:11:59.000Z</time>
      </trkpt>
      <trkpt lat="45.2154" lon="5.73276">
        <ele>931.79998779297</ele>
        <time>2021-05-24T05:12:01.000Z</time>
      </trkpt>
      <trkpt lat="45.21542" lon="5.73276">
        <ele>931.40002441406</ele>
        <time>2021-05-24T05:12:02.000Z</time>
      </trkpt>
      <trkpt lat="45.21544" lon="5.73277">
        <ele>930.79998779297</ele>
        <time>2021-05-24T05:12:04.000Z</time>
      </trkpt>
      <trkpt lat="45.21546" lon="5.73278">
        <ele>930.59997558594</ele>
        <time>2021-05-24T05:12:05.000Z</time>
      </trkpt>
      <trkpt lat="45.21547" lon="5.73279">
        <ele>929.79998779297</ele>
        <time>2021-05-24T05:12:06.000Z</time>
      </trkpt>
      <trkpt lat="45.2155" lon="5.73278">
        <ele>928.79998779297</ele>
        <time>2021-05-24T05:12:07.000Z</time>
      </trkpt>
      <trkpt lat="45.21554" lon="5.73278">
        <ele>928.20001220703</ele>
        <time>2021-05-24T05:12:08.000Z</time>
      </trkpt>
      <trkpt lat="45.21556" lon="5.73281">
        <ele>926.79998779297</ele>
        <time>2021-05-24T05:12:10.000Z</time>
      </trkpt>
      <trkpt lat="45.21559" lon="5.73284">
        <ele>925.40002441406</ele>
        <time>2021-05-24T05:12:14.000Z</time>
      </trkpt>
      <trkpt lat="45.2156" lon="5.73288">
        <ele>924.40002441406</ele>
        <time>2021-05-24T05:12:16.000Z</time>
      </trkpt>
      <trkpt lat="45.21561" lon="5.73289">
        <ele>924.20001220703</ele>
        <time>2021-05-24T05:12:17.000Z</time>
      </trkpt>
      <trkpt lat="45.21562" lon="5.73291">
        <ele>923.40002441406</ele>
        <time>2021-05-24T05:12:19.000Z</time>
      </trkpt>
      <trkpt lat="45.21562" lon="5.73291">
        <ele>923.20001220703</ele>
        <time>2021-05-24T05:12:20.000Z</time>
      </trkpt>
      <trkpt lat="45.21563" lon="5.73293">
        <ele>922.40002441406</ele>
        <time>2021-05-24T05:12:21.000Z</time>
      </trkpt>
      <trkpt lat="45.21563" lon="5.73294">
        <ele>922</ele>
        <time>2021-05-24T05:12:22.000Z</time>
      </trkpt>
      <trkpt lat="45.21565" lon="5.73298">
        <ele>921.59997558594</ele>
        <time>2021-05-24T05:12:24.000Z</time>
      </trkpt>
      <trkpt lat="45.21566" lon="5.73301">
        <ele>920.59997558594</ele>
        <time>2021-05-24T05:12:25.000Z</time>
      </trkpt>
      <trkpt lat="45.2157" lon="5.73307">
        <ele>919</ele>
        <time>2021-05-24T05:12:28.000Z</time>
      </trkpt>
      <trkpt lat="45.21571" lon="5.73311">
        <ele>917.79998779297</ele>
        <time>2021-05-24T05:12:31.000Z</time>
      </trkpt>
      <trkpt lat="45.21573" lon="5.73312">
        <ele>917.79998779297</ele>
        <time>2021-05-24T05:12:32.000Z</time>
      </trkpt>
      <trkpt lat="45.21574" lon="5.73316">
        <ele>917.40002441406</ele>
        <time>2021-05-24T05:12:34.000Z</time>
      </trkpt>
      <trkpt lat="45.21575" lon="5.73319">
        <ele>917</ele>
        <time>2021-05-24T05:12:36.000Z</time>
      </trkpt>
      <trkpt lat="45.21576" lon="5.73319">
        <ele>916.79998779297</ele>
        <time>2021-05-24T05:12:37.000Z</time>
      </trkpt>
      <trkpt lat="45.21577" lon="5.73319">
        <ele>916.59997558594</ele>
        <time>2021-05-24T05:12:38.000Z</time>
      </trkpt>
      <trkpt lat="45.21582" lon="5.73325">
        <ele>916.40002441406</ele>
        <time>2021-05-24T05:12:41.000Z</time>
      </trkpt>
      <trkpt lat="45.21587" lon="5.7333">
        <ele>916.40002441406</ele>
        <time>2021-05-24T05:12:44.000Z</time>
      </trkpt>
      <trkpt lat="45.21593" lon="5.73332">
        <ele>916.79998779297</ele>
        <time>2021-05-24T05:12:47.000Z</time>
      </trkpt>
      <trkpt lat="45.21599" lon="5.73337">
        <ele>917.79998779297</ele>
        <time>2021-05-24T05:12:50.000Z</time>
      </trkpt>
      <trkpt lat="45.21601" lon="5.7334">
        <ele>918.20001220703</ele>
        <time>2021-05-24T05:12:51.000Z</time>
      </trkpt>
      <trkpt lat="45.21608" lon="5.7335">
        <ele>919.59997558594</ele>
        <time>2021-05-24T05:12:55.000Z</time>
      </trkpt>
      <trkpt lat="45.21609" lon="5.73352">
        <ele>919.79998779297</ele>
        <time>2021-05-24T05:12:56.000Z</time>
      </trkpt>
      <trkpt lat="45.21613" lon="5.73357">
        <ele>920.79998779297</ele>
        <time>2021-05-24T05:12:59.000Z</time>
      </trkpt>
      <trkpt lat="45.21615" lon="5.73358">
        <ele>920.79998779297</ele>
        <time>2021-05-24T05:13:00.000Z</time>
      </trkpt>
      <trkpt lat="45.21616" lon="5.73359">
        <ele>921.40002441406</ele>
        <time>2021-05-24T05:13:01.000Z</time>
      </trkpt>
      <trkpt lat="45.21618" lon="5.7336">
        <ele>921.79998779297</ele>
        <time>2021-05-24T05:13:02.000Z</time>
      </trkpt>
      <trkpt lat="45.21621" lon="5.73364">
        <ele>922.79998779297</ele>
        <time>2021-05-24T05:13:05.000Z</time>
      </trkpt>
      <trkpt lat="45.21623" lon="5.73366">
        <ele>923.20001220703</ele>
        <time>2021-05-24T05:13:06.000Z</time>
      </trkpt>
      <trkpt lat="45.21624" lon="5.73369">
        <ele>923.59997558594</ele>
        <time>2021-05-24T05:13:07.000Z</time>
      </trkpt>
      <trkpt lat="45.21628" lon="5.73372">
        <ele>924</ele>
        <time>2021-05-24T05:13:09.000Z</time>
      </trkpt>
      <trkpt lat="45.21635" lon="5.73379">
        <ele>925.20001220703</ele>
        <time>2021-05-24T05:13:12.000Z</time>
      </trkpt>
      <trkpt lat="45.21637" lon="5.73383">
        <ele>925.59997558594</ele>
        <time>2021-05-24T05:13:14.000Z</time>
      </trkpt>
      <trkpt lat="45.21641" lon="5.73388">
        <ele>926.20001220703</ele>
        <time>2021-05-24T05:13:16.000Z</time>
      </trkpt>
      <trkpt lat="45.21645" lon="5.73391">
        <ele>926.59997558594</ele>
        <time>2021-05-24T05:13:18.000Z</time>
      </trkpt>
      <trkpt lat="45.21646" lon="5.73393">
        <ele>926.59997558594</ele>
        <time>2021-05-24T05:13:19.000Z</time>
      </trkpt>
      <trkpt lat="45.21651" lon="5.73403">
        <ele>927</ele>
        <time>2021-05-24T05:13:22.000Z</time>
      </trkpt>
      <trkpt lat="45.21653" lon="5.73406">
        <ele>927.40002441406</ele>
        <time>2021-05-24T05:13:23.000Z</time>
      </trkpt>
      <trkpt lat="45.21657" lon="5.7341">
        <ele>927.59997558594</ele>
        <time>2021-05-24T05:13:25.000Z</time>
      </trkpt>
      <trkpt lat="45.21667" lon="5.73419">
        <ele>928.59997558594</ele>
        <time>2021-05-24T05:13:30.000Z</time>
      </trkpt>
      <trkpt lat="45.21672" lon="5.7344">
        <ele>929.59997558594</ele>
        <time>2021-05-24T05:13:35.000Z</time>
      </trkpt>
      <trkpt lat="45.21672" lon="5.73444">
        <ele>929.79998779297</ele>
        <time>2021-05-24T05:13:36.000Z</time>
      </trkpt>
      <trkpt lat="45.21677" lon="5.73463">
        <ele>930.79998779297</ele>
        <time>2021-05-24T05:13:41.000Z</time>
      </trkpt>
      <trkpt lat="45.21677" lon="5.73466">
        <ele>931.20001220703</ele>
        <time>2021-05-24T05:13:42.000Z</time>
      </trkpt>
      <trkpt lat="45.2168" lon="5.73475">
        <ele>932</ele>
        <time>2021-05-24T05:13:45.000Z</time>
      </trkpt>
      <trkpt lat="45.21681" lon="5.73477">
        <ele>932</ele>
        <time>2021-05-24T05:13:46.000Z</time>
      </trkpt>
      <trkpt lat="45.21681" lon="5.73479">
        <ele>932.20001220703</ele>
        <time>2021-05-24T05:13:47.000Z</time>
      </trkpt>
      <trkpt lat="45.21681" lon="5.73485">
        <ele>931.79998779297</ele>
        <time>2021-05-24T05:13:51.000Z</time>
      </trkpt>
      <trkpt lat="45.21681" lon="5.73488">
        <ele>931</ele>
        <time>2021-05-24T05:13:53.000Z</time>
      </trkpt>
      <trkpt lat="45.21682" lon="5.73489">
        <ele>930.79998779297</ele>
        <time>2021-05-24T05:13:54.000Z</time>
      </trkpt>
      <trkpt lat="45.21683" lon="5.7349">
        <ele>930.40002441406</ele>
        <time>2021-05-24T05:13:56.000Z</time>
      </trkpt>
      <trkpt lat="45.21685" lon="5.73491">
        <ele>929.79998779297</ele>
        <time>2021-05-24T05:13:58.000Z</time>
      </trkpt>
      <trkpt lat="45.21686" lon="5.73492">
        <ele>929.79998779297</ele>
        <time>2021-05-24T05:13:59.000Z</time>
      </trkpt>
      <trkpt lat="45.21687" lon="5.73494">
        <ele>929.20001220703</ele>
        <time>2021-05-24T05:14:01.000Z</time>
      </trkpt>
      <trkpt lat="45.21688" lon="5.73494">
        <ele>928.79998779297</ele>
        <time>2021-05-24T05:14:02.000Z</time>
      </trkpt>
      <trkpt lat="45.21688" lon="5.73494">
        <ele>928.59997558594</ele>
        <time>2021-05-24T05:14:03.000Z</time>
      </trkpt>
      <trkpt lat="45.21691" lon="5.73497">
        <ele>927.79998779297</ele>
        <time>2021-05-24T05:14:06.000Z</time>
      </trkpt>
      <trkpt lat="45.21692" lon="5.73498">
        <ele>927.40002441406</ele>
        <time>2021-05-24T05:14:07.000Z</time>
      </trkpt>
      <trkpt lat="45.21694" lon="5.73499">
        <ele>926.59997558594</ele>
        <time>2021-05-24T05:14:09.000Z</time>
      </trkpt>
      <trkpt lat="45.21695" lon="5.735">
        <ele>926.20001220703</ele>
        <time>2021-05-24T05:14:10.000Z</time>
      </trkpt>
      <trkpt lat="45.21696" lon="5.73501">
        <ele>925.59997558594</ele>
        <time>2021-05-24T05:14:12.000Z</time>
      </trkpt>
      <trkpt lat="45.21697" lon="5.73503">
        <ele>925.40002441406</ele>
        <time>2021-05-24T05:14:13.000Z</time>
      </trkpt>
      <trkpt lat="45.21699" lon="5.73505">
        <ele>924.59997558594</ele>
        <time>2021-05-24T05:14:14.000Z</time>
      </trkpt>
      <trkpt lat="45.21703" lon="5.73509">
        <ele>923.40002441406</ele>
        <time>2021-05-24T05:14:16.000Z</time>
      </trkpt>
      <trkpt lat="45.21705" lon="5.73512">
        <ele>923</ele>
        <time>2021-05-24T05:14:17.000Z</time>
      </trkpt>
      <trkpt lat="45.21709" lon="5.73515">
        <ele>922.40002441406</ele>
        <time>2021-05-24T05:14:19.000Z</time>
      </trkpt>
      <trkpt lat="45.21717" lon="5.73521">
        <ele>921.40002441406</ele>
        <time>2021-05-24T05:14:25.000Z</time>
      </trkpt>
      <trkpt lat="45.21717" lon="5.73522">
        <ele>921.40002441406</ele>
        <time>2021-05-24T05:14:26.000Z</time>
      </trkpt>
      <trkpt lat="45.21721" lon="5.73527">
        <ele>921.59997558594</ele>
        <time>2021-05-24T05:14:29.000Z</time>
      </trkpt>
      <trkpt lat="45.21729" lon="5.73532">
        <ele>921.59997558594</ele>
        <time>2021-05-24T05:14:33.000Z</time>
      </trkpt>
      <trkpt lat="45.21734" lon="5.73532">
        <ele>921.59997558594</ele>
        <time>2021-05-24T05:14:36.000Z</time>
      </trkpt>
      <trkpt lat="45.21744" lon="5.73534">
        <ele>921.59997558594</ele>
        <time>2021-05-24T05:14:43.000Z</time>
      </trkpt>
      <trkpt lat="45.21745" lon="5.73535">
        <ele>921.40002441406</ele>
        <time>2021-05-24T05:14:44.000Z</time>
      </trkpt>
      <trkpt lat="45.21753" lon="5.73542">
        <ele>920.20001220703</ele>
        <time>2021-05-24T05:14:48.000Z</time>
      </trkpt>
      <trkpt lat="45.21758" lon="5.73544">
        <ele>919.40002441406</ele>
        <time>2021-05-24T05:14:50.000Z</time>
      </trkpt>
      <trkpt lat="45.21761" lon="5.73545">
        <ele>919</ele>
        <time>2021-05-24T05:14:51.000Z</time>
      </trkpt>
      <trkpt lat="45.21763" lon="5.73546">
        <ele>918.59997558594</ele>
        <time>2021-05-24T05:14:52.000Z</time>
      </trkpt>
      <trkpt lat="45.21764" lon="5.73548">
        <ele>918.40002441406</ele>
        <time>2021-05-24T05:14:54.000Z</time>
      </trkpt>
      <trkpt lat="45.21763" lon="5.73548">
        <ele>918.40002441406</ele>
        <time>2021-05-24T05:14:55.000Z</time>
      </trkpt>
      <trkpt lat="45.21763" lon="5.7355">
        <ele>918.20001220703</ele>
        <time>2021-05-24T05:15:03.000Z</time>
      </trkpt>
      <trkpt lat="45.21763" lon="5.7355">
        <ele>918.20001220703</ele>
        <time>2021-05-24T05:15:06.000Z</time>
      </trkpt>
      <trkpt lat="45.21763" lon="5.7355">
        <ele>918.20001220703</ele>
        <time>2021-05-24T05:15:08.000Z</time>
      </trkpt>
      <trkpt lat="45.21763" lon="5.7355">
        <ele>918.20001220703</ele>
        <time>2021-05-24T05:15:10.000Z</time>
      </trkpt>
      <trkpt lat="45.21762" lon="5.7355">
        <ele>918.20001220703</ele>
        <time>2021-05-24T05:15:15.000Z</time>
      </trkpt>
      <trkpt lat="45.2176" lon="5.73551">
        <ele>918.20001220703</ele>
        <time>2021-05-24T05:15:17.000Z</time>
      </trkpt>
      <trkpt lat="45.21759" lon="5.7355">
        <ele>918.40002441406</ele>
        <time>2021-05-24T05:15:19.000Z</time>
      </trkpt>
      <trkpt lat="45.21758" lon="5.73549">
        <ele>919</ele>
        <time>2021-05-24T05:15:21.000Z</time>
      </trkpt>
      <trkpt lat="45.21757" lon="5.73549">
        <ele>919.40002441406</ele>
        <time>2021-05-24T05:15:22.000Z</time>
      </trkpt>
      <trkpt lat="45.21754" lon="5.73547">
        <ele>920</ele>
        <time>2021-05-24T05:15:25.000Z</time>
      </trkpt>
      <trkpt lat="45.21753" lon="5.73546">
        <ele>920.20001220703</ele>
        <time>2021-05-24T05:15:26.000Z</time>
      </trkpt>
      <trkpt lat="45.21752" lon="5.73546">
        <ele>920.40002441406</ele>
        <time>2021-05-24T05:15:27.000Z</time>
      </trkpt>
      <trkpt lat="45.21751" lon="5.73545">
        <ele>920.59997558594</ele>
        <time>2021-05-24T05:15:28.000Z</time>
      </trkpt>
      <trkpt lat="45.21746" lon="5.73542">
        <ele>921.40002441406</ele>
        <time>2021-05-24T05:15:32.000Z</time>
      </trkpt>
      <trkpt lat="45.21745" lon="5.73543">
        <ele>921.59997558594</ele>
        <time>2021-05-24T05:15:33.000Z</time>
      </trkpt>
      <trkpt lat="45.21743" lon="5.73546">
        <ele>921.79998779297</ele>
        <time>2021-05-24T05:15:35.000Z</time>
      </trkpt>
      <trkpt lat="45.21742" lon="5.73546">
        <ele>921.59997558594</ele>
        <time>2021-05-24T05:15:36.000Z</time>
      </trkpt>
      <trkpt lat="45.21739" lon="5.73546">
        <ele>921.59997558594</ele>
        <time>2021-05-24T05:15:38.000Z</time>
      </trkpt>
      <trkpt lat="45.21732" lon="5.73543">
        <ele>921.40002441406</ele>
        <time>2021-05-24T05:15:42.000Z</time>
      </trkpt>
      <trkpt lat="45.2173" lon="5.73539">
        <ele>921.40002441406</ele>
        <time>2021-05-24T05:15:44.000Z</time>
      </trkpt>
      <trkpt lat="45.21728" lon="5.73537">
        <ele>921.40002441406</ele>
        <time>2021-05-24T05:15:45.000Z</time>
      </trkpt>
      <trkpt lat="45.21721" lon="5.73536">
        <ele>920.79998779297</ele>
        <time>2021-05-24T05:15:48.000Z</time>
      </trkpt>
      <trkpt lat="45.21716" lon="5.73536">
        <ele>920.20001220703</ele>
        <time>2021-05-24T05:15:50.000Z</time>
      </trkpt>
      <trkpt lat="45.2171" lon="5.73534">
        <ele>919</ele>
        <time>2021-05-24T05:15:53.000Z</time>
      </trkpt>
      <trkpt lat="45.21709" lon="5.73534">
        <ele>918.79998779297</ele>
        <time>2021-05-24T05:15:54.000Z</time>
      </trkpt>
      <trkpt lat="45.21707" lon="5.73535">
        <ele>918.40002441406</ele>
        <time>2021-05-24T05:15:55.000Z</time>
      </trkpt>
      <trkpt lat="45.21703" lon="5.73536">
        <ele>917.40002441406</ele>
        <time>2021-05-24T05:15:57.000Z</time>
      </trkpt>
      <trkpt lat="45.217" lon="5.73536">
        <ele>916.40002441406</ele>
        <time>2021-05-24T05:15:59.000Z</time>
      </trkpt>
      <trkpt lat="45.21697" lon="5.73536">
        <ele>916.20001220703</ele>
        <time>2021-05-24T05:16:00.000Z</time>
      </trkpt>
      <trkpt lat="45.2169" lon="5.73535">
        <ele>915</ele>
        <time>2021-05-24T05:16:04.000Z</time>
      </trkpt>
      <trkpt lat="45.21686" lon="5.73534">
        <ele>914.20001220703</ele>
        <time>2021-05-24T05:16:07.000Z</time>
      </trkpt>
      <trkpt lat="45.21684" lon="5.73535">
        <ele>913.79998779297</ele>
        <time>2021-05-24T05:16:08.000Z</time>
      </trkpt>
      <trkpt lat="45.21682" lon="5.73535">
        <ele>913.40002441406</ele>
        <time>2021-05-24T05:16:09.000Z</time>
      </trkpt>
      <trkpt lat="45.21677" lon="5.73537">
        <ele>912.59997558594</ele>
        <time>2021-05-24T05:16:12.000Z</time>
      </trkpt>
      <trkpt lat="45.21673" lon="5.73537">
        <ele>911.40002441406</ele>
        <time>2021-05-24T05:16:16.000Z</time>
      </trkpt>
      <trkpt lat="45.21672" lon="5.73537">
        <ele>911</ele>
        <time>2021-05-24T05:16:17.000Z</time>
      </trkpt>
      <trkpt lat="45.21672" lon="5.73538">
        <ele>910.79998779297</ele>
        <time>2021-05-24T05:16:18.000Z</time>
      </trkpt>
      <trkpt lat="45.21673" lon="5.73539">
        <ele>910.20001220703</ele>
        <time>2021-05-24T05:16:19.000Z</time>
      </trkpt>
      <trkpt lat="45.21674" lon="5.7354">
        <ele>909.59997558594</ele>
        <time>2021-05-24T05:16:20.000Z</time>
      </trkpt>
      <trkpt lat="45.21675" lon="5.73541">
        <ele>909</ele>
        <time>2021-05-24T05:16:21.000Z</time>
      </trkpt>
      <trkpt lat="45.21677" lon="5.73543">
        <ele>908.20001220703</ele>
        <time>2021-05-24T05:16:23.000Z</time>
      </trkpt>
      <trkpt lat="45.21678" lon="5.73544">
        <ele>907.59997558594</ele>
        <time>2021-05-24T05:16:24.000Z</time>
      </trkpt>
      <trkpt lat="45.21683" lon="5.73546">
        <ele>906.40002441406</ele>
        <time>2021-05-24T05:16:28.000Z</time>
      </trkpt>
      <trkpt lat="45.21688" lon="5.73547">
        <ele>905.20001220703</ele>
        <time>2021-05-24T05:16:31.000Z</time>
      </trkpt>
      <trkpt lat="45.21689" lon="5.73547">
        <ele>904.59997558594</ele>
        <time>2021-05-24T05:16:32.000Z</time>
      </trkpt>
      <trkpt lat="45.2169" lon="5.73547">
        <ele>904.20001220703</ele>
        <time>2021-05-24T05:16:33.000Z</time>
      </trkpt>
      <trkpt lat="45.21692" lon="5.73547">
        <ele>904</ele>
        <time>2021-05-24T05:16:34.000Z</time>
      </trkpt>
      <trkpt lat="45.21696" lon="5.73549">
        <ele>902.79998779297</ele>
        <time>2021-05-24T05:16:37.000Z</time>
      </trkpt>
      <trkpt lat="45.21698" lon="5.73553">
        <ele>902</ele>
        <time>2021-05-24T05:16:39.000Z</time>
      </trkpt>
      <trkpt lat="45.21698" lon="5.73554">
        <ele>901.59997558594</ele>
        <time>2021-05-24T05:16:40.000Z</time>
      </trkpt>
      <trkpt lat="45.21699" lon="5.73555">
        <ele>901.20001220703</ele>
        <time>2021-05-24T05:16:41.000Z</time>
      </trkpt>
      <trkpt lat="45.217" lon="5.73556">
        <ele>900.79998779297</ele>
        <time>2021-05-24T05:16:42.000Z</time>
      </trkpt>
      <trkpt lat="45.21701" lon="5.73556">
        <ele>900.59997558594</ele>
        <time>2021-05-24T05:16:43.000Z</time>
      </trkpt>
      <trkpt lat="45.21701" lon="5.73557">
        <ele>900.40002441406</ele>
        <time>2021-05-24T05:16:44.000Z</time>
      </trkpt>
      <trkpt lat="45.21699" lon="5.73558">
        <ele>899.79998779297</ele>
        <time>2021-05-24T05:16:46.000Z</time>
      </trkpt>
      <trkpt lat="45.21697" lon="5.73559">
        <ele>899.40002441406</ele>
        <time>2021-05-24T05:16:47.000Z</time>
      </trkpt>
      <trkpt lat="45.21696" lon="5.73559">
        <ele>899</ele>
        <time>2021-05-24T05:16:48.000Z</time>
      </trkpt>
      <trkpt lat="45.21694" lon="5.7356">
        <ele>898.59997558594</ele>
        <time>2021-05-24T05:16:49.000Z</time>
      </trkpt>
      <trkpt lat="45.21693" lon="5.73561">
        <ele>898</ele>
        <time>2021-05-24T05:16:50.000Z</time>
      </trkpt>
      <trkpt lat="45.21687" lon="5.7356">
        <ele>896.59997558594</ele>
        <time>2021-05-24T05:16:53.000Z</time>
      </trkpt>
      <trkpt lat="45.21679" lon="5.73558">
        <ele>895.40002441406</ele>
        <time>2021-05-24T05:16:57.000Z</time>
      </trkpt>
      <trkpt lat="45.21677" lon="5.73558">
        <ele>895.40002441406</ele>
        <time>2021-05-24T05:16:58.000Z</time>
      </trkpt>
      <trkpt lat="45.21676" lon="5.73559">
        <ele>895.20001220703</ele>
        <time>2021-05-24T05:16:59.000Z</time>
      </trkpt>
      <trkpt lat="45.2167" lon="5.73561">
        <ele>894.40002441406</ele>
        <time>2021-05-24T05:17:02.000Z</time>
      </trkpt>
      <trkpt lat="45.21669" lon="5.73561">
        <ele>893.59997558594</ele>
        <time>2021-05-24T05:17:03.000Z</time>
      </trkpt>
      <trkpt lat="45.21665" lon="5.73563">
        <ele>892.40002441406</ele>
        <time>2021-05-24T05:17:06.000Z</time>
      </trkpt>
      <trkpt lat="45.21662" lon="5.73563">
        <ele>891.79998779297</ele>
        <time>2021-05-24T05:17:08.000Z</time>
      </trkpt>
      <trkpt lat="45.21661" lon="5.73564">
        <ele>891.40002441406</ele>
        <time>2021-05-24T05:17:09.000Z</time>
      </trkpt>
      <trkpt lat="45.21655" lon="5.73565">
        <ele>889.79998779297</ele>
        <time>2021-05-24T05:17:13.000Z</time>
      </trkpt>
      <trkpt lat="45.21653" lon="5.73566">
        <ele>889.40002441406</ele>
        <time>2021-05-24T05:17:14.000Z</time>
      </trkpt>
      <trkpt lat="45.21651" lon="5.73566">
        <ele>889.20001220703</ele>
        <time>2021-05-24T05:17:15.000Z</time>
      </trkpt>
      <trkpt lat="45.21648" lon="5.73566">
        <ele>888.59997558594</ele>
        <time>2021-05-24T05:17:17.000Z</time>
      </trkpt>
      <trkpt lat="45.21646" lon="5.73565">
        <ele>887.79998779297</ele>
        <time>2021-05-24T05:17:19.000Z</time>
      </trkpt>
      <trkpt lat="45.21644" lon="5.73564">
        <ele>887.40002441406</ele>
        <time>2021-05-24T05:17:20.000Z</time>
      </trkpt>
      <trkpt lat="45.21642" lon="5.73561">
        <ele>886.79998779297</ele>
        <time>2021-05-24T05:17:22.000Z</time>
      </trkpt>
      <trkpt lat="45.21638" lon="5.73556">
        <ele>886.20001220703</ele>
        <time>2021-05-24T05:17:25.000Z</time>
      </trkpt>
      <trkpt lat="45.21637" lon="5.73554">
        <ele>886</ele>
        <time>2021-05-24T05:17:26.000Z</time>
      </trkpt>
      <trkpt lat="45.21634" lon="5.7355">
        <ele>885</ele>
        <time>2021-05-24T05:17:28.000Z</time>
      </trkpt>
      <trkpt lat="45.21628" lon="5.73543">
        <ele>883.79998779297</ele>
        <time>2021-05-24T05:17:31.000Z</time>
      </trkpt>
      <trkpt lat="45.21625" lon="5.73538">
        <ele>883.20001220703</ele>
        <time>2021-05-24T05:17:33.000Z</time>
      </trkpt>
      <trkpt lat="45.21624" lon="5.73535">
        <ele>882.79998779297</ele>
        <time>2021-05-24T05:17:34.000Z</time>
      </trkpt>
      <trkpt lat="45.21622" lon="5.73533">
        <ele>882.59997558594</ele>
        <time>2021-05-24T05:17:35.000Z</time>
      </trkpt>
      <trkpt lat="45.21621" lon="5.73532">
        <ele>881.20001220703</ele>
        <time>2021-05-24T05:17:37.000Z</time>
      </trkpt>
      <trkpt lat="45.21621" lon="5.73532">
        <ele>880.79998779297</ele>
        <time>2021-05-24T05:17:38.000Z</time>
      </trkpt>
      <trkpt lat="45.21622" lon="5.73533">
        <ele>880.20001220703</ele>
        <time>2021-05-24T05:17:39.000Z</time>
      </trkpt>
      <trkpt lat="45.21622" lon="5.73536">
        <ele>879.79998779297</ele>
        <time>2021-05-24T05:17:40.000Z</time>
      </trkpt>
      <trkpt lat="45.21623" lon="5.73542">
        <ele>878.59997558594</ele>
        <time>2021-05-24T05:17:43.000Z</time>
      </trkpt>
      <trkpt lat="45.21623" lon="5.73552">
        <ele>877.40002441406</ele>
        <time>2021-05-24T05:17:47.000Z</time>
      </trkpt>
      <trkpt lat="45.21625" lon="5.73561">
        <ele>876</ele>
        <time>2021-05-24T05:17:50.000Z</time>
      </trkpt>
      <trkpt lat="45.21627" lon="5.73569">
        <ele>874.79998779297</ele>
        <time>2021-05-24T05:17:53.000Z</time>
      </trkpt>
      <trkpt lat="45.21629" lon="5.73571">
        <ele>873.79998779297</ele>
        <time>2021-05-24T05:17:55.000Z</time>
      </trkpt>
      <trkpt lat="45.21629" lon="5.73572">
        <ele>873.40002441406</ele>
        <time>2021-05-24T05:17:56.000Z</time>
      </trkpt>
      <trkpt lat="45.21629" lon="5.73574">
        <ele>872.79998779297</ele>
        <time>2021-05-24T05:17:58.000Z</time>
      </trkpt>
      <trkpt lat="45.21627" lon="5.73572">
        <ele>872.20001220703</ele>
        <time>2021-05-24T05:18:00.000Z</time>
      </trkpt>
      <trkpt lat="45.21623" lon="5.7357">
        <ele>871.20001220703</ele>
        <time>2021-05-24T05:18:02.000Z</time>
      </trkpt>
      <trkpt lat="45.21615" lon="5.73566">
        <ele>869.79998779297</ele>
        <time>2021-05-24T05:18:05.000Z</time>
      </trkpt>
      <trkpt lat="45.21611" lon="5.73564">
        <ele>868.40002441406</ele>
        <time>2021-05-24T05:18:07.000Z</time>
      </trkpt>
      <trkpt lat="45.21606" lon="5.73558">
        <ele>867.40002441406</ele>
        <time>2021-05-24T05:18:10.000Z</time>
      </trkpt>
      <trkpt lat="45.21605" lon="5.73556">
        <ele>866.79998779297</ele>
        <time>2021-05-24T05:18:11.000Z</time>
      </trkpt>
      <trkpt lat="45.21601" lon="5.73549">
        <ele>865.59997558594</ele>
        <time>2021-05-24T05:18:14.000Z</time>
      </trkpt>
      <trkpt lat="45.21599" lon="5.73548">
        <ele>865.40002441406</ele>
        <time>2021-05-24T05:18:15.000Z</time>
      </trkpt>
      <trkpt lat="45.21597" lon="5.73544">
        <ele>864.20001220703</ele>
        <time>2021-05-24T05:18:17.000Z</time>
      </trkpt>
      <trkpt lat="45.21593" lon="5.73538">
        <ele>863</ele>
        <time>2021-05-24T05:18:20.000Z</time>
      </trkpt>
      <trkpt lat="45.21592" lon="5.73536">
        <ele>862.59997558594</ele>
        <time>2021-05-24T05:18:21.000Z</time>
      </trkpt>
      <trkpt lat="45.21589" lon="5.73533">
        <ele>861.79998779297</ele>
        <time>2021-05-24T05:18:23.000Z</time>
      </trkpt>
      <trkpt lat="45.21586" lon="5.73531">
        <ele>861</ele>
        <time>2021-05-24T05:18:25.000Z</time>
      </trkpt>
      <trkpt lat="45.21584" lon="5.73529">
        <ele>860.59997558594</ele>
        <time>2021-05-24T05:18:26.000Z</time>
      </trkpt>
      <trkpt lat="45.21582" lon="5.73527">
        <ele>860.40002441406</ele>
        <time>2021-05-24T05:18:27.000Z</time>
      </trkpt>
      <trkpt lat="45.2158" lon="5.73522">
        <ele>859.40002441406</ele>
        <time>2021-05-24T05:18:29.000Z</time>
      </trkpt>
      <trkpt lat="45.21577" lon="5.73514">
        <ele>858.40002441406</ele>
        <time>2021-05-24T05:18:32.000Z</time>
      </trkpt>
      <trkpt lat="45.21575" lon="5.73509">
        <ele>858</ele>
        <time>2021-05-24T05:18:34.000Z</time>
      </trkpt>
      <trkpt lat="45.21573" lon="5.73502">
        <ele>857</ele>
        <time>2021-05-24T05:18:36.000Z</time>
      </trkpt>
      <trkpt lat="45.2157" lon="5.73495">
        <ele>855.79998779297</ele>
        <time>2021-05-24T05:18:39.000Z</time>
      </trkpt>
      <trkpt lat="45.21569" lon="5.73494">
        <ele>855.40002441406</ele>
        <time>2021-05-24T05:18:40.000Z</time>
      </trkpt>
      <trkpt lat="45.21565" lon="5.7349">
        <ele>854.40002441406</ele>
        <time>2021-05-24T05:18:42.000Z</time>
      </trkpt>
      <trkpt lat="45.2156" lon="5.73485">
        <ele>853.40002441406</ele>
        <time>2021-05-24T05:18:45.000Z</time>
      </trkpt>
      <trkpt lat="45.21555" lon="5.73484">
        <ele>852.40002441406</ele>
        <time>2021-05-24T05:18:48.000Z</time>
      </trkpt>
      <trkpt lat="45.21549" lon="5.73482">
        <ele>850.79998779297</ele>
        <time>2021-05-24T05:18:52.000Z</time>
      </trkpt>
      <trkpt lat="45.21548" lon="5.73482">
        <ele>850.59997558594</ele>
        <time>2021-05-24T05:18:53.000Z</time>
      </trkpt>
      <trkpt lat="45.21547" lon="5.73482">
        <ele>850.20001220703</ele>
        <time>2021-05-24T05:18:54.000Z</time>
      </trkpt>
      <trkpt lat="45.21544" lon="5.7348">
        <ele>849.79998779297</ele>
        <time>2021-05-24T05:18:56.000Z</time>
      </trkpt>
      <trkpt lat="45.21543" lon="5.73478">
        <ele>849.59997558594</ele>
        <time>2021-05-24T05:18:57.000Z</time>
      </trkpt>
      <trkpt lat="45.21541" lon="5.73477">
        <ele>848.40002441406</ele>
        <time>2021-05-24T05:18:59.000Z</time>
      </trkpt>
      <trkpt lat="45.2154" lon="5.73476">
        <ele>848.20001220703</ele>
        <time>2021-05-24T05:19:00.000Z</time>
      </trkpt>
      <trkpt lat="45.2154" lon="5.73476">
        <ele>848.20001220703</ele>
        <time>2021-05-24T05:19:01.000Z</time>
      </trkpt>
      <trkpt lat="45.2154" lon="5.73478">
        <ele>847.20001220703</ele>
        <time>2021-05-24T05:19:03.000Z</time>
      </trkpt>
      <trkpt lat="45.21541" lon="5.73478">
        <ele>846.79998779297</ele>
        <time>2021-05-24T05:19:04.000Z</time>
      </trkpt>
      <trkpt lat="45.21544" lon="5.73479">
        <ele>846</ele>
        <time>2021-05-24T05:19:06.000Z</time>
      </trkpt>
      <trkpt lat="45.21548" lon="5.73482">
        <ele>845.20001220703</ele>
        <time>2021-05-24T05:19:09.000Z</time>
      </trkpt>
      <trkpt lat="45.21549" lon="5.73483">
        <ele>845</ele>
        <time>2021-05-24T05:19:10.000Z</time>
      </trkpt>
      <trkpt lat="45.21554" lon="5.73489">
        <ele>843.59997558594</ele>
        <time>2021-05-24T05:19:14.000Z</time>
      </trkpt>
      <trkpt lat="45.21555" lon="5.73491">
        <ele>842.79998779297</ele>
        <time>2021-05-24T05:19:16.000Z</time>
      </trkpt>
      <trkpt lat="45.21555" lon="5.73492">
        <ele>842.40002441406</ele>
        <time>2021-05-24T05:19:17.000Z</time>
      </trkpt>
      <trkpt lat="45.21555" lon="5.73496">
        <ele>841.79998779297</ele>
        <time>2021-05-24T05:19:20.000Z</time>
      </trkpt>
      <trkpt lat="45.21555" lon="5.73497">
        <ele>841.59997558594</ele>
        <time>2021-05-24T05:19:21.000Z</time>
      </trkpt>
      <trkpt lat="45.21556" lon="5.735">
        <ele>841.40002441406</ele>
        <time>2021-05-24T05:19:23.000Z</time>
      </trkpt>
      <trkpt lat="45.21555" lon="5.73505">
        <ele>840.79998779297</ele>
        <time>2021-05-24T05:19:25.000Z</time>
      </trkpt>
      <trkpt lat="45.21554" lon="5.73508">
        <ele>840.20001220703</ele>
        <time>2021-05-24T05:19:26.000Z</time>
      </trkpt>
      <trkpt lat="45.21554" lon="5.7352">
        <ele>839</ele>
        <time>2021-05-24T05:19:30.000Z</time>
      </trkpt>
      <trkpt lat="45.21557" lon="5.73526">
        <ele>838</ele>
        <time>2021-05-24T05:19:33.000Z</time>
      </trkpt>
      <trkpt lat="45.21558" lon="5.73529">
        <ele>837</ele>
        <time>2021-05-24T05:19:35.000Z</time>
      </trkpt>
      <trkpt lat="45.21559" lon="5.73532">
        <ele>836.40002441406</ele>
        <time>2021-05-24T05:19:36.000Z</time>
      </trkpt>
      <trkpt lat="45.21561" lon="5.73537">
        <ele>835.40002441406</ele>
        <time>2021-05-24T05:19:38.000Z</time>
      </trkpt>
      <trkpt lat="45.21564" lon="5.73548">
        <ele>834.20001220703</ele>
        <time>2021-05-24T05:19:41.000Z</time>
      </trkpt>
      <trkpt lat="45.21564" lon="5.7355">
        <ele>833.79998779297</ele>
        <time>2021-05-24T05:19:42.000Z</time>
      </trkpt>
      <trkpt lat="45.21565" lon="5.73551">
        <ele>833.40002441406</ele>
        <time>2021-05-24T05:19:43.000Z</time>
      </trkpt>
      <trkpt lat="45.21567" lon="5.73554">
        <ele>833</ele>
        <time>2021-05-24T05:19:44.000Z</time>
      </trkpt>
      <trkpt lat="45.21567" lon="5.73557">
        <ele>832.40002441406</ele>
        <time>2021-05-24T05:19:45.000Z</time>
      </trkpt>
      <trkpt lat="45.21567" lon="5.7356">
        <ele>831.79998779297</ele>
        <time>2021-05-24T05:19:46.000Z</time>
      </trkpt>
      <trkpt lat="45.21567" lon="5.73562">
        <ele>831.40002441406</ele>
        <time>2021-05-24T05:19:47.000Z</time>
      </trkpt>
      <trkpt lat="45.21569" lon="5.73567">
        <ele>830.79998779297</ele>
        <time>2021-05-24T05:19:49.000Z</time>
      </trkpt>
      <trkpt lat="45.21567" lon="5.73569">
        <ele>830</ele>
        <time>2021-05-24T05:19:51.000Z</time>
      </trkpt>
      <trkpt lat="45.21566" lon="5.73569">
        <ele>829.59997558594</ele>
        <time>2021-05-24T05:19:52.000Z</time>
      </trkpt>
      <trkpt lat="45.21562" lon="5.73567">
        <ele>828.59997558594</ele>
        <time>2021-05-24T05:19:55.000Z</time>
      </trkpt>
      <trkpt lat="45.2156" lon="5.73565">
        <ele>828.40002441406</ele>
        <time>2021-05-24T05:19:56.000Z</time>
      </trkpt>
      <trkpt lat="45.21559" lon="5.73564">
        <ele>828</ele>
        <time>2021-05-24T05:19:57.000Z</time>
      </trkpt>
      <trkpt lat="45.21558" lon="5.73563">
        <ele>827.59997558594</ele>
        <time>2021-05-24T05:19:58.000Z</time>
      </trkpt>
      <trkpt lat="45.21556" lon="5.73563">
        <ele>826.79998779297</ele>
        <time>2021-05-24T05:19:59.000Z</time>
      </trkpt>
      <trkpt lat="45.21554" lon="5.73561">
        <ele>826.20001220703</ele>
        <time>2021-05-24T05:20:01.000Z</time>
      </trkpt>
      <trkpt lat="45.21553" lon="5.7356">
        <ele>825.59997558594</ele>
        <time>2021-05-24T05:20:02.000Z</time>
      </trkpt>
      <trkpt lat="45.21547" lon="5.73558">
        <ele>824.59997558594</ele>
        <time>2021-05-24T05:20:06.000Z</time>
      </trkpt>
      <trkpt lat="45.21546" lon="5.73556">
        <ele>824</ele>
        <time>2021-05-24T05:20:07.000Z</time>
      </trkpt>
      <trkpt lat="45.21544" lon="5.73552">
        <ele>823.20001220703</ele>
        <time>2021-05-24T05:20:09.000Z</time>
      </trkpt>
      <trkpt lat="45.21541" lon="5.73546">
        <ele>822.20001220703</ele>
        <time>2021-05-24T05:20:12.000Z</time>
      </trkpt>
      <trkpt lat="45.21541" lon="5.73544">
        <ele>821.79998779297</ele>
        <time>2021-05-24T05:20:13.000Z</time>
      </trkpt>
      <trkpt lat="45.21539" lon="5.73542">
        <ele>821</ele>
        <time>2021-05-24T05:20:15.000Z</time>
      </trkpt>
      <trkpt lat="45.21539" lon="5.73543">
        <ele>820.40002441406</ele>
        <time>2021-05-24T05:20:17.000Z</time>
      </trkpt>
      <trkpt lat="45.21539" lon="5.73548">
        <ele>819.79998779297</ele>
        <time>2021-05-24T05:20:20.000Z</time>
      </trkpt>
      <trkpt lat="45.21539" lon="5.73552">
        <ele>818.79998779297</ele>
        <time>2021-05-24T05:20:22.000Z</time>
      </trkpt>
      <trkpt lat="45.21539" lon="5.73553">
        <ele>818.40002441406</ele>
        <time>2021-05-24T05:20:23.000Z</time>
      </trkpt>
      <trkpt lat="45.2154" lon="5.73561">
        <ele>817</ele>
        <time>2021-05-24T05:20:27.000Z</time>
      </trkpt>
      <trkpt lat="45.2154" lon="5.73563">
        <ele>816.20001220703</ele>
        <time>2021-05-24T05:20:28.000Z</time>
      </trkpt>
      <trkpt lat="45.2154" lon="5.73565">
        <ele>815.59997558594</ele>
        <time>2021-05-24T05:20:29.000Z</time>
      </trkpt>
      <trkpt lat="45.21542" lon="5.73571">
        <ele>814.59997558594</ele>
        <time>2021-05-24T05:20:32.000Z</time>
      </trkpt>
      <trkpt lat="45.21543" lon="5.73575">
        <ele>814.20001220703</ele>
        <time>2021-05-24T05:20:34.000Z</time>
      </trkpt>
      <trkpt lat="45.21544" lon="5.73579">
        <ele>813.59997558594</ele>
        <time>2021-05-24T05:20:36.000Z</time>
      </trkpt>
      <trkpt lat="45.21546" lon="5.73582">
        <ele>813</ele>
        <time>2021-05-24T05:20:38.000Z</time>
      </trkpt>
      <trkpt lat="45.21546" lon="5.73587">
        <ele>812.20001220703</ele>
        <time>2021-05-24T05:20:40.000Z</time>
      </trkpt>
      <trkpt lat="45.21547" lon="5.73592">
        <ele>811.20001220703</ele>
        <time>2021-05-24T05:20:43.000Z</time>
      </trkpt>
      <trkpt lat="45.21547" lon="5.73594">
        <ele>810.79998779297</ele>
        <time>2021-05-24T05:20:44.000Z</time>
      </trkpt>
      <trkpt lat="45.21547" lon="5.73594">
        <ele>810.59997558594</ele>
        <time>2021-05-24T05:20:45.000Z</time>
      </trkpt>
      <trkpt lat="45.21544" lon="5.73593">
        <ele>810</ele>
        <time>2021-05-24T05:20:47.000Z</time>
      </trkpt>
      <trkpt lat="45.21542" lon="5.73589">
        <ele>809.59997558594</ele>
        <time>2021-05-24T05:20:49.000Z</time>
      </trkpt>
      <trkpt lat="45.2154" lon="5.73587">
        <ele>809</ele>
        <time>2021-05-24T05:20:50.000Z</time>
      </trkpt>
      <trkpt lat="45.21539" lon="5.73586">
        <ele>808.59997558594</ele>
        <time>2021-05-24T05:20:51.000Z</time>
      </trkpt>
      <trkpt lat="45.21538" lon="5.73585">
        <ele>808</ele>
        <time>2021-05-24T05:20:53.000Z</time>
      </trkpt>
      <trkpt lat="45.21538" lon="5.73585">
        <ele>807.40002441406</ele>
        <time>2021-05-24T05:20:55.000Z</time>
      </trkpt>
      <trkpt lat="45.21538" lon="5.73594">
        <ele>806.20001220703</ele>
        <time>2021-05-24T05:20:59.000Z</time>
      </trkpt>
      <trkpt lat="45.21538" lon="5.73596">
        <ele>805.79998779297</ele>
        <time>2021-05-24T05:21:00.000Z</time>
      </trkpt>
      <trkpt lat="45.2154" lon="5.73601">
        <ele>805.20001220703</ele>
        <time>2021-05-24T05:21:03.000Z</time>
      </trkpt>
      <trkpt lat="45.2154" lon="5.73605">
        <ele>804.20001220703</ele>
        <time>2021-05-24T05:21:06.000Z</time>
      </trkpt>
      <trkpt lat="45.21541" lon="5.73606">
        <ele>803.59997558594</ele>
        <time>2021-05-24T05:21:07.000Z</time>
      </trkpt>
      <trkpt lat="45.21539" lon="5.73606">
        <ele>803.20001220703</ele>
        <time>2021-05-24T05:21:10.000Z</time>
      </trkpt>
      <trkpt lat="45.21537" lon="5.73603">
        <ele>802.59997558594</ele>
        <time>2021-05-24T05:21:12.000Z</time>
      </trkpt>
      <trkpt lat="45.21536" lon="5.73601">
        <ele>802.20001220703</ele>
        <time>2021-05-24T05:21:13.000Z</time>
      </trkpt>
      <trkpt lat="45.21533" lon="5.73598">
        <ele>801.40002441406</ele>
        <time>2021-05-24T05:21:15.000Z</time>
      </trkpt>
      <trkpt lat="45.21531" lon="5.73597">
        <ele>801</ele>
        <time>2021-05-24T05:21:16.000Z</time>
      </trkpt>
      <trkpt lat="45.21526" lon="5.73594">
        <ele>800</ele>
        <time>2021-05-24T05:21:19.000Z</time>
      </trkpt>
      <trkpt lat="45.21522" lon="5.7359">
        <ele>798.79998779297</ele>
        <time>2021-05-24T05:21:22.000Z</time>
      </trkpt>
      <trkpt lat="45.2152" lon="5.73585">
        <ele>798</ele>
        <time>2021-05-24T05:21:25.000Z</time>
      </trkpt>
      <trkpt lat="45.21519" lon="5.73583">
        <ele>797.79998779297</ele>
        <time>2021-05-24T05:21:26.000Z</time>
      </trkpt>
      <trkpt lat="45.21518" lon="5.73581">
        <ele>797</ele>
        <time>2021-05-24T05:21:27.000Z</time>
      </trkpt>
      <trkpt lat="45.21518" lon="5.73579">
        <ele>796.59997558594</ele>
        <time>2021-05-24T05:21:28.000Z</time>
      </trkpt>
      <trkpt lat="45.21517" lon="5.73578">
        <ele>796.40002441406</ele>
        <time>2021-05-24T05:21:30.000Z</time>
      </trkpt>
      <trkpt lat="45.21516" lon="5.73577">
        <ele>795.79998779297</ele>
        <time>2021-05-24T05:21:32.000Z</time>
      </trkpt>
      <trkpt lat="45.21516" lon="5.73577">
        <ele>795.59997558594</ele>
        <time>2021-05-24T05:21:33.000Z</time>
      </trkpt>
      <trkpt lat="45.21516" lon="5.73578">
        <ele>795.20001220703</ele>
        <time>2021-05-24T05:21:34.000Z</time>
      </trkpt>
      <trkpt lat="45.21516" lon="5.73581">
        <ele>794.79998779297</ele>
        <time>2021-05-24T05:21:36.000Z</time>
      </trkpt>
      <trkpt lat="45.21515" lon="5.73584">
        <ele>794.59997558594</ele>
        <time>2021-05-24T05:21:37.000Z</time>
      </trkpt>
      <trkpt lat="45.21513" lon="5.73587">
        <ele>793.79998779297</ele>
        <time>2021-05-24T05:21:38.000Z</time>
      </trkpt>
      <trkpt lat="45.21513" lon="5.73588">
        <ele>793.40002441406</ele>
        <time>2021-05-24T05:21:39.000Z</time>
      </trkpt>
      <trkpt lat="45.21513" lon="5.73593">
        <ele>792.40002441406</ele>
        <time>2021-05-24T05:21:42.000Z</time>
      </trkpt>
      <trkpt lat="45.21514" lon="5.73595">
        <ele>792</ele>
        <time>2021-05-24T05:21:43.000Z</time>
      </trkpt>
      <trkpt lat="45.21512" lon="5.73598">
        <ele>791.20001220703</ele>
        <time>2021-05-24T05:21:45.000Z</time>
      </trkpt>
      <trkpt lat="45.2151" lon="5.73598">
        <ele>791</ele>
        <time>2021-05-24T05:21:46.000Z</time>
      </trkpt>
      <trkpt lat="45.21509" lon="5.73597">
        <ele>790.59997558594</ele>
        <time>2021-05-24T05:21:47.000Z</time>
      </trkpt>
      <trkpt lat="45.21508" lon="5.73596">
        <ele>790.20001220703</ele>
        <time>2021-05-24T05:21:48.000Z</time>
      </trkpt>
      <trkpt lat="45.21508" lon="5.7359">
        <ele>789.79998779297</ele>
        <time>2021-05-24T05:21:50.000Z</time>
      </trkpt>
      <trkpt lat="45.21508" lon="5.73588">
        <ele>789.40002441406</ele>
        <time>2021-05-24T05:21:51.000Z</time>
      </trkpt>
      <trkpt lat="45.21507" lon="5.73585">
        <ele>788.59997558594</ele>
        <time>2021-05-24T05:21:53.000Z</time>
      </trkpt>
      <trkpt lat="45.21505" lon="5.73574">
        <ele>787.79998779297</ele>
        <time>2021-05-24T05:21:58.000Z</time>
      </trkpt>
      <trkpt lat="45.21505" lon="5.73571">
        <ele>787.20001220703</ele>
        <time>2021-05-24T05:21:59.000Z</time>
      </trkpt>
      <trkpt lat="45.21502" lon="5.73563">
        <ele>785.79998779297</ele>
        <time>2021-05-24T05:22:03.000Z</time>
      </trkpt>
      <trkpt lat="45.215" lon="5.73562">
        <ele>785.20001220703</ele>
        <time>2021-05-24T05:22:04.000Z</time>
      </trkpt>
      <trkpt lat="45.21499" lon="5.73561">
        <ele>784.79998779297</ele>
        <time>2021-05-24T05:22:05.000Z</time>
      </trkpt>
      <trkpt lat="45.21496" lon="5.7356">
        <ele>784</ele>
        <time>2021-05-24T05:22:07.000Z</time>
      </trkpt>
      <trkpt lat="45.21494" lon="5.73559">
        <ele>783.79998779297</ele>
        <time>2021-05-24T05:22:08.000Z</time>
      </trkpt>
      <trkpt lat="45.2149" lon="5.73556">
        <ele>783.20001220703</ele>
        <time>2021-05-24T05:22:10.000Z</time>
      </trkpt>
      <trkpt lat="45.21489" lon="5.73555">
        <ele>782.59997558594</ele>
        <time>2021-05-24T05:22:11.000Z</time>
      </trkpt>
      <trkpt lat="45.21483" lon="5.73554">
        <ele>781.40002441406</ele>
        <time>2021-05-24T05:22:14.000Z</time>
      </trkpt>
      <trkpt lat="45.21481" lon="5.73552">
        <ele>780.79998779297</ele>
        <time>2021-05-24T05:22:16.000Z</time>
      </trkpt>
      <trkpt lat="45.21479" lon="5.73548">
        <ele>780.20001220703</ele>
        <time>2021-05-24T05:22:19.000Z</time>
      </trkpt>
      <trkpt lat="45.21477" lon="5.73543">
        <ele>779.40002441406</ele>
        <time>2021-05-24T05:22:22.000Z</time>
      </trkpt>
      <trkpt lat="45.21476" lon="5.73541">
        <ele>779.20001220703</ele>
        <time>2021-05-24T05:22:23.000Z</time>
      </trkpt>
      <trkpt lat="45.21475" lon="5.73538">
        <ele>778.59997558594</ele>
        <time>2021-05-24T05:22:25.000Z</time>
      </trkpt>
      <trkpt lat="45.21473" lon="5.73536">
        <ele>778</ele>
        <time>2021-05-24T05:22:27.000Z</time>
      </trkpt>
      <trkpt lat="45.21471" lon="5.73534">
        <ele>777.79998779297</ele>
        <time>2021-05-24T05:22:28.000Z</time>
      </trkpt>
      <trkpt lat="45.21471" lon="5.73532">
        <ele>777.40002441406</ele>
        <time>2021-05-24T05:22:29.000Z</time>
      </trkpt>
      <trkpt lat="45.21469" lon="5.73528">
        <ele>777</ele>
        <time>2021-05-24T05:22:31.000Z</time>
      </trkpt>
      <trkpt lat="45.21468" lon="5.73525">
        <ele>776.59997558594</ele>
        <time>2021-05-24T05:22:33.000Z</time>
      </trkpt>
      <trkpt lat="45.21467" lon="5.73523">
        <ele>776</ele>
        <time>2021-05-24T05:22:35.000Z</time>
      </trkpt>
      <trkpt lat="45.21467" lon="5.73521">
        <ele>775.59997558594</ele>
        <time>2021-05-24T05:22:36.000Z</time>
      </trkpt>
      <trkpt lat="45.21465" lon="5.73514">
        <ele>775</ele>
        <time>2021-05-24T05:22:39.000Z</time>
      </trkpt>
      <trkpt lat="45.21464" lon="5.73512">
        <ele>774.59997558594</ele>
        <time>2021-05-24T05:22:40.000Z</time>
      </trkpt>
      <trkpt lat="45.21463" lon="5.73507">
        <ele>773.59997558594</ele>
        <time>2021-05-24T05:22:42.000Z</time>
      </trkpt>
      <trkpt lat="45.21462" lon="5.73504">
        <ele>773.20001220703</ele>
        <time>2021-05-24T05:22:43.000Z</time>
      </trkpt>
      <trkpt lat="45.21459" lon="5.73497">
        <ele>772.40002441406</ele>
        <time>2021-05-24T05:22:46.000Z</time>
      </trkpt>
      <trkpt lat="45.21457" lon="5.73493">
        <ele>771.20001220703</ele>
        <time>2021-05-24T05:22:48.000Z</time>
      </trkpt>
      <trkpt lat="45.21456" lon="5.73492">
        <ele>770.79998779297</ele>
        <time>2021-05-24T05:22:49.000Z</time>
      </trkpt>
      <trkpt lat="45.21452" lon="5.73489">
        <ele>770.20001220703</ele>
        <time>2021-05-24T05:22:51.000Z</time>
      </trkpt>
      <trkpt lat="45.21448" lon="5.73486">
        <ele>769</ele>
        <time>2021-05-24T05:22:54.000Z</time>
      </trkpt>
      <trkpt lat="45.21447" lon="5.73484">
        <ele>768.79998779297</ele>
        <time>2021-05-24T05:22:55.000Z</time>
      </trkpt>
      <trkpt lat="45.21444" lon="5.73479">
        <ele>767.79998779297</ele>
        <time>2021-05-24T05:22:58.000Z</time>
      </trkpt>
      <trkpt lat="45.21442" lon="5.73475">
        <ele>767</ele>
        <time>2021-05-24T05:23:00.000Z</time>
      </trkpt>
      <trkpt lat="45.21441" lon="5.73472">
        <ele>766.40002441406</ele>
        <time>2021-05-24T05:23:01.000Z</time>
      </trkpt>
      <trkpt lat="45.21439" lon="5.73468">
        <ele>765.59997558594</ele>
        <time>2021-05-24T05:23:03.000Z</time>
      </trkpt>
      <trkpt lat="45.21439" lon="5.73466">
        <ele>765.40002441406</ele>
        <time>2021-05-24T05:23:04.000Z</time>
      </trkpt>
      <trkpt lat="45.21436" lon="5.73462">
        <ele>764.59997558594</ele>
        <time>2021-05-24T05:23:06.000Z</time>
      </trkpt>
      <trkpt lat="45.21436" lon="5.7346">
        <ele>764.40002441406</ele>
        <time>2021-05-24T05:23:07.000Z</time>
      </trkpt>
      <trkpt lat="45.21433" lon="5.73455">
        <ele>763.40002441406</ele>
        <time>2021-05-24T05:23:10.000Z</time>
      </trkpt>
      <trkpt lat="45.21433" lon="5.73453">
        <ele>763.20001220703</ele>
        <time>2021-05-24T05:23:11.000Z</time>
      </trkpt>
      <trkpt lat="45.21432" lon="5.73451">
        <ele>762.20001220703</ele>
        <time>2021-05-24T05:23:13.000Z</time>
      </trkpt>
      <trkpt lat="45.2143" lon="5.73449">
        <ele>761.59997558594</ele>
        <time>2021-05-24T05:23:15.000Z</time>
      </trkpt>
      <trkpt lat="45.21427" lon="5.73446">
        <ele>760.79998779297</ele>
        <time>2021-05-24T05:23:17.000Z</time>
      </trkpt>
      <trkpt lat="45.21425" lon="5.73443">
        <ele>759.79998779297</ele>
        <time>2021-05-24T05:23:19.000Z</time>
      </trkpt>
      <trkpt lat="45.21421" lon="5.73438">
        <ele>758.79998779297</ele>
        <time>2021-05-24T05:23:22.000Z</time>
      </trkpt>
      <trkpt lat="45.21421" lon="5.73437">
        <ele>758.79998779297</ele>
        <time>2021-05-24T05:23:23.000Z</time>
      </trkpt>
      <trkpt lat="45.2142" lon="5.73436">
        <ele>758.40002441406</ele>
        <time>2021-05-24T05:23:24.000Z</time>
      </trkpt>
      <trkpt lat="45.21418" lon="5.73431">
        <ele>758</ele>
        <time>2021-05-24T05:23:26.000Z</time>
      </trkpt>
      <trkpt lat="45.21417" lon="5.73429">
        <ele>757.59997558594</ele>
        <time>2021-05-24T05:23:27.000Z</time>
      </trkpt>
      <trkpt lat="45.21413" lon="5.73422">
        <ele>756.40002441406</ele>
        <time>2021-05-24T05:23:30.000Z</time>
      </trkpt>
      <trkpt lat="45.21408" lon="5.73417">
        <ele>755.20001220703</ele>
        <time>2021-05-24T05:23:33.000Z</time>
      </trkpt>
      <trkpt lat="45.21405" lon="5.73407">
        <ele>753.79998779297</ele>
        <time>2021-05-24T05:23:36.000Z</time>
      </trkpt>
      <trkpt lat="45.21403" lon="5.73397">
        <ele>752.79998779297</ele>
        <time>2021-05-24T05:23:39.000Z</time>
      </trkpt>
      <trkpt lat="45.21402" lon="5.73395">
        <ele>752.59997558594</ele>
        <time>2021-05-24T05:23:40.000Z</time>
      </trkpt>
      <trkpt lat="45.21399" lon="5.73394">
        <ele>751.59997558594</ele>
        <time>2021-05-24T05:23:42.000Z</time>
      </trkpt>
      <trkpt lat="45.21395" lon="5.73391">
        <ele>750.40002441406</ele>
        <time>2021-05-24T05:23:44.000Z</time>
      </trkpt>
      <trkpt lat="45.21393" lon="5.73389">
        <ele>750.20001220703</ele>
        <time>2021-05-24T05:23:45.000Z</time>
      </trkpt>
      <trkpt lat="45.2139" lon="5.73387">
        <ele>749.40002441406</ele>
        <time>2021-05-24T05:23:47.000Z</time>
      </trkpt>
      <trkpt lat="45.21389" lon="5.73384">
        <ele>749.20001220703</ele>
        <time>2021-05-24T05:23:48.000Z</time>
      </trkpt>
      <trkpt lat="45.21384" lon="5.73375">
        <ele>748</ele>
        <time>2021-05-24T05:23:52.000Z</time>
      </trkpt>
      <trkpt lat="45.21383" lon="5.73374">
        <ele>747.59997558594</ele>
        <time>2021-05-24T05:23:53.000Z</time>
      </trkpt>
      <trkpt lat="45.21381" lon="5.73373">
        <ele>747</ele>
        <time>2021-05-24T05:23:54.000Z</time>
      </trkpt>
      <trkpt lat="45.21375" lon="5.73368">
        <ele>746</ele>
        <time>2021-05-24T05:23:57.000Z</time>
      </trkpt>
      <trkpt lat="45.21371" lon="5.73362">
        <ele>744.79998779297</ele>
        <time>2021-05-24T05:24:00.000Z</time>
      </trkpt>
      <trkpt lat="45.21371" lon="5.7336">
        <ele>744.59997558594</ele>
        <time>2021-05-24T05:24:01.000Z</time>
      </trkpt>
      <trkpt lat="45.21368" lon="5.73354">
        <ele>744</ele>
        <time>2021-05-24T05:24:04.000Z</time>
      </trkpt>
      <trkpt lat="45.21367" lon="5.73353">
        <ele>743.79998779297</ele>
        <time>2021-05-24T05:24:05.000Z</time>
      </trkpt>
      <trkpt lat="45.21367" lon="5.73352">
        <ele>743.59997558594</ele>
        <time>2021-05-24T05:24:06.000Z</time>
      </trkpt>
      <trkpt lat="45.21364" lon="5.7335">
        <ele>742.59997558594</ele>
        <time>2021-05-24T05:24:08.000Z</time>
      </trkpt>
      <trkpt lat="45.21359" lon="5.73345">
        <ele>741.59997558594</ele>
        <time>2021-05-24T05:24:11.000Z</time>
      </trkpt>
      <trkpt lat="45.21357" lon="5.73343">
        <ele>741.20001220703</ele>
        <time>2021-05-24T05:24:12.000Z</time>
      </trkpt>
      <trkpt lat="45.21355" lon="5.73342">
        <ele>740.59997558594</ele>
        <time>2021-05-24T05:24:13.000Z</time>
      </trkpt>
      <trkpt lat="45.21354" lon="5.73339">
        <ele>740.20001220703</ele>
        <time>2021-05-24T05:24:14.000Z</time>
      </trkpt>
      <trkpt lat="45.21351" lon="5.73333">
        <ele>739.40002441406</ele>
        <time>2021-05-24T05:24:16.000Z</time>
      </trkpt>
      <trkpt lat="45.2135" lon="5.73332">
        <ele>739</ele>
        <time>2021-05-24T05:24:17.000Z</time>
      </trkpt>
      <trkpt lat="45.21345" lon="5.73329">
        <ele>737.79998779297</ele>
        <time>2021-05-24T05:24:20.000Z</time>
      </trkpt>
      <trkpt lat="45.21344" lon="5.73329">
        <ele>737.59997558594</ele>
        <time>2021-05-24T05:24:21.000Z</time>
      </trkpt>
      <trkpt lat="45.21342" lon="5.73327">
        <ele>736.79998779297</ele>
        <time>2021-05-24T05:24:23.000Z</time>
      </trkpt>
      <trkpt lat="45.21338" lon="5.73323">
        <ele>735.40002441406</ele>
        <time>2021-05-24T05:24:26.000Z</time>
      </trkpt>
      <trkpt lat="45.21336" lon="5.73317">
        <ele>734.79998779297</ele>
        <time>2021-05-24T05:24:28.000Z</time>
      </trkpt>
      <trkpt lat="45.21335" lon="5.73304">
        <ele>734.40002441406</ele>
        <time>2021-05-24T05:24:31.000Z</time>
      </trkpt>
      <trkpt lat="45.21334" lon="5.73299">
        <ele>734</ele>
        <time>2021-05-24T05:24:34.000Z</time>
      </trkpt>
      <trkpt lat="45.21332" lon="5.733">
        <ele>733.59997558594</ele>
        <time>2021-05-24T05:24:36.000Z</time>
      </trkpt>
      <trkpt lat="45.21331" lon="5.73301">
        <ele>733.20001220703</ele>
        <time>2021-05-24T05:24:37.000Z</time>
      </trkpt>
      <trkpt lat="45.21329" lon="5.73301">
        <ele>733</ele>
        <time>2021-05-24T05:24:38.000Z</time>
      </trkpt>
      <trkpt lat="45.21329" lon="5.73301">
        <ele>732.40002441406</ele>
        <time>2021-05-24T05:24:39.000Z</time>
      </trkpt>
      <trkpt lat="45.21327" lon="5.733">
        <ele>732.20001220703</ele>
        <time>2021-05-24T05:24:40.000Z</time>
      </trkpt>
      <trkpt lat="45.21325" lon="5.73299">
        <ele>731.79998779297</ele>
        <time>2021-05-24T05:24:41.000Z</time>
      </trkpt>
      <trkpt lat="45.21323" lon="5.73299">
        <ele>731</ele>
        <time>2021-05-24T05:24:43.000Z</time>
      </trkpt>
      <trkpt lat="45.21319" lon="5.733">
        <ele>730</ele>
        <time>2021-05-24T05:24:46.000Z</time>
      </trkpt>
      <trkpt lat="45.21315" lon="5.73303">
        <ele>729</ele>
        <time>2021-05-24T05:24:49.000Z</time>
      </trkpt>
      <trkpt lat="45.21313" lon="5.73303">
        <ele>728.40002441406</ele>
        <time>2021-05-24T05:24:50.000Z</time>
      </trkpt>
      <trkpt lat="45.21311" lon="5.73303">
        <ele>728</ele>
        <time>2021-05-24T05:24:51.000Z</time>
      </trkpt>
      <trkpt lat="45.21309" lon="5.73301">
        <ele>727.59997558594</ele>
        <time>2021-05-24T05:24:52.000Z</time>
      </trkpt>
      <trkpt lat="45.21305" lon="5.73296">
        <ele>726.79998779297</ele>
        <time>2021-05-24T05:24:54.000Z</time>
      </trkpt>
      <trkpt lat="45.21303" lon="5.73294">
        <ele>726.40002441406</ele>
        <time>2021-05-24T05:24:55.000Z</time>
      </trkpt>
      <trkpt lat="45.21301" lon="5.73288">
        <ele>725.79998779297</ele>
        <time>2021-05-24T05:24:57.000Z</time>
      </trkpt>
      <trkpt lat="45.213" lon="5.73286">
        <ele>725</ele>
        <time>2021-05-24T05:24:58.000Z</time>
      </trkpt>
      <trkpt lat="45.21298" lon="5.73282">
        <ele>724.20001220703</ele>
        <time>2021-05-24T05:25:01.000Z</time>
      </trkpt>
      <trkpt lat="45.21297" lon="5.73282">
        <ele>723.59997558594</ele>
        <time>2021-05-24T05:25:02.000Z</time>
      </trkpt>
      <trkpt lat="45.21292" lon="5.73282">
        <ele>722.59997558594</ele>
        <time>2021-05-24T05:25:05.000Z</time>
      </trkpt>
      <trkpt lat="45.21289" lon="5.73277">
        <ele>722</ele>
        <time>2021-05-24T05:25:07.000Z</time>
      </trkpt>
      <trkpt lat="45.21285" lon="5.73275">
        <ele>721.40002441406</ele>
        <time>2021-05-24T05:25:09.000Z</time>
      </trkpt>
      <trkpt lat="45.21283" lon="5.73274">
        <ele>721.20001220703</ele>
        <time>2021-05-24T05:25:10.000Z</time>
      </trkpt>
      <trkpt lat="45.2128" lon="5.73273">
        <ele>720.59997558594</ele>
        <time>2021-05-24T05:25:12.000Z</time>
      </trkpt>
      <trkpt lat="45.21278" lon="5.73272">
        <ele>720.40002441406</ele>
        <time>2021-05-24T05:25:13.000Z</time>
      </trkpt>
      <trkpt lat="45.21274" lon="5.73271">
        <ele>719.40002441406</ele>
        <time>2021-05-24T05:25:15.000Z</time>
      </trkpt>
      <trkpt lat="45.21272" lon="5.7327">
        <ele>719.20001220703</ele>
        <time>2021-05-24T05:25:16.000Z</time>
      </trkpt>
      <trkpt lat="45.21269" lon="5.73269">
        <ele>718.59997558594</ele>
        <time>2021-05-24T05:25:17.000Z</time>
      </trkpt>
      <trkpt lat="45.21267" lon="5.73267">
        <ele>718.20001220703</ele>
        <time>2021-05-24T05:25:18.000Z</time>
      </trkpt>
      <trkpt lat="45.21266" lon="5.73265">
        <ele>718</ele>
        <time>2021-05-24T05:25:19.000Z</time>
      </trkpt>
      <trkpt lat="45.21265" lon="5.73263">
        <ele>717.79998779297</ele>
        <time>2021-05-24T05:25:20.000Z</time>
      </trkpt>
      <trkpt lat="45.21263" lon="5.73259">
        <ele>716.79998779297</ele>
        <time>2021-05-24T05:25:22.000Z</time>
      </trkpt>
      <trkpt lat="45.21259" lon="5.73255">
        <ele>716.20001220703</ele>
        <time>2021-05-24T05:25:24.000Z</time>
      </trkpt>
      <trkpt lat="45.21258" lon="5.73249">
        <ele>715.59997558594</ele>
        <time>2021-05-24T05:25:26.000Z</time>
      </trkpt>
      <trkpt lat="45.21253" lon="5.73241">
        <ele>714.20001220703</ele>
        <time>2021-05-24T05:25:30.000Z</time>
      </trkpt>
      <trkpt lat="45.21251" lon="5.73238">
        <ele>713.20001220703</ele>
        <time>2021-05-24T05:25:32.000Z</time>
      </trkpt>
      <trkpt lat="45.21249" lon="5.73233">
        <ele>711.79998779297</ele>
        <time>2021-05-24T05:25:35.000Z</time>
      </trkpt>
      <trkpt lat="45.21248" lon="5.73233">
        <ele>711.40002441406</ele>
        <time>2021-05-24T05:25:36.000Z</time>
      </trkpt>
      <trkpt lat="45.21245" lon="5.73232">
        <ele>710.79998779297</ele>
        <time>2021-05-24T05:25:38.000Z</time>
      </trkpt>
      <trkpt lat="45.21242" lon="5.73231">
        <ele>710</ele>
        <time>2021-05-24T05:25:40.000Z</time>
      </trkpt>
      <trkpt lat="45.21241" lon="5.7323">
        <ele>709.59997558594</ele>
        <time>2021-05-24T05:25:41.000Z</time>
      </trkpt>
      <trkpt lat="45.21237" lon="5.73228">
        <ele>708.59997558594</ele>
        <time>2021-05-24T05:25:43.000Z</time>
      </trkpt>
      <trkpt lat="45.21232" lon="5.73226">
        <ele>708</ele>
        <time>2021-05-24T05:25:45.000Z</time>
      </trkpt>
      <trkpt lat="45.2123" lon="5.73224">
        <ele>707.40002441406</ele>
        <time>2021-05-24T05:25:46.000Z</time>
      </trkpt>
      <trkpt lat="45.21225" lon="5.73217">
        <ele>706.40002441406</ele>
        <time>2021-05-24T05:25:49.000Z</time>
      </trkpt>
      <trkpt lat="45.21224" lon="5.73214">
        <ele>706.20001220703</ele>
        <time>2021-05-24T05:25:50.000Z</time>
      </trkpt>
      <trkpt lat="45.21222" lon="5.73212">
        <ele>705.79998779297</ele>
        <time>2021-05-24T05:25:51.000Z</time>
      </trkpt>
      <trkpt lat="45.2122" lon="5.73211">
        <ele>705.40002441406</ele>
        <time>2021-05-24T05:25:52.000Z</time>
      </trkpt>
      <trkpt lat="45.21217" lon="5.73208">
        <ele>704</ele>
        <time>2021-05-24T05:25:54.000Z</time>
      </trkpt>
      <trkpt lat="45.21215" lon="5.73207">
        <ele>703.79998779297</ele>
        <time>2021-05-24T05:25:55.000Z</time>
      </trkpt>
      <trkpt lat="45.21211" lon="5.73204">
        <ele>703</ele>
        <time>2021-05-24T05:25:57.000Z</time>
      </trkpt>
      <trkpt lat="45.21208" lon="5.73202">
        <ele>702</ele>
        <time>2021-05-24T05:25:59.000Z</time>
      </trkpt>
      <trkpt lat="45.21204" lon="5.73198">
        <ele>701.20001220703</ele>
        <time>2021-05-24T05:26:01.000Z</time>
      </trkpt>
      <trkpt lat="45.21201" lon="5.73193">
        <ele>700.79998779297</ele>
        <time>2021-05-24T05:26:02.000Z</time>
      </trkpt>
      <trkpt lat="45.21197" lon="5.73186">
        <ele>699.79998779297</ele>
        <time>2021-05-24T05:26:06.000Z</time>
      </trkpt>
      <trkpt lat="45.21195" lon="5.73185">
        <ele>699.40002441406</ele>
        <time>2021-05-24T05:26:07.000Z</time>
      </trkpt>
      <trkpt lat="45.21194" lon="5.73184">
        <ele>699</ele>
        <time>2021-05-24T05:26:08.000Z</time>
      </trkpt>
      <trkpt lat="45.21193" lon="5.73183">
        <ele>698.40002441406</ele>
        <time>2021-05-24T05:26:09.000Z</time>
      </trkpt>
      <trkpt lat="45.2119" lon="5.7318">
        <ele>697.59997558594</ele>
        <time>2021-05-24T05:26:11.000Z</time>
      </trkpt>
      <trkpt lat="45.21188" lon="5.73178">
        <ele>697.40002441406</ele>
        <time>2021-05-24T05:26:12.000Z</time>
      </trkpt>
      <trkpt lat="45.21187" lon="5.73176">
        <ele>697</ele>
        <time>2021-05-24T05:26:13.000Z</time>
      </trkpt>
      <trkpt lat="45.21183" lon="5.73171">
        <ele>696</ele>
        <time>2021-05-24T05:26:16.000Z</time>
      </trkpt>
      <trkpt lat="45.2118" lon="5.73167">
        <ele>695.20001220703</ele>
        <time>2021-05-24T05:26:18.000Z</time>
      </trkpt>
      <trkpt lat="45.21178" lon="5.73165">
        <ele>694.79998779297</ele>
        <time>2021-05-24T05:26:19.000Z</time>
      </trkpt>
      <trkpt lat="45.21173" lon="5.7316">
        <ele>693.59997558594</ele>
        <time>2021-05-24T05:26:22.000Z</time>
      </trkpt>
      <trkpt lat="45.21168" lon="5.73154">
        <ele>692.59997558594</ele>
        <time>2021-05-24T05:26:25.000Z</time>
      </trkpt>
      <trkpt lat="45.21164" lon="5.73148">
        <ele>691.40002441406</ele>
        <time>2021-05-24T05:26:28.000Z</time>
      </trkpt>
      <trkpt lat="45.21162" lon="5.73148">
        <ele>691</ele>
        <time>2021-05-24T05:26:29.000Z</time>
      </trkpt>
      <trkpt lat="45.21161" lon="5.73148">
        <ele>690.40002441406</ele>
        <time>2021-05-24T05:26:30.000Z</time>
      </trkpt>
      <trkpt lat="45.21159" lon="5.73147">
        <ele>690.20001220703</ele>
        <time>2021-05-24T05:26:31.000Z</time>
      </trkpt>
      <trkpt lat="45.21156" lon="5.73143">
        <ele>689.40002441406</ele>
        <time>2021-05-24T05:26:33.000Z</time>
      </trkpt>
      <trkpt lat="45.21155" lon="5.73141">
        <ele>688.79998779297</ele>
        <time>2021-05-24T05:26:34.000Z</time>
      </trkpt>
      <trkpt lat="45.21154" lon="5.73139">
        <ele>688.59997558594</ele>
        <time>2021-05-24T05:26:35.000Z</time>
      </trkpt>
      <trkpt lat="45.21151" lon="5.73134">
        <ele>688</ele>
        <time>2021-05-24T05:26:37.000Z</time>
      </trkpt>
      <trkpt lat="45.21149" lon="5.73133">
        <ele>687.59997558594</ele>
        <time>2021-05-24T05:26:38.000Z</time>
      </trkpt>
      <trkpt lat="45.21147" lon="5.73131">
        <ele>687</ele>
        <time>2021-05-24T05:26:40.000Z</time>
      </trkpt>
      <trkpt lat="45.21146" lon="5.73131">
        <ele>686.79998779297</ele>
        <time>2021-05-24T05:26:41.000Z</time>
      </trkpt>
      <trkpt lat="45.21145" lon="5.73132">
        <ele>686.20001220703</ele>
        <time>2021-05-24T05:26:42.000Z</time>
      </trkpt>
      <trkpt lat="45.21143" lon="5.73134">
        <ele>685</ele>
        <time>2021-05-24T05:26:44.000Z</time>
      </trkpt>
      <trkpt lat="45.21133" lon="5.73138">
        <ele>683.59997558594</ele>
        <time>2021-05-24T05:26:48.000Z</time>
      </trkpt>
      <trkpt lat="45.21132" lon="5.73137">
        <ele>683.20001220703</ele>
        <time>2021-05-24T05:26:49.000Z</time>
      </trkpt>
      <trkpt lat="45.2113" lon="5.73136">
        <ele>683</ele>
        <time>2021-05-24T05:26:50.000Z</time>
      </trkpt>
      <trkpt lat="45.21127" lon="5.73137">
        <ele>682.20001220703</ele>
        <time>2021-05-24T05:26:52.000Z</time>
      </trkpt>
      <trkpt lat="45.21122" lon="5.73142">
        <ele>680.79998779297</ele>
        <time>2021-05-24T05:26:55.000Z</time>
      </trkpt>
      <trkpt lat="45.2112" lon="5.73144">
        <ele>680.59997558594</ele>
        <time>2021-05-24T05:26:56.000Z</time>
      </trkpt>
      <trkpt lat="45.21117" lon="5.73145">
        <ele>679.20001220703</ele>
        <time>2021-05-24T05:26:58.000Z</time>
      </trkpt>
      <trkpt lat="45.21116" lon="5.73145">
        <ele>678.59997558594</ele>
        <time>2021-05-24T05:27:00.000Z</time>
      </trkpt>
      <trkpt lat="45.21117" lon="5.73145">
        <ele>678.40002441406</ele>
        <time>2021-05-24T05:27:01.000Z</time>
      </trkpt>
      <trkpt lat="45.21117" lon="5.73142">
        <ele>678</ele>
        <time>2021-05-24T05:27:02.000Z</time>
      </trkpt>
      <trkpt lat="45.21117" lon="5.73141">
        <ele>677.59997558594</ele>
        <time>2021-05-24T05:27:03.000Z</time>
      </trkpt>
      <trkpt lat="45.21119" lon="5.73139">
        <ele>676.59997558594</ele>
        <time>2021-05-24T05:27:05.000Z</time>
      </trkpt>
      <trkpt lat="45.2112" lon="5.73139">
        <ele>676.40002441406</ele>
        <time>2021-05-24T05:27:06.000Z</time>
      </trkpt>
      <trkpt lat="45.21123" lon="5.73139">
        <ele>675.40002441406</ele>
        <time>2021-05-24T05:27:08.000Z</time>
      </trkpt>
      <trkpt lat="45.21126" lon="5.73138">
        <ele>674.79998779297</ele>
        <time>2021-05-24T05:27:10.000Z</time>
      </trkpt>
      <trkpt lat="45.21127" lon="5.73139">
        <ele>674</ele>
        <time>2021-05-24T05:27:11.000Z</time>
      </trkpt>
      <trkpt lat="45.21128" lon="5.73138">
        <ele>673.59997558594</ele>
        <time>2021-05-24T05:27:12.000Z</time>
      </trkpt>
      <trkpt lat="45.2113" lon="5.73138">
        <ele>673.40002441406</ele>
        <time>2021-05-24T05:27:13.000Z</time>
      </trkpt>
      <trkpt lat="45.2113" lon="5.73138">
        <ele>673</ele>
        <time>2021-05-24T05:27:14.000Z</time>
      </trkpt>
      <trkpt lat="45.21131" lon="5.73138">
        <ele>672.40002441406</ele>
        <time>2021-05-24T05:27:15.000Z</time>
      </trkpt>
      <trkpt lat="45.21131" lon="5.7314">
        <ele>672</ele>
        <time>2021-05-24T05:27:16.000Z</time>
      </trkpt>
      <trkpt lat="45.21131" lon="5.73141">
        <ele>671.79998779297</ele>
        <time>2021-05-24T05:27:17.000Z</time>
      </trkpt>
      <trkpt lat="45.2113" lon="5.73141">
        <ele>671.59997558594</ele>
        <time>2021-05-24T05:27:18.000Z</time>
      </trkpt>
      <trkpt lat="45.21129" lon="5.73143">
        <ele>670.79998779297</ele>
        <time>2021-05-24T05:27:20.000Z</time>
      </trkpt>
      <trkpt lat="45.21126" lon="5.73148">
        <ele>670</ele>
        <time>2021-05-24T05:27:22.000Z</time>
      </trkpt>
      <trkpt lat="45.21123" lon="5.73151">
        <ele>669.59997558594</ele>
        <time>2021-05-24T05:27:23.000Z</time>
      </trkpt>
      <trkpt lat="45.21122" lon="5.73151">
        <ele>669.40002441406</ele>
        <time>2021-05-24T05:27:24.000Z</time>
      </trkpt>
      <trkpt lat="45.2112" lon="5.73151">
        <ele>669</ele>
        <time>2021-05-24T05:27:26.000Z</time>
      </trkpt>
      <trkpt lat="45.21118" lon="5.73153">
        <ele>668.40002441406</ele>
        <time>2021-05-24T05:27:28.000Z</time>
      </trkpt>
      <trkpt lat="45.21117" lon="5.73154">
        <ele>668</ele>
        <time>2021-05-24T05:27:30.000Z</time>
      </trkpt>
      <trkpt lat="45.21116" lon="5.73154">
        <ele>667.79998779297</ele>
        <time>2021-05-24T05:27:31.000Z</time>
      </trkpt>
      <trkpt lat="45.21112" lon="5.73154">
        <ele>667.20001220703</ele>
        <time>2021-05-24T05:27:33.000Z</time>
      </trkpt>
      <trkpt lat="45.21108" lon="5.73153">
        <ele>666</ele>
        <time>2021-05-24T05:27:35.000Z</time>
      </trkpt>
      <trkpt lat="45.21106" lon="5.73151">
        <ele>665.59997558594</ele>
        <time>2021-05-24T05:27:36.000Z</time>
      </trkpt>
      <trkpt lat="45.21104" lon="5.73149">
        <ele>665</ele>
        <time>2021-05-24T05:27:37.000Z</time>
      </trkpt>
      <trkpt lat="45.21101" lon="5.73146">
        <ele>664</ele>
        <time>2021-05-24T05:27:39.000Z</time>
      </trkpt>
      <trkpt lat="45.21095" lon="5.73142">
        <ele>662.79998779297</ele>
        <time>2021-05-24T05:27:42.000Z</time>
      </trkpt>
      <trkpt lat="45.21093" lon="5.7314">
        <ele>662.40002441406</ele>
        <time>2021-05-24T05:27:43.000Z</time>
      </trkpt>
      <trkpt lat="45.21087" lon="5.73136">
        <ele>661.40002441406</ele>
        <time>2021-05-24T05:27:46.000Z</time>
      </trkpt>
      <trkpt lat="45.21084" lon="5.73132">
        <ele>661</ele>
        <time>2021-05-24T05:27:48.000Z</time>
      </trkpt>
      <trkpt lat="45.21081" lon="5.73129">
        <ele>660.40002441406</ele>
        <time>2021-05-24T05:27:50.000Z</time>
      </trkpt>
      <trkpt lat="45.21079" lon="5.73127">
        <ele>660</ele>
        <time>2021-05-24T05:27:52.000Z</time>
      </trkpt>
      <trkpt lat="45.21075" lon="5.73129">
        <ele>659.20001220703</ele>
        <time>2021-05-24T05:27:55.000Z</time>
      </trkpt>
      <trkpt lat="45.21071" lon="5.73132">
        <ele>658.40002441406</ele>
        <time>2021-05-24T05:27:57.000Z</time>
      </trkpt>
      <trkpt lat="45.2107" lon="5.73131">
        <ele>658.20001220703</ele>
        <time>2021-05-24T05:27:58.000Z</time>
      </trkpt>
      <trkpt lat="45.21068" lon="5.73131">
        <ele>657.79998779297</ele>
        <time>2021-05-24T05:27:59.000Z</time>
      </trkpt>
      <trkpt lat="45.21063" lon="5.73129">
        <ele>656.79998779297</ele>
        <time>2021-05-24T05:28:01.000Z</time>
      </trkpt>
      <trkpt lat="45.21057" lon="5.73126">
        <ele>655.40002441406</ele>
        <time>2021-05-24T05:28:04.000Z</time>
      </trkpt>
      <trkpt lat="45.21055" lon="5.73125">
        <ele>655</ele>
        <time>2021-05-24T05:28:05.000Z</time>
      </trkpt>
      <trkpt lat="45.21053" lon="5.73124">
        <ele>654.79998779297</ele>
        <time>2021-05-24T05:28:06.000Z</time>
      </trkpt>
      <trkpt lat="45.21049" lon="5.73123">
        <ele>654.20001220703</ele>
        <time>2021-05-24T05:28:08.000Z</time>
      </trkpt>
      <trkpt lat="45.21045" lon="5.73122">
        <ele>653.40002441406</ele>
        <time>2021-05-24T05:28:10.000Z</time>
      </trkpt>
      <trkpt lat="45.21042" lon="5.73121">
        <ele>653</ele>
        <time>2021-05-24T05:28:11.000Z</time>
      </trkpt>
      <trkpt lat="45.21035" lon="5.73117">
        <ele>652</ele>
        <time>2021-05-24T05:28:15.000Z</time>
      </trkpt>
      <trkpt lat="45.21033" lon="5.73115">
        <ele>651.40002441406</ele>
        <time>2021-05-24T05:28:17.000Z</time>
      </trkpt>
      <trkpt lat="45.2103" lon="5.73112">
        <ele>650.79998779297</ele>
        <time>2021-05-24T05:28:19.000Z</time>
      </trkpt>
      <trkpt lat="45.21028" lon="5.73112">
        <ele>650.40002441406</ele>
        <time>2021-05-24T05:28:21.000Z</time>
      </trkpt>
      <trkpt lat="45.21026" lon="5.73112">
        <ele>650.40002441406</ele>
        <time>2021-05-24T05:28:23.000Z</time>
      </trkpt>
      <trkpt lat="45.21024" lon="5.73111">
        <ele>650</ele>
        <time>2021-05-24T05:28:25.000Z</time>
      </trkpt>
      <trkpt lat="45.21024" lon="5.73111">
        <ele>649.79998779297</ele>
        <time>2021-05-24T05:28:26.000Z</time>
      </trkpt>
      <trkpt lat="45.21025" lon="5.7311">
        <ele>649.79998779297</ele>
        <time>2021-05-24T05:28:27.000Z</time>
      </trkpt>
      <trkpt lat="45.21024" lon="5.73111">
        <ele>649.20001220703</ele>
        <time>2021-05-24T05:28:29.000Z</time>
      </trkpt>
      <trkpt lat="45.21022" lon="5.73111">
        <ele>648.59997558594</ele>
        <time>2021-05-24T05:28:31.000Z</time>
      </trkpt>
      <trkpt lat="45.21019" lon="5.73114">
        <ele>648</ele>
        <time>2021-05-24T05:28:33.000Z</time>
      </trkpt>
      <trkpt lat="45.21017" lon="5.73117">
        <ele>647.40002441406</ele>
        <time>2021-05-24T05:28:35.000Z</time>
      </trkpt>
      <trkpt lat="45.21016" lon="5.73119">
        <ele>647</ele>
        <time>2021-05-24T05:28:37.000Z</time>
      </trkpt>
      <trkpt lat="45.21015" lon="5.73122">
        <ele>646.40002441406</ele>
        <time>2021-05-24T05:28:39.000Z</time>
      </trkpt>
      <trkpt lat="45.21013" lon="5.73124">
        <ele>646.20001220703</ele>
        <time>2021-05-24T05:28:40.000Z</time>
      </trkpt>
      <trkpt lat="45.21008" lon="5.73128">
        <ele>645.20001220703</ele>
        <time>2021-05-24T05:28:42.000Z</time>
      </trkpt>
      <trkpt lat="45.21006" lon="5.7313">
        <ele>645</ele>
        <time>2021-05-24T05:28:43.000Z</time>
      </trkpt>
      <trkpt lat="45.21003" lon="5.73135">
        <ele>644.20001220703</ele>
        <time>2021-05-24T05:28:45.000Z</time>
      </trkpt>
      <trkpt lat="45.20998" lon="5.73139">
        <ele>643</ele>
        <time>2021-05-24T05:28:48.000Z</time>
      </trkpt>
      <trkpt lat="45.20995" lon="5.73143">
        <ele>641.79998779297</ele>
        <time>2021-05-24T05:28:51.000Z</time>
      </trkpt>
      <trkpt lat="45.20994" lon="5.73144">
        <ele>641.40002441406</ele>
        <time>2021-05-24T05:28:52.000Z</time>
      </trkpt>
      <trkpt lat="45.20994" lon="5.73144">
        <ele>641.20001220703</ele>
        <time>2021-05-24T05:28:53.000Z</time>
      </trkpt>
      <trkpt lat="45.20996" lon="5.73142">
        <ele>640.40002441406</ele>
        <time>2021-05-24T05:28:55.000Z</time>
      </trkpt>
      <trkpt lat="45.20999" lon="5.73139">
        <ele>640</ele>
        <time>2021-05-24T05:28:57.000Z</time>
      </trkpt>
      <trkpt lat="45.21" lon="5.73138">
        <ele>639.40002441406</ele>
        <time>2021-05-24T05:28:58.000Z</time>
      </trkpt>
      <trkpt lat="45.21003" lon="5.73136">
        <ele>638.59997558594</ele>
        <time>2021-05-24T05:29:00.000Z</time>
      </trkpt>
      <trkpt lat="45.21004" lon="5.73136">
        <ele>638.20001220703</ele>
        <time>2021-05-24T05:29:01.000Z</time>
      </trkpt>
      <trkpt lat="45.21008" lon="5.73134">
        <ele>637</ele>
        <time>2021-05-24T05:29:04.000Z</time>
      </trkpt>
      <trkpt lat="45.21011" lon="5.73131">
        <ele>635.79998779297</ele>
        <time>2021-05-24T05:29:08.000Z</time>
      </trkpt>
      <trkpt lat="45.21014" lon="5.73128">
        <ele>635.40002441406</ele>
        <time>2021-05-24T05:29:10.000Z</time>
      </trkpt>
      <trkpt lat="45.21018" lon="5.73127">
        <ele>635.20001220703</ele>
        <time>2021-05-24T05:29:12.000Z</time>
      </trkpt>
      <trkpt lat="45.2102" lon="5.73128">
        <ele>634.79998779297</ele>
        <time>2021-05-24T05:29:14.000Z</time>
      </trkpt>
      <trkpt lat="45.21021" lon="5.73128">
        <ele>634.59997558594</ele>
        <time>2021-05-24T05:29:15.000Z</time>
      </trkpt>
      <trkpt lat="45.21022" lon="5.73131">
        <ele>634</ele>
        <time>2021-05-24T05:29:19.000Z</time>
      </trkpt>
      <trkpt lat="45.21023" lon="5.73133">
        <ele>633.59997558594</ele>
        <time>2021-05-24T05:29:21.000Z</time>
      </trkpt>
      <trkpt lat="45.21026" lon="5.73134">
        <ele>632.40002441406</ele>
        <time>2021-05-24T05:29:24.000Z</time>
      </trkpt>
      <trkpt lat="45.21026" lon="5.73135">
        <ele>632.20001220703</ele>
        <time>2021-05-24T05:29:25.000Z</time>
      </trkpt>
      <trkpt lat="45.21027" lon="5.73139">
        <ele>631.40002441406</ele>
        <time>2021-05-24T05:29:27.000Z</time>
      </trkpt>
      <trkpt lat="45.2103" lon="5.73141">
        <ele>630.20001220703</ele>
        <time>2021-05-24T05:29:30.000Z</time>
      </trkpt>
      <trkpt lat="45.21032" lon="5.73142">
        <ele>630</ele>
        <time>2021-05-24T05:29:31.000Z</time>
      </trkpt>
      <trkpt lat="45.21037" lon="5.73145">
        <ele>629</ele>
        <time>2021-05-24T05:29:34.000Z</time>
      </trkpt>
      <trkpt lat="45.21039" lon="5.73146">
        <ele>628.79998779297</ele>
        <time>2021-05-24T05:29:35.000Z</time>
      </trkpt>
      <trkpt lat="45.21042" lon="5.73149">
        <ele>628</ele>
        <time>2021-05-24T05:29:37.000Z</time>
      </trkpt>
      <trkpt lat="45.21044" lon="5.73152">
        <ele>627.20001220703</ele>
        <time>2021-05-24T05:29:39.000Z</time>
      </trkpt>
      <trkpt lat="45.21046" lon="5.73152">
        <ele>626.79998779297</ele>
        <time>2021-05-24T05:29:40.000Z</time>
      </trkpt>
      <trkpt lat="45.21047" lon="5.73152">
        <ele>626.20001220703</ele>
        <time>2021-05-24T05:29:41.000Z</time>
      </trkpt>
      <trkpt lat="45.21049" lon="5.73152">
        <ele>626</ele>
        <time>2021-05-24T05:29:42.000Z</time>
      </trkpt>
      <trkpt lat="45.2105" lon="5.73152">
        <ele>625.59997558594</ele>
        <time>2021-05-24T05:29:43.000Z</time>
      </trkpt>
      <trkpt lat="45.21051" lon="5.73152">
        <ele>625.40002441406</ele>
        <time>2021-05-24T05:29:44.000Z</time>
      </trkpt>
      <trkpt lat="45.21054" lon="5.73155">
        <ele>624.79998779297</ele>
        <time>2021-05-24T05:29:47.000Z</time>
      </trkpt>
      <trkpt lat="45.21054" lon="5.73158">
        <ele>624.59997558594</ele>
        <time>2021-05-24T05:29:48.000Z</time>
      </trkpt>
      <trkpt lat="45.21056" lon="5.73161">
        <ele>623.79998779297</ele>
        <time>2021-05-24T05:29:50.000Z</time>
      </trkpt>
      <trkpt lat="45.21057" lon="5.73162">
        <ele>623.59997558594</ele>
        <time>2021-05-24T05:29:51.000Z</time>
      </trkpt>
      <trkpt lat="45.21059" lon="5.73163">
        <ele>623.40002441406</ele>
        <time>2021-05-24T05:29:52.000Z</time>
      </trkpt>
      <trkpt lat="45.21062" lon="5.73166">
        <ele>622.59997558594</ele>
        <time>2021-05-24T05:29:54.000Z</time>
      </trkpt>
      <trkpt lat="45.21063" lon="5.73167">
        <ele>622.20001220703</ele>
        <time>2021-05-24T05:29:55.000Z</time>
      </trkpt>
      <trkpt lat="45.21067" lon="5.7317">
        <ele>621.59997558594</ele>
        <time>2021-05-24T05:29:57.000Z</time>
      </trkpt>
      <trkpt lat="45.2107" lon="5.73174">
        <ele>621</ele>
        <time>2021-05-24T05:29:59.000Z</time>
      </trkpt>
      <trkpt lat="45.21072" lon="5.73179">
        <ele>620</ele>
        <time>2021-05-24T05:30:02.000Z</time>
      </trkpt>
      <trkpt lat="45.21073" lon="5.73181">
        <ele>619.79998779297</ele>
        <time>2021-05-24T05:30:03.000Z</time>
      </trkpt>
      <trkpt lat="45.21074" lon="5.73184">
        <ele>619.40002441406</ele>
        <time>2021-05-24T05:30:04.000Z</time>
      </trkpt>
      <trkpt lat="45.21075" lon="5.73189">
        <ele>618.59997558594</ele>
        <time>2021-05-24T05:30:06.000Z</time>
      </trkpt>
      <trkpt lat="45.21078" lon="5.73193">
        <ele>617.79998779297</ele>
        <time>2021-05-24T05:30:08.000Z</time>
      </trkpt>
      <trkpt lat="45.2108" lon="5.73194">
        <ele>617.59997558594</ele>
        <time>2021-05-24T05:30:09.000Z</time>
      </trkpt>
      <trkpt lat="45.21081" lon="5.73195">
        <ele>617.20001220703</ele>
        <time>2021-05-24T05:30:10.000Z</time>
      </trkpt>
      <trkpt lat="45.21082" lon="5.73196">
        <ele>616.79998779297</ele>
        <time>2021-05-24T05:30:11.000Z</time>
      </trkpt>
      <trkpt lat="45.21082" lon="5.73198">
        <ele>616.40002441406</ele>
        <time>2021-05-24T05:30:13.000Z</time>
      </trkpt>
      <trkpt lat="45.2108" lon="5.73198">
        <ele>616</ele>
        <time>2021-05-24T05:30:14.000Z</time>
      </trkpt>
      <trkpt lat="45.21078" lon="5.73198">
        <ele>615.20001220703</ele>
        <time>2021-05-24T05:30:16.000Z</time>
      </trkpt>
      <trkpt lat="45.21077" lon="5.73198">
        <ele>614.79998779297</ele>
        <time>2021-05-24T05:30:17.000Z</time>
      </trkpt>
      <trkpt lat="45.21076" lon="5.73199">
        <ele>614.20001220703</ele>
        <time>2021-05-24T05:30:19.000Z</time>
      </trkpt>
      <trkpt lat="45.21076" lon="5.73198">
        <ele>614</ele>
        <time>2021-05-24T05:30:20.000Z</time>
      </trkpt>
      <trkpt lat="45.21075" lon="5.73198">
        <ele>614</ele>
        <time>2021-05-24T05:30:21.000Z</time>
      </trkpt>
      <trkpt lat="45.21073" lon="5.73197">
        <ele>613.79998779297</ele>
        <time>2021-05-24T05:30:23.000Z</time>
      </trkpt>
      <trkpt lat="45.21071" lon="5.73194">
        <ele>613.40002441406</ele>
        <time>2021-05-24T05:30:25.000Z</time>
      </trkpt>
      <trkpt lat="45.21067" lon="5.73194">
        <ele>613</ele>
        <time>2021-05-24T05:30:27.000Z</time>
      </trkpt>
      <trkpt lat="45.21066" lon="5.73193">
        <ele>612.59997558594</ele>
        <time>2021-05-24T05:30:28.000Z</time>
      </trkpt>
      <trkpt lat="45.21062" lon="5.73192">
        <ele>611.59997558594</ele>
        <time>2021-05-24T05:30:30.000Z</time>
      </trkpt>
      <trkpt lat="45.21059" lon="5.73193">
        <ele>611.40002441406</ele>
        <time>2021-05-24T05:30:31.000Z</time>
      </trkpt>
      <trkpt lat="45.21058" lon="5.73193">
        <ele>611.20001220703</ele>
        <time>2021-05-24T05:30:32.000Z</time>
      </trkpt>
      <trkpt lat="45.21055" lon="5.73192">
        <ele>610.40002441406</ele>
        <time>2021-05-24T05:30:34.000Z</time>
      </trkpt>
      <trkpt lat="45.21054" lon="5.73192">
        <ele>610</ele>
        <time>2021-05-24T05:30:35.000Z</time>
      </trkpt>
      <trkpt lat="45.21052" lon="5.73194">
        <ele>609.40002441406</ele>
        <time>2021-05-24T05:30:37.000Z</time>
      </trkpt>
      <trkpt lat="45.21053" lon="5.73195">
        <ele>609.20001220703</ele>
        <time>2021-05-24T05:30:38.000Z</time>
      </trkpt>
      <trkpt lat="45.21052" lon="5.73196">
        <ele>609</ele>
        <time>2021-05-24T05:30:39.000Z</time>
      </trkpt>
      <trkpt lat="45.2105" lon="5.73197">
        <ele>608.59997558594</ele>
        <time>2021-05-24T05:30:40.000Z</time>
      </trkpt>
      <trkpt lat="45.21046" lon="5.73198">
        <ele>608.20001220703</ele>
        <time>2021-05-24T05:30:42.000Z</time>
      </trkpt>
      <trkpt lat="45.21041" lon="5.73197">
        <ele>607.20001220703</ele>
        <time>2021-05-24T05:30:44.000Z</time>
      </trkpt>
      <trkpt lat="45.21039" lon="5.73196">
        <ele>606.79998779297</ele>
        <time>2021-05-24T05:30:45.000Z</time>
      </trkpt>
      <trkpt lat="45.21035" lon="5.73193">
        <ele>606.40002441406</ele>
        <time>2021-05-24T05:30:47.000Z</time>
      </trkpt>
      <trkpt lat="45.21033" lon="5.73192">
        <ele>606</ele>
        <time>2021-05-24T05:30:48.000Z</time>
      </trkpt>
      <trkpt lat="45.2103" lon="5.7319">
        <ele>605.79998779297</ele>
        <time>2021-05-24T05:30:49.000Z</time>
      </trkpt>
      <trkpt lat="45.21024" lon="5.73185">
        <ele>604.59997558594</ele>
        <time>2021-05-24T05:30:52.000Z</time>
      </trkpt>
      <trkpt lat="45.21023" lon="5.73184">
        <ele>604.40002441406</ele>
        <time>2021-05-24T05:30:53.000Z</time>
      </trkpt>
      <trkpt lat="45.21021" lon="5.73183">
        <ele>603.79998779297</ele>
        <time>2021-05-24T05:30:55.000Z</time>
      </trkpt>
      <trkpt lat="45.2102" lon="5.73183">
        <ele>603.40002441406</ele>
        <time>2021-05-24T05:30:56.000Z</time>
      </trkpt>
      <trkpt lat="45.21019" lon="5.73184">
        <ele>603.20001220703</ele>
        <time>2021-05-24T05:30:57.000Z</time>
      </trkpt>
      <trkpt lat="45.21018" lon="5.73186">
        <ele>602.79998779297</ele>
        <time>2021-05-24T05:30:58.000Z</time>
      </trkpt>
      <trkpt lat="45.21015" lon="5.73186">
        <ele>602.40002441406</ele>
        <time>2021-05-24T05:31:00.000Z</time>
      </trkpt>
      <trkpt lat="45.21013" lon="5.73187">
        <ele>602.20001220703</ele>
        <time>2021-05-24T05:31:01.000Z</time>
      </trkpt>
      <trkpt lat="45.21012" lon="5.73191">
        <ele>601.20001220703</ele>
        <time>2021-05-24T05:31:04.000Z</time>
      </trkpt>
      <trkpt lat="45.2101" lon="5.73194">
        <ele>600.40002441406</ele>
        <time>2021-05-24T05:31:06.000Z</time>
      </trkpt>
      <trkpt lat="45.21009" lon="5.73195">
        <ele>600</ele>
        <time>2021-05-24T05:31:07.000Z</time>
      </trkpt>
      <trkpt lat="45.21003" lon="5.73201">
        <ele>599</ele>
        <time>2021-05-24T05:31:11.000Z</time>
      </trkpt>
      <trkpt lat="45.21002" lon="5.73203">
        <ele>598.40002441406</ele>
        <time>2021-05-24T05:31:12.000Z</time>
      </trkpt>
      <trkpt lat="45.21001" lon="5.73208">
        <ele>597.79998779297</ele>
        <time>2021-05-24T05:31:14.000Z</time>
      </trkpt>
      <trkpt lat="45.20996" lon="5.73215">
        <ele>596.40002441406</ele>
        <time>2021-05-24T05:31:17.000Z</time>
      </trkpt>
      <trkpt lat="45.20994" lon="5.73215">
        <ele>596.20001220703</ele>
        <time>2021-05-24T05:31:18.000Z</time>
      </trkpt>
      <trkpt lat="45.2099" lon="5.73216">
        <ele>595.40002441406</ele>
        <time>2021-05-24T05:31:20.000Z</time>
      </trkpt>
      <trkpt lat="45.20986" lon="5.73215">
        <ele>595</ele>
        <time>2021-05-24T05:31:21.000Z</time>
      </trkpt>
      <trkpt lat="45.2098" lon="5.73214">
        <ele>594.20001220703</ele>
        <time>2021-05-24T05:31:24.000Z</time>
      </trkpt>
      <trkpt lat="45.20981" lon="5.73212">
        <ele>593.20001220703</ele>
        <time>2021-05-24T05:31:26.000Z</time>
      </trkpt>
      <trkpt lat="45.20982" lon="5.73211">
        <ele>592.79998779297</ele>
        <time>2021-05-24T05:31:27.000Z</time>
      </trkpt>
      <trkpt lat="45.20987" lon="5.73211">
        <ele>591.79998779297</ele>
        <time>2021-05-24T05:31:30.000Z</time>
      </trkpt>
      <trkpt lat="45.2099" lon="5.73211">
        <ele>591.40002441406</ele>
        <time>2021-05-24T05:31:32.000Z</time>
      </trkpt>
      <trkpt lat="45.20991" lon="5.73213">
        <ele>590.59997558594</ele>
        <time>2021-05-24T05:31:34.000Z</time>
      </trkpt>
      <trkpt lat="45.20988" lon="5.73214">
        <ele>589.79998779297</ele>
        <time>2021-05-24T05:31:37.000Z</time>
      </trkpt>
      <trkpt lat="45.20985" lon="5.73214">
        <ele>589.20001220703</ele>
        <time>2021-05-24T05:31:38.000Z</time>
      </trkpt>
      <trkpt lat="45.2098" lon="5.73217">
        <ele>588.20001220703</ele>
        <time>2021-05-24T05:31:41.000Z</time>
      </trkpt>
      <trkpt lat="45.20979" lon="5.73217">
        <ele>588</ele>
        <time>2021-05-24T05:31:42.000Z</time>
      </trkpt>
      <trkpt lat="45.2098" lon="5.73216">
        <ele>587.79998779297</ele>
        <time>2021-05-24T05:31:44.000Z</time>
      </trkpt>
      <trkpt lat="45.20977" lon="5.73216">
        <ele>587.40002441406</ele>
        <time>2021-05-24T05:31:47.000Z</time>
      </trkpt>
      <trkpt lat="45.20975" lon="5.73217">
        <ele>587.20001220703</ele>
        <time>2021-05-24T05:31:48.000Z</time>
      </trkpt>
      <trkpt lat="45.20973" lon="5.73218">
        <ele>587</ele>
        <time>2021-05-24T05:31:49.000Z</time>
      </trkpt>
      <trkpt lat="45.20968" lon="5.73219">
        <ele>586.20001220703</ele>
        <time>2021-05-24T05:31:51.000Z</time>
      </trkpt>
      <trkpt lat="45.20964" lon="5.73221">
        <ele>585.79998779297</ele>
        <time>2021-05-24T05:31:53.000Z</time>
      </trkpt>
      <trkpt lat="45.20959" lon="5.73226">
        <ele>585</ele>
        <time>2021-05-24T05:31:56.000Z</time>
      </trkpt>
      <trkpt lat="45.20958" lon="5.73227">
        <ele>584.40002441406</ele>
        <time>2021-05-24T05:31:57.000Z</time>
      </trkpt>
      <trkpt lat="45.20953" lon="5.73231">
        <ele>583.20001220703</ele>
        <time>2021-05-24T05:32:00.000Z</time>
      </trkpt>
      <trkpt lat="45.20948" lon="5.73233">
        <ele>582.20001220703</ele>
        <time>2021-05-24T05:32:02.000Z</time>
      </trkpt>
      <trkpt lat="45.20947" lon="5.73233">
        <ele>581.79998779297</ele>
        <time>2021-05-24T05:32:03.000Z</time>
      </trkpt>
      <trkpt lat="45.20942" lon="5.73232">
        <ele>581.40002441406</ele>
        <time>2021-05-24T05:32:05.000Z</time>
      </trkpt>
      <trkpt lat="45.20941" lon="5.73231">
        <ele>581.40002441406</ele>
        <time>2021-05-24T05:32:06.000Z</time>
      </trkpt>
      <trkpt lat="45.2094" lon="5.7323">
        <ele>580.79998779297</ele>
        <time>2021-05-24T05:32:07.000Z</time>
      </trkpt>
      <trkpt lat="45.20937" lon="5.73229">
        <ele>580.40002441406</ele>
        <time>2021-05-24T05:32:09.000Z</time>
      </trkpt>
      <trkpt lat="45.20937" lon="5.73229">
        <ele>580</ele>
        <time>2021-05-24T05:32:11.000Z</time>
      </trkpt>
      <trkpt lat="45.20937" lon="5.7323">
        <ele>579.59997558594</ele>
        <time>2021-05-24T05:32:12.000Z</time>
      </trkpt>
      <trkpt lat="45.20937" lon="5.73232">
        <ele>579.20001220703</ele>
        <time>2021-05-24T05:32:13.000Z</time>
      </trkpt>
      <trkpt lat="45.20938" lon="5.73234">
        <ele>578.79998779297</ele>
        <time>2021-05-24T05:32:14.000Z</time>
      </trkpt>
      <trkpt lat="45.20939" lon="5.73236">
        <ele>578.40002441406</ele>
        <time>2021-05-24T05:32:15.000Z</time>
      </trkpt>
      <trkpt lat="45.20943" lon="5.73239">
        <ele>577.20001220703</ele>
        <time>2021-05-24T05:32:18.000Z</time>
      </trkpt>
      <trkpt lat="45.20946" lon="5.73242">
        <ele>576</ele>
        <time>2021-05-24T05:32:21.000Z</time>
      </trkpt>
      <trkpt lat="45.20949" lon="5.73243">
        <ele>575</ele>
        <time>2021-05-24T05:32:23.000Z</time>
      </trkpt>
      <trkpt lat="45.20951" lon="5.73242">
        <ele>574.79998779297</ele>
        <time>2021-05-24T05:32:24.000Z</time>
      </trkpt>
      <trkpt lat="45.20955" lon="5.73243">
        <ele>573.59997558594</ele>
        <time>2021-05-24T05:32:27.000Z</time>
      </trkpt>
      <trkpt lat="45.20958" lon="5.73245">
        <ele>573</ele>
        <time>2021-05-24T05:32:29.000Z</time>
      </trkpt>
      <trkpt lat="45.20962" lon="5.73247">
        <ele>572.40002441406</ele>
        <time>2021-05-24T05:32:31.000Z</time>
      </trkpt>
      <trkpt lat="45.2097" lon="5.73249">
        <ele>571</ele>
        <time>2021-05-24T05:32:35.000Z</time>
      </trkpt>
      <trkpt lat="45.20974" lon="5.73249">
        <ele>570.40002441406</ele>
        <time>2021-05-24T05:32:37.000Z</time>
      </trkpt>
      <trkpt lat="45.20975" lon="5.73249">
        <ele>570.20001220703</ele>
        <time>2021-05-24T05:32:38.000Z</time>
      </trkpt>
      <trkpt lat="45.2098" lon="5.73247">
        <ele>569.79998779297</ele>
        <time>2021-05-24T05:32:40.000Z</time>
      </trkpt>
      <trkpt lat="45.20982" lon="5.73247">
        <ele>569.40002441406</ele>
        <time>2021-05-24T05:32:41.000Z</time>
      </trkpt>
      <trkpt lat="45.20982" lon="5.73248">
        <ele>569</ele>
        <time>2021-05-24T05:32:42.000Z</time>
      </trkpt>
      <trkpt lat="45.20981" lon="5.73249">
        <ele>568.59997558594</ele>
        <time>2021-05-24T05:32:44.000Z</time>
      </trkpt>
      <trkpt lat="45.20978" lon="5.73251">
        <ele>567.79998779297</ele>
        <time>2021-05-24T05:32:46.000Z</time>
      </trkpt>
      <trkpt lat="45.20977" lon="5.73253">
        <ele>567.40002441406</ele>
        <time>2021-05-24T05:32:47.000Z</time>
      </trkpt>
      <trkpt lat="45.20972" lon="5.73256">
        <ele>566.20001220703</ele>
        <time>2021-05-24T05:32:51.000Z</time>
      </trkpt>
      <trkpt lat="45.2097" lon="5.73256">
        <ele>565</ele>
        <time>2021-05-24T05:32:54.000Z</time>
      </trkpt>
      <trkpt lat="45.20968" lon="5.73257">
        <ele>564.79998779297</ele>
        <time>2021-05-24T05:32:55.000Z</time>
      </trkpt>
      <trkpt lat="45.20967" lon="5.73257">
        <ele>564.40002441406</ele>
        <time>2021-05-24T05:32:56.000Z</time>
      </trkpt>
      <trkpt lat="45.20964" lon="5.73258">
        <ele>563.79998779297</ele>
        <time>2021-05-24T05:32:58.000Z</time>
      </trkpt>
      <trkpt lat="45.2096" lon="5.73263">
        <ele>562.79998779297</ele>
        <time>2021-05-24T05:33:01.000Z</time>
      </trkpt>
      <trkpt lat="45.20959" lon="5.73265">
        <ele>562.40002441406</ele>
        <time>2021-05-24T05:33:02.000Z</time>
      </trkpt>
      <trkpt lat="45.20956" lon="5.73267">
        <ele>561.59997558594</ele>
        <time>2021-05-24T05:33:04.000Z</time>
      </trkpt>
      <trkpt lat="45.20952" lon="5.73269">
        <ele>561</ele>
        <time>2021-05-24T05:33:07.000Z</time>
      </trkpt>
      <trkpt lat="45.20949" lon="5.73269">
        <ele>559.79998779297</ele>
        <time>2021-05-24T05:33:09.000Z</time>
      </trkpt>
      <trkpt lat="45.20947" lon="5.73268">
        <ele>559.40002441406</ele>
        <time>2021-05-24T05:33:10.000Z</time>
      </trkpt>
      <trkpt lat="45.20945" lon="5.73267">
        <ele>559</ele>
        <time>2021-05-24T05:33:11.000Z</time>
      </trkpt>
      <trkpt lat="45.20943" lon="5.73266">
        <ele>558.79998779297</ele>
        <time>2021-05-24T05:33:12.000Z</time>
      </trkpt>
      <trkpt lat="45.20934" lon="5.73264">
        <ele>557.40002441406</ele>
        <time>2021-05-24T05:33:16.000Z</time>
      </trkpt>
      <trkpt lat="45.20932" lon="5.73265">
        <ele>557</ele>
        <time>2021-05-24T05:33:17.000Z</time>
      </trkpt>
      <trkpt lat="45.20928" lon="5.73266">
        <ele>556.20001220703</ele>
        <time>2021-05-24T05:33:19.000Z</time>
      </trkpt>
      <trkpt lat="45.20924" lon="5.73265">
        <ele>555.40002441406</ele>
        <time>2021-05-24T05:33:21.000Z</time>
      </trkpt>
      <trkpt lat="45.20923" lon="5.73264">
        <ele>555.20001220703</ele>
        <time>2021-05-24T05:33:22.000Z</time>
      </trkpt>
      <trkpt lat="45.20921" lon="5.73263">
        <ele>554.59997558594</ele>
        <time>2021-05-24T05:33:23.000Z</time>
      </trkpt>
      <trkpt lat="45.20916" lon="5.73262">
        <ele>553.59997558594</ele>
        <time>2021-05-24T05:33:27.000Z</time>
      </trkpt>
      <trkpt lat="45.20915" lon="5.73263">
        <ele>553.40002441406</ele>
        <time>2021-05-24T05:33:28.000Z</time>
      </trkpt>
      <trkpt lat="45.20916" lon="5.73262">
        <ele>553.20001220703</ele>
        <time>2021-05-24T05:33:29.000Z</time>
      </trkpt>
      <trkpt lat="45.20918" lon="5.73262">
        <ele>552.79998779297</ele>
        <time>2021-05-24T05:33:30.000Z</time>
      </trkpt>
      <trkpt lat="45.2092" lon="5.73263">
        <ele>551.79998779297</ele>
        <time>2021-05-24T05:33:32.000Z</time>
      </trkpt>
      <trkpt lat="45.20922" lon="5.73264">
        <ele>551.40002441406</ele>
        <time>2021-05-24T05:33:33.000Z</time>
      </trkpt>
      <trkpt lat="45.20925" lon="5.73267">
        <ele>551</ele>
        <time>2021-05-24T05:33:35.000Z</time>
      </trkpt>
      <trkpt lat="45.20927" lon="5.73268">
        <ele>550.59997558594</ele>
        <time>2021-05-24T05:33:36.000Z</time>
      </trkpt>
      <trkpt lat="45.20931" lon="5.7327">
        <ele>549.59997558594</ele>
        <time>2021-05-24T05:33:39.000Z</time>
      </trkpt>
      <trkpt lat="45.20932" lon="5.73271">
        <ele>549.20001220703</ele>
        <time>2021-05-24T05:33:40.000Z</time>
      </trkpt>
      <trkpt lat="45.20935" lon="5.73275">
        <ele>548.20001220703</ele>
        <time>2021-05-24T05:33:42.000Z</time>
      </trkpt>
      <trkpt lat="45.20936" lon="5.73277">
        <ele>548</ele>
        <time>2021-05-24T05:33:43.000Z</time>
      </trkpt>
      <trkpt lat="45.20937" lon="5.73278">
        <ele>547.59997558594</ele>
        <time>2021-05-24T05:33:44.000Z</time>
      </trkpt>
      <trkpt lat="45.2094" lon="5.7328">
        <ele>547</ele>
        <time>2021-05-24T05:33:46.000Z</time>
      </trkpt>
      <trkpt lat="45.20947" lon="5.73281">
        <ele>546</ele>
        <time>2021-05-24T05:33:50.000Z</time>
      </trkpt>
      <trkpt lat="45.20949" lon="5.73281">
        <ele>546</ele>
        <time>2021-05-24T05:33:51.000Z</time>
      </trkpt>
      <trkpt lat="45.2095" lon="5.73281">
        <ele>545.59997558594</ele>
        <time>2021-05-24T05:33:52.000Z</time>
      </trkpt>
      <trkpt lat="45.20954" lon="5.73282">
        <ele>544.59997558594</ele>
        <time>2021-05-24T05:33:54.000Z</time>
      </trkpt>
      <trkpt lat="45.20958" lon="5.73281">
        <ele>543.40002441406</ele>
        <time>2021-05-24T05:33:57.000Z</time>
      </trkpt>
      <trkpt lat="45.20961" lon="5.73282">
        <ele>542.59997558594</ele>
        <time>2021-05-24T05:33:59.000Z</time>
      </trkpt>
      <trkpt lat="45.20962" lon="5.73284">
        <ele>542.40002441406</ele>
        <time>2021-05-24T05:34:00.000Z</time>
      </trkpt>
      <trkpt lat="45.20963" lon="5.73286">
        <ele>542.20001220703</ele>
        <time>2021-05-24T05:34:01.000Z</time>
      </trkpt>
      <trkpt lat="45.20964" lon="5.73286">
        <ele>541.79998779297</ele>
        <time>2021-05-24T05:34:02.000Z</time>
      </trkpt>
      <trkpt lat="45.20965" lon="5.73287">
        <ele>541.40002441406</ele>
        <time>2021-05-24T05:34:03.000Z</time>
      </trkpt>
      <trkpt lat="45.2097" lon="5.73289">
        <ele>540.40002441406</ele>
        <time>2021-05-24T05:34:06.000Z</time>
      </trkpt>
      <trkpt lat="45.20972" lon="5.73289">
        <ele>540</ele>
        <time>2021-05-24T05:34:07.000Z</time>
      </trkpt>
      <trkpt lat="45.20974" lon="5.73291">
        <ele>539.59997558594</ele>
        <time>2021-05-24T05:34:09.000Z</time>
      </trkpt>
      <trkpt lat="45.20976" lon="5.73293">
        <ele>539</ele>
        <time>2021-05-24T05:34:11.000Z</time>
      </trkpt>
      <trkpt lat="45.2098" lon="5.73294">
        <ele>538</ele>
        <time>2021-05-24T05:34:13.000Z</time>
      </trkpt>
      <trkpt lat="45.20981" lon="5.73294">
        <ele>537.79998779297</ele>
        <time>2021-05-24T05:34:14.000Z</time>
      </trkpt>
      <trkpt lat="45.20983" lon="5.73296">
        <ele>537</ele>
        <time>2021-05-24T05:34:16.000Z</time>
      </trkpt>
      <trkpt lat="45.20983" lon="5.73297">
        <ele>536.59997558594</ele>
        <time>2021-05-24T05:34:17.000Z</time>
      </trkpt>
      <trkpt lat="45.20979" lon="5.733">
        <ele>535.59997558594</ele>
        <time>2021-05-24T05:34:21.000Z</time>
      </trkpt>
      <trkpt lat="45.20979" lon="5.733">
        <ele>535.20001220703</ele>
        <time>2021-05-24T05:34:23.000Z</time>
      </trkpt>
      <trkpt lat="45.20978" lon="5.73299">
        <ele>535</ele>
        <time>2021-05-24T05:34:24.000Z</time>
      </trkpt>
      <trkpt lat="45.20977" lon="5.73297">
        <ele>534.20001220703</ele>
        <time>2021-05-24T05:34:25.000Z</time>
      </trkpt>
      <trkpt lat="45.20975" lon="5.73298">
        <ele>533.79998779297</ele>
        <time>2021-05-24T05:34:26.000Z</time>
      </trkpt>
      <trkpt lat="45.20972" lon="5.733">
        <ele>533.20001220703</ele>
        <time>2021-05-24T05:34:28.000Z</time>
      </trkpt>
      <trkpt lat="45.20971" lon="5.73301">
        <ele>533</ele>
        <time>2021-05-24T05:34:29.000Z</time>
      </trkpt>
      <trkpt lat="45.20968" lon="5.73303">
        <ele>532.40002441406</ele>
        <time>2021-05-24T05:34:31.000Z</time>
      </trkpt>
      <trkpt lat="45.20967" lon="5.73305">
        <ele>532.20001220703</ele>
        <time>2021-05-24T05:34:32.000Z</time>
      </trkpt>
      <trkpt lat="45.20965" lon="5.73309">
        <ele>531.59997558594</ele>
        <time>2021-05-24T05:34:34.000Z</time>
      </trkpt>
      <trkpt lat="45.20965" lon="5.73311">
        <ele>531</ele>
        <time>2021-05-24T05:34:35.000Z</time>
      </trkpt>
      <trkpt lat="45.20958" lon="5.73313">
        <ele>529.79998779297</ele>
        <time>2021-05-24T05:34:39.000Z</time>
      </trkpt>
      <trkpt lat="45.20953" lon="5.73316">
        <ele>528.79998779297</ele>
        <time>2021-05-24T05:34:42.000Z</time>
      </trkpt>
      <trkpt lat="45.20949" lon="5.73317">
        <ele>528.20001220703</ele>
        <time>2021-05-24T05:34:44.000Z</time>
      </trkpt>
      <trkpt lat="45.20947" lon="5.73317">
        <ele>527.79998779297</ele>
        <time>2021-05-24T05:34:45.000Z</time>
      </trkpt>
      <trkpt lat="45.20945" lon="5.73317">
        <ele>527.59997558594</ele>
        <time>2021-05-24T05:34:46.000Z</time>
      </trkpt>
      <trkpt lat="45.20938" lon="5.73313">
        <ele>526.59997558594</ele>
        <time>2021-05-24T05:34:50.000Z</time>
      </trkpt>
      <trkpt lat="45.20936" lon="5.73313">
        <ele>526.20001220703</ele>
        <time>2021-05-24T05:34:51.000Z</time>
      </trkpt>
      <trkpt lat="45.20929" lon="5.73308">
        <ele>525</ele>
        <time>2021-05-24T05:34:54.000Z</time>
      </trkpt>
      <trkpt lat="45.20926" lon="5.73307">
        <ele>524.59997558594</ele>
        <time>2021-05-24T05:34:56.000Z</time>
      </trkpt>
      <trkpt lat="45.20925" lon="5.73307">
        <ele>524.20001220703</ele>
        <time>2021-05-24T05:34:57.000Z</time>
      </trkpt>
      <trkpt lat="45.20923" lon="5.73307">
        <ele>523.79998779297</ele>
        <time>2021-05-24T05:34:58.000Z</time>
      </trkpt>
      <trkpt lat="45.20922" lon="5.73306">
        <ele>523.20001220703</ele>
        <time>2021-05-24T05:34:59.000Z</time>
      </trkpt>
      <trkpt lat="45.20919" lon="5.73306">
        <ele>522.59997558594</ele>
        <time>2021-05-24T05:35:01.000Z</time>
      </trkpt>
      <trkpt lat="45.20915" lon="5.73307">
        <ele>522</ele>
        <time>2021-05-24T05:35:03.000Z</time>
      </trkpt>
      <trkpt lat="45.20912" lon="5.73309">
        <ele>521.40002441406</ele>
        <time>2021-05-24T05:35:05.000Z</time>
      </trkpt>
      <trkpt lat="45.20903" lon="5.73313">
        <ele>520</ele>
        <time>2021-05-24T05:35:09.000Z</time>
      </trkpt>
      <trkpt lat="45.209" lon="5.73312">
        <ele>519.40002441406</ele>
        <time>2021-05-24T05:35:11.000Z</time>
      </trkpt>
      <trkpt lat="45.20898" lon="5.73313">
        <ele>519</ele>
        <time>2021-05-24T05:35:13.000Z</time>
      </trkpt>
      <trkpt lat="45.20895" lon="5.73314">
        <ele>518.40002441406</ele>
        <time>2021-05-24T05:35:15.000Z</time>
      </trkpt>
      <trkpt lat="45.20892" lon="5.73315">
        <ele>517.79998779297</ele>
        <time>2021-05-24T05:35:17.000Z</time>
      </trkpt>
      <trkpt lat="45.20884" lon="5.73312">
        <ele>516.59997558594</ele>
        <time>2021-05-24T05:35:21.000Z</time>
      </trkpt>
      <trkpt lat="45.20874" lon="5.73312">
        <ele>515.40002441406</ele>
        <time>2021-05-24T05:35:25.000Z</time>
      </trkpt>
      <trkpt lat="45.20872" lon="5.73312">
        <ele>514.79998779297</ele>
        <time>2021-05-24T05:35:26.000Z</time>
      </trkpt>
      <trkpt lat="45.20868" lon="5.73311">
        <ele>514.20001220703</ele>
        <time>2021-05-24T05:35:28.000Z</time>
      </trkpt>
      <trkpt lat="45.20863" lon="5.7331">
        <ele>513.20001220703</ele>
        <time>2021-05-24T05:35:31.000Z</time>
      </trkpt>
      <trkpt lat="45.20858" lon="5.73309">
        <ele>512.59997558594</ele>
        <time>2021-05-24T05:35:33.000Z</time>
      </trkpt>
      <trkpt lat="45.20856" lon="5.73302">
        <ele>512.20001220703</ele>
        <time>2021-05-24T05:35:37.000Z</time>
      </trkpt>
      <trkpt lat="45.20855" lon="5.733">
        <ele>512.59997558594</ele>
        <time>2021-05-24T05:35:38.000Z</time>
      </trkpt>
      <trkpt lat="45.20854" lon="5.73297">
        <ele>512.79998779297</ele>
        <time>2021-05-24T05:35:39.000Z</time>
      </trkpt>
      <trkpt lat="45.20847" lon="5.73283">
        <ele>513.20001220703</ele>
        <time>2021-05-24T05:35:44.000Z</time>
      </trkpt>
      <trkpt lat="45.2084" lon="5.73265">
        <ele>513.40002441406</ele>
        <time>2021-05-24T05:35:51.000Z</time>
      </trkpt>
      <trkpt lat="45.20836" lon="5.73259">
        <ele>513.79998779297</ele>
        <time>2021-05-24T05:35:54.000Z</time>
      </trkpt>
      <trkpt lat="45.20832" lon="5.7325">
        <ele>513.79998779297</ele>
        <time>2021-05-24T05:35:58.000Z</time>
      </trkpt>
      <trkpt lat="45.20831" lon="5.73247">
        <ele>514.20001220703</ele>
        <time>2021-05-24T05:35:59.000Z</time>
      </trkpt>
      <trkpt lat="45.20829" lon="5.73245">
        <ele>514.20001220703</ele>
        <time>2021-05-24T05:36:00.000Z</time>
      </trkpt>
      <trkpt lat="45.20825" lon="5.73238">
        <ele>515</ele>
        <time>2021-05-24T05:36:04.000Z</time>
      </trkpt>
      <trkpt lat="45.20824" lon="5.73236">
        <ele>515.40002441406</ele>
        <time>2021-05-24T05:36:05.000Z</time>
      </trkpt>
      <trkpt lat="45.20823" lon="5.73234">
        <ele>515.59997558594</ele>
        <time>2021-05-24T05:36:06.000Z</time>
      </trkpt>
      <trkpt lat="45.20821" lon="5.7323">
        <ele>516.20001220703</ele>
        <time>2021-05-24T05:36:09.000Z</time>
      </trkpt>
      <trkpt lat="45.2082" lon="5.73225">
        <ele>516.79998779297</ele>
        <time>2021-05-24T05:36:11.000Z</time>
      </trkpt>
      <trkpt lat="45.20819" lon="5.73223">
        <ele>516.79998779297</ele>
        <time>2021-05-24T05:36:12.000Z</time>
      </trkpt>
      <trkpt lat="45.20818" lon="5.73218">
        <ele>517.40002441406</ele>
        <time>2021-05-24T05:36:14.000Z</time>
      </trkpt>
      <trkpt lat="45.20817" lon="5.73212">
        <ele>517.59997558594</ele>
        <time>2021-05-24T05:36:16.000Z</time>
      </trkpt>
      <trkpt lat="45.20815" lon="5.73206">
        <ele>517.79998779297</ele>
        <time>2021-05-24T05:36:19.000Z</time>
      </trkpt>
      <trkpt lat="45.20815" lon="5.73205">
        <ele>517.79998779297</ele>
        <time>2021-05-24T05:36:20.000Z</time>
      </trkpt>
      <trkpt lat="45.20814" lon="5.73205">
        <ele>518</ele>
        <time>2021-05-24T05:36:21.000Z</time>
      </trkpt>
      <trkpt lat="45.20812" lon="5.73202">
        <ele>518.20001220703</ele>
        <time>2021-05-24T05:36:23.000Z</time>
      </trkpt>
      <trkpt lat="45.20812" lon="5.73201">
        <ele>518.40002441406</ele>
        <time>2021-05-24T05:36:24.000Z</time>
      </trkpt>
      <trkpt lat="45.20807" lon="5.73196">
        <ele>518.79998779297</ele>
        <time>2021-05-24T05:36:28.000Z</time>
      </trkpt>
      <trkpt lat="45.20805" lon="5.73194">
        <ele>519.20001220703</ele>
        <time>2021-05-24T05:36:30.000Z</time>
      </trkpt>
      <trkpt lat="45.20803" lon="5.73193">
        <ele>519.40002441406</ele>
        <time>2021-05-24T05:36:31.000Z</time>
      </trkpt>
      <trkpt lat="45.20802" lon="5.73192">
        <ele>519.40002441406</ele>
        <time>2021-05-24T05:36:32.000Z</time>
      </trkpt>
      <trkpt lat="45.208" lon="5.73185">
        <ele>520</ele>
        <time>2021-05-24T05:36:35.000Z</time>
      </trkpt>
      <trkpt lat="45.20798" lon="5.73183">
        <ele>520.20001220703</ele>
        <time>2021-05-24T05:36:36.000Z</time>
      </trkpt>
      <trkpt lat="45.20797" lon="5.7318">
        <ele>520.59997558594</ele>
        <time>2021-05-24T05:36:37.000Z</time>
      </trkpt>
      <trkpt lat="45.20795" lon="5.73175">
        <ele>521.20001220703</ele>
        <time>2021-05-24T05:36:39.000Z</time>
      </trkpt>
      <trkpt lat="45.20794" lon="5.73173">
        <ele>521.40002441406</ele>
        <time>2021-05-24T05:36:40.000Z</time>
      </trkpt>
      <trkpt lat="45.20791" lon="5.73171">
        <ele>522</ele>
        <time>2021-05-24T05:36:42.000Z</time>
      </trkpt>
      <trkpt lat="45.20791" lon="5.73169">
        <ele>522.20001220703</ele>
        <time>2021-05-24T05:36:43.000Z</time>
      </trkpt>
      <trkpt lat="45.20792" lon="5.73162">
        <ele>523.20001220703</ele>
        <time>2021-05-24T05:36:46.000Z</time>
      </trkpt>
      <trkpt lat="45.20792" lon="5.7316">
        <ele>523.59997558594</ele>
        <time>2021-05-24T05:36:47.000Z</time>
      </trkpt>
      <trkpt lat="45.20791" lon="5.73158">
        <ele>524.20001220703</ele>
        <time>2021-05-24T05:36:49.000Z</time>
      </trkpt>
      <trkpt lat="45.2079" lon="5.73156">
        <ele>525</ele>
        <time>2021-05-24T05:36:51.000Z</time>
      </trkpt>
      <trkpt lat="45.2079" lon="5.73154">
        <ele>525.59997558594</ele>
        <time>2021-05-24T05:36:53.000Z</time>
      </trkpt>
      <trkpt lat="45.20789" lon="5.73153">
        <ele>526</ele>
        <time>2021-05-24T05:36:54.000Z</time>
      </trkpt>
      <trkpt lat="45.20786" lon="5.73152">
        <ele>527.20001220703</ele>
        <time>2021-05-24T05:36:57.000Z</time>
      </trkpt>
      <trkpt lat="45.20786" lon="5.73149">
        <ele>527.79998779297</ele>
        <time>2021-05-24T05:36:59.000Z</time>
      </trkpt>
      <trkpt lat="45.20785" lon="5.73147">
        <ele>528</ele>
        <time>2021-05-24T05:37:00.000Z</time>
      </trkpt>
      <trkpt lat="45.20785" lon="5.73145">
        <ele>528.20001220703</ele>
        <time>2021-05-24T05:37:01.000Z</time>
      </trkpt>
      <trkpt lat="45.20782" lon="5.73141">
        <ele>528.40002441406</ele>
        <time>2021-05-24T05:37:03.000Z</time>
      </trkpt>
      <trkpt lat="45.2078" lon="5.73139">
        <ele>528.59997558594</ele>
        <time>2021-05-24T05:37:04.000Z</time>
      </trkpt>
      <trkpt lat="45.20776" lon="5.73138">
        <ele>529</ele>
        <time>2021-05-24T05:37:07.000Z</time>
      </trkpt>
      <trkpt lat="45.20775" lon="5.73137">
        <ele>529.20001220703</ele>
        <time>2021-05-24T05:37:08.000Z</time>
      </trkpt>
      <trkpt lat="45.20774" lon="5.73135">
        <ele>529.40002441406</ele>
        <time>2021-05-24T05:37:10.000Z</time>
      </trkpt>
      <trkpt lat="45.20773" lon="5.73134">
        <ele>529.79998779297</ele>
        <time>2021-05-24T05:37:11.000Z</time>
      </trkpt>
      <trkpt lat="45.20772" lon="5.73132">
        <ele>530</ele>
        <time>2021-05-24T05:37:12.000Z</time>
      </trkpt>
      <trkpt lat="45.20767" lon="5.73128">
        <ele>530.20001220703</ele>
        <time>2021-05-24T05:37:16.000Z</time>
      </trkpt>
      <trkpt lat="45.20764" lon="5.73127">
        <ele>530.20001220703</ele>
        <time>2021-05-24T05:37:18.000Z</time>
      </trkpt>
      <trkpt lat="45.20762" lon="5.73126">
        <ele>530.40002441406</ele>
        <time>2021-05-24T05:37:20.000Z</time>
      </trkpt>
      <trkpt lat="45.20761" lon="5.73125">
        <ele>530.40002441406</ele>
        <time>2021-05-24T05:37:21.000Z</time>
      </trkpt>
      <trkpt lat="45.2076" lon="5.73123">
        <ele>530.59997558594</ele>
        <time>2021-05-24T05:37:22.000Z</time>
      </trkpt>
      <trkpt lat="45.20755" lon="5.73114">
        <ele>531</ele>
        <time>2021-05-24T05:37:26.000Z</time>
      </trkpt>
      <trkpt lat="45.20752" lon="5.7311">
        <ele>531</ele>
        <time>2021-05-24T05:37:28.000Z</time>
      </trkpt>
      <trkpt lat="45.20748" lon="5.73102">
        <ele>531.20001220703</ele>
        <time>2021-05-24T05:37:32.000Z</time>
      </trkpt>
      <trkpt lat="45.20744" lon="5.73097">
        <ele>530.59997558594</ele>
        <time>2021-05-24T05:37:35.000Z</time>
      </trkpt>
      <trkpt lat="45.20741" lon="5.73094">
        <ele>530.40002441406</ele>
        <time>2021-05-24T05:37:37.000Z</time>
      </trkpt>
      <trkpt lat="45.20735" lon="5.73086">
        <ele>530.40002441406</ele>
        <time>2021-05-24T05:37:42.000Z</time>
      </trkpt>
      <trkpt lat="45.20734" lon="5.73084">
        <ele>530.59997558594</ele>
        <time>2021-05-24T05:37:43.000Z</time>
      </trkpt>
      <trkpt lat="45.20724" lon="5.73073">
        <ele>531</ele>
        <time>2021-05-24T05:37:49.000Z</time>
      </trkpt>
      <trkpt lat="45.20721" lon="5.73068">
        <ele>531</ele>
        <time>2021-05-24T05:37:51.000Z</time>
      </trkpt>
      <trkpt lat="45.20719" lon="5.73066">
        <ele>531</ele>
        <time>2021-05-24T05:37:52.000Z</time>
      </trkpt>
      <trkpt lat="45.20716" lon="5.73063">
        <ele>531.20001220703</ele>
        <time>2021-05-24T05:37:54.000Z</time>
      </trkpt>
      <trkpt lat="45.20714" lon="5.73061">
        <ele>531.20001220703</ele>
        <time>2021-05-24T05:37:55.000Z</time>
      </trkpt>
      <trkpt lat="45.20709" lon="5.73056">
        <ele>531</ele>
        <time>2021-05-24T05:37:58.000Z</time>
      </trkpt>
      <trkpt lat="45.20705" lon="5.73052">
        <ele>530.59997558594</ele>
        <time>2021-05-24T05:38:00.000Z</time>
      </trkpt>
      <trkpt lat="45.20701" lon="5.73048">
        <ele>530.20001220703</ele>
        <time>2021-05-24T05:38:03.000Z</time>
      </trkpt>
      <trkpt lat="45.20698" lon="5.73044">
        <ele>530</ele>
        <time>2021-05-24T05:38:05.000Z</time>
      </trkpt>
      <trkpt lat="45.20691" lon="5.73042">
        <ele>529.20001220703</ele>
        <time>2021-05-24T05:38:09.000Z</time>
      </trkpt>
      <trkpt lat="45.20687" lon="5.73042">
        <ele>529</ele>
        <time>2021-05-24T05:38:10.000Z</time>
      </trkpt>
      <trkpt lat="45.20682" lon="5.73035">
        <ele>528.20001220703</ele>
        <time>2021-05-24T05:38:13.000Z</time>
      </trkpt>
      <trkpt lat="45.20675" lon="5.73026">
        <ele>527.59997558594</ele>
        <time>2021-05-24T05:38:18.000Z</time>
      </trkpt>
      <trkpt lat="45.20661" lon="5.73009">
        <ele>527.79998779297</ele>
        <time>2021-05-24T05:38:25.000Z</time>
      </trkpt>
      <trkpt lat="45.20659" lon="5.73007">
        <ele>527.79998779297</ele>
        <time>2021-05-24T05:38:26.000Z</time>
      </trkpt>
      <trkpt lat="45.20648" lon="5.72999">
        <ele>527.79998779297</ele>
        <time>2021-05-24T05:38:31.000Z</time>
      </trkpt>
      <trkpt lat="45.20639" lon="5.72994">
        <ele>527.40002441406</ele>
        <time>2021-05-24T05:38:35.000Z</time>
      </trkpt>
      <trkpt lat="45.20634" lon="5.72989">
        <ele>527.40002441406</ele>
        <time>2021-05-24T05:38:38.000Z</time>
      </trkpt>
      <trkpt lat="45.20631" lon="5.72983">
        <ele>527.59997558594</ele>
        <time>2021-05-24T05:38:41.000Z</time>
      </trkpt>
      <trkpt lat="45.20619" lon="5.72975">
        <ele>527.79998779297</ele>
        <time>2021-05-24T05:38:47.000Z</time>
      </trkpt>
      <trkpt lat="45.20616" lon="5.72973">
        <ele>527.59997558594</ele>
        <time>2021-05-24T05:38:49.000Z</time>
      </trkpt>
      <trkpt lat="45.20613" lon="5.7297">
        <ele>527.20001220703</ele>
        <time>2021-05-24T05:38:51.000Z</time>
      </trkpt>
      <trkpt lat="45.20609" lon="5.72967">
        <ele>527.20001220703</ele>
        <time>2021-05-24T05:38:53.000Z</time>
      </trkpt>
      <trkpt lat="45.20608" lon="5.72966">
        <ele>527</ele>
        <time>2021-05-24T05:38:54.000Z</time>
      </trkpt>
      <trkpt lat="45.20605" lon="5.72963">
        <ele>527.20001220703</ele>
        <time>2021-05-24T05:38:56.000Z</time>
      </trkpt>
      <trkpt lat="45.206" lon="5.72957">
        <ele>527.40002441406</ele>
        <time>2021-05-24T05:38:59.000Z</time>
      </trkpt>
      <trkpt lat="45.20593" lon="5.7295">
        <ele>527.40002441406</ele>
        <time>2021-05-24T05:39:03.000Z</time>
      </trkpt>
      <trkpt lat="45.20587" lon="5.72946">
        <ele>527.59997558594</ele>
        <time>2021-05-24T05:39:06.000Z</time>
      </trkpt>
      <trkpt lat="45.20586" lon="5.72945">
        <ele>527.79998779297</ele>
        <time>2021-05-24T05:39:07.000Z</time>
      </trkpt>
      <trkpt lat="45.20584" lon="5.72943">
        <ele>527.79998779297</ele>
        <time>2021-05-24T05:39:08.000Z</time>
      </trkpt>
      <trkpt lat="45.20577" lon="5.72939">
        <ele>528</ele>
        <time>2021-05-24T05:39:12.000Z</time>
      </trkpt>
      <trkpt lat="45.20573" lon="5.72936">
        <ele>528.20001220703</ele>
        <time>2021-05-24T05:39:14.000Z</time>
      </trkpt>
      <trkpt lat="45.20568" lon="5.72932">
        <ele>528.20001220703</ele>
        <time>2021-05-24T05:39:17.000Z</time>
      </trkpt>
      <trkpt lat="45.20566" lon="5.72931">
        <ele>528</ele>
        <time>2021-05-24T05:39:18.000Z</time>
      </trkpt>
      <trkpt lat="45.20558" lon="5.72926">
        <ele>528.40002441406</ele>
        <time>2021-05-24T05:39:23.000Z</time>
      </trkpt>
      <trkpt lat="45.20557" lon="5.72924">
        <ele>528.40002441406</ele>
        <time>2021-05-24T05:39:24.000Z</time>
      </trkpt>
      <trkpt lat="45.20554" lon="5.72923">
        <ele>528.79998779297</ele>
        <time>2021-05-24T05:39:25.000Z</time>
      </trkpt>
      <trkpt lat="45.20548" lon="5.7292">
        <ele>529</ele>
        <time>2021-05-24T05:39:28.000Z</time>
      </trkpt>
      <trkpt lat="45.20541" lon="5.72914">
        <ele>529.20001220703</ele>
        <time>2021-05-24T05:39:32.000Z</time>
      </trkpt>
      <trkpt lat="45.20535" lon="5.72911">
        <ele>529.20001220703</ele>
        <time>2021-05-24T05:39:35.000Z</time>
      </trkpt>
      <trkpt lat="45.20533" lon="5.72909">
        <ele>529.40002441406</ele>
        <time>2021-05-24T05:39:36.000Z</time>
      </trkpt>
      <trkpt lat="45.20525" lon="5.72905">
        <ele>529.40002441406</ele>
        <time>2021-05-24T05:39:40.000Z</time>
      </trkpt>
      <trkpt lat="45.20523" lon="5.72903">
        <ele>529.59997558594</ele>
        <time>2021-05-24T05:39:41.000Z</time>
      </trkpt>
      <trkpt lat="45.2052" lon="5.72898">
        <ele>530.20001220703</ele>
        <time>2021-05-24T05:39:43.000Z</time>
      </trkpt>
      <trkpt lat="45.20519" lon="5.72895">
        <ele>530.40002441406</ele>
        <time>2021-05-24T05:39:44.000Z</time>
      </trkpt>
      <trkpt lat="45.20513" lon="5.72892">
        <ele>531.20001220703</ele>
        <time>2021-05-24T05:39:47.000Z</time>
      </trkpt>
      <trkpt lat="45.2051" lon="5.72889">
        <ele>531.79998779297</ele>
        <time>2021-05-24T05:39:49.000Z</time>
      </trkpt>
      <trkpt lat="45.20509" lon="5.72888">
        <ele>531.79998779297</ele>
        <time>2021-05-24T05:39:50.000Z</time>
      </trkpt>
      <trkpt lat="45.20504" lon="5.72886">
        <ele>532.40002441406</ele>
        <time>2021-05-24T05:39:53.000Z</time>
      </trkpt>
      <trkpt lat="45.20502" lon="5.72885">
        <ele>532.59997558594</ele>
        <time>2021-05-24T05:39:55.000Z</time>
      </trkpt>
      <trkpt lat="45.20496" lon="5.7288">
        <ele>532.59997558594</ele>
        <time>2021-05-24T05:39:59.000Z</time>
      </trkpt>
      <trkpt lat="45.20493" lon="5.72875">
        <ele>532.79998779297</ele>
        <time>2021-05-24T05:40:01.000Z</time>
      </trkpt>
      <trkpt lat="45.20488" lon="5.72871">
        <ele>533</ele>
        <time>2021-05-24T05:40:04.000Z</time>
      </trkpt>
      <trkpt lat="45.20481" lon="5.72866">
        <ele>533</ele>
        <time>2021-05-24T05:40:07.000Z</time>
      </trkpt>
      <trkpt lat="45.20478" lon="5.72863">
        <ele>533</ele>
        <time>2021-05-24T05:40:09.000Z</time>
      </trkpt>
      <trkpt lat="45.20467" lon="5.72854">
        <ele>532</ele>
        <time>2021-05-24T05:40:15.000Z</time>
      </trkpt>
      <trkpt lat="45.20458" lon="5.72848">
        <ele>531.20001220703</ele>
        <time>2021-05-24T05:40:19.000Z</time>
      </trkpt>
      <trkpt lat="45.20447" lon="5.72839">
        <ele>530.40002441406</ele>
        <time>2021-05-24T05:40:24.000Z</time>
      </trkpt>
      <trkpt lat="45.20442" lon="5.72832">
        <ele>530.20001220703</ele>
        <time>2021-05-24T05:40:27.000Z</time>
      </trkpt>
      <trkpt lat="45.20436" lon="5.72824">
        <ele>529.79998779297</ele>
        <time>2021-05-24T05:40:30.000Z</time>
      </trkpt>
      <trkpt lat="45.2043" lon="5.7282">
        <ele>529.40002441406</ele>
        <time>2021-05-24T05:40:33.000Z</time>
      </trkpt>
      <trkpt lat="45.20428" lon="5.72817">
        <ele>529</ele>
        <time>2021-05-24T05:40:34.000Z</time>
      </trkpt>
      <trkpt lat="45.20424" lon="5.72812">
        <ele>528.79998779297</ele>
        <time>2021-05-24T05:40:36.000Z</time>
      </trkpt>
      <trkpt lat="45.20419" lon="5.72809">
        <ele>528.20001220703</ele>
        <time>2021-05-24T05:40:38.000Z</time>
      </trkpt>
      <trkpt lat="45.20417" lon="5.72807">
        <ele>527.59997558594</ele>
        <time>2021-05-24T05:40:39.000Z</time>
      </trkpt>
      <trkpt lat="45.20416" lon="5.72804">
        <ele>527.40002441406</ele>
        <time>2021-05-24T05:40:40.000Z</time>
      </trkpt>
      <trkpt lat="45.20415" lon="5.72801">
        <ele>527.20001220703</ele>
        <time>2021-05-24T05:40:41.000Z</time>
      </trkpt>
      <trkpt lat="45.20412" lon="5.72797">
        <ele>526.59997558594</ele>
        <time>2021-05-24T05:40:43.000Z</time>
      </trkpt>
      <trkpt lat="45.20407" lon="5.72796">
        <ele>526.20001220703</ele>
        <time>2021-05-24T05:40:45.000Z</time>
      </trkpt>
      <trkpt lat="45.20398" lon="5.72791">
        <ele>525.40002441406</ele>
        <time>2021-05-24T05:40:49.000Z</time>
      </trkpt>
      <trkpt lat="45.20391" lon="5.72787">
        <ele>524.59997558594</ele>
        <time>2021-05-24T05:40:52.000Z</time>
      </trkpt>
      <trkpt lat="45.20388" lon="5.72785">
        <ele>524.40002441406</ele>
        <time>2021-05-24T05:40:53.000Z</time>
      </trkpt>
      <trkpt lat="45.20386" lon="5.72783">
        <ele>524.40002441406</ele>
        <time>2021-05-24T05:40:54.000Z</time>
      </trkpt>
      <trkpt lat="45.2038" lon="5.72778">
        <ele>523.59997558594</ele>
        <time>2021-05-24T05:40:57.000Z</time>
      </trkpt>
      <trkpt lat="45.20378" lon="5.72776">
        <ele>523.20001220703</ele>
        <time>2021-05-24T05:40:58.000Z</time>
      </trkpt>
      <trkpt lat="45.20372" lon="5.72771">
        <ele>522.20001220703</ele>
        <time>2021-05-24T05:41:01.000Z</time>
      </trkpt>
      <trkpt lat="45.20369" lon="5.7277">
        <ele>521.79998779297</ele>
        <time>2021-05-24T05:41:02.000Z</time>
      </trkpt>
      <trkpt lat="45.20365" lon="5.72768">
        <ele>521.59997558594</ele>
        <time>2021-05-24T05:41:04.000Z</time>
      </trkpt>
      <trkpt lat="45.20364" lon="5.72767">
        <ele>521.40002441406</ele>
        <time>2021-05-24T05:41:05.000Z</time>
      </trkpt>
      <trkpt lat="45.20362" lon="5.72765">
        <ele>521.20001220703</ele>
        <time>2021-05-24T05:41:06.000Z</time>
      </trkpt>
      <trkpt lat="45.20359" lon="5.72761">
        <ele>520.59997558594</ele>
        <time>2021-05-24T05:41:08.000Z</time>
      </trkpt>
      <trkpt lat="45.20354" lon="5.72757">
        <ele>519.59997558594</ele>
        <time>2021-05-24T05:41:11.000Z</time>
      </trkpt>
      <trkpt lat="45.20349" lon="5.72752">
        <ele>519</ele>
        <time>2021-05-24T05:41:14.000Z</time>
      </trkpt>
      <trkpt lat="45.20347" lon="5.7275">
        <ele>518.79998779297</ele>
        <time>2021-05-24T05:41:15.000Z</time>
      </trkpt>
      <trkpt lat="45.20346" lon="5.72748">
        <ele>518.59997558594</ele>
        <time>2021-05-24T05:41:16.000Z</time>
      </trkpt>
      <trkpt lat="45.20338" lon="5.72743">
        <ele>517.79998779297</ele>
        <time>2021-05-24T05:41:20.000Z</time>
      </trkpt>
      <trkpt lat="45.20337" lon="5.72741">
        <ele>517.59997558594</ele>
        <time>2021-05-24T05:41:21.000Z</time>
      </trkpt>
      <trkpt lat="45.20325" lon="5.72727">
        <ele>517.59997558594</ele>
        <time>2021-05-24T05:41:27.000Z</time>
      </trkpt>
      <trkpt lat="45.20323" lon="5.72724">
        <ele>517.40002441406</ele>
        <time>2021-05-24T05:41:28.000Z</time>
      </trkpt>
      <trkpt lat="45.20309" lon="5.72714">
        <ele>516.79998779297</ele>
        <time>2021-05-24T05:41:34.000Z</time>
      </trkpt>
      <trkpt lat="45.20302" lon="5.72711">
        <ele>516.40002441406</ele>
        <time>2021-05-24T05:41:37.000Z</time>
      </trkpt>
      <trkpt lat="45.20297" lon="5.72708">
        <ele>516</ele>
        <time>2021-05-24T05:41:39.000Z</time>
      </trkpt>
      <trkpt lat="45.20293" lon="5.72706">
        <ele>515.40002441406</ele>
        <time>2021-05-24T05:41:41.000Z</time>
      </trkpt>
      <trkpt lat="45.20286" lon="5.727">
        <ele>514.40002441406</ele>
        <time>2021-05-24T05:41:44.000Z</time>
      </trkpt>
      <trkpt lat="45.20284" lon="5.72698">
        <ele>514.20001220703</ele>
        <time>2021-05-24T05:41:45.000Z</time>
      </trkpt>
      <trkpt lat="45.20276" lon="5.7269">
        <ele>513.20001220703</ele>
        <time>2021-05-24T05:41:49.000Z</time>
      </trkpt>
      <trkpt lat="45.20275" lon="5.72688">
        <ele>513</ele>
        <time>2021-05-24T05:41:50.000Z</time>
      </trkpt>
      <trkpt lat="45.20269" lon="5.72678">
        <ele>513.79998779297</ele>
        <time>2021-05-24T05:41:55.000Z</time>
      </trkpt>
      <trkpt lat="45.20268" lon="5.72676">
        <ele>514.20001220703</ele>
        <time>2021-05-24T05:41:56.000Z</time>
      </trkpt>
      <trkpt lat="45.20262" lon="5.72672">
        <ele>515.40002441406</ele>
        <time>2021-05-24T05:41:59.000Z</time>
      </trkpt>
      <trkpt lat="45.20259" lon="5.72669">
        <ele>516</ele>
        <time>2021-05-24T05:42:01.000Z</time>
      </trkpt>
      <trkpt lat="45.20257" lon="5.72665">
        <ele>516.40002441406</ele>
        <time>2021-05-24T05:42:03.000Z</time>
      </trkpt>
      <trkpt lat="45.20255" lon="5.72664">
        <ele>516.59997558594</ele>
        <time>2021-05-24T05:42:04.000Z</time>
      </trkpt>
      <trkpt lat="45.20252" lon="5.72661">
        <ele>517.20001220703</ele>
        <time>2021-05-24T05:42:06.000Z</time>
      </trkpt>
      <trkpt lat="45.2025" lon="5.72658">
        <ele>517.79998779297</ele>
        <time>2021-05-24T05:42:08.000Z</time>
      </trkpt>
      <trkpt lat="45.20247" lon="5.72655">
        <ele>518.59997558594</ele>
        <time>2021-05-24T05:42:10.000Z</time>
      </trkpt>
      <trkpt lat="45.20246" lon="5.72654">
        <ele>518.79998779297</ele>
        <time>2021-05-24T05:42:11.000Z</time>
      </trkpt>
      <trkpt lat="45.20244" lon="5.72653">
        <ele>519.40002441406</ele>
        <time>2021-05-24T05:42:13.000Z</time>
      </trkpt>
      <trkpt lat="45.20242" lon="5.72652">
        <ele>519.79998779297</ele>
        <time>2021-05-24T05:42:14.000Z</time>
      </trkpt>
      <trkpt lat="45.20239" lon="5.72647">
        <ele>520.59997558594</ele>
        <time>2021-05-24T05:42:17.000Z</time>
      </trkpt>
      <trkpt lat="45.20236" lon="5.72644">
        <ele>521</ele>
        <time>2021-05-24T05:42:19.000Z</time>
      </trkpt>
      <trkpt lat="45.20232" lon="5.72642">
        <ele>521.40002441406</ele>
        <time>2021-05-24T05:42:21.000Z</time>
      </trkpt>
      <trkpt lat="45.20222" lon="5.72625">
        <ele>522</ele>
        <time>2021-05-24T05:42:29.000Z</time>
      </trkpt>
      <trkpt lat="45.20221" lon="5.72623">
        <ele>522</ele>
        <time>2021-05-24T05:42:30.000Z</time>
      </trkpt>
      <trkpt lat="45.20219" lon="5.7262">
        <ele>522.40002441406</ele>
        <time>2021-05-24T05:42:32.000Z</time>
      </trkpt>
      <trkpt lat="45.20217" lon="5.72613">
        <ele>523</ele>
        <time>2021-05-24T05:42:35.000Z</time>
      </trkpt>
      <trkpt lat="45.20216" lon="5.72612">
        <ele>523.20001220703</ele>
        <time>2021-05-24T05:42:36.000Z</time>
      </trkpt>
      <trkpt lat="45.20212" lon="5.72606">
        <ele>524.40002441406</ele>
        <time>2021-05-24T05:42:40.000Z</time>
      </trkpt>
      <trkpt lat="45.2021" lon="5.72604">
        <ele>524.79998779297</ele>
        <time>2021-05-24T05:42:42.000Z</time>
      </trkpt>
      <trkpt lat="45.20203" lon="5.72596">
        <ele>525.40002441406</ele>
        <time>2021-05-24T05:42:48.000Z</time>
      </trkpt>
      <trkpt lat="45.20201" lon="5.72595">
        <ele>525.59997558594</ele>
        <time>2021-05-24T05:42:49.000Z</time>
      </trkpt>
      <trkpt lat="45.202" lon="5.72595">
        <ele>525.79998779297</ele>
        <time>2021-05-24T05:42:50.000Z</time>
      </trkpt>
      <trkpt lat="45.20198" lon="5.72594">
        <ele>526</ele>
        <time>2021-05-24T05:42:51.000Z</time>
      </trkpt>
      <trkpt lat="45.20196" lon="5.72591">
        <ele>526.20001220703</ele>
        <time>2021-05-24T05:42:53.000Z</time>
      </trkpt>
      <trkpt lat="45.20196" lon="5.72589">
        <ele>526.59997558594</ele>
        <time>2021-05-24T05:42:54.000Z</time>
      </trkpt>
      <trkpt lat="45.20191" lon="5.72583">
        <ele>527</ele>
        <time>2021-05-24T05:42:58.000Z</time>
      </trkpt>
      <trkpt lat="45.20187" lon="5.7258">
        <ele>526.79998779297</ele>
        <time>2021-05-24T05:43:00.000Z</time>
      </trkpt>
      <trkpt lat="45.20177" lon="5.72572">
        <ele>525.40002441406</ele>
        <time>2021-05-24T05:43:05.000Z</time>
      </trkpt>
      <trkpt lat="45.20175" lon="5.7257">
        <ele>525</ele>
        <time>2021-05-24T05:43:06.000Z</time>
      </trkpt>
      <trkpt lat="45.20168" lon="5.72567">
        <ele>524</ele>
        <time>2021-05-24T05:43:09.000Z</time>
      </trkpt>
      <trkpt lat="45.20162" lon="5.72565">
        <ele>523</ele>
        <time>2021-05-24T05:43:12.000Z</time>
      </trkpt>
      <trkpt lat="45.20159" lon="5.72564">
        <ele>523</ele>
        <time>2021-05-24T05:43:13.000Z</time>
      </trkpt>
      <trkpt lat="45.2015" lon="5.72563">
        <ele>521.79998779297</ele>
        <time>2021-05-24T05:43:17.000Z</time>
      </trkpt>
      <trkpt lat="45.20141" lon="5.7256">
        <ele>520.79998779297</ele>
        <time>2021-05-24T05:43:21.000Z</time>
      </trkpt>
      <trkpt lat="45.20139" lon="5.7256">
        <ele>520.40002441406</ele>
        <time>2021-05-24T05:43:22.000Z</time>
      </trkpt>
      <trkpt lat="45.20131" lon="5.72557">
        <ele>519.20001220703</ele>
        <time>2021-05-24T05:43:26.000Z</time>
      </trkpt>
      <trkpt lat="45.20123" lon="5.72555">
        <ele>518</ele>
        <time>2021-05-24T05:43:30.000Z</time>
      </trkpt>
      <trkpt lat="45.20116" lon="5.72554">
        <ele>516.79998779297</ele>
        <time>2021-05-24T05:43:34.000Z</time>
      </trkpt>
      <trkpt lat="45.20112" lon="5.72554">
        <ele>516.20001220703</ele>
        <time>2021-05-24T05:43:36.000Z</time>
      </trkpt>
      <trkpt lat="45.20109" lon="5.72552">
        <ele>515.79998779297</ele>
        <time>2021-05-24T05:43:38.000Z</time>
      </trkpt>
      <trkpt lat="45.20107" lon="5.72552">
        <ele>514.40002441406</ele>
        <time>2021-05-24T05:43:40.000Z</time>
      </trkpt>
      <trkpt lat="45.20105" lon="5.72552">
        <ele>514.20001220703</ele>
        <time>2021-05-24T05:43:41.000Z</time>
      </trkpt>
      <trkpt lat="45.201" lon="5.72552">
        <ele>513.20001220703</ele>
        <time>2021-05-24T05:43:44.000Z</time>
      </trkpt>
      <trkpt lat="45.20093" lon="5.7255">
        <ele>511.39999389648</ele>
        <time>2021-05-24T05:43:47.000Z</time>
      </trkpt>
      <trkpt lat="45.20091" lon="5.72549">
        <ele>510.79998779297</ele>
        <time>2021-05-24T05:43:48.000Z</time>
      </trkpt>
      <trkpt lat="45.20087" lon="5.7255">
        <ele>509.79998779297</ele>
        <time>2021-05-24T05:43:50.000Z</time>
      </trkpt>
      <trkpt lat="45.20082" lon="5.72553">
        <ele>509.20001220703</ele>
        <time>2021-05-24T05:43:52.000Z</time>
      </trkpt>
      <trkpt lat="45.20078" lon="5.72556">
        <ele>508.39999389648</ele>
        <time>2021-05-24T05:43:55.000Z</time>
      </trkpt>
      <trkpt lat="45.20075" lon="5.72558">
        <ele>508</ele>
        <time>2021-05-24T05:43:58.000Z</time>
      </trkpt>
      <trkpt lat="45.20075" lon="5.72557">
        <ele>507.20001220703</ele>
        <time>2021-05-24T05:43:59.000Z</time>
      </trkpt>
      <trkpt lat="45.20074" lon="5.72557">
        <ele>506.79998779297</ele>
        <time>2021-05-24T05:44:00.000Z</time>
      </trkpt>
      <trkpt lat="45.20071" lon="5.72556">
        <ele>506.39999389648</ele>
        <time>2021-05-24T05:44:04.000Z</time>
      </trkpt>
      <trkpt lat="45.20071" lon="5.72557">
        <ele>506.39999389648</ele>
        <time>2021-05-24T05:44:10.000Z</time>
      </trkpt>
      <trkpt lat="45.20071" lon="5.72553">
        <ele>506.39999389648</ele>
        <time>2021-05-24T05:44:16.000Z</time>
      </trkpt>
      <trkpt lat="45.20072" lon="5.72547">
        <ele>507.39999389648</ele>
        <time>2021-05-24T05:44:19.000Z</time>
      </trkpt>
      <trkpt lat="45.20071" lon="5.72541">
        <ele>507.79998779297</ele>
        <time>2021-05-24T05:44:21.000Z</time>
      </trkpt>
      <trkpt lat="45.2007" lon="5.72532">
        <ele>508.20001220703</ele>
        <time>2021-05-24T05:44:24.000Z</time>
      </trkpt>
      <trkpt lat="45.2007" lon="5.72527">
        <ele>508.20001220703</ele>
        <time>2021-05-24T05:44:25.000Z</time>
      </trkpt>
      <trkpt lat="45.2007" lon="5.72523">
        <ele>508.20001220703</ele>
        <time>2021-05-24T05:44:26.000Z</time>
      </trkpt>
      <trkpt lat="45.20074" lon="5.72497">
        <ele>507.79998779297</ele>
        <time>2021-05-24T05:44:33.000Z</time>
      </trkpt>
      <trkpt lat="45.20075" lon="5.72489">
        <ele>507.20001220703</ele>
        <time>2021-05-24T05:44:35.000Z</time>
      </trkpt>
      <trkpt lat="45.20076" lon="5.72468">
        <ele>506.60000610352</ele>
        <time>2021-05-24T05:44:41.000Z</time>
      </trkpt>
      <trkpt lat="45.20076" lon="5.72464">
        <ele>506.20001220703</ele>
        <time>2021-05-24T05:44:42.000Z</time>
      </trkpt>
      <trkpt lat="45.20072" lon="5.72448">
        <ele>505.20001220703</ele>
        <time>2021-05-24T05:44:47.000Z</time>
      </trkpt>
      <trkpt lat="45.20071" lon="5.72447">
        <ele>504.60000610352</ele>
        <time>2021-05-24T05:44:48.000Z</time>
      </trkpt>
      <trkpt lat="45.20063" lon="5.7244">
        <ele>503.60000610352</ele>
        <time>2021-05-24T05:44:51.000Z</time>
      </trkpt>
      <trkpt lat="45.20061" lon="5.72439">
        <ele>503.20001220703</ele>
        <time>2021-05-24T05:44:52.000Z</time>
      </trkpt>
      <trkpt lat="45.20053" lon="5.72437">
        <ele>502.39999389648</ele>
        <time>2021-05-24T05:44:55.000Z</time>
      </trkpt>
      <trkpt lat="45.20046" lon="5.72435">
        <ele>501.20001220703</ele>
        <time>2021-05-24T05:44:58.000Z</time>
      </trkpt>
      <trkpt lat="45.20039" lon="5.72435">
        <ele>500.79998779297</ele>
        <time>2021-05-24T05:45:00.000Z</time>
      </trkpt>
      <trkpt lat="45.20034" lon="5.72435">
        <ele>500.20001220703</ele>
        <time>2021-05-24T05:45:02.000Z</time>
      </trkpt>
      <trkpt lat="45.20021" lon="5.72434">
        <ele>499</ele>
        <time>2021-05-24T05:45:06.000Z</time>
      </trkpt>
      <trkpt lat="45.20018" lon="5.72434">
        <ele>498.79998779297</ele>
        <time>2021-05-24T05:45:07.000Z</time>
      </trkpt>
      <trkpt lat="45.20006" lon="5.72434">
        <ele>497.79998779297</ele>
        <time>2021-05-24T05:45:11.000Z</time>
      </trkpt>
      <trkpt lat="45.20001" lon="5.72434">
        <ele>497</ele>
        <time>2021-05-24T05:45:13.000Z</time>
      </trkpt>
      <trkpt lat="45.19995" lon="5.72433">
        <ele>496.79998779297</ele>
        <time>2021-05-24T05:45:15.000Z</time>
      </trkpt>
      <trkpt lat="45.19987" lon="5.72432">
        <ele>495.60000610352</ele>
        <time>2021-05-24T05:45:18.000Z</time>
      </trkpt>
      <trkpt lat="45.19979" lon="5.7243">
        <ele>494.60000610352</ele>
        <time>2021-05-24T05:45:21.000Z</time>
      </trkpt>
      <trkpt lat="45.1997" lon="5.72429">
        <ele>493.39999389648</ele>
        <time>2021-05-24T05:45:24.000Z</time>
      </trkpt>
      <trkpt lat="45.19957" lon="5.72428">
        <ele>492.39999389648</ele>
        <time>2021-05-24T05:45:29.000Z</time>
      </trkpt>
      <trkpt lat="45.19944" lon="5.72428">
        <ele>491.39999389648</ele>
        <time>2021-05-24T05:45:33.000Z</time>
      </trkpt>
      <trkpt lat="45.1994" lon="5.72429">
        <ele>491.20001220703</ele>
        <time>2021-05-24T05:45:34.000Z</time>
      </trkpt>
      <trkpt lat="45.19927" lon="5.72429">
        <ele>491</ele>
        <time>2021-05-24T05:45:39.000Z</time>
      </trkpt>
      <trkpt lat="45.19922" lon="5.72431">
        <ele>491</ele>
        <time>2021-05-24T05:45:41.000Z</time>
      </trkpt>
      <trkpt lat="45.19919" lon="5.7243">
        <ele>491.39999389648</ele>
        <time>2021-05-24T05:45:43.000Z</time>
      </trkpt>
      <trkpt lat="45.19911" lon="5.72432">
        <ele>492.20001220703</ele>
        <time>2021-05-24T05:45:46.000Z</time>
      </trkpt>
      <trkpt lat="45.19895" lon="5.72432">
        <ele>493.60000610352</ele>
        <time>2021-05-24T05:45:52.000Z</time>
      </trkpt>
      <trkpt lat="45.19893" lon="5.72431">
        <ele>494</ele>
        <time>2021-05-24T05:45:53.000Z</time>
      </trkpt>
      <trkpt lat="45.19891" lon="5.7243">
        <ele>494.20001220703</ele>
        <time>2021-05-24T05:45:54.000Z</time>
      </trkpt>
      <trkpt lat="45.19889" lon="5.72429">
        <ele>494.79998779297</ele>
        <time>2021-05-24T05:45:56.000Z</time>
      </trkpt>
      <trkpt lat="45.19889" lon="5.72429">
        <ele>494.79998779297</ele>
        <time>2021-05-24T05:45:57.000Z</time>
      </trkpt>
      <trkpt lat="45.19888" lon="5.72432">
        <ele>495</ele>
        <time>2021-05-24T05:45:59.000Z</time>
      </trkpt>
      <trkpt lat="45.19887" lon="5.72434">
        <ele>495.20001220703</ele>
        <time>2021-05-24T05:46:01.000Z</time>
      </trkpt>
      <trkpt lat="45.19887" lon="5.72435">
        <ele>495.39999389648</ele>
        <time>2021-05-24T05:46:02.000Z</time>
      </trkpt>
      <trkpt lat="45.1989" lon="5.72448">
        <ele>496</ele>
        <time>2021-05-24T05:46:08.000Z</time>
      </trkpt>
      <trkpt lat="45.19891" lon="5.72449">
        <ele>496</ele>
        <time>2021-05-24T05:46:09.000Z</time>
      </trkpt>
      <trkpt lat="45.19891" lon="5.72451">
        <ele>496</ele>
        <time>2021-05-24T05:46:10.000Z</time>
      </trkpt>
      <trkpt lat="45.19884" lon="5.7246">
        <ele>495.79998779297</ele>
        <time>2021-05-24T05:46:12.000Z</time>
      </trkpt>
      <trkpt lat="45.19869" lon="5.72474">
        <ele>495</ele>
        <time>2021-05-24T05:46:18.000Z</time>
      </trkpt>
      <trkpt lat="45.19867" lon="5.72493">
        <ele>494.60000610352</ele>
        <time>2021-05-24T05:46:23.000Z</time>
      </trkpt>
      <trkpt lat="45.19867" lon="5.72496">
        <ele>494.39999389648</ele>
        <time>2021-05-24T05:46:24.000Z</time>
      </trkpt>
      <trkpt lat="45.19865" lon="5.72507">
        <ele>493.60000610352</ele>
        <time>2021-05-24T05:46:27.000Z</time>
      </trkpt>
      <trkpt lat="45.19865" lon="5.72515">
        <ele>493.20001220703</ele>
        <time>2021-05-24T05:46:29.000Z</time>
      </trkpt>
      <trkpt lat="45.19865" lon="5.7253">
        <ele>492.20001220703</ele>
        <time>2021-05-24T05:46:32.000Z</time>
      </trkpt>
      <trkpt lat="45.19863" lon="5.72543">
        <ele>491.39999389648</ele>
        <time>2021-05-24T05:46:35.000Z</time>
      </trkpt>
      <trkpt lat="45.19861" lon="5.72544">
        <ele>490.79998779297</ele>
        <time>2021-05-24T05:46:36.000Z</time>
      </trkpt>
      <trkpt lat="45.19857" lon="5.72533">
        <ele>489.79998779297</ele>
        <time>2021-05-24T05:46:41.000Z</time>
      </trkpt>
      <trkpt lat="45.19854" lon="5.72517">
        <ele>488.79998779297</ele>
        <time>2021-05-24T05:46:46.000Z</time>
      </trkpt>
      <trkpt lat="45.19853" lon="5.72513">
        <ele>488.20001220703</ele>
        <time>2021-05-24T05:46:47.000Z</time>
      </trkpt>
      <trkpt lat="45.19851" lon="5.72506">
        <ele>487.60000610352</ele>
        <time>2021-05-24T05:46:49.000Z</time>
      </trkpt>
      <trkpt lat="45.19849" lon="5.72484">
        <ele>486.79998779297</ele>
        <time>2021-05-24T05:46:54.000Z</time>
      </trkpt>
      <trkpt lat="45.19848" lon="5.7248">
        <ele>486.39999389648</ele>
        <time>2021-05-24T05:46:55.000Z</time>
      </trkpt>
      <trkpt lat="45.19847" lon="5.72469">
        <ele>485.20001220703</ele>
        <time>2021-05-24T05:46:58.000Z</time>
      </trkpt>
      <trkpt lat="45.19846" lon="5.72462">
        <ele>484.79998779297</ele>
        <time>2021-05-24T05:47:00.000Z</time>
      </trkpt>
      <trkpt lat="45.19845" lon="5.72451">
        <ele>484</ele>
        <time>2021-05-24T05:47:03.000Z</time>
      </trkpt>
      <trkpt lat="45.19843" lon="5.72448">
        <ele>483.60000610352</ele>
        <time>2021-05-24T05:47:04.000Z</time>
      </trkpt>
      <trkpt lat="45.19841" lon="5.72447">
        <ele>483.39999389648</ele>
        <time>2021-05-24T05:47:05.000Z</time>
      </trkpt>
      <trkpt lat="45.19841" lon="5.72447">
        <ele>482.79998779297</ele>
        <time>2021-05-24T05:47:07.000Z</time>
      </trkpt>
      <trkpt lat="45.19841" lon="5.72447">
        <ele>482.79998779297</ele>
        <time>2021-05-24T05:47:08.000Z</time>
      </trkpt>
      <trkpt lat="45.19841" lon="5.72449">
        <ele>482.39999389648</ele>
        <time>2021-05-24T05:47:09.000Z</time>
      </trkpt>
      <trkpt lat="45.19843" lon="5.7245">
        <ele>482.20001220703</ele>
        <time>2021-05-24T05:47:10.000Z</time>
      </trkpt>
      <trkpt lat="45.19843" lon="5.72452">
        <ele>482</ele>
        <time>2021-05-24T05:47:11.000Z</time>
      </trkpt>
      <trkpt lat="45.19842" lon="5.72456">
        <ele>481.79998779297</ele>
        <time>2021-05-24T05:47:12.000Z</time>
      </trkpt>
      <trkpt lat="45.19842" lon="5.7246">
        <ele>481.60000610352</ele>
        <time>2021-05-24T05:47:13.000Z</time>
      </trkpt>
      <trkpt lat="45.19842" lon="5.72472">
        <ele>480.39999389648</ele>
        <time>2021-05-24T05:47:17.000Z</time>
      </trkpt>
      <trkpt lat="45.19839" lon="5.72483">
        <ele>479.60000610352</ele>
        <time>2021-05-24T05:47:20.000Z</time>
      </trkpt>
      <trkpt lat="45.19838" lon="5.72486">
        <ele>479.20001220703</ele>
        <time>2021-05-24T05:47:21.000Z</time>
      </trkpt>
      <trkpt lat="45.19836" lon="5.72493">
        <ele>478.20001220703</ele>
        <time>2021-05-24T05:47:23.000Z</time>
      </trkpt>
      <trkpt lat="45.19831" lon="5.72507">
        <ele>477</ele>
        <time>2021-05-24T05:47:27.000Z</time>
      </trkpt>
      <trkpt lat="45.19831" lon="5.7251">
        <ele>476.60000610352</ele>
        <time>2021-05-24T05:47:28.000Z</time>
      </trkpt>
      <trkpt lat="45.19828" lon="5.7252">
        <ele>475.60000610352</ele>
        <time>2021-05-24T05:47:31.000Z</time>
      </trkpt>
      <trkpt lat="45.1983" lon="5.72531">
        <ele>475</ele>
        <time>2021-05-24T05:47:34.000Z</time>
      </trkpt>
      <trkpt lat="45.1983" lon="5.72535">
        <ele>474.60000610352</ele>
        <time>2021-05-24T05:47:35.000Z</time>
      </trkpt>
      <trkpt lat="45.19832" lon="5.72551">
        <ele>473.60000610352</ele>
        <time>2021-05-24T05:47:39.000Z</time>
      </trkpt>
      <trkpt lat="45.19832" lon="5.72562">
        <ele>472.79998779297</ele>
        <time>2021-05-24T05:47:42.000Z</time>
      </trkpt>
      <trkpt lat="45.19832" lon="5.72565">
        <ele>472.39999389648</ele>
        <time>2021-05-24T05:47:43.000Z</time>
      </trkpt>
      <trkpt lat="45.19833" lon="5.72582">
        <ele>471.39999389648</ele>
        <time>2021-05-24T05:47:48.000Z</time>
      </trkpt>
      <trkpt lat="45.19833" lon="5.72585">
        <ele>471.39999389648</ele>
        <time>2021-05-24T05:47:49.000Z</time>
      </trkpt>
      <trkpt lat="45.19833" lon="5.72601">
        <ele>470</ele>
        <time>2021-05-24T05:47:53.000Z</time>
      </trkpt>
      <trkpt lat="45.19834" lon="5.72609">
        <ele>469.60000610352</ele>
        <time>2021-05-24T05:47:55.000Z</time>
      </trkpt>
      <trkpt lat="45.19837" lon="5.7262">
        <ele>468.79998779297</ele>
        <time>2021-05-24T05:47:58.000Z</time>
      </trkpt>
      <trkpt lat="45.19839" lon="5.72635">
        <ele>467.79998779297</ele>
        <time>2021-05-24T05:48:02.000Z</time>
      </trkpt>
      <trkpt lat="45.1984" lon="5.72638">
        <ele>467.60000610352</ele>
        <time>2021-05-24T05:48:03.000Z</time>
      </trkpt>
      <trkpt lat="45.19842" lon="5.72651">
        <ele>466.60000610352</ele>
        <time>2021-05-24T05:48:07.000Z</time>
      </trkpt>
      <trkpt lat="45.19843" lon="5.72654">
        <ele>466.39999389648</ele>
        <time>2021-05-24T05:48:08.000Z</time>
      </trkpt>
      <trkpt lat="45.19847" lon="5.72663">
        <ele>465.20001220703</ele>
        <time>2021-05-24T05:48:11.000Z</time>
      </trkpt>
      <trkpt lat="45.19848" lon="5.72665">
        <ele>464.79998779297</ele>
        <time>2021-05-24T05:48:12.000Z</time>
      </trkpt>
      <trkpt lat="45.19853" lon="5.72669">
        <ele>464.20001220703</ele>
        <time>2021-05-24T05:48:14.000Z</time>
      </trkpt>
      <trkpt lat="45.19858" lon="5.72674">
        <ele>464</ele>
        <time>2021-05-24T05:48:16.000Z</time>
      </trkpt>
      <trkpt lat="45.1986" lon="5.72678">
        <ele>463.20001220703</ele>
        <time>2021-05-24T05:48:18.000Z</time>
      </trkpt>
      <trkpt lat="45.1986" lon="5.7268">
        <ele>463</ele>
        <time>2021-05-24T05:48:19.000Z</time>
      </trkpt>
      <trkpt lat="45.19859" lon="5.7268">
        <ele>462.79998779297</ele>
        <time>2021-05-24T05:48:20.000Z</time>
      </trkpt>
      <trkpt lat="45.19856" lon="5.7268">
        <ele>462.60000610352</ele>
        <time>2021-05-24T05:48:21.000Z</time>
      </trkpt>
      <trkpt lat="45.19854" lon="5.72679">
        <ele>462.39999389648</ele>
        <time>2021-05-24T05:48:22.000Z</time>
      </trkpt>
      <trkpt lat="45.19849" lon="5.72675">
        <ele>461.79998779297</ele>
        <time>2021-05-24T05:48:24.000Z</time>
      </trkpt>
      <trkpt lat="45.19844" lon="5.72672">
        <ele>461.20001220703</ele>
        <time>2021-05-24T05:48:26.000Z</time>
      </trkpt>
      <trkpt lat="45.19839" lon="5.72668">
        <ele>460.60000610352</ele>
        <time>2021-05-24T05:48:28.000Z</time>
      </trkpt>
      <trkpt lat="45.19828" lon="5.72656">
        <ele>459.60000610352</ele>
        <time>2021-05-24T05:48:33.000Z</time>
      </trkpt>
      <trkpt lat="45.19826" lon="5.72654">
        <ele>459.20001220703</ele>
        <time>2021-05-24T05:48:34.000Z</time>
      </trkpt>
      <trkpt lat="45.19817" lon="5.72645">
        <ele>458.20001220703</ele>
        <time>2021-05-24T05:48:38.000Z</time>
      </trkpt>
      <trkpt lat="45.19815" lon="5.72643">
        <ele>458</ele>
        <time>2021-05-24T05:48:39.000Z</time>
      </trkpt>
      <trkpt lat="45.19813" lon="5.72641">
        <ele>457.60000610352</ele>
        <time>2021-05-24T05:48:40.000Z</time>
      </trkpt>
      <trkpt lat="45.1981" lon="5.7264">
        <ele>457.20001220703</ele>
        <time>2021-05-24T05:48:41.000Z</time>
      </trkpt>
      <trkpt lat="45.19805" lon="5.72637">
        <ele>456.79998779297</ele>
        <time>2021-05-24T05:48:43.000Z</time>
      </trkpt>
      <trkpt lat="45.19803" lon="5.72635">
        <ele>456.60000610352</ele>
        <time>2021-05-24T05:48:44.000Z</time>
      </trkpt>
      <trkpt lat="45.19799" lon="5.72632">
        <ele>456</ele>
        <time>2021-05-24T05:48:46.000Z</time>
      </trkpt>
      <trkpt lat="45.19792" lon="5.72626">
        <ele>455</ele>
        <time>2021-05-24T05:48:49.000Z</time>
      </trkpt>
      <trkpt lat="45.19787" lon="5.72619">
        <ele>454.39999389648</ele>
        <time>2021-05-24T05:48:52.000Z</time>
      </trkpt>
      <trkpt lat="45.19785" lon="5.72607">
        <ele>454</ele>
        <time>2021-05-24T05:48:55.000Z</time>
      </trkpt>
      <trkpt lat="45.19784" lon="5.72601">
        <ele>453</ele>
        <time>2021-05-24T05:48:57.000Z</time>
      </trkpt>
      <trkpt lat="45.19784" lon="5.72598">
        <ele>452.60000610352</ele>
        <time>2021-05-24T05:48:58.000Z</time>
      </trkpt>
      <trkpt lat="45.19783" lon="5.72583">
        <ele>452.20001220703</ele>
        <time>2021-05-24T05:49:01.000Z</time>
      </trkpt>
      <trkpt lat="45.19783" lon="5.7258">
        <ele>451.60000610352</ele>
        <time>2021-05-24T05:49:03.000Z</time>
      </trkpt>
      <trkpt lat="45.19783" lon="5.72565">
        <ele>450.60000610352</ele>
        <time>2021-05-24T05:49:07.000Z</time>
      </trkpt>
      <trkpt lat="45.19782" lon="5.72557">
        <ele>450</ele>
        <time>2021-05-24T05:49:09.000Z</time>
      </trkpt>
      <trkpt lat="45.19782" lon="5.72546">
        <ele>449.39999389648</ele>
        <time>2021-05-24T05:49:12.000Z</time>
      </trkpt>
      <trkpt lat="45.19779" lon="5.72537">
        <ele>448.79998779297</ele>
        <time>2021-05-24T05:49:14.000Z</time>
      </trkpt>
      <trkpt lat="45.19779" lon="5.72537">
        <ele>448.39999389648</ele>
        <time>2021-05-24T05:49:15.000Z</time>
      </trkpt>
      <trkpt lat="45.19778" lon="5.72535">
        <ele>448</ele>
        <time>2021-05-24T05:49:16.000Z</time>
      </trkpt>
      <trkpt lat="45.19777" lon="5.72535">
        <ele>447.79998779297</ele>
        <time>2021-05-24T05:49:17.000Z</time>
      </trkpt>
      <trkpt lat="45.19776" lon="5.72536">
        <ele>447.60000610352</ele>
        <time>2021-05-24T05:49:19.000Z</time>
      </trkpt>
      <trkpt lat="45.19777" lon="5.72544">
        <ele>446.79998779297</ele>
        <time>2021-05-24T05:49:22.000Z</time>
      </trkpt>
      <trkpt lat="45.19777" lon="5.72548">
        <ele>446.60000610352</ele>
        <time>2021-05-24T05:49:23.000Z</time>
      </trkpt>
      <trkpt lat="45.19777" lon="5.72555">
        <ele>446</ele>
        <time>2021-05-24T05:49:25.000Z</time>
      </trkpt>
      <trkpt lat="45.19776" lon="5.72559">
        <ele>445.60000610352</ele>
        <time>2021-05-24T05:49:26.000Z</time>
      </trkpt>
      <trkpt lat="45.19776" lon="5.72572">
        <ele>444.39999389648</ele>
        <time>2021-05-24T05:49:30.000Z</time>
      </trkpt>
      <trkpt lat="45.19776" lon="5.72575">
        <ele>444.20001220703</ele>
        <time>2021-05-24T05:49:31.000Z</time>
      </trkpt>
      <trkpt lat="45.19774" lon="5.7258">
        <ele>443.60000610352</ele>
        <time>2021-05-24T05:49:34.000Z</time>
      </trkpt>
      <trkpt lat="45.19773" lon="5.72579">
        <ele>443.39999389648</ele>
        <time>2021-05-24T05:49:35.000Z</time>
      </trkpt>
      <trkpt lat="45.19772" lon="5.72578">
        <ele>443</ele>
        <time>2021-05-24T05:49:36.000Z</time>
      </trkpt>
      <trkpt lat="45.19769" lon="5.72573">
        <ele>442.39999389648</ele>
        <time>2021-05-24T05:49:38.000Z</time>
      </trkpt>
      <trkpt lat="45.19767" lon="5.72563">
        <ele>441.20001220703</ele>
        <time>2021-05-24T05:49:41.000Z</time>
      </trkpt>
      <trkpt lat="45.19767" lon="5.72559">
        <ele>441</ele>
        <time>2021-05-24T05:49:42.000Z</time>
      </trkpt>
      <trkpt lat="45.19765" lon="5.72554">
        <ele>440.79998779297</ele>
        <time>2021-05-24T05:49:44.000Z</time>
      </trkpt>
      <trkpt lat="45.19763" lon="5.72549">
        <ele>440.20001220703</ele>
        <time>2021-05-24T05:49:46.000Z</time>
      </trkpt>
      <trkpt lat="45.19763" lon="5.72546">
        <ele>440</ele>
        <time>2021-05-24T05:49:47.000Z</time>
      </trkpt>
      <trkpt lat="45.19764" lon="5.72539">
        <ele>439.20001220703</ele>
        <time>2021-05-24T05:49:49.000Z</time>
      </trkpt>
      <trkpt lat="45.19769" lon="5.72524">
        <ele>438</ele>
        <time>2021-05-24T05:49:54.000Z</time>
      </trkpt>
      <trkpt lat="45.19774" lon="5.72509">
        <ele>437</ele>
        <time>2021-05-24T05:49:58.000Z</time>
      </trkpt>
      <trkpt lat="45.19777" lon="5.72497">
        <ele>436.60000610352</ele>
        <time>2021-05-24T05:50:01.000Z</time>
      </trkpt>
      <trkpt lat="45.1978" lon="5.72484">
        <ele>435.79998779297</ele>
        <time>2021-05-24T05:50:04.000Z</time>
      </trkpt>
      <trkpt lat="45.19783" lon="5.72475">
        <ele>435.20001220703</ele>
        <time>2021-05-24T05:50:07.000Z</time>
      </trkpt>
      <trkpt lat="45.19784" lon="5.72467">
        <ele>435</ele>
        <time>2021-05-24T05:50:09.000Z</time>
      </trkpt>
      <trkpt lat="45.19786" lon="5.7246">
        <ele>434.60000610352</ele>
        <time>2021-05-24T05:50:11.000Z</time>
      </trkpt>
      <trkpt lat="45.19787" lon="5.72439">
        <ele>434</ele>
        <time>2021-05-24T05:50:16.000Z</time>
      </trkpt>
      <trkpt lat="45.19792" lon="5.72421">
        <ele>434.39999389648</ele>
        <time>2021-05-24T05:50:21.000Z</time>
      </trkpt>
      <trkpt lat="45.19793" lon="5.72402">
        <ele>434.79998779297</ele>
        <time>2021-05-24T05:50:26.000Z</time>
      </trkpt>
      <trkpt lat="45.19798" lon="5.72375">
        <ele>435.20001220703</ele>
        <time>2021-05-24T05:50:33.000Z</time>
      </trkpt>
      <trkpt lat="45.198" lon="5.72371">
        <ele>435.20001220703</ele>
        <time>2021-05-24T05:50:34.000Z</time>
      </trkpt>
      <trkpt lat="45.19807" lon="5.72344">
        <ele>434.60000610352</ele>
        <time>2021-05-24T05:50:41.000Z</time>
      </trkpt>
      <trkpt lat="45.1981" lon="5.72337">
        <ele>434.60000610352</ele>
        <time>2021-05-24T05:50:43.000Z</time>
      </trkpt>
      <trkpt lat="45.19818" lon="5.72311">
        <ele>434.60000610352</ele>
        <time>2021-05-24T05:50:51.000Z</time>
      </trkpt>
      <trkpt lat="45.19819" lon="5.72308">
        <ele>434.60000610352</ele>
        <time>2021-05-24T05:50:52.000Z</time>
      </trkpt>
      <trkpt lat="45.19822" lon="5.72303">
        <ele>434.60000610352</ele>
        <time>2021-05-24T05:50:54.000Z</time>
      </trkpt>
      <trkpt lat="45.19824" lon="5.723">
        <ele>434.60000610352</ele>
        <time>2021-05-24T05:50:56.000Z</time>
      </trkpt>
      <trkpt lat="45.19825" lon="5.723">
        <ele>434.39999389648</ele>
        <time>2021-05-24T05:50:58.000Z</time>
      </trkpt>
      <trkpt lat="45.19826" lon="5.723">
        <ele>434.60000610352</ele>
        <time>2021-05-24T05:51:01.000Z</time>
      </trkpt>
      <trkpt lat="45.19827" lon="5.72299">
        <ele>434.39999389648</ele>
        <time>2021-05-24T05:51:07.000Z</time>
      </trkpt>
      <trkpt lat="45.19828" lon="5.72298">
        <ele>434.39999389648</ele>
        <time>2021-05-24T05:51:09.000Z</time>
      </trkpt>
      <trkpt lat="45.19828" lon="5.72297">
        <ele>434.39999389648</ele>
        <time>2021-05-24T05:51:21.000Z</time>
      </trkpt>
      <trkpt lat="45.19827" lon="5.72298">
        <ele>434.39999389648</ele>
        <time>2021-05-24T05:51:26.000Z</time>
      </trkpt>
      <trkpt lat="45.19826" lon="5.72298">
        <ele>434.39999389648</ele>
        <time>2021-05-24T05:51:28.000Z</time>
      </trkpt>
      <trkpt lat="45.19826" lon="5.72298">
        <ele>434.20001220703</ele>
        <time>2021-05-24T05:51:33.000Z</time>
      </trkpt>
      <trkpt lat="45.19826" lon="5.72298">
        <ele>434</ele>
        <time>2021-05-24T05:51:42.000Z</time>
      </trkpt>
      <trkpt lat="45.19826" lon="5.72298">
        <ele>434</ele>
        <time>2021-05-24T05:51:43.000Z</time>
      </trkpt>
      <trkpt lat="45.19826" lon="5.72298">
        <ele>433.79998779297</ele>
        <time>2021-05-24T05:51:46.000Z</time>
      </trkpt>
      <trkpt lat="45.19826" lon="5.72297">
        <ele>433.60000610352</ele>
        <time>2021-05-24T05:51:50.000Z</time>
      </trkpt>
      <trkpt lat="45.19826" lon="5.72297">
        <ele>433.60000610352</ele>
        <time>2021-05-24T05:51:52.000Z</time>
      </trkpt>
      <trkpt lat="45.19826" lon="5.72296">
        <ele>433.60000610352</ele>
        <time>2021-05-24T05:51:58.000Z</time>
      </trkpt>
      <trkpt lat="45.19826" lon="5.72296">
        <ele>433.60000610352</ele>
        <time>2021-05-24T05:52:02.000Z</time>
      </trkpt>
      <trkpt lat="45.19823" lon="5.72306">
        <ele>433.39999389648</ele>
        <time>2021-05-24T05:52:06.000Z</time>
      </trkpt>
      <trkpt lat="45.19822" lon="5.72316">
        <ele>433.20001220703</ele>
        <time>2021-05-24T05:52:09.000Z</time>
      </trkpt>
      <trkpt lat="45.1982" lon="5.72324">
        <ele>433.60000610352</ele>
        <time>2021-05-24T05:52:12.000Z</time>
      </trkpt>
      <trkpt lat="45.19811" lon="5.72348">
        <ele>433</ele>
        <time>2021-05-24T05:52:21.000Z</time>
      </trkpt>
      <trkpt lat="45.19807" lon="5.72361">
        <ele>433</ele>
        <time>2021-05-24T05:52:26.000Z</time>
      </trkpt>
      <trkpt lat="45.19805" lon="5.72366">
        <ele>433.20001220703</ele>
        <time>2021-05-24T05:52:28.000Z</time>
      </trkpt>
      <trkpt lat="45.19804" lon="5.72369">
        <ele>433.20001220703</ele>
        <time>2021-05-24T05:52:29.000Z</time>
      </trkpt>
      <trkpt lat="45.19803" lon="5.72372">
        <ele>433.20001220703</ele>
        <time>2021-05-24T05:52:30.000Z</time>
      </trkpt>
      <trkpt lat="45.19801" lon="5.72383">
        <ele>433.60000610352</ele>
        <time>2021-05-24T05:52:33.000Z</time>
      </trkpt>
      <trkpt lat="45.198" lon="5.72386">
        <ele>433.79998779297</ele>
        <time>2021-05-24T05:52:34.000Z</time>
      </trkpt>
      <trkpt lat="45.198" lon="5.72397">
        <ele>433.60000610352</ele>
        <time>2021-05-24T05:52:37.000Z</time>
      </trkpt>
      <trkpt lat="45.19801" lon="5.7241">
        <ele>433.39999389648</ele>
        <time>2021-05-24T05:52:41.000Z</time>
      </trkpt>
      <trkpt lat="45.19798" lon="5.72426">
        <ele>433</ele>
        <time>2021-05-24T05:52:46.000Z</time>
      </trkpt>
      <trkpt lat="45.19794" lon="5.72442">
        <ele>432.79998779297</ele>
        <time>2021-05-24T05:52:51.000Z</time>
      </trkpt>
      <trkpt lat="45.19791" lon="5.72447">
        <ele>432.60000610352</ele>
        <time>2021-05-24T05:52:53.000Z</time>
      </trkpt>
      <trkpt lat="45.19788" lon="5.72452">
        <ele>432.60000610352</ele>
        <time>2021-05-24T05:52:55.000Z</time>
      </trkpt>
      <trkpt lat="45.19786" lon="5.72458">
        <ele>432.60000610352</ele>
        <time>2021-05-24T05:52:57.000Z</time>
      </trkpt>
      <trkpt lat="45.19774" lon="5.72479">
        <ele>432.60000610352</ele>
        <time>2021-05-24T05:53:04.000Z</time>
      </trkpt>
      <trkpt lat="45.19772" lon="5.72483">
        <ele>432.39999389648</ele>
        <time>2021-05-24T05:53:05.000Z</time>
      </trkpt>
      <trkpt lat="45.19761" lon="5.72497">
        <ele>432.39999389648</ele>
        <time>2021-05-24T05:53:11.000Z</time>
      </trkpt>
      <trkpt lat="45.19755" lon="5.72499">
        <ele>432.60000610352</ele>
        <time>2021-05-24T05:53:13.000Z</time>
      </trkpt>
      <trkpt lat="45.19747" lon="5.72508">
        <ele>432.60000610352</ele>
        <time>2021-05-24T05:53:17.000Z</time>
      </trkpt>
      <trkpt lat="45.19746" lon="5.72511">
        <ele>432.79998779297</ele>
        <time>2021-05-24T05:53:18.000Z</time>
      </trkpt>
      <trkpt lat="45.19746" lon="5.7252">
        <ele>432.60000610352</ele>
        <time>2021-05-24T05:53:21.000Z</time>
      </trkpt>
      <trkpt lat="45.19749" lon="5.72523">
        <ele>432.39999389648</ele>
        <time>2021-05-24T05:53:23.000Z</time>
      </trkpt>
      <trkpt lat="45.19751" lon="5.72527">
        <ele>432.39999389648</ele>
        <time>2021-05-24T05:53:25.000Z</time>
      </trkpt>
      <trkpt lat="45.19752" lon="5.72535">
        <ele>432.39999389648</ele>
        <time>2021-05-24T05:53:27.000Z</time>
      </trkpt>
      <trkpt lat="45.1975" lon="5.72563">
        <ele>432.20001220703</ele>
        <time>2021-05-24T05:53:34.000Z</time>
      </trkpt>
      <trkpt lat="45.1975" lon="5.72568">
        <ele>432.20001220703</ele>
        <time>2021-05-24T05:53:36.000Z</time>
      </trkpt>
      <trkpt lat="45.1975" lon="5.72597">
        <ele>432.39999389648</ele>
        <time>2021-05-24T05:53:43.000Z</time>
      </trkpt>
      <trkpt lat="45.1975" lon="5.726">
        <ele>432.39999389648</ele>
        <time>2021-05-24T05:53:44.000Z</time>
      </trkpt>
      <trkpt lat="45.19748" lon="5.72604">
        <ele>432.39999389648</ele>
        <time>2021-05-24T05:53:46.000Z</time>
      </trkpt>
      <trkpt lat="45.19746" lon="5.72609">
        <ele>432.39999389648</ele>
        <time>2021-05-24T05:53:48.000Z</time>
      </trkpt>
      <trkpt lat="45.19745" lon="5.72615">
        <ele>432.39999389648</ele>
        <time>2021-05-24T05:53:50.000Z</time>
      </trkpt>
      <trkpt lat="45.19748" lon="5.72619">
        <ele>432.20001220703</ele>
        <time>2021-05-24T05:53:52.000Z</time>
      </trkpt>
      <trkpt lat="45.19749" lon="5.7262">
        <ele>432.20001220703</ele>
        <time>2021-05-24T05:53:53.000Z</time>
      </trkpt>
      <trkpt lat="45.19755" lon="5.72622">
        <ele>432.20001220703</ele>
        <time>2021-05-24T05:53:56.000Z</time>
      </trkpt>
      <trkpt lat="45.19755" lon="5.72624">
        <ele>432.20001220703</ele>
        <time>2021-05-24T05:53:57.000Z</time>
      </trkpt>
      <trkpt lat="45.19763" lon="5.72636">
        <ele>432.20001220703</ele>
        <time>2021-05-24T05:54:01.000Z</time>
      </trkpt>
      <trkpt lat="45.19766" lon="5.72641">
        <ele>432</ele>
        <time>2021-05-24T05:54:03.000Z</time>
      </trkpt>
      <trkpt lat="45.19771" lon="5.7265">
        <ele>432</ele>
        <time>2021-05-24T05:54:06.000Z</time>
      </trkpt>
      <trkpt lat="45.19781" lon="5.72664">
        <ele>431.79998779297</ele>
        <time>2021-05-24T05:54:11.000Z</time>
      </trkpt>
      <trkpt lat="45.19796" lon="5.72677">
        <ele>432.39999389648</ele>
        <time>2021-05-24T05:54:18.000Z</time>
      </trkpt>
      <trkpt lat="45.19808" lon="5.72689">
        <ele>432.39999389648</ele>
        <time>2021-05-24T05:54:24.000Z</time>
      </trkpt>
      <trkpt lat="45.1982" lon="5.72699">
        <ele>432.79998779297</ele>
        <time>2021-05-24T05:54:29.000Z</time>
      </trkpt>
      <trkpt lat="45.19831" lon="5.72713">
        <ele>432.79998779297</ele>
        <time>2021-05-24T05:54:34.000Z</time>
      </trkpt>
      <trkpt lat="45.19837" lon="5.72727">
        <ele>432.79998779297</ele>
        <time>2021-05-24T05:54:38.000Z</time>
      </trkpt>
      <trkpt lat="45.19842" lon="5.72733">
        <ele>433</ele>
        <time>2021-05-24T05:54:40.000Z</time>
      </trkpt>
      <trkpt lat="45.19843" lon="5.72736">
        <ele>433.20001220703</ele>
        <time>2021-05-24T05:54:41.000Z</time>
      </trkpt>
      <trkpt lat="45.19845" lon="5.72736">
        <ele>433.20001220703</ele>
        <time>2021-05-24T05:54:42.000Z</time>
      </trkpt>
      <trkpt lat="45.19863" lon="5.72762">
        <ele>428.60000610352</ele>
        <time>2021-05-24T05:55:00.000Z</time>
      </trkpt>
      <trkpt lat="45.19864" lon="5.72759">
        <ele>428.39999389648</ele>
        <time>2021-05-24T05:55:01.000Z</time>
      </trkpt>
      <trkpt lat="45.19865" lon="5.72758">
        <ele>428.20001220703</ele>
        <time>2021-05-24T05:55:02.000Z</time>
      </trkpt>
      <trkpt lat="45.19861" lon="5.72758">
        <ele>427.20001220703</ele>
        <time>2021-05-24T05:55:05.000Z</time>
      </trkpt>
      <trkpt lat="45.19859" lon="5.72755">
        <ele>425.79998779297</ele>
        <time>2021-05-24T05:55:08.000Z</time>
      </trkpt>
      <trkpt lat="45.19858" lon="5.72752">
        <ele>424.79998779297</ele>
        <time>2021-05-24T05:55:10.000Z</time>
      </trkpt>
      <trkpt lat="45.19858" lon="5.72752">
        <ele>424</ele>
        <time>2021-05-24T05:55:12.000Z</time>
      </trkpt>
      <trkpt lat="45.19858" lon="5.72753">
        <ele>423.79998779297</ele>
        <time>2021-05-24T05:55:13.000Z</time>
      </trkpt>
      <trkpt lat="45.19857" lon="5.72755">
        <ele>423.60000610352</ele>
        <time>2021-05-24T05:55:14.000Z</time>
      </trkpt>
      <trkpt lat="45.19864" lon="5.72762">
        <ele>404.20001220703</ele>
        <time>2021-05-24T05:55:56.000Z</time>
      </trkpt>
      <trkpt lat="45.19858" lon="5.72771">
        <ele>403.79998779297</ele>
        <time>2021-05-24T05:55:58.000Z</time>
      </trkpt>
      <trkpt lat="45.19855" lon="5.72771">
        <ele>403.60000610352</ele>
        <time>2021-05-24T05:55:59.000Z</time>
      </trkpt>
      <trkpt lat="45.19853" lon="5.7277">
        <ele>403.39999389648</ele>
        <time>2021-05-24T05:56:00.000Z</time>
      </trkpt>
      <trkpt lat="45.19846" lon="5.72768">
        <ele>402.60000610352</ele>
        <time>2021-05-24T05:56:02.000Z</time>
      </trkpt>
      <trkpt lat="45.19838" lon="5.72766">
        <ele>402.20001220703</ele>
        <time>2021-05-24T05:56:04.000Z</time>
      </trkpt>
      <trkpt lat="45.19834" lon="5.72762">
        <ele>401.39999389648</ele>
        <time>2021-05-24T05:56:06.000Z</time>
      </trkpt>
      <trkpt lat="45.1983" lon="5.72757">
        <ele>400.79998779297</ele>
        <time>2021-05-24T05:56:08.000Z</time>
      </trkpt>
      <trkpt lat="45.19821" lon="5.72751">
        <ele>400.20001220703</ele>
        <time>2021-05-24T05:56:11.000Z</time>
      </trkpt>
      <trkpt lat="45.19812" lon="5.72745">
        <ele>399.20001220703</ele>
        <time>2021-05-24T05:56:15.000Z</time>
      </trkpt>
      <trkpt lat="45.19809" lon="5.72745">
        <ele>399.20001220703</ele>
        <time>2021-05-24T05:56:16.000Z</time>
      </trkpt>
      <trkpt lat="45.19799" lon="5.72738">
        <ele>398.20001220703</ele>
        <time>2021-05-24T05:56:20.000Z</time>
      </trkpt>
      <trkpt lat="45.19797" lon="5.72737">
        <ele>397.79998779297</ele>
        <time>2021-05-24T05:56:21.000Z</time>
      </trkpt>
      <trkpt lat="45.19793" lon="5.72737">
        <ele>397.20001220703</ele>
        <time>2021-05-24T05:56:23.000Z</time>
      </trkpt>
      <trkpt lat="45.19793" lon="5.72737">
        <ele>396.79998779297</ele>
        <time>2021-05-24T05:56:24.000Z</time>
      </trkpt>
      <trkpt lat="45.19793" lon="5.72738">
        <ele>396.60000610352</ele>
        <time>2021-05-24T05:56:25.000Z</time>
      </trkpt>
      <trkpt lat="45.19796" lon="5.7274">
        <ele>396.20001220703</ele>
        <time>2021-05-24T05:56:27.000Z</time>
      </trkpt>
      <trkpt lat="45.19798" lon="5.72741">
        <ele>395.60000610352</ele>
        <time>2021-05-24T05:56:28.000Z</time>
      </trkpt>
      <trkpt lat="45.19802" lon="5.72746">
        <ele>394.79998779297</ele>
        <time>2021-05-24T05:56:30.000Z</time>
      </trkpt>
      <trkpt lat="45.19804" lon="5.72747">
        <ele>394.39999389648</ele>
        <time>2021-05-24T05:56:31.000Z</time>
      </trkpt>
      <trkpt lat="45.19807" lon="5.7275">
        <ele>394.20001220703</ele>
        <time>2021-05-24T05:56:32.000Z</time>
      </trkpt>
      <trkpt lat="45.19816" lon="5.72757">
        <ele>393.20001220703</ele>
        <time>2021-05-24T05:56:35.000Z</time>
      </trkpt>
      <trkpt lat="45.19818" lon="5.7276">
        <ele>393</ele>
        <time>2021-05-24T05:56:36.000Z</time>
      </trkpt>
      <trkpt lat="45.19824" lon="5.72768">
        <ele>392.20001220703</ele>
        <time>2021-05-24T05:56:39.000Z</time>
      </trkpt>
      <trkpt lat="45.19827" lon="5.72773">
        <ele>391.39999389648</ele>
        <time>2021-05-24T05:56:41.000Z</time>
      </trkpt>
      <trkpt lat="45.19829" lon="5.72775">
        <ele>390.79998779297</ele>
        <time>2021-05-24T05:56:42.000Z</time>
      </trkpt>
      <trkpt lat="45.19835" lon="5.72784">
        <ele>389.79998779297</ele>
        <time>2021-05-24T05:56:45.000Z</time>
      </trkpt>
      <trkpt lat="45.19838" lon="5.72789">
        <ele>389</ele>
        <time>2021-05-24T05:56:47.000Z</time>
      </trkpt>
      <trkpt lat="45.19839" lon="5.72792">
        <ele>388.60000610352</ele>
        <time>2021-05-24T05:56:48.000Z</time>
      </trkpt>
      <trkpt lat="45.19841" lon="5.72801">
        <ele>387</ele>
        <time>2021-05-24T05:56:52.000Z</time>
      </trkpt>
      <trkpt lat="45.1984" lon="5.72801">
        <ele>386.60000610352</ele>
        <time>2021-05-24T05:56:53.000Z</time>
      </trkpt>
      <trkpt lat="45.19834" lon="5.72801">
        <ele>386</ele>
        <time>2021-05-24T05:56:55.000Z</time>
      </trkpt>
      <trkpt lat="45.19831" lon="5.728">
        <ele>385.79998779297</ele>
        <time>2021-05-24T05:56:56.000Z</time>
      </trkpt>
      <trkpt lat="45.19823" lon="5.72796">
        <ele>385</ele>
        <time>2021-05-24T05:56:59.000Z</time>
      </trkpt>
      <trkpt lat="45.19819" lon="5.72792">
        <ele>384</ele>
        <time>2021-05-24T05:57:01.000Z</time>
      </trkpt>
      <trkpt lat="45.19816" lon="5.72791">
        <ele>383.79998779297</ele>
        <time>2021-05-24T05:57:02.000Z</time>
      </trkpt>
      <trkpt lat="45.19809" lon="5.72786">
        <ele>382.79998779297</ele>
        <time>2021-05-24T05:57:05.000Z</time>
      </trkpt>
      <trkpt lat="45.19804" lon="5.72777">
        <ele>381.60000610352</ele>
        <time>2021-05-24T05:57:08.000Z</time>
      </trkpt>
      <trkpt lat="45.19802" lon="5.72776">
        <ele>381.39999389648</ele>
        <time>2021-05-24T05:57:09.000Z</time>
      </trkpt>
      <trkpt lat="45.19801" lon="5.72776">
        <ele>380.79998779297</ele>
        <time>2021-05-24T05:57:11.000Z</time>
      </trkpt>
      <trkpt lat="45.19801" lon="5.72778">
        <ele>380.60000610352</ele>
        <time>2021-05-24T05:57:12.000Z</time>
      </trkpt>
      <trkpt lat="45.19804" lon="5.72783">
        <ele>379.79998779297</ele>
        <time>2021-05-24T05:57:15.000Z</time>
      </trkpt>
      <trkpt lat="45.19808" lon="5.72787">
        <ele>379.39999389648</ele>
        <time>2021-05-24T05:57:17.000Z</time>
      </trkpt>
      <trkpt lat="45.19814" lon="5.72793">
        <ele>378.79998779297</ele>
        <time>2021-05-24T05:57:20.000Z</time>
      </trkpt>
      <trkpt lat="45.19817" lon="5.72794">
        <ele>378.79998779297</ele>
        <time>2021-05-24T05:57:21.000Z</time>
      </trkpt>
      <trkpt lat="45.19821" lon="5.728">
        <ele>378</ele>
        <time>2021-05-24T05:57:23.000Z</time>
      </trkpt>
      <trkpt lat="45.19829" lon="5.72807">
        <ele>377</ele>
        <time>2021-05-24T05:57:27.000Z</time>
      </trkpt>
      <trkpt lat="45.19833" lon="5.72812">
        <ele>376</ele>
        <time>2021-05-24T05:57:29.000Z</time>
      </trkpt>
      <trkpt lat="45.19835" lon="5.72815">
        <ele>375.79998779297</ele>
        <time>2021-05-24T05:57:30.000Z</time>
      </trkpt>
      <trkpt lat="45.19841" lon="5.7282">
        <ele>374.60000610352</ele>
        <time>2021-05-24T05:57:33.000Z</time>
      </trkpt>
      <trkpt lat="45.19843" lon="5.72821">
        <ele>374</ele>
        <time>2021-05-24T05:57:34.000Z</time>
      </trkpt>
      <trkpt lat="45.19842" lon="5.72821">
        <ele>373.39999389648</ele>
        <time>2021-05-24T05:57:36.000Z</time>
      </trkpt>
      <trkpt lat="45.19839" lon="5.72821">
        <ele>373</ele>
        <time>2021-05-24T05:57:37.000Z</time>
      </trkpt>
      <trkpt lat="45.19832" lon="5.7282">
        <ele>372.20001220703</ele>
        <time>2021-05-24T05:57:40.000Z</time>
      </trkpt>
      <trkpt lat="45.1983" lon="5.72819">
        <ele>371.79998779297</ele>
        <time>2021-05-24T05:57:41.000Z</time>
      </trkpt>
      <trkpt lat="45.19828" lon="5.72817">
        <ele>371.39999389648</ele>
        <time>2021-05-24T05:57:42.000Z</time>
      </trkpt>
      <trkpt lat="45.19826" lon="5.72815">
        <ele>371.20001220703</ele>
        <time>2021-05-24T05:57:43.000Z</time>
      </trkpt>
      <trkpt lat="45.19821" lon="5.72814">
        <ele>370.79998779297</ele>
        <time>2021-05-24T05:57:45.000Z</time>
      </trkpt>
      <trkpt lat="45.19818" lon="5.72816">
        <ele>370.60000610352</ele>
        <time>2021-05-24T05:57:46.000Z</time>
      </trkpt>
      <trkpt lat="45.19815" lon="5.7282">
        <ele>369.79998779297</ele>
        <time>2021-05-24T05:57:48.000Z</time>
      </trkpt>
      <trkpt lat="45.19816" lon="5.72821">
        <ele>369.39999389648</ele>
        <time>2021-05-24T05:57:49.000Z</time>
      </trkpt>
      <trkpt lat="45.19817" lon="5.72823">
        <ele>369.20001220703</ele>
        <time>2021-05-24T05:57:50.000Z</time>
      </trkpt>
      <trkpt lat="45.19822" lon="5.72826">
        <ele>368.79998779297</ele>
        <time>2021-05-24T05:57:52.000Z</time>
      </trkpt>
      <trkpt lat="45.19824" lon="5.72828">
        <ele>368.60000610352</ele>
        <time>2021-05-24T05:57:53.000Z</time>
      </trkpt>
      <trkpt lat="45.19829" lon="5.7283">
        <ele>367.60000610352</ele>
        <time>2021-05-24T05:57:55.000Z</time>
      </trkpt>
      <trkpt lat="45.19831" lon="5.72831">
        <ele>366.79998779297</ele>
        <time>2021-05-24T05:57:58.000Z</time>
      </trkpt>
      <trkpt lat="45.1983" lon="5.72831">
        <ele>366.60000610352</ele>
        <time>2021-05-24T05:57:59.000Z</time>
      </trkpt>
      <trkpt lat="45.1982" lon="5.7283">
        <ele>365.60000610352</ele>
        <time>2021-05-24T05:58:03.000Z</time>
      </trkpt>
      <trkpt lat="45.19815" lon="5.72828">
        <ele>365</ele>
        <time>2021-05-24T05:58:05.000Z</time>
      </trkpt>
      <trkpt lat="45.1981" lon="5.72827">
        <ele>364.39999389648</ele>
        <time>2021-05-24T05:58:07.000Z</time>
      </trkpt>
      <trkpt lat="45.19805" lon="5.72825">
        <ele>363.60000610352</ele>
        <time>2021-05-24T05:58:09.000Z</time>
      </trkpt>
      <trkpt lat="45.19802" lon="5.72823">
        <ele>363</ele>
        <time>2021-05-24T05:58:10.000Z</time>
      </trkpt>
      <trkpt lat="45.19797" lon="5.7282">
        <ele>362.39999389648</ele>
        <time>2021-05-24T05:58:12.000Z</time>
      </trkpt>
      <trkpt lat="45.19792" lon="5.72818">
        <ele>361.79998779297</ele>
        <time>2021-05-24T05:58:14.000Z</time>
      </trkpt>
      <trkpt lat="45.19792" lon="5.72817">
        <ele>361.20001220703</ele>
        <time>2021-05-24T05:58:17.000Z</time>
      </trkpt>
      <trkpt lat="45.19794" lon="5.72817">
        <ele>361.20001220703</ele>
        <time>2021-05-24T05:58:18.000Z</time>
      </trkpt>
      <trkpt lat="45.19798" lon="5.7282">
        <ele>360.79998779297</ele>
        <time>2021-05-24T05:58:20.000Z</time>
      </trkpt>
      <trkpt lat="45.198" lon="5.72823">
        <ele>360.60000610352</ele>
        <time>2021-05-24T05:58:21.000Z</time>
      </trkpt>
      <trkpt lat="45.19806" lon="5.72829">
        <ele>360.20001220703</ele>
        <time>2021-05-24T05:58:24.000Z</time>
      </trkpt>
      <trkpt lat="45.19813" lon="5.72836">
        <ele>359.79998779297</ele>
        <time>2021-05-24T05:58:27.000Z</time>
      </trkpt>
      <trkpt lat="45.19816" lon="5.72838">
        <ele>359.39999389648</ele>
        <time>2021-05-24T05:58:28.000Z</time>
      </trkpt>
      <trkpt lat="45.19821" lon="5.72844">
        <ele>358.60000610352</ele>
        <time>2021-05-24T05:58:31.000Z</time>
      </trkpt>
      <trkpt lat="45.1982" lon="5.72846">
        <ele>358.39999389648</ele>
        <time>2021-05-24T05:58:32.000Z</time>
      </trkpt>
      <trkpt lat="45.19819" lon="5.72846">
        <ele>358.20001220703</ele>
        <time>2021-05-24T05:58:33.000Z</time>
      </trkpt>
      <trkpt lat="45.19814" lon="5.72845">
        <ele>357.79998779297</ele>
        <time>2021-05-24T05:58:35.000Z</time>
      </trkpt>
      <trkpt lat="45.19807" lon="5.72844">
        <ele>356.79998779297</ele>
        <time>2021-05-24T05:58:38.000Z</time>
      </trkpt>
      <trkpt lat="45.19797" lon="5.72839">
        <ele>355.79998779297</ele>
        <time>2021-05-24T05:58:42.000Z</time>
      </trkpt>
      <trkpt lat="45.19795" lon="5.72838">
        <ele>355.60000610352</ele>
        <time>2021-05-24T05:58:43.000Z</time>
      </trkpt>
      <trkpt lat="45.19788" lon="5.72833">
        <ele>354.60000610352</ele>
        <time>2021-05-24T05:58:46.000Z</time>
      </trkpt>
      <trkpt lat="45.1978" lon="5.72829">
        <ele>353.79998779297</ele>
        <time>2021-05-24T05:58:49.000Z</time>
      </trkpt>
      <trkpt lat="45.19777" lon="5.72829">
        <ele>353.39999389648</ele>
        <time>2021-05-24T05:58:50.000Z</time>
      </trkpt>
      <trkpt lat="45.1977" lon="5.72824">
        <ele>352.20001220703</ele>
        <time>2021-05-24T05:58:53.000Z</time>
      </trkpt>
      <trkpt lat="45.19765" lon="5.7282">
        <ele>351.60000610352</ele>
        <time>2021-05-24T05:58:56.000Z</time>
      </trkpt>
      <trkpt lat="45.1976" lon="5.72818">
        <ele>350.79998779297</ele>
        <time>2021-05-24T05:58:58.000Z</time>
      </trkpt>
      <trkpt lat="45.19754" lon="5.72816">
        <ele>349.79998779297</ele>
        <time>2021-05-24T05:59:01.000Z</time>
      </trkpt>
      <trkpt lat="45.19756" lon="5.72819">
        <ele>348.79998779297</ele>
        <time>2021-05-24T05:59:04.000Z</time>
      </trkpt>
      <trkpt lat="45.19758" lon="5.72821">
        <ele>348.60000610352</ele>
        <time>2021-05-24T05:59:05.000Z</time>
      </trkpt>
      <trkpt lat="45.19761" lon="5.7283">
        <ele>347.20001220703</ele>
        <time>2021-05-24T05:59:09.000Z</time>
      </trkpt>
      <trkpt lat="45.19762" lon="5.72832">
        <ele>347</ele>
        <time>2021-05-24T05:59:10.000Z</time>
      </trkpt>
      <trkpt lat="45.19766" lon="5.72839">
        <ele>346.20001220703</ele>
        <time>2021-05-24T05:59:13.000Z</time>
      </trkpt>
      <trkpt lat="45.19771" lon="5.72845">
        <ele>345.39999389648</ele>
        <time>2021-05-24T05:59:16.000Z</time>
      </trkpt>
      <trkpt lat="45.19773" lon="5.72847">
        <ele>345</ele>
        <time>2021-05-24T05:59:17.000Z</time>
      </trkpt>
      <trkpt lat="45.19777" lon="5.72853">
        <ele>344</ele>
        <time>2021-05-24T05:59:19.000Z</time>
      </trkpt>
      <trkpt lat="45.19781" lon="5.72859">
        <ele>343</ele>
        <time>2021-05-24T05:59:21.000Z</time>
      </trkpt>
      <trkpt lat="45.19783" lon="5.72861">
        <ele>342.60000610352</ele>
        <time>2021-05-24T05:59:22.000Z</time>
      </trkpt>
      <trkpt lat="45.19787" lon="5.72865">
        <ele>342.20001220703</ele>
        <time>2021-05-24T05:59:24.000Z</time>
      </trkpt>
      <trkpt lat="45.19793" lon="5.72867">
        <ele>341.60000610352</ele>
        <time>2021-05-24T05:59:27.000Z</time>
      </trkpt>
      <trkpt lat="45.19794" lon="5.7287">
        <ele>341.20001220703</ele>
        <time>2021-05-24T05:59:28.000Z</time>
      </trkpt>
      <trkpt lat="45.19797" lon="5.72874">
        <ele>340.60000610352</ele>
        <time>2021-05-24T05:59:30.000Z</time>
      </trkpt>
      <trkpt lat="45.19799" lon="5.72876">
        <ele>340.20001220703</ele>
        <time>2021-05-24T05:59:31.000Z</time>
      </trkpt>
      <trkpt lat="45.19802" lon="5.72879">
        <ele>339.79998779297</ele>
        <time>2021-05-24T05:59:33.000Z</time>
      </trkpt>
      <trkpt lat="45.19798" lon="5.72881">
        <ele>339.20001220703</ele>
        <time>2021-05-24T05:59:35.000Z</time>
      </trkpt>
      <trkpt lat="45.19795" lon="5.72882">
        <ele>338.79998779297</ele>
        <time>2021-05-24T05:59:36.000Z</time>
      </trkpt>
      <trkpt lat="45.19788" lon="5.7288">
        <ele>338</ele>
        <time>2021-05-24T05:59:39.000Z</time>
      </trkpt>
      <trkpt lat="45.19785" lon="5.72876">
        <ele>337.20001220703</ele>
        <time>2021-05-24T05:59:41.000Z</time>
      </trkpt>
      <trkpt lat="45.19783" lon="5.72875">
        <ele>337</ele>
        <time>2021-05-24T05:59:42.000Z</time>
      </trkpt>
      <trkpt lat="45.19777" lon="5.72871">
        <ele>335.79998779297</ele>
        <time>2021-05-24T05:59:45.000Z</time>
      </trkpt>
      <trkpt lat="45.1977" lon="5.72871">
        <ele>335.20001220703</ele>
        <time>2021-05-24T05:59:48.000Z</time>
      </trkpt>
      <trkpt lat="45.19766" lon="5.7287">
        <ele>334.39999389648</ele>
        <time>2021-05-24T05:59:50.000Z</time>
      </trkpt>
      <trkpt lat="45.19754" lon="5.72865">
        <ele>333.20001220703</ele>
        <time>2021-05-24T05:59:54.000Z</time>
      </trkpt>
      <trkpt lat="45.19747" lon="5.72859">
        <ele>332.39999389648</ele>
        <time>2021-05-24T05:59:57.000Z</time>
      </trkpt>
      <trkpt lat="45.19745" lon="5.72857">
        <ele>332</ele>
        <time>2021-05-24T05:59:58.000Z</time>
      </trkpt>
      <trkpt lat="45.1974" lon="5.72851">
        <ele>331.20001220703</ele>
        <time>2021-05-24T06:00:02.000Z</time>
      </trkpt>
      <trkpt lat="45.19741" lon="5.7285">
        <ele>330.79998779297</ele>
        <time>2021-05-24T06:00:03.000Z</time>
      </trkpt>
      <trkpt lat="45.19745" lon="5.72849">
        <ele>330</ele>
        <time>2021-05-24T06:00:05.000Z</time>
      </trkpt>
      <trkpt lat="45.19747" lon="5.72852">
        <ele>329.60000610352</ele>
        <time>2021-05-24T06:00:06.000Z</time>
      </trkpt>
      <trkpt lat="45.1975" lon="5.72851">
        <ele>329.39999389648</ele>
        <time>2021-05-24T06:00:07.000Z</time>
      </trkpt>
      <trkpt lat="45.19755" lon="5.72854">
        <ele>328.60000610352</ele>
        <time>2021-05-24T06:00:09.000Z</time>
      </trkpt>
      <trkpt lat="45.19756" lon="5.72857">
        <ele>328.20001220703</ele>
        <time>2021-05-24T06:00:10.000Z</time>
      </trkpt>
      <trkpt lat="45.19759" lon="5.72867">
        <ele>327.39999389648</ele>
        <time>2021-05-24T06:00:13.000Z</time>
      </trkpt>
      <trkpt lat="45.1976" lon="5.72871">
        <ele>327.20001220703</ele>
        <time>2021-05-24T06:00:14.000Z</time>
      </trkpt>
      <trkpt lat="45.19764" lon="5.72878">
        <ele>326.60000610352</ele>
        <time>2021-05-24T06:00:16.000Z</time>
      </trkpt>
      <trkpt lat="45.19766" lon="5.72881">
        <ele>326.20001220703</ele>
        <time>2021-05-24T06:00:17.000Z</time>
      </trkpt>
      <trkpt lat="45.19771" lon="5.72889">
        <ele>325</ele>
        <time>2021-05-24T06:00:20.000Z</time>
      </trkpt>
      <trkpt lat="45.19774" lon="5.72892">
        <ele>324.60000610352</ele>
        <time>2021-05-24T06:00:21.000Z</time>
      </trkpt>
      <trkpt lat="45.19779" lon="5.72898">
        <ele>324</ele>
        <time>2021-05-24T06:00:24.000Z</time>
      </trkpt>
      <trkpt lat="45.1978" lon="5.729">
        <ele>323.60000610352</ele>
        <time>2021-05-24T06:00:25.000Z</time>
      </trkpt>
      <trkpt lat="45.19782" lon="5.72907">
        <ele>323.20001220703</ele>
        <time>2021-05-24T06:00:27.000Z</time>
      </trkpt>
      <trkpt lat="45.19785" lon="5.72909">
        <ele>322.79998779297</ele>
        <time>2021-05-24T06:00:28.000Z</time>
      </trkpt>
      <trkpt lat="45.1979" lon="5.72916">
        <ele>321.60000610352</ele>
        <time>2021-05-24T06:00:31.000Z</time>
      </trkpt>
      <trkpt lat="45.19794" lon="5.7292">
        <ele>320.39999389648</ele>
        <time>2021-05-24T06:00:34.000Z</time>
      </trkpt>
      <trkpt lat="45.19791" lon="5.72923">
        <ele>320</ele>
        <time>2021-05-24T06:00:36.000Z</time>
      </trkpt>
      <trkpt lat="45.19785" lon="5.72924">
        <ele>319.60000610352</ele>
        <time>2021-05-24T06:00:38.000Z</time>
      </trkpt>
      <trkpt lat="45.19783" lon="5.72924">
        <ele>319.39999389648</ele>
        <time>2021-05-24T06:00:39.000Z</time>
      </trkpt>
      <trkpt lat="45.19773" lon="5.72922">
        <ele>318.39999389648</ele>
        <time>2021-05-24T06:00:43.000Z</time>
      </trkpt>
      <trkpt lat="45.19771" lon="5.72921">
        <ele>318</ele>
        <time>2021-05-24T06:00:44.000Z</time>
      </trkpt>
      <trkpt lat="45.19766" lon="5.72921">
        <ele>317</ele>
        <time>2021-05-24T06:00:46.000Z</time>
      </trkpt>
      <trkpt lat="45.19764" lon="5.7292">
        <ele>316.79998779297</ele>
        <time>2021-05-24T06:00:47.000Z</time>
      </trkpt>
      <trkpt lat="45.19759" lon="5.72917">
        <ele>316.20001220703</ele>
        <time>2021-05-24T06:00:49.000Z</time>
      </trkpt>
      <trkpt lat="45.19756" lon="5.72915">
        <ele>315.79998779297</ele>
        <time>2021-05-24T06:00:50.000Z</time>
      </trkpt>
      <trkpt lat="45.19746" lon="5.72911">
        <ele>314.60000610352</ele>
        <time>2021-05-24T06:00:54.000Z</time>
      </trkpt>
      <trkpt lat="45.19744" lon="5.7291">
        <ele>314.39999389648</ele>
        <time>2021-05-24T06:00:55.000Z</time>
      </trkpt>
      <trkpt lat="45.19736" lon="5.72908">
        <ele>313.39999389648</ele>
        <time>2021-05-24T06:00:58.000Z</time>
      </trkpt>
      <trkpt lat="45.19728" lon="5.72905">
        <ele>312.20001220703</ele>
        <time>2021-05-24T06:01:01.000Z</time>
      </trkpt>
      <trkpt lat="45.19718" lon="5.72898">
        <ele>311.39999389648</ele>
        <time>2021-05-24T06:01:04.000Z</time>
      </trkpt>
      <trkpt lat="45.19715" lon="5.72897">
        <ele>311</ele>
        <time>2021-05-24T06:01:05.000Z</time>
      </trkpt>
      <trkpt lat="45.19708" lon="5.72893">
        <ele>310</ele>
        <time>2021-05-24T06:01:08.000Z</time>
      </trkpt>
      <trkpt lat="45.19702" lon="5.7289">
        <ele>309</ele>
        <time>2021-05-24T06:01:11.000Z</time>
      </trkpt>
      <trkpt lat="45.19699" lon="5.72888">
        <ele>308.60000610352</ele>
        <time>2021-05-24T06:01:12.000Z</time>
      </trkpt>
      <trkpt lat="45.1969" lon="5.72879">
        <ele>307.79998779297</ele>
        <time>2021-05-24T06:01:16.000Z</time>
      </trkpt>
      <trkpt lat="45.19685" lon="5.72868">
        <ele>307</ele>
        <time>2021-05-24T06:01:19.000Z</time>
      </trkpt>
      <trkpt lat="45.19687" lon="5.72865">
        <ele>306.79998779297</ele>
        <time>2021-05-24T06:01:20.000Z</time>
      </trkpt>
      <trkpt lat="45.19692" lon="5.72861">
        <ele>306.20001220703</ele>
        <time>2021-05-24T06:01:22.000Z</time>
      </trkpt>
      <trkpt lat="45.19694" lon="5.72861">
        <ele>305.79998779297</ele>
        <time>2021-05-24T06:01:23.000Z</time>
      </trkpt>
      <trkpt lat="45.19695" lon="5.72863">
        <ele>305.60000610352</ele>
        <time>2021-05-24T06:01:24.000Z</time>
      </trkpt>
      <trkpt lat="45.19698" lon="5.7287">
        <ele>304.60000610352</ele>
        <time>2021-05-24T06:01:27.000Z</time>
      </trkpt>
      <trkpt lat="45.19704" lon="5.7288">
        <ele>303.60000610352</ele>
        <time>2021-05-24T06:01:31.000Z</time>
      </trkpt>
      <trkpt lat="45.19706" lon="5.72883">
        <ele>303</ele>
        <time>2021-05-24T06:01:32.000Z</time>
      </trkpt>
      <trkpt lat="45.19711" lon="5.72891">
        <ele>301.79998779297</ele>
        <time>2021-05-24T06:01:35.000Z</time>
      </trkpt>
      <trkpt lat="45.19718" lon="5.72903">
        <ele>300.79998779297</ele>
        <time>2021-05-24T06:01:39.000Z</time>
      </trkpt>
      <trkpt lat="45.1972" lon="5.72909">
        <ele>300.39999389648</ele>
        <time>2021-05-24T06:01:41.000Z</time>
      </trkpt>
      <trkpt lat="45.19725" lon="5.72918">
        <ele>299.79998779297</ele>
        <time>2021-05-24T06:01:44.000Z</time>
      </trkpt>
      <trkpt lat="45.19731" lon="5.72929">
        <ele>298.60000610352</ele>
        <time>2021-05-24T06:01:47.000Z</time>
      </trkpt>
      <trkpt lat="45.19733" lon="5.72931">
        <ele>298.39999389648</ele>
        <time>2021-05-24T06:01:48.000Z</time>
      </trkpt>
      <trkpt lat="45.19736" lon="5.72936">
        <ele>297.60000610352</ele>
        <time>2021-05-24T06:01:51.000Z</time>
      </trkpt>
      <trkpt lat="45.19739" lon="5.7294">
        <ele>296.60000610352</ele>
        <time>2021-05-24T06:01:53.000Z</time>
      </trkpt>
      <trkpt lat="45.1974" lon="5.72942">
        <ele>296.39999389648</ele>
        <time>2021-05-24T06:01:54.000Z</time>
      </trkpt>
      <trkpt lat="45.19748" lon="5.72952">
        <ele>295.39999389648</ele>
        <time>2021-05-24T06:01:58.000Z</time>
      </trkpt>
      <trkpt lat="45.19752" lon="5.72959">
        <ele>294.39999389648</ele>
        <time>2021-05-24T06:02:01.000Z</time>
      </trkpt>
      <trkpt lat="45.19755" lon="5.72961">
        <ele>294.20001220703</ele>
        <time>2021-05-24T06:02:02.000Z</time>
      </trkpt>
      <trkpt lat="45.1976" lon="5.72968">
        <ele>293</ele>
        <time>2021-05-24T06:02:05.000Z</time>
      </trkpt>
      <trkpt lat="45.19763" lon="5.72969">
        <ele>292.60000610352</ele>
        <time>2021-05-24T06:02:06.000Z</time>
      </trkpt>
      <trkpt lat="45.19769" lon="5.72977">
        <ele>292</ele>
        <time>2021-05-24T06:02:09.000Z</time>
      </trkpt>
      <trkpt lat="45.19779" lon="5.72984">
        <ele>291.20001220703</ele>
        <time>2021-05-24T06:02:12.000Z</time>
      </trkpt>
      <trkpt lat="45.19781" lon="5.72987">
        <ele>290.79998779297</ele>
        <time>2021-05-24T06:02:13.000Z</time>
      </trkpt>
      <trkpt lat="45.19787" lon="5.72994">
        <ele>289.60000610352</ele>
        <time>2021-05-24T06:02:17.000Z</time>
      </trkpt>
      <trkpt lat="45.1979" lon="5.72996">
        <ele>289</ele>
        <time>2021-05-24T06:02:19.000Z</time>
      </trkpt>
      <trkpt lat="45.19793" lon="5.72998">
        <ele>288.60000610352</ele>
        <time>2021-05-24T06:02:20.000Z</time>
      </trkpt>
      <trkpt lat="45.19809" lon="5.73008">
        <ele>287.60000610352</ele>
        <time>2021-05-24T06:02:25.000Z</time>
      </trkpt>
      <trkpt lat="45.1981" lon="5.7301">
        <ele>287.20001220703</ele>
        <time>2021-05-24T06:02:26.000Z</time>
      </trkpt>
      <trkpt lat="45.19802" lon="5.73018">
        <ele>286.39999389648</ele>
        <time>2021-05-24T06:02:29.000Z</time>
      </trkpt>
      <trkpt lat="45.19798" lon="5.7302">
        <ele>286</ele>
        <time>2021-05-24T06:02:30.000Z</time>
      </trkpt>
      <trkpt lat="45.19787" lon="5.73018">
        <ele>285.20001220703</ele>
        <time>2021-05-24T06:02:34.000Z</time>
      </trkpt>
      <trkpt lat="45.19785" lon="5.73018">
        <ele>284.79998779297</ele>
        <time>2021-05-24T06:02:35.000Z</time>
      </trkpt>
      <trkpt lat="45.19777" lon="5.73017">
        <ele>283.79998779297</ele>
        <time>2021-05-24T06:02:38.000Z</time>
      </trkpt>
      <trkpt lat="45.19774" lon="5.73014">
        <ele>283.60000610352</ele>
        <time>2021-05-24T06:02:40.000Z</time>
      </trkpt>
      <trkpt lat="45.19769" lon="5.73013">
        <ele>283.20001220703</ele>
        <time>2021-05-24T06:02:43.000Z</time>
      </trkpt>
      <trkpt lat="45.19769" lon="5.73013">
        <ele>282.79998779297</ele>
        <time>2021-05-24T06:02:44.000Z</time>
      </trkpt>
      <trkpt lat="45.19772" lon="5.73013">
        <ele>281.39999389648</ele>
        <time>2021-05-24T06:02:47.000Z</time>
      </trkpt>
      <trkpt lat="45.19778" lon="5.73019">
        <ele>280.39999389648</ele>
        <time>2021-05-24T06:02:51.000Z</time>
      </trkpt>
      <trkpt lat="45.19782" lon="5.73018">
        <ele>280.20001220703</ele>
        <time>2021-05-24T06:02:52.000Z</time>
      </trkpt>
      <trkpt lat="45.19787" lon="5.73023">
        <ele>279.20001220703</ele>
        <time>2021-05-24T06:02:55.000Z</time>
      </trkpt>
      <trkpt lat="45.19789" lon="5.73022">
        <ele>279.20001220703</ele>
        <time>2021-05-24T06:02:56.000Z</time>
      </trkpt>
      <trkpt lat="45.19791" lon="5.73022">
        <ele>278.79998779297</ele>
        <time>2021-05-24T06:02:57.000Z</time>
      </trkpt>
      <trkpt lat="45.19793" lon="5.73023">
        <ele>278.60000610352</ele>
        <time>2021-05-24T06:02:58.000Z</time>
      </trkpt>
      <trkpt lat="45.19795" lon="5.73025">
        <ele>278.20001220703</ele>
        <time>2021-05-24T06:02:59.000Z</time>
      </trkpt>
      <trkpt lat="45.19798" lon="5.7303">
        <ele>277.79998779297</ele>
        <time>2021-05-24T06:03:01.000Z</time>
      </trkpt>
      <trkpt lat="45.19802" lon="5.73036">
        <ele>276.79998779297</ele>
        <time>2021-05-24T06:03:04.000Z</time>
      </trkpt>
      <trkpt lat="45.19801" lon="5.73037">
        <ele>276.60000610352</ele>
        <time>2021-05-24T06:03:05.000Z</time>
      </trkpt>
      <trkpt lat="45.19797" lon="5.73039">
        <ele>275.79998779297</ele>
        <time>2021-05-24T06:03:08.000Z</time>
      </trkpt>
      <trkpt lat="45.19792" lon="5.73037">
        <ele>275</ele>
        <time>2021-05-24T06:03:10.000Z</time>
      </trkpt>
      <trkpt lat="45.19789" lon="5.73037">
        <ele>274.79998779297</ele>
        <time>2021-05-24T06:03:11.000Z</time>
      </trkpt>
      <trkpt lat="45.19786" lon="5.73037">
        <ele>274.39999389648</ele>
        <time>2021-05-24T06:03:12.000Z</time>
      </trkpt>
      <trkpt lat="45.19781" lon="5.73037">
        <ele>273.60000610352</ele>
        <time>2021-05-24T06:03:14.000Z</time>
      </trkpt>
      <trkpt lat="45.19779" lon="5.73038">
        <ele>273.20001220703</ele>
        <time>2021-05-24T06:03:15.000Z</time>
      </trkpt>
      <trkpt lat="45.1977" lon="5.73042">
        <ele>272.60000610352</ele>
        <time>2021-05-24T06:03:18.000Z</time>
      </trkpt>
      <trkpt lat="45.19762" lon="5.73036">
        <ele>271.39999389648</ele>
        <time>2021-05-24T06:03:22.000Z</time>
      </trkpt>
      <trkpt lat="45.19759" lon="5.73035">
        <ele>271</ele>
        <time>2021-05-24T06:03:23.000Z</time>
      </trkpt>
      <trkpt lat="45.19757" lon="5.73037">
        <ele>270.39999389648</ele>
        <time>2021-05-24T06:03:25.000Z</time>
      </trkpt>
      <trkpt lat="45.19757" lon="5.73039">
        <ele>270.20001220703</ele>
        <time>2021-05-24T06:03:26.000Z</time>
      </trkpt>
      <trkpt lat="45.1976" lon="5.73042">
        <ele>269.20001220703</ele>
        <time>2021-05-24T06:03:29.000Z</time>
      </trkpt>
      <trkpt lat="45.19761" lon="5.73043">
        <ele>268.79998779297</ele>
        <time>2021-05-24T06:03:30.000Z</time>
      </trkpt>
      <trkpt lat="45.19763" lon="5.73047">
        <ele>268</ele>
        <time>2021-05-24T06:03:32.000Z</time>
      </trkpt>
      <trkpt lat="45.19764" lon="5.73049">
        <ele>267.60000610352</ele>
        <time>2021-05-24T06:03:33.000Z</time>
      </trkpt>
      <trkpt lat="45.19764" lon="5.73051">
        <ele>267.39999389648</ele>
        <time>2021-05-24T06:03:34.000Z</time>
      </trkpt>
      <trkpt lat="45.19768" lon="5.73055">
        <ele>266.60000610352</ele>
        <time>2021-05-24T06:03:37.000Z</time>
      </trkpt>
      <trkpt lat="45.19774" lon="5.73062">
        <ele>265.20001220703</ele>
        <time>2021-05-24T06:03:42.000Z</time>
      </trkpt>
      <trkpt lat="45.19776" lon="5.73063">
        <ele>264.79998779297</ele>
        <time>2021-05-24T06:03:43.000Z</time>
      </trkpt>
      <trkpt lat="45.19777" lon="5.73065">
        <ele>264.79998779297</ele>
        <time>2021-05-24T06:03:44.000Z</time>
      </trkpt>
      <trkpt lat="45.19777" lon="5.73066">
        <ele>264</ele>
        <time>2021-05-24T06:03:47.000Z</time>
      </trkpt>
      <trkpt lat="45.19771" lon="5.73068">
        <ele>262.79998779297</ele>
        <time>2021-05-24T06:03:50.000Z</time>
      </trkpt>
      <trkpt lat="45.19769" lon="5.73068">
        <ele>262.20001220703</ele>
        <time>2021-05-24T06:03:52.000Z</time>
      </trkpt>
      <trkpt lat="45.19768" lon="5.73067">
        <ele>262.20001220703</ele>
        <time>2021-05-24T06:03:53.000Z</time>
      </trkpt>
      <trkpt lat="45.19766" lon="5.73067">
        <ele>261.79998779297</ele>
        <time>2021-05-24T06:03:54.000Z</time>
      </trkpt>
      <trkpt lat="45.19758" lon="5.73066">
        <ele>260.39999389648</ele>
        <time>2021-05-24T06:03:58.000Z</time>
      </trkpt>
      <trkpt lat="45.19751" lon="5.73065">
        <ele>259.20001220703</ele>
        <time>2021-05-24T06:04:01.000Z</time>
      </trkpt>
      <trkpt lat="45.19748" lon="5.73065">
        <ele>258.20001220703</ele>
        <time>2021-05-24T06:04:04.000Z</time>
      </trkpt>
      <trkpt lat="45.1975" lon="5.73063">
        <ele>258</ele>
        <time>2021-05-24T06:04:05.000Z</time>
      </trkpt>
      <trkpt lat="45.19754" lon="5.73065">
        <ele>257</ele>
        <time>2021-05-24T06:04:10.000Z</time>
      </trkpt>
      <trkpt lat="45.19755" lon="5.73066">
        <ele>256.60000610352</ele>
        <time>2021-05-24T06:04:11.000Z</time>
      </trkpt>
      <trkpt lat="45.19762" lon="5.73067">
        <ele>255.60000610352</ele>
        <time>2021-05-24T06:04:15.000Z</time>
      </trkpt>
      <trkpt lat="45.19764" lon="5.73068">
        <ele>255.39999389648</ele>
        <time>2021-05-24T06:04:16.000Z</time>
      </trkpt>
      <trkpt lat="45.19768" lon="5.73071">
        <ele>255</ele>
        <time>2021-05-24T06:04:18.000Z</time>
      </trkpt>
      <trkpt lat="45.19769" lon="5.73073">
        <ele>254.19999694824</ele>
        <time>2021-05-24T06:04:19.000Z</time>
      </trkpt>
      <trkpt lat="45.19771" lon="5.73075">
        <ele>253.80000305176</ele>
        <time>2021-05-24T06:04:20.000Z</time>
      </trkpt>
      <trkpt lat="45.19775" lon="5.73078">
        <ele>253.19999694824</ele>
        <time>2021-05-24T06:04:22.000Z</time>
      </trkpt>
      <trkpt lat="45.19781" lon="5.73081">
        <ele>253</ele>
        <time>2021-05-24T06:04:24.000Z</time>
      </trkpt>
      <trkpt lat="45.19783" lon="5.73082">
        <ele>252.60000610352</ele>
        <time>2021-05-24T06:04:25.000Z</time>
      </trkpt>
      <trkpt lat="45.19785" lon="5.73083">
        <ele>252.19999694824</ele>
        <time>2021-05-24T06:04:26.000Z</time>
      </trkpt>
      <trkpt lat="45.19792" lon="5.7309">
        <ele>251.60000610352</ele>
        <time>2021-05-24T06:04:29.000Z</time>
      </trkpt>
      <trkpt lat="45.19792" lon="5.73091">
        <ele>251.19999694824</ele>
        <time>2021-05-24T06:04:30.000Z</time>
      </trkpt>
      <trkpt lat="45.19786" lon="5.73094">
        <ele>250.39999389648</ele>
        <time>2021-05-24T06:04:34.000Z</time>
      </trkpt>
      <trkpt lat="45.19784" lon="5.73095">
        <ele>249.80000305176</ele>
        <time>2021-05-24T06:04:35.000Z</time>
      </trkpt>
      <trkpt lat="45.19776" lon="5.73096">
        <ele>248.60000610352</ele>
        <time>2021-05-24T06:04:38.000Z</time>
      </trkpt>
      <trkpt lat="45.19772" lon="5.73094">
        <ele>248</ele>
        <time>2021-05-24T06:04:40.000Z</time>
      </trkpt>
      <trkpt lat="45.19768" lon="5.73094">
        <ele>247.39999389648</ele>
        <time>2021-05-24T06:04:42.000Z</time>
      </trkpt>
      <trkpt lat="45.1976" lon="5.73097">
        <ele>246.60000610352</ele>
        <time>2021-05-24T06:04:45.000Z</time>
      </trkpt>
      <trkpt lat="45.19754" lon="5.731">
        <ele>246.39999389648</ele>
        <time>2021-05-24T06:04:47.000Z</time>
      </trkpt>
      <trkpt lat="45.19753" lon="5.73101">
        <ele>246.39999389648</ele>
        <time>2021-05-24T06:04:48.000Z</time>
      </trkpt>
      <trkpt lat="45.19753" lon="5.73102">
        <ele>246</ele>
        <time>2021-05-24T06:04:49.000Z</time>
      </trkpt>
      <trkpt lat="45.19754" lon="5.73101">
        <ele>245.39999389648</ele>
        <time>2021-05-24T06:04:51.000Z</time>
      </trkpt>
      <trkpt lat="45.19755" lon="5.731">
        <ele>245</ele>
        <time>2021-05-24T06:04:52.000Z</time>
      </trkpt>
      <trkpt lat="45.19759" lon="5.73103">
        <ele>244</ele>
        <time>2021-05-24T06:04:56.000Z</time>
      </trkpt>
      <trkpt lat="45.1976" lon="5.73105">
        <ele>243.60000610352</ele>
        <time>2021-05-24T06:04:58.000Z</time>
      </trkpt>
      <trkpt lat="45.19809" lon="5.73128">
        <ele>239.80000305176</ele>
        <time>2021-05-24T06:05:11.000Z</time>
      </trkpt>
      <trkpt lat="45.19807" lon="5.73132">
        <ele>239.60000610352</ele>
        <time>2021-05-24T06:05:12.000Z</time>
      </trkpt>
      <trkpt lat="45.19802" lon="5.73135">
        <ele>238.80000305176</ele>
        <time>2021-05-24T06:05:14.000Z</time>
      </trkpt>
      <trkpt lat="45.19796" lon="5.73139">
        <ele>238.19999694824</ele>
        <time>2021-05-24T06:05:16.000Z</time>
      </trkpt>
      <trkpt lat="45.19795" lon="5.73141">
        <ele>237.60000610352</ele>
        <time>2021-05-24T06:05:18.000Z</time>
      </trkpt>
      <trkpt lat="45.19793" lon="5.73145">
        <ele>237</ele>
        <time>2021-05-24T06:05:21.000Z</time>
      </trkpt>
      <trkpt lat="45.19792" lon="5.73148">
        <ele>236.39999389648</ele>
        <time>2021-05-24T06:05:22.000Z</time>
      </trkpt>
      <trkpt lat="45.19792" lon="5.73151">
        <ele>236</ele>
        <time>2021-05-24T06:05:23.000Z</time>
      </trkpt>
      <trkpt lat="45.1979" lon="5.73154">
        <ele>235.60000610352</ele>
        <time>2021-05-24T06:05:24.000Z</time>
      </trkpt>
      <trkpt lat="45.19789" lon="5.73158">
        <ele>235.19999694824</ele>
        <time>2021-05-24T06:05:25.000Z</time>
      </trkpt>
      <trkpt lat="45.19788" lon="5.73168">
        <ele>233.60000610352</ele>
        <time>2021-05-24T06:05:28.000Z</time>
      </trkpt>
      <trkpt lat="45.19785" lon="5.73174">
        <ele>232.80000305176</ele>
        <time>2021-05-24T06:05:30.000Z</time>
      </trkpt>
      <trkpt lat="45.19785" lon="5.7318">
        <ele>232.39999389648</ele>
        <time>2021-05-24T06:05:32.000Z</time>
      </trkpt>
      <trkpt lat="45.19787" lon="5.73196">
        <ele>232</ele>
        <time>2021-05-24T06:05:37.000Z</time>
      </trkpt>
      <trkpt lat="45.19788" lon="5.7322">
        <ele>232.19999694824</ele>
        <time>2021-05-24T06:05:44.000Z</time>
      </trkpt>
      <trkpt lat="45.19786" lon="5.73236">
        <ele>232.39999389648</ele>
        <time>2021-05-24T06:05:49.000Z</time>
      </trkpt>
      <trkpt lat="45.19786" lon="5.73244">
        <ele>232.60000610352</ele>
        <time>2021-05-24T06:05:52.000Z</time>
      </trkpt>
      <trkpt lat="45.19793" lon="5.73253">
        <ele>232.80000305176</ele>
        <time>2021-05-24T06:05:57.000Z</time>
      </trkpt>
      <trkpt lat="45.19795" lon="5.73254">
        <ele>232.80000305176</ele>
        <time>2021-05-24T06:05:58.000Z</time>
      </trkpt>
      <trkpt lat="45.1981" lon="5.73259">
        <ele>232.19999694824</ele>
        <time>2021-05-24T06:06:05.000Z</time>
      </trkpt>
      <trkpt lat="45.19815" lon="5.73261">
        <ele>232</ele>
        <time>2021-05-24T06:06:07.000Z</time>
      </trkpt>
      <trkpt lat="45.19827" lon="5.73265">
        <ele>232.60000610352</ele>
        <time>2021-05-24T06:06:14.000Z</time>
      </trkpt>
      <trkpt lat="45.19839" lon="5.73266">
        <ele>232.60000610352</ele>
        <time>2021-05-24T06:06:19.000Z</time>
      </trkpt>
      <trkpt lat="45.19845" lon="5.73266">
        <ele>232.39999389648</ele>
        <time>2021-05-24T06:06:22.000Z</time>
      </trkpt>
      <trkpt lat="45.1985" lon="5.73264">
        <ele>232.60000610352</ele>
        <time>2021-05-24T06:06:25.000Z</time>
      </trkpt>
      <trkpt lat="45.19853" lon="5.73263">
        <ele>232.60000610352</ele>
        <time>2021-05-24T06:06:26.000Z</time>
      </trkpt>
      <trkpt lat="45.19856" lon="5.7326">
        <ele>232.60000610352</ele>
        <time>2021-05-24T06:06:27.000Z</time>
      </trkpt>
      <trkpt lat="45.19862" lon="5.73257">
        <ele>232.80000305176</ele>
        <time>2021-05-24T06:06:29.000Z</time>
      </trkpt>
      <trkpt lat="45.19868" lon="5.73257">
        <ele>232.80000305176</ele>
        <time>2021-05-24T06:06:31.000Z</time>
      </trkpt>
      <trkpt lat="45.19875" lon="5.73257">
        <ele>233.19999694824</ele>
        <time>2021-05-24T06:06:33.000Z</time>
      </trkpt>
      <trkpt lat="45.19894" lon="5.73261">
        <ele>233</ele>
        <time>2021-05-24T06:06:39.000Z</time>
      </trkpt>
      <trkpt lat="45.19913" lon="5.73271">
        <ele>232.80000305176</ele>
        <time>2021-05-24T06:06:45.000Z</time>
      </trkpt>
      <trkpt lat="45.19919" lon="5.73274">
        <ele>233</ele>
        <time>2021-05-24T06:06:47.000Z</time>
      </trkpt>
      <trkpt lat="45.19936" lon="5.73286">
        <ele>233</ele>
        <time>2021-05-24T06:06:53.000Z</time>
      </trkpt>
      <trkpt lat="45.19947" lon="5.73292">
        <ele>233</ele>
        <time>2021-05-24T06:06:57.000Z</time>
      </trkpt>
      <trkpt lat="45.19966" lon="5.733">
        <ele>233</ele>
        <time>2021-05-24T06:07:04.000Z</time>
      </trkpt>
      <trkpt lat="45.19971" lon="5.73303">
        <ele>233</ele>
        <time>2021-05-24T06:07:06.000Z</time>
      </trkpt>
      <trkpt lat="45.19983" lon="5.7331">
        <ele>232.80000305176</ele>
        <time>2021-05-24T06:07:12.000Z</time>
      </trkpt>
      <trkpt lat="45.20003" lon="5.7332">
        <ele>232.39999389648</ele>
        <time>2021-05-24T06:07:20.000Z</time>
      </trkpt>
      <trkpt lat="45.20006" lon="5.73321">
        <ele>232.39999389648</ele>
        <time>2021-05-24T06:07:21.000Z</time>
      </trkpt>
      <trkpt lat="45.20026" lon="5.73325">
        <ele>232.19999694824</ele>
        <time>2021-05-24T06:07:27.000Z</time>
      </trkpt>
      <trkpt lat="45.2003" lon="5.73327">
        <ele>232.19999694824</ele>
        <time>2021-05-24T06:07:29.000Z</time>
      </trkpt>
      <trkpt lat="45.20043" lon="5.73336">
        <ele>232</ele>
        <time>2021-05-24T06:07:35.000Z</time>
      </trkpt>
      <trkpt lat="45.20056" lon="5.73343">
        <ele>231.60000610352</ele>
        <time>2021-05-24T06:07:42.000Z</time>
      </trkpt>
      <trkpt lat="45.20058" lon="5.73344">
        <ele>231.80000305176</ele>
        <time>2021-05-24T06:07:43.000Z</time>
      </trkpt>
      <trkpt lat="45.20073" lon="5.7335">
        <ele>231.60000610352</ele>
        <time>2021-05-24T06:07:48.000Z</time>
      </trkpt>
      <trkpt lat="45.20085" lon="5.73356">
        <ele>231.60000610352</ele>
        <time>2021-05-24T06:07:51.000Z</time>
      </trkpt>
      <trkpt lat="45.20104" lon="5.7337">
        <ele>231.60000610352</ele>
        <time>2021-05-24T06:07:56.000Z</time>
      </trkpt>
      <trkpt lat="45.20112" lon="5.73378">
        <ele>231.60000610352</ele>
        <time>2021-05-24T06:07:58.000Z</time>
      </trkpt>
      <trkpt lat="45.20114" lon="5.7338">
        <ele>231.39999389648</ele>
        <time>2021-05-24T06:07:59.000Z</time>
      </trkpt>
      <trkpt lat="45.20118" lon="5.73383">
        <ele>231.19999694824</ele>
        <time>2021-05-24T06:08:00.000Z</time>
      </trkpt>
      <trkpt lat="45.20132" lon="5.73393">
        <ele>231</ele>
        <time>2021-05-24T06:08:05.000Z</time>
      </trkpt>
      <trkpt lat="45.20137" lon="5.73399">
        <ele>231</ele>
        <time>2021-05-24T06:08:07.000Z</time>
      </trkpt>
      <trkpt lat="45.20144" lon="5.7341">
        <ele>230.60000610352</ele>
        <time>2021-05-24T06:08:10.000Z</time>
      </trkpt>
      <trkpt lat="45.20151" lon="5.73424">
        <ele>230.39999389648</ele>
        <time>2021-05-24T06:08:14.000Z</time>
      </trkpt>
      <trkpt lat="45.2016" lon="5.73439">
        <ele>230.19999694824</ele>
        <time>2021-05-24T06:08:18.000Z</time>
      </trkpt>
      <trkpt lat="45.20168" lon="5.73454">
        <ele>229.80000305176</ele>
        <time>2021-05-24T06:08:22.000Z</time>
      </trkpt>
      <trkpt lat="45.2018" lon="5.73477">
        <ele>229.60000610352</ele>
        <time>2021-05-24T06:08:28.000Z</time>
      </trkpt>
      <trkpt lat="45.20183" lon="5.73479">
        <ele>229.80000305176</ele>
        <time>2021-05-24T06:08:29.000Z</time>
      </trkpt>
      <trkpt lat="45.20189" lon="5.73485">
        <ele>230</ele>
        <time>2021-05-24T06:08:33.000Z</time>
      </trkpt>
      <trkpt lat="45.2019" lon="5.73486">
        <ele>230</ele>
        <time>2021-05-24T06:08:34.000Z</time>
      </trkpt>
      <trkpt lat="45.20199" lon="5.73499">
        <ele>230</ele>
        <time>2021-05-24T06:08:40.000Z</time>
      </trkpt>
      <trkpt lat="45.20209" lon="5.73519">
        <ele>230.60000610352</ele>
        <time>2021-05-24T06:08:47.000Z</time>
      </trkpt>
      <trkpt lat="45.20221" lon="5.7354">
        <ele>230.80000305176</ele>
        <time>2021-05-24T06:08:53.000Z</time>
      </trkpt>
      <trkpt lat="45.20224" lon="5.73547">
        <ele>230.80000305176</ele>
        <time>2021-05-24T06:08:55.000Z</time>
      </trkpt>
      <trkpt lat="45.20228" lon="5.73562">
        <ele>231</ele>
        <time>2021-05-24T06:08:59.000Z</time>
      </trkpt>
      <trkpt lat="45.20235" lon="5.73577">
        <ele>231.19999694824</ele>
        <time>2021-05-24T06:09:03.000Z</time>
      </trkpt>
      <trkpt lat="45.20244" lon="5.736">
        <ele>230.80000305176</ele>
        <time>2021-05-24T06:09:09.000Z</time>
      </trkpt>
      <trkpt lat="45.2025" lon="5.73616">
        <ele>231</ele>
        <time>2021-05-24T06:09:13.000Z</time>
      </trkpt>
      <trkpt lat="45.20252" lon="5.73623">
        <ele>231</ele>
        <time>2021-05-24T06:09:15.000Z</time>
      </trkpt>
      <trkpt lat="45.20259" lon="5.73638">
        <ele>231.39999389648</ele>
        <time>2021-05-24T06:09:19.000Z</time>
      </trkpt>
      <trkpt lat="45.2026" lon="5.73651">
        <ele>231.39999389648</ele>
        <time>2021-05-24T06:09:22.000Z</time>
      </trkpt>
      <trkpt lat="45.20264" lon="5.7368">
        <ele>231.39999389648</ele>
        <time>2021-05-24T06:09:29.000Z</time>
      </trkpt>
      <trkpt lat="45.20269" lon="5.73705">
        <ele>231.19999694824</ele>
        <time>2021-05-24T06:09:35.000Z</time>
      </trkpt>
      <trkpt lat="45.20273" lon="5.73717">
        <ele>231.19999694824</ele>
        <time>2021-05-24T06:09:38.000Z</time>
      </trkpt>
      <trkpt lat="45.20275" lon="5.73721">
        <ele>231</ele>
        <time>2021-05-24T06:09:39.000Z</time>
      </trkpt>
      <trkpt lat="45.20279" lon="5.73747">
        <ele>231.19999694824</ele>
        <time>2021-05-24T06:09:45.000Z</time>
      </trkpt>
      <trkpt lat="45.20279" lon="5.7375">
        <ele>231.39999389648</ele>
        <time>2021-05-24T06:09:46.000Z</time>
      </trkpt>
      <trkpt lat="45.20277" lon="5.73779">
        <ele>231.60000610352</ele>
        <time>2021-05-24T06:09:53.000Z</time>
      </trkpt>
      <trkpt lat="45.20276" lon="5.73788">
        <ele>231.60000610352</ele>
        <time>2021-05-24T06:09:55.000Z</time>
      </trkpt>
      <trkpt lat="45.20269" lon="5.73813">
        <ele>231.60000610352</ele>
        <time>2021-05-24T06:10:00.000Z</time>
      </trkpt>
      <trkpt lat="45.20266" lon="5.73822">
        <ele>231.60000610352</ele>
        <time>2021-05-24T06:10:02.000Z</time>
      </trkpt>
      <trkpt lat="45.2026" lon="5.73846">
        <ele>231.80000305176</ele>
        <time>2021-05-24T06:10:08.000Z</time>
      </trkpt>
      <trkpt lat="45.20257" lon="5.73858">
        <ele>231.80000305176</ele>
        <time>2021-05-24T06:10:11.000Z</time>
      </trkpt>
      <trkpt lat="45.20252" lon="5.73885">
        <ele>231.80000305176</ele>
        <time>2021-05-24T06:10:18.000Z</time>
      </trkpt>
      <trkpt lat="45.20251" lon="5.73889">
        <ele>231.80000305176</ele>
        <time>2021-05-24T06:10:19.000Z</time>
      </trkpt>
      <trkpt lat="45.20245" lon="5.73912">
        <ele>231.80000305176</ele>
        <time>2021-05-24T06:10:25.000Z</time>
      </trkpt>
      <trkpt lat="45.20235" lon="5.73938">
        <ele>231.80000305176</ele>
        <time>2021-05-24T06:10:31.000Z</time>
      </trkpt>
      <trkpt lat="45.20232" lon="5.73947">
        <ele>231.80000305176</ele>
        <time>2021-05-24T06:10:33.000Z</time>
      </trkpt>
      <trkpt lat="45.20227" lon="5.73971">
        <ele>231.80000305176</ele>
        <time>2021-05-24T06:10:39.000Z</time>
      </trkpt>
      <trkpt lat="45.20223" lon="5.73982">
        <ele>231.80000305176</ele>
        <time>2021-05-24T06:10:42.000Z</time>
      </trkpt>
      <trkpt lat="45.20221" lon="5.73986">
        <ele>231.80000305176</ele>
        <time>2021-05-24T06:10:43.000Z</time>
      </trkpt>
      <trkpt lat="45.20212" lon="5.74001">
        <ele>231.80000305176</ele>
        <time>2021-05-24T06:10:47.000Z</time>
      </trkpt>
      <trkpt lat="45.20209" lon="5.74011">
        <ele>231.80000305176</ele>
        <time>2021-05-24T06:10:50.000Z</time>
      </trkpt>
      <trkpt lat="45.202" lon="5.74032">
        <ele>232</ele>
        <time>2021-05-24T06:10:57.000Z</time>
      </trkpt>
      <trkpt lat="45.20188" lon="5.74055">
        <ele>231.60000610352</ele>
        <time>2021-05-24T06:11:04.000Z</time>
      </trkpt>
      <trkpt lat="45.20175" lon="5.74076">
        <ele>232</ele>
        <time>2021-05-24T06:11:11.000Z</time>
      </trkpt>
      <trkpt lat="45.20172" lon="5.74082">
        <ele>232.19999694824</ele>
        <time>2021-05-24T06:11:13.000Z</time>
      </trkpt>
      <trkpt lat="45.20168" lon="5.74087">
        <ele>232.39999389648</ele>
        <time>2021-05-24T06:11:15.000Z</time>
      </trkpt>
      <trkpt lat="45.20159" lon="5.74105">
        <ele>232.80000305176</ele>
        <time>2021-05-24T06:11:21.000Z</time>
      </trkpt>
      <trkpt lat="45.20151" lon="5.74117">
        <ele>233.60000610352</ele>
        <time>2021-05-24T06:11:25.000Z</time>
      </trkpt>
      <trkpt lat="45.20146" lon="5.74125">
        <ele>234</ele>
        <time>2021-05-24T06:11:28.000Z</time>
      </trkpt>
      <trkpt lat="45.20139" lon="5.74141">
        <ele>234.80000305176</ele>
        <time>2021-05-24T06:11:32.000Z</time>
      </trkpt>
      <trkpt lat="45.20137" lon="5.74144">
        <ele>235</ele>
        <time>2021-05-24T06:11:33.000Z</time>
      </trkpt>
      <trkpt lat="45.20128" lon="5.74159">
        <ele>235.80000305176</ele>
        <time>2021-05-24T06:11:37.000Z</time>
      </trkpt>
      <trkpt lat="45.20121" lon="5.7417">
        <ele>236.60000610352</ele>
        <time>2021-05-24T06:11:41.000Z</time>
      </trkpt>
      <trkpt lat="45.20115" lon="5.74176">
        <ele>236.80000305176</ele>
        <time>2021-05-24T06:11:44.000Z</time>
      </trkpt>
      <trkpt lat="45.20112" lon="5.74179">
        <ele>236.60000610352</ele>
        <time>2021-05-24T06:11:45.000Z</time>
      </trkpt>
      <trkpt lat="45.20102" lon="5.74189">
        <ele>236.60000610352</ele>
        <time>2021-05-24T06:11:49.000Z</time>
      </trkpt>
      <trkpt lat="45.20095" lon="5.74189">
        <ele>236.80000305176</ele>
        <time>2021-05-24T06:11:51.000Z</time>
      </trkpt>
      <trkpt lat="45.20092" lon="5.74186">
        <ele>236.60000610352</ele>
        <time>2021-05-24T06:11:52.000Z</time>
      </trkpt>
      <trkpt lat="45.20077" lon="5.74168">
        <ele>236.39999389648</ele>
        <time>2021-05-24T06:11:59.000Z</time>
      </trkpt>
      <trkpt lat="45.20074" lon="5.74166">
        <ele>236.60000610352</ele>
        <time>2021-05-24T06:12:00.000Z</time>
      </trkpt>
      <trkpt lat="45.20065" lon="5.74156">
        <ele>237</ele>
        <time>2021-05-24T06:12:04.000Z</time>
      </trkpt>
      <trkpt lat="45.20058" lon="5.74146">
        <ele>236.80000305176</ele>
        <time>2021-05-24T06:12:07.000Z</time>
      </trkpt>
      <trkpt lat="45.20051" lon="5.74137">
        <ele>236.80000305176</ele>
        <time>2021-05-24T06:12:10.000Z</time>
      </trkpt>
      <trkpt lat="45.20043" lon="5.74128">
        <ele>236.80000305176</ele>
        <time>2021-05-24T06:12:13.000Z</time>
      </trkpt>
      <trkpt lat="45.20029" lon="5.74109">
        <ele>236.80000305176</ele>
        <time>2021-05-24T06:12:19.000Z</time>
      </trkpt>
      <trkpt lat="45.2002" lon="5.74097">
        <ele>236.60000610352</ele>
        <time>2021-05-24T06:12:23.000Z</time>
      </trkpt>
      <trkpt lat="45.20007" lon="5.74087">
        <ele>236.19999694824</ele>
        <time>2021-05-24T06:12:29.000Z</time>
      </trkpt>
      <trkpt lat="45.20004" lon="5.7409">
        <ele>235.80000305176</ele>
        <time>2021-05-24T06:12:31.000Z</time>
      </trkpt>
      <trkpt lat="45.20002" lon="5.74095">
        <ele>235.39999389648</ele>
        <time>2021-05-24T06:12:33.000Z</time>
      </trkpt>
      <trkpt lat="45.2" lon="5.74099">
        <ele>235.19999694824</ele>
        <time>2021-05-24T06:12:34.000Z</time>
      </trkpt>
      <trkpt lat="45.19996" lon="5.74113">
        <ele>234.60000610352</ele>
        <time>2021-05-24T06:12:38.000Z</time>
      </trkpt>
      <trkpt lat="45.19992" lon="5.74125">
        <ele>234</ele>
        <time>2021-05-24T06:12:41.000Z</time>
      </trkpt>
      <trkpt lat="45.19989" lon="5.74132">
        <ele>233.39999389648</ele>
        <time>2021-05-24T06:12:43.000Z</time>
      </trkpt>
      <trkpt lat="45.19974" lon="5.74149">
        <ele>233</ele>
        <time>2021-05-24T06:12:48.000Z</time>
      </trkpt>
      <trkpt lat="45.19968" lon="5.74155">
        <ele>233</ele>
        <time>2021-05-24T06:12:50.000Z</time>
      </trkpt>
      <trkpt lat="45.1995" lon="5.74169">
        <ele>232.60000610352</ele>
        <time>2021-05-24T06:12:56.000Z</time>
      </trkpt>
      <trkpt lat="45.19947" lon="5.74171">
        <ele>232.60000610352</ele>
        <time>2021-05-24T06:12:57.000Z</time>
      </trkpt>
      <trkpt lat="45.19928" lon="5.74183">
        <ele>232.80000305176</ele>
        <time>2021-05-24T06:13:03.000Z</time>
      </trkpt>
      <trkpt lat="45.19919" lon="5.74189">
        <ele>232.80000305176</ele>
        <time>2021-05-24T06:13:06.000Z</time>
      </trkpt>
      <trkpt lat="45.19916" lon="5.74192">
        <ele>232.80000305176</ele>
        <time>2021-05-24T06:13:07.000Z</time>
      </trkpt>
      <trkpt lat="45.19905" lon="5.74199">
        <ele>232.80000305176</ele>
        <time>2021-05-24T06:13:11.000Z</time>
      </trkpt>
      <trkpt lat="45.19895" lon="5.74204">
        <ele>233</ele>
        <time>2021-05-24T06:13:14.000Z</time>
      </trkpt>
      <trkpt lat="45.19878" lon="5.74212">
        <ele>233</ele>
        <time>2021-05-24T06:13:19.000Z</time>
      </trkpt>
      <trkpt lat="45.19869" lon="5.74215">
        <ele>232.80000305176</ele>
        <time>2021-05-24T06:13:22.000Z</time>
      </trkpt>
      <trkpt lat="45.19852" lon="5.74222">
        <ele>232.80000305176</ele>
        <time>2021-05-24T06:13:27.000Z</time>
      </trkpt>
      <trkpt lat="45.19833" lon="5.7423">
        <ele>232.60000610352</ele>
        <time>2021-05-24T06:13:32.000Z</time>
      </trkpt>
      <trkpt lat="45.19824" lon="5.74233">
        <ele>232.60000610352</ele>
        <time>2021-05-24T06:13:34.000Z</time>
      </trkpt>
      <trkpt lat="45.19805" lon="5.74239">
        <ele>233.19999694824</ele>
        <time>2021-05-24T06:13:39.000Z</time>
      </trkpt>
      <trkpt lat="45.19787" lon="5.74244">
        <ele>232.60000610352</ele>
        <time>2021-05-24T06:13:44.000Z</time>
      </trkpt>
      <trkpt lat="45.19767" lon="5.74248">
        <ele>232.80000305176</ele>
        <time>2021-05-24T06:13:49.000Z</time>
      </trkpt>
      <trkpt lat="45.19758" lon="5.74249">
        <ele>232.80000305176</ele>
        <time>2021-05-24T06:13:51.000Z</time>
      </trkpt>
      <trkpt lat="45.19755" lon="5.74249">
        <ele>232.80000305176</ele>
        <time>2021-05-24T06:13:52.000Z</time>
      </trkpt>
      <trkpt lat="45.19734" lon="5.74251">
        <ele>233</ele>
        <time>2021-05-24T06:13:57.000Z</time>
      </trkpt>
      <trkpt lat="45.19729" lon="5.74248">
        <ele>232.60000610352</ele>
        <time>2021-05-24T06:13:59.000Z</time>
      </trkpt>
      <trkpt lat="45.19728" lon="5.74247">
        <ele>232.39999389648</ele>
        <time>2021-05-24T06:14:00.000Z</time>
      </trkpt>
      <trkpt lat="45.19727" lon="5.74245">
        <ele>232</ele>
        <time>2021-05-24T06:14:01.000Z</time>
      </trkpt>
      <trkpt lat="45.19725" lon="5.74241">
        <ele>231.80000305176</ele>
        <time>2021-05-24T06:14:02.000Z</time>
      </trkpt>
      <trkpt lat="45.19723" lon="5.74237">
        <ele>231.19999694824</ele>
        <time>2021-05-24T06:14:04.000Z</time>
      </trkpt>
      <trkpt lat="45.19723" lon="5.74221">
        <ele>231</ele>
        <time>2021-05-24T06:14:08.000Z</time>
      </trkpt>
      <trkpt lat="45.1972" lon="5.74197">
        <ele>230.80000305176</ele>
        <time>2021-05-24T06:14:14.000Z</time>
      </trkpt>
      <trkpt lat="45.19714" lon="5.74169">
        <ele>230.80000305176</ele>
        <time>2021-05-24T06:14:21.000Z</time>
      </trkpt>
      <trkpt lat="45.19713" lon="5.74155">
        <ele>231</ele>
        <time>2021-05-24T06:14:25.000Z</time>
      </trkpt>
      <trkpt lat="45.19711" lon="5.74144">
        <ele>231</ele>
        <time>2021-05-24T06:14:28.000Z</time>
      </trkpt>
      <trkpt lat="45.19707" lon="5.74125">
        <ele>231</ele>
        <time>2021-05-24T06:14:33.000Z</time>
      </trkpt>
      <trkpt lat="45.19703" lon="5.74106">
        <ele>231.19999694824</ele>
        <time>2021-05-24T06:14:38.000Z</time>
      </trkpt>
      <trkpt lat="45.19699" lon="5.74093">
        <ele>231.19999694824</ele>
        <time>2021-05-24T06:14:41.000Z</time>
      </trkpt>
      <trkpt lat="45.19697" lon="5.74084">
        <ele>231.19999694824</ele>
        <time>2021-05-24T06:14:43.000Z</time>
      </trkpt>
      <trkpt lat="45.19694" lon="5.74069">
        <ele>231.19999694824</ele>
        <time>2021-05-24T06:14:46.000Z</time>
      </trkpt>
      <trkpt lat="45.19695" lon="5.74059">
        <ele>231.19999694824</ele>
        <time>2021-05-24T06:14:49.000Z</time>
      </trkpt>
      <trkpt lat="45.19696" lon="5.74037">
        <ele>231.19999694824</ele>
        <time>2021-05-24T06:14:54.000Z</time>
      </trkpt>
      <trkpt lat="45.19691" lon="5.74016">
        <ele>231.19999694824</ele>
        <time>2021-05-24T06:14:59.000Z</time>
      </trkpt>
      <trkpt lat="45.1969" lon="5.74009">
        <ele>231.19999694824</ele>
        <time>2021-05-24T06:15:01.000Z</time>
      </trkpt>
      <trkpt lat="45.19686" lon="5.74006">
        <ele>231.19999694824</ele>
        <time>2021-05-24T06:15:03.000Z</time>
      </trkpt>
      <trkpt lat="45.19665" lon="5.74004">
        <ele>231.19999694824</ele>
        <time>2021-05-24T06:15:09.000Z</time>
      </trkpt>
      <trkpt lat="45.19662" lon="5.74005">
        <ele>231.19999694824</ele>
        <time>2021-05-24T06:15:10.000Z</time>
      </trkpt>
      <trkpt lat="45.19643" lon="5.74009">
        <ele>231.19999694824</ele>
        <time>2021-05-24T06:15:14.000Z</time>
      </trkpt>
      <trkpt lat="45.1963" lon="5.74011">
        <ele>230.80000305176</ele>
        <time>2021-05-24T06:15:17.000Z</time>
      </trkpt>
      <trkpt lat="45.19614" lon="5.74005">
        <ele>230.60000610352</ele>
        <time>2021-05-24T06:15:23.000Z</time>
      </trkpt>
      <trkpt lat="45.19612" lon="5.73997">
        <ele>230.80000305176</ele>
        <time>2021-05-24T06:15:25.000Z</time>
      </trkpt>
      <trkpt lat="45.19612" lon="5.73991">
        <ele>230.80000305176</ele>
        <time>2021-05-24T06:15:27.000Z</time>
      </trkpt>
      <trkpt lat="45.19614" lon="5.73978">
        <ele>230.80000305176</ele>
        <time>2021-05-24T06:15:31.000Z</time>
      </trkpt>
      <trkpt lat="45.19617" lon="5.73973">
        <ele>230.80000305176</ele>
        <time>2021-05-24T06:15:33.000Z</time>
      </trkpt>
      <trkpt lat="45.19629" lon="5.73969">
        <ele>231</ele>
        <time>2021-05-24T06:15:39.000Z</time>
      </trkpt>
      <trkpt lat="45.19636" lon="5.7397">
        <ele>231.19999694824</ele>
        <time>2021-05-24T06:15:43.000Z</time>
      </trkpt>
      <trkpt lat="45.19638" lon="5.73971">
        <ele>231.19999694824</ele>
        <time>2021-05-24T06:15:46.000Z</time>
      </trkpt>
      <trkpt lat="45.19634" lon="5.73977">
        <ele>231.19999694824</ele>
        <time>2021-05-24T06:15:50.000Z</time>
      </trkpt>
      <trkpt lat="45.1964" lon="5.73978">
        <ele>231.80000305176</ele>
        <time>2021-05-24T06:15:58.000Z</time>
      </trkpt>
      <trkpt lat="45.19643" lon="5.73979">
        <ele>232.39999389648</ele>
        <time>2021-05-24T06:16:00.000Z</time>
      </trkpt>
      <trkpt lat="45.19641" lon="5.7398">
        <ele>233.60000610352</ele>
        <time>2021-05-24T06:16:03.000Z</time>
      </trkpt>
      <trkpt lat="45.1964" lon="5.73982">
        <ele>234</ele>
        <time>2021-05-24T06:16:07.000Z</time>
      </trkpt>
      <trkpt lat="45.19642" lon="5.73983">
        <ele>234.19999694824</ele>
        <time>2021-05-24T06:16:08.000Z</time>
      </trkpt>
      <trkpt lat="45.19645" lon="5.73983">
        <ele>235</ele>
        <time>2021-05-24T06:16:10.000Z</time>
      </trkpt>
      <trkpt lat="45.19645" lon="5.73982">
        <ele>235.39999389648</ele>
        <time>2021-05-24T06:16:11.000Z</time>
      </trkpt>
      <trkpt lat="45.19646" lon="5.73981">
        <ele>236</ele>
        <time>2021-05-24T06:16:13.000Z</time>
      </trkpt>
      <trkpt lat="45.19645" lon="5.73976">
        <ele>236.39999389648</ele>
        <time>2021-05-24T06:16:15.000Z</time>
      </trkpt>
      <trkpt lat="45.19644" lon="5.73974">
        <ele>236.60000610352</ele>
        <time>2021-05-24T06:16:17.000Z</time>
      </trkpt>
      <trkpt lat="45.19644" lon="5.73974">
        <ele>236.60000610352</ele>
        <time>2021-05-24T06:16:18.000Z</time>
      </trkpt>
      <trkpt lat="45.19644" lon="5.73974">
        <ele>237</ele>
        <time>2021-05-24T06:16:19.000Z</time>
      </trkpt>
      <trkpt lat="45.19643" lon="5.73975">
        <ele>237.39999389648</ele>
        <time>2021-05-24T06:16:20.000Z</time>
      </trkpt>
      <trkpt lat="45.19643" lon="5.73974">
        <ele>238.19999694824</ele>
        <time>2021-05-24T06:16:22.000Z</time>
      </trkpt>
      <trkpt lat="45.19643" lon="5.73974">
        <ele>238.80000305176</ele>
        <time>2021-05-24T06:16:24.000Z</time>
      </trkpt>
      <trkpt lat="45.19642" lon="5.73974">
        <ele>239</ele>
        <time>2021-05-24T06:16:25.000Z</time>
      </trkpt>
      <trkpt lat="45.19642" lon="5.73974">
        <ele>239.19999694824</ele>
        <time>2021-05-24T06:16:26.000Z</time>
      </trkpt>
      <trkpt lat="45.19644" lon="5.73971">
        <ele>239.19999694824</ele>
        <time>2021-05-24T06:16:28.000Z</time>
      </trkpt>
      <trkpt lat="45.19646" lon="5.7397">
        <ele>239.19999694824</ele>
        <time>2021-05-24T06:16:30.000Z</time>
      </trkpt>
      <trkpt lat="45.19649" lon="5.73972">
        <ele>239.39999389648</ele>
        <time>2021-05-24T06:16:32.000Z</time>
      </trkpt>
      <trkpt lat="45.19654" lon="5.73974">
        <ele>239.60000610352</ele>
        <time>2021-05-24T06:16:36.000Z</time>
      </trkpt>
      <trkpt lat="45.19655" lon="5.73974">
        <ele>239.60000610352</ele>
        <time>2021-05-24T06:16:37.000Z</time>
      </trkpt>
      <trkpt lat="45.19658" lon="5.73974">
        <ele>239.39999389648</ele>
        <time>2021-05-24T06:16:39.000Z</time>
      </trkpt>
    </trkseg>
  </trk>
</gpx>